<?xml version="1.0" encoding="UTF-8" standalone="no" ?>
<gpx xmlns="http://www.topografix.com/GPX/1/1" xmlns:xsi="http://www.w3.org/2001/XMLSchema-instance" xsi:schemaLocation="http://www.topografix.com/GPX/1/1 http://www.topografix.com/GPX/1/1/gpx.xsd" version="1.1" creator="VisuGPX - https://www.visugpx.com">
  <metadata>
    <name>essai vtt àgarder</name>
    <desc><![CDATA[pour mémoire]]></desc>
  </metadata>
  <trk>
    <name><![CDATA[Untitled]]></name>
    <trkseg>
      <trkpt lat="47.56928" lon="5.95032">
        <ele>244.19999694824</ele>
        <time>2014-03-09T09:15:12.000Z</time>
      </trkpt>
      <trkpt lat="47.56928" lon="5.95032">
        <ele>244.19999694824</ele>
        <time>2014-03-09T09:15:13.000Z</time>
      </trkpt>
      <trkpt lat="47.56931" lon="5.95032">
        <ele>244.39999389648</ele>
        <time>2014-03-09T09:15:19.000Z</time>
      </trkpt>
      <trkpt lat="47.56941" lon="5.95043">
        <ele>244.39999389648</ele>
        <time>2014-03-09T09:15:21.000Z</time>
      </trkpt>
      <trkpt lat="47.56941" lon="5.95043">
        <ele>244.39999389648</ele>
        <time>2014-03-09T09:15:23.000Z</time>
      </trkpt>
      <trkpt lat="47.56946" lon="5.95063">
        <ele>244</ele>
        <time>2014-03-09T09:15:26.000Z</time>
      </trkpt>
      <trkpt lat="47.56956" lon="5.95081">
        <ele>242</ele>
        <time>2014-03-09T09:15:27.000Z</time>
      </trkpt>
      <trkpt lat="47.5696" lon="5.95083">
        <ele>241.39999389648</ele>
        <time>2014-03-09T09:15:30.000Z</time>
      </trkpt>
      <trkpt lat="47.56965" lon="5.95085">
        <ele>240.80000305176</ele>
        <time>2014-03-09T09:15:31.000Z</time>
      </trkpt>
      <trkpt lat="47.56979" lon="5.95076">
        <ele>239.80000305176</ele>
        <time>2014-03-09T09:15:32.000Z</time>
      </trkpt>
      <trkpt lat="47.56979" lon="5.95076">
        <ele>239.80000305176</ele>
        <time>2014-03-09T09:15:34.000Z</time>
      </trkpt>
      <trkpt lat="47.56981" lon="5.95071">
        <ele>239.80000305176</ele>
        <time>2014-03-09T09:15:35.000Z</time>
      </trkpt>
      <trkpt lat="47.56985" lon="5.9506">
        <ele>239.80000305176</ele>
        <time>2014-03-09T09:15:37.000Z</time>
      </trkpt>
      <trkpt lat="47.56989" lon="5.95048">
        <ele>239.80000305176</ele>
        <time>2014-03-09T09:15:39.000Z</time>
      </trkpt>
      <trkpt lat="47.56999" lon="5.95035">
        <ele>239.80000305176</ele>
        <time>2014-03-09T09:15:42.000Z</time>
      </trkpt>
      <trkpt lat="47.57003" lon="5.95032">
        <ele>239.80000305176</ele>
        <time>2014-03-09T09:15:43.000Z</time>
      </trkpt>
      <trkpt lat="47.57021" lon="5.95014">
        <ele>239.80000305176</ele>
        <time>2014-03-09T09:15:49.000Z</time>
      </trkpt>
      <trkpt lat="47.57031" lon="5.95006">
        <ele>240.19999694824</ele>
        <time>2014-03-09T09:15:53.000Z</time>
      </trkpt>
      <trkpt lat="47.57033" lon="5.95004">
        <ele>240.60000610352</ele>
        <time>2014-03-09T09:15:54.000Z</time>
      </trkpt>
      <trkpt lat="47.57035" lon="5.95002">
        <ele>241</ele>
        <time>2014-03-09T09:15:55.000Z</time>
      </trkpt>
      <trkpt lat="47.57037" lon="5.95">
        <ele>241.39999389648</ele>
        <time>2014-03-09T09:15:56.000Z</time>
      </trkpt>
      <trkpt lat="47.57039" lon="5.94998">
        <ele>241.80000305176</ele>
        <time>2014-03-09T09:15:57.000Z</time>
      </trkpt>
      <trkpt lat="47.57048" lon="5.94993">
        <ele>242.19999694824</ele>
        <time>2014-03-09T09:16:01.000Z</time>
      </trkpt>
      <trkpt lat="47.5705" lon="5.94991">
        <ele>242.80000305176</ele>
        <time>2014-03-09T09:16:02.000Z</time>
      </trkpt>
      <trkpt lat="47.57053" lon="5.9499">
        <ele>243.19999694824</ele>
        <time>2014-03-09T09:16:03.000Z</time>
      </trkpt>
      <trkpt lat="47.57055" lon="5.94988">
        <ele>243.60000610352</ele>
        <time>2014-03-09T09:16:04.000Z</time>
      </trkpt>
      <trkpt lat="47.57058" lon="5.94987">
        <ele>244</ele>
        <time>2014-03-09T09:16:05.000Z</time>
      </trkpt>
      <trkpt lat="47.57068" lon="5.94979">
        <ele>244.39999389648</ele>
        <time>2014-03-09T09:16:10.000Z</time>
      </trkpt>
      <trkpt lat="47.57069" lon="5.94978">
        <ele>244.80000305176</ele>
        <time>2014-03-09T09:16:11.000Z</time>
      </trkpt>
      <trkpt lat="47.5707" lon="5.94976">
        <ele>245.19999694824</ele>
        <time>2014-03-09T09:16:12.000Z</time>
      </trkpt>
      <trkpt lat="47.5707" lon="5.94974">
        <ele>245.60000610352</ele>
        <time>2014-03-09T09:16:13.000Z</time>
      </trkpt>
      <trkpt lat="47.57071" lon="5.94973">
        <ele>246</ele>
        <time>2014-03-09T09:16:14.000Z</time>
      </trkpt>
      <trkpt lat="47.5707" lon="5.94963">
        <ele>246</ele>
        <time>2014-03-09T09:16:19.000Z</time>
      </trkpt>
      <trkpt lat="47.57067" lon="5.94944">
        <ele>246</ele>
        <time>2014-03-09T09:16:24.000Z</time>
      </trkpt>
      <trkpt lat="47.5706" lon="5.94924">
        <ele>246.39999389648</ele>
        <time>2014-03-09T09:16:29.000Z</time>
      </trkpt>
      <trkpt lat="47.57059" lon="5.9492">
        <ele>246.80000305176</ele>
        <time>2014-03-09T09:16:30.000Z</time>
      </trkpt>
      <trkpt lat="47.57057" lon="5.94915">
        <ele>247.19999694824</ele>
        <time>2014-03-09T09:16:31.000Z</time>
      </trkpt>
      <trkpt lat="47.57056" lon="5.94911">
        <ele>247.60000610352</ele>
        <time>2014-03-09T09:16:32.000Z</time>
      </trkpt>
      <trkpt lat="47.57055" lon="5.94906">
        <ele>248</ele>
        <time>2014-03-09T09:16:33.000Z</time>
      </trkpt>
      <trkpt lat="47.57056" lon="5.94881">
        <ele>248</ele>
        <time>2014-03-09T09:16:38.000Z</time>
      </trkpt>
      <trkpt lat="47.57058" lon="5.94852">
        <ele>248</ele>
        <time>2014-03-09T09:16:45.000Z</time>
      </trkpt>
      <trkpt lat="47.57059" lon="5.94847">
        <ele>248.60000610352</ele>
        <time>2014-03-09T09:16:47.000Z</time>
      </trkpt>
      <trkpt lat="47.57059" lon="5.94847">
        <ele>249</ele>
        <time>2014-03-09T09:16:48.000Z</time>
      </trkpt>
      <trkpt lat="47.57059" lon="5.94843">
        <ele>250.19999694824</ele>
        <time>2014-03-09T09:22:06.000Z</time>
      </trkpt>
      <trkpt lat="47.5706" lon="5.94841">
        <ele>250.19999694824</ele>
        <time>2014-03-09T09:22:07.000Z</time>
      </trkpt>
      <trkpt lat="47.57059" lon="5.94839">
        <ele>250.19999694824</ele>
        <time>2014-03-09T09:22:08.000Z</time>
      </trkpt>
      <trkpt lat="47.57059" lon="5.94827">
        <ele>250.19999694824</ele>
        <time>2014-03-09T09:22:12.000Z</time>
      </trkpt>
      <trkpt lat="47.57059" lon="5.94795">
        <ele>250.19999694824</ele>
        <time>2014-03-09T09:22:19.000Z</time>
      </trkpt>
      <trkpt lat="47.57054" lon="5.94746">
        <ele>250.19999694824</ele>
        <time>2014-03-09T09:22:28.000Z</time>
      </trkpt>
      <trkpt lat="47.57044" lon="5.94689">
        <ele>250.19999694824</ele>
        <time>2014-03-09T09:22:38.000Z</time>
      </trkpt>
      <trkpt lat="47.57041" lon="5.94648">
        <ele>250.19999694824</ele>
        <time>2014-03-09T09:22:45.000Z</time>
      </trkpt>
      <trkpt lat="47.57043" lon="5.94615">
        <ele>250.19999694824</ele>
        <time>2014-03-09T09:22:51.000Z</time>
      </trkpt>
      <trkpt lat="47.57048" lon="5.94576">
        <ele>250.19999694824</ele>
        <time>2014-03-09T09:22:59.000Z</time>
      </trkpt>
      <trkpt lat="47.57049" lon="5.94572">
        <ele>250.60000610352</ele>
        <time>2014-03-09T09:23:00.000Z</time>
      </trkpt>
      <trkpt lat="47.57049" lon="5.94567">
        <ele>251</ele>
        <time>2014-03-09T09:23:01.000Z</time>
      </trkpt>
      <trkpt lat="47.5705" lon="5.94563">
        <ele>251.39999389648</ele>
        <time>2014-03-09T09:23:02.000Z</time>
      </trkpt>
      <trkpt lat="47.57051" lon="5.94558">
        <ele>251.80000305176</ele>
        <time>2014-03-09T09:23:03.000Z</time>
      </trkpt>
      <trkpt lat="47.57051" lon="5.94554">
        <ele>252.19999694824</ele>
        <time>2014-03-09T09:23:04.000Z</time>
      </trkpt>
      <trkpt lat="47.57053" lon="5.9454">
        <ele>252.19999694824</ele>
        <time>2014-03-09T09:23:07.000Z</time>
      </trkpt>
      <trkpt lat="47.57059" lon="5.94511">
        <ele>252.60000610352</ele>
        <time>2014-03-09T09:23:13.000Z</time>
      </trkpt>
      <trkpt lat="47.5706" lon="5.94506">
        <ele>253</ele>
        <time>2014-03-09T09:23:14.000Z</time>
      </trkpt>
      <trkpt lat="47.57061" lon="5.94502">
        <ele>253.60000610352</ele>
        <time>2014-03-09T09:23:15.000Z</time>
      </trkpt>
      <trkpt lat="47.57061" lon="5.94497">
        <ele>254</ele>
        <time>2014-03-09T09:23:16.000Z</time>
      </trkpt>
      <trkpt lat="47.57062" lon="5.94493">
        <ele>254.39999389648</ele>
        <time>2014-03-09T09:23:17.000Z</time>
      </trkpt>
      <trkpt lat="47.57067" lon="5.94465">
        <ele>254.39999389648</ele>
        <time>2014-03-09T09:23:23.000Z</time>
      </trkpt>
      <trkpt lat="47.57071" lon="5.94431">
        <ele>254.80000305176</ele>
        <time>2014-03-09T09:23:30.000Z</time>
      </trkpt>
      <trkpt lat="47.57071" lon="5.94426">
        <ele>255.19999694824</ele>
        <time>2014-03-09T09:23:31.000Z</time>
      </trkpt>
      <trkpt lat="47.57072" lon="5.94421">
        <ele>255.60000610352</ele>
        <time>2014-03-09T09:23:32.000Z</time>
      </trkpt>
      <trkpt lat="47.57073" lon="5.94416">
        <ele>256.20001220703</ele>
        <time>2014-03-09T09:23:33.000Z</time>
      </trkpt>
      <trkpt lat="47.57073" lon="5.94412">
        <ele>256.60000610352</ele>
        <time>2014-03-09T09:23:34.000Z</time>
      </trkpt>
      <trkpt lat="47.57076" lon="5.94378">
        <ele>256.60000610352</ele>
        <time>2014-03-09T09:23:41.000Z</time>
      </trkpt>
      <trkpt lat="47.57078" lon="5.94328">
        <ele>257</ele>
        <time>2014-03-09T09:23:51.000Z</time>
      </trkpt>
      <trkpt lat="47.57078" lon="5.94324">
        <ele>257.39999389648</ele>
        <time>2014-03-09T09:23:52.000Z</time>
      </trkpt>
      <trkpt lat="47.57078" lon="5.94319">
        <ele>257.79998779297</ele>
        <time>2014-03-09T09:23:53.000Z</time>
      </trkpt>
      <trkpt lat="47.57079" lon="5.94314">
        <ele>258.20001220703</ele>
        <time>2014-03-09T09:23:54.000Z</time>
      </trkpt>
      <trkpt lat="47.57079" lon="5.94309">
        <ele>258.60000610352</ele>
        <time>2014-03-09T09:23:55.000Z</time>
      </trkpt>
      <trkpt lat="47.57082" lon="5.94284">
        <ele>258.60000610352</ele>
        <time>2014-03-09T09:24:00.000Z</time>
      </trkpt>
      <trkpt lat="47.57085" lon="5.94249">
        <ele>258.60000610352</ele>
        <time>2014-03-09T09:24:07.000Z</time>
      </trkpt>
      <trkpt lat="47.57087" lon="5.94233">
        <ele>259</ele>
        <time>2014-03-09T09:24:10.000Z</time>
      </trkpt>
      <trkpt lat="47.57087" lon="5.94228">
        <ele>259.39999389648</ele>
        <time>2014-03-09T09:24:11.000Z</time>
      </trkpt>
      <trkpt lat="47.57087" lon="5.94223">
        <ele>259.79998779297</ele>
        <time>2014-03-09T09:24:12.000Z</time>
      </trkpt>
      <trkpt lat="47.57088" lon="5.94218">
        <ele>260.20001220703</ele>
        <time>2014-03-09T09:24:13.000Z</time>
      </trkpt>
      <trkpt lat="47.57088" lon="5.94214">
        <ele>260.60000610352</ele>
        <time>2014-03-09T09:24:14.000Z</time>
      </trkpt>
      <trkpt lat="47.57089" lon="5.94209">
        <ele>260.60000610352</ele>
        <time>2014-03-09T09:24:15.000Z</time>
      </trkpt>
      <trkpt lat="47.5709" lon="5.94199">
        <ele>260.60000610352</ele>
        <time>2014-03-09T09:24:17.000Z</time>
      </trkpt>
      <trkpt lat="47.57095" lon="5.94155">
        <ele>260.60000610352</ele>
        <time>2014-03-09T09:24:25.000Z</time>
      </trkpt>
      <trkpt lat="47.57105" lon="5.94102">
        <ele>260.60000610352</ele>
        <time>2014-03-09T09:24:32.000Z</time>
      </trkpt>
      <trkpt lat="47.57108" lon="5.94085">
        <ele>260.20001220703</ele>
        <time>2014-03-09T09:24:34.000Z</time>
      </trkpt>
      <trkpt lat="47.5711" lon="5.94076">
        <ele>259.79998779297</ele>
        <time>2014-03-09T09:24:35.000Z</time>
      </trkpt>
      <trkpt lat="47.57112" lon="5.94068">
        <ele>259.39999389648</ele>
        <time>2014-03-09T09:24:36.000Z</time>
      </trkpt>
      <trkpt lat="47.57114" lon="5.94059">
        <ele>259</ele>
        <time>2014-03-09T09:24:37.000Z</time>
      </trkpt>
      <trkpt lat="47.57116" lon="5.94049">
        <ele>258.60000610352</ele>
        <time>2014-03-09T09:24:38.000Z</time>
      </trkpt>
      <trkpt lat="47.57118" lon="5.9404">
        <ele>258.20001220703</ele>
        <time>2014-03-09T09:24:39.000Z</time>
      </trkpt>
      <trkpt lat="47.5712" lon="5.94029">
        <ele>257.79998779297</ele>
        <time>2014-03-09T09:24:40.000Z</time>
      </trkpt>
      <trkpt lat="47.57122" lon="5.94019">
        <ele>257.39999389648</ele>
        <time>2014-03-09T09:24:41.000Z</time>
      </trkpt>
      <trkpt lat="47.57124" lon="5.94009">
        <ele>257</ele>
        <time>2014-03-09T09:24:42.000Z</time>
      </trkpt>
      <trkpt lat="47.57127" lon="5.93998">
        <ele>256.60000610352</ele>
        <time>2014-03-09T09:24:43.000Z</time>
      </trkpt>
      <trkpt lat="47.57131" lon="5.93977">
        <ele>256.20001220703</ele>
        <time>2014-03-09T09:24:45.000Z</time>
      </trkpt>
      <trkpt lat="47.57132" lon="5.93966">
        <ele>255.60000610352</ele>
        <time>2014-03-09T09:24:46.000Z</time>
      </trkpt>
      <trkpt lat="47.57133" lon="5.93954">
        <ele>255.19999694824</ele>
        <time>2014-03-09T09:24:47.000Z</time>
      </trkpt>
      <trkpt lat="47.57134" lon="5.93942">
        <ele>254.80000305176</ele>
        <time>2014-03-09T09:24:48.000Z</time>
      </trkpt>
      <trkpt lat="47.57133" lon="5.93931">
        <ele>254.39999389648</ele>
        <time>2014-03-09T09:24:49.000Z</time>
      </trkpt>
      <trkpt lat="47.57132" lon="5.9392">
        <ele>253.80000305176</ele>
        <time>2014-03-09T09:24:50.000Z</time>
      </trkpt>
      <trkpt lat="47.57131" lon="5.93909">
        <ele>253.39999389648</ele>
        <time>2014-03-09T09:24:51.000Z</time>
      </trkpt>
      <trkpt lat="47.5713" lon="5.93898">
        <ele>252.60000610352</ele>
        <time>2014-03-09T09:24:52.000Z</time>
      </trkpt>
      <trkpt lat="47.57128" lon="5.93887">
        <ele>252.19999694824</ele>
        <time>2014-03-09T09:24:53.000Z</time>
      </trkpt>
      <trkpt lat="47.57122" lon="5.93857">
        <ele>252.19999694824</ele>
        <time>2014-03-09T09:24:56.000Z</time>
      </trkpt>
      <trkpt lat="47.57106" lon="5.93772">
        <ele>252.19999694824</ele>
        <time>2014-03-09T09:25:05.000Z</time>
      </trkpt>
      <trkpt lat="47.57105" lon="5.93763">
        <ele>252.19999694824</ele>
        <time>2014-03-09T09:25:06.000Z</time>
      </trkpt>
      <trkpt lat="47.57093" lon="5.93693">
        <ele>252.19999694824</ele>
        <time>2014-03-09T09:25:15.000Z</time>
      </trkpt>
      <trkpt lat="47.57086" lon="5.93626">
        <ele>252.19999694824</ele>
        <time>2014-03-09T09:25:24.000Z</time>
      </trkpt>
      <trkpt lat="47.57084" lon="5.93577">
        <ele>252.19999694824</ele>
        <time>2014-03-09T09:25:31.000Z</time>
      </trkpt>
      <trkpt lat="47.57086" lon="5.93529">
        <ele>252.19999694824</ele>
        <time>2014-03-09T09:25:38.000Z</time>
      </trkpt>
      <trkpt lat="47.57091" lon="5.93458">
        <ele>252.19999694824</ele>
        <time>2014-03-09T09:25:47.000Z</time>
      </trkpt>
      <trkpt lat="47.57092" lon="5.93436">
        <ele>252.19999694824</ele>
        <time>2014-03-09T09:25:50.000Z</time>
      </trkpt>
      <trkpt lat="47.57094" lon="5.93416">
        <ele>252.19999694824</ele>
        <time>2014-03-09T09:25:53.000Z</time>
      </trkpt>
      <trkpt lat="47.57096" lon="5.93364">
        <ele>252.19999694824</ele>
        <time>2014-03-09T09:26:00.000Z</time>
      </trkpt>
      <trkpt lat="47.571" lon="5.93303">
        <ele>252.19999694824</ele>
        <time>2014-03-09T09:26:09.000Z</time>
      </trkpt>
      <trkpt lat="47.57102" lon="5.93294">
        <ele>252.19999694824</ele>
        <time>2014-03-09T09:26:11.000Z</time>
      </trkpt>
      <trkpt lat="47.57106" lon="5.93289">
        <ele>252.19999694824</ele>
        <time>2014-03-09T09:26:13.000Z</time>
      </trkpt>
      <trkpt lat="47.5711" lon="5.93288">
        <ele>252.60000610352</ele>
        <time>2014-03-09T09:26:15.000Z</time>
      </trkpt>
      <trkpt lat="47.57111" lon="5.93288">
        <ele>253</ele>
        <time>2014-03-09T09:26:16.000Z</time>
      </trkpt>
      <trkpt lat="47.57114" lon="5.93288">
        <ele>253.39999389648</ele>
        <time>2014-03-09T09:26:17.000Z</time>
      </trkpt>
      <trkpt lat="47.57115" lon="5.93287">
        <ele>253.80000305176</ele>
        <time>2014-03-09T09:26:18.000Z</time>
      </trkpt>
      <trkpt lat="47.57118" lon="5.93286">
        <ele>254.19999694824</ele>
        <time>2014-03-09T09:26:19.000Z</time>
      </trkpt>
      <trkpt lat="47.57124" lon="5.93284">
        <ele>254.19999694824</ele>
        <time>2014-03-09T09:26:22.000Z</time>
      </trkpt>
      <trkpt lat="47.57128" lon="5.93283">
        <ele>254.19999694824</ele>
        <time>2014-03-09T09:26:24.000Z</time>
      </trkpt>
      <trkpt lat="47.57131" lon="5.93282">
        <ele>254.19999694824</ele>
        <time>2014-03-09T09:26:26.000Z</time>
      </trkpt>
      <trkpt lat="47.57133" lon="5.93281">
        <ele>254.60000610352</ele>
        <time>2014-03-09T09:26:27.000Z</time>
      </trkpt>
      <trkpt lat="47.57134" lon="5.9328">
        <ele>255.19999694824</ele>
        <time>2014-03-09T09:26:28.000Z</time>
      </trkpt>
      <trkpt lat="47.57136" lon="5.93279">
        <ele>255.60000610352</ele>
        <time>2014-03-09T09:26:29.000Z</time>
      </trkpt>
      <trkpt lat="47.57138" lon="5.93279">
        <ele>256.39999389648</ele>
        <time>2014-03-09T09:26:30.000Z</time>
      </trkpt>
      <trkpt lat="47.57142" lon="5.93278">
        <ele>256.39999389648</ele>
        <time>2014-03-09T09:26:32.000Z</time>
      </trkpt>
      <trkpt lat="47.57151" lon="5.93274">
        <ele>256.39999389648</ele>
        <time>2014-03-09T09:26:38.000Z</time>
      </trkpt>
      <trkpt lat="47.57153" lon="5.93273">
        <ele>256.39999389648</ele>
        <time>2014-03-09T09:26:39.000Z</time>
      </trkpt>
      <trkpt lat="47.57154" lon="5.93272">
        <ele>256.39999389648</ele>
        <time>2014-03-09T09:26:40.000Z</time>
      </trkpt>
      <trkpt lat="47.57157" lon="5.93269">
        <ele>256.39999389648</ele>
        <time>2014-03-09T09:26:42.000Z</time>
      </trkpt>
      <trkpt lat="47.57159" lon="5.93267">
        <ele>256.79998779297</ele>
        <time>2014-03-09T09:26:43.000Z</time>
      </trkpt>
      <trkpt lat="47.57161" lon="5.93265">
        <ele>257.20001220703</ele>
        <time>2014-03-09T09:26:44.000Z</time>
      </trkpt>
      <trkpt lat="47.57164" lon="5.93264">
        <ele>257.60000610352</ele>
        <time>2014-03-09T09:26:45.000Z</time>
      </trkpt>
      <trkpt lat="47.57166" lon="5.93263">
        <ele>258</ele>
        <time>2014-03-09T09:26:46.000Z</time>
      </trkpt>
      <trkpt lat="47.57169" lon="5.93261">
        <ele>258.39999389648</ele>
        <time>2014-03-09T09:26:47.000Z</time>
      </trkpt>
      <trkpt lat="47.57172" lon="5.9326">
        <ele>258.39999389648</ele>
        <time>2014-03-09T09:26:48.000Z</time>
      </trkpt>
      <trkpt lat="47.57183" lon="5.93248">
        <ele>258.39999389648</ele>
        <time>2014-03-09T09:26:54.000Z</time>
      </trkpt>
      <trkpt lat="47.57186" lon="5.93245">
        <ele>258.39999389648</ele>
        <time>2014-03-09T09:26:55.000Z</time>
      </trkpt>
      <trkpt lat="47.57194" lon="5.93239">
        <ele>258.39999389648</ele>
        <time>2014-03-09T09:26:59.000Z</time>
      </trkpt>
      <trkpt lat="47.57198" lon="5.93235">
        <ele>258.39999389648</ele>
        <time>2014-03-09T09:27:02.000Z</time>
      </trkpt>
      <trkpt lat="47.57199" lon="5.93232">
        <ele>258.79998779297</ele>
        <time>2014-03-09T09:27:04.000Z</time>
      </trkpt>
      <trkpt lat="47.572" lon="5.93231">
        <ele>259.20001220703</ele>
        <time>2014-03-09T09:27:05.000Z</time>
      </trkpt>
      <trkpt lat="47.57201" lon="5.9323">
        <ele>259.60000610352</ele>
        <time>2014-03-09T09:27:06.000Z</time>
      </trkpt>
      <trkpt lat="47.57202" lon="5.9323">
        <ele>260</ele>
        <time>2014-03-09T09:27:07.000Z</time>
      </trkpt>
      <trkpt lat="47.57203" lon="5.93228">
        <ele>260.60000610352</ele>
        <time>2014-03-09T09:27:08.000Z</time>
      </trkpt>
      <trkpt lat="47.57206" lon="5.93225">
        <ele>260.60000610352</ele>
        <time>2014-03-09T09:27:10.000Z</time>
      </trkpt>
      <trkpt lat="47.57209" lon="5.93219">
        <ele>260.60000610352</ele>
        <time>2014-03-09T09:27:15.000Z</time>
      </trkpt>
      <trkpt lat="47.5721" lon="5.93217">
        <ele>260.60000610352</ele>
        <time>2014-03-09T09:27:16.000Z</time>
      </trkpt>
      <trkpt lat="47.57214" lon="5.93214">
        <ele>260.60000610352</ele>
        <time>2014-03-09T09:27:18.000Z</time>
      </trkpt>
      <trkpt lat="47.57216" lon="5.93213">
        <ele>260.60000610352</ele>
        <time>2014-03-09T09:27:20.000Z</time>
      </trkpt>
      <trkpt lat="47.5722" lon="5.93212">
        <ele>260.60000610352</ele>
        <time>2014-03-09T09:27:24.000Z</time>
      </trkpt>
      <trkpt lat="47.57221" lon="5.93211">
        <ele>261</ele>
        <time>2014-03-09T09:27:25.000Z</time>
      </trkpt>
      <trkpt lat="47.57222" lon="5.9321">
        <ele>261.39999389648</ele>
        <time>2014-03-09T09:27:26.000Z</time>
      </trkpt>
      <trkpt lat="47.57224" lon="5.93209">
        <ele>261.79998779297</ele>
        <time>2014-03-09T09:27:27.000Z</time>
      </trkpt>
      <trkpt lat="47.57226" lon="5.93208">
        <ele>262.20001220703</ele>
        <time>2014-03-09T09:27:28.000Z</time>
      </trkpt>
      <trkpt lat="47.57228" lon="5.93207">
        <ele>262.60000610352</ele>
        <time>2014-03-09T09:27:29.000Z</time>
      </trkpt>
      <trkpt lat="47.5723" lon="5.93206">
        <ele>262.60000610352</ele>
        <time>2014-03-09T09:27:30.000Z</time>
      </trkpt>
      <trkpt lat="47.57231" lon="5.93206">
        <ele>262.60000610352</ele>
        <time>2014-03-09T09:27:31.000Z</time>
      </trkpt>
      <trkpt lat="47.57233" lon="5.93204">
        <ele>262.60000610352</ele>
        <time>2014-03-09T09:27:33.000Z</time>
      </trkpt>
      <trkpt lat="47.57236" lon="5.93201">
        <ele>262.60000610352</ele>
        <time>2014-03-09T09:27:35.000Z</time>
      </trkpt>
      <trkpt lat="47.57248" lon="5.93188">
        <ele>262.60000610352</ele>
        <time>2014-03-09T09:27:42.000Z</time>
      </trkpt>
      <trkpt lat="47.5725" lon="5.93186">
        <ele>262.60000610352</ele>
        <time>2014-03-09T09:27:43.000Z</time>
      </trkpt>
      <trkpt lat="47.57255" lon="5.93167">
        <ele>258.39999389648</ele>
        <time>2014-03-09T09:32:51.000Z</time>
      </trkpt>
      <trkpt lat="47.57258" lon="5.93166">
        <ele>258.39999389648</ele>
        <time>2014-03-09T09:32:52.000Z</time>
      </trkpt>
      <trkpt lat="47.57261" lon="5.93162">
        <ele>258.39999389648</ele>
        <time>2014-03-09T09:33:05.000Z</time>
      </trkpt>
      <trkpt lat="47.57268" lon="5.93159">
        <ele>258.39999389648</ele>
        <time>2014-03-09T09:33:10.000Z</time>
      </trkpt>
      <trkpt lat="47.57274" lon="5.93159">
        <ele>258.39999389648</ele>
        <time>2014-03-09T09:33:13.000Z</time>
      </trkpt>
      <trkpt lat="47.57281" lon="5.93153">
        <ele>258.39999389648</ele>
        <time>2014-03-09T09:33:16.000Z</time>
      </trkpt>
      <trkpt lat="47.57297" lon="5.93144">
        <ele>258.39999389648</ele>
        <time>2014-03-09T09:33:22.000Z</time>
      </trkpt>
      <trkpt lat="47.57316" lon="5.93129">
        <ele>258</ele>
        <time>2014-03-09T09:33:29.000Z</time>
      </trkpt>
      <trkpt lat="47.57318" lon="5.93128">
        <ele>257.60000610352</ele>
        <time>2014-03-09T09:33:30.000Z</time>
      </trkpt>
      <trkpt lat="47.5732" lon="5.93126">
        <ele>257.20001220703</ele>
        <time>2014-03-09T09:33:31.000Z</time>
      </trkpt>
      <trkpt lat="47.57322" lon="5.93126">
        <ele>256.79998779297</ele>
        <time>2014-03-09T09:33:32.000Z</time>
      </trkpt>
      <trkpt lat="47.57323" lon="5.93125">
        <ele>256.39999389648</ele>
        <time>2014-03-09T09:33:33.000Z</time>
      </trkpt>
      <trkpt lat="47.57325" lon="5.93123">
        <ele>256.39999389648</ele>
        <time>2014-03-09T09:33:34.000Z</time>
      </trkpt>
      <trkpt lat="47.57326" lon="5.93121">
        <ele>256.39999389648</ele>
        <time>2014-03-09T09:33:35.000Z</time>
      </trkpt>
      <trkpt lat="47.57332" lon="5.93115">
        <ele>256.39999389648</ele>
        <time>2014-03-09T09:33:39.000Z</time>
      </trkpt>
      <trkpt lat="47.57348" lon="5.93101">
        <ele>256.39999389648</ele>
        <time>2014-03-09T09:33:45.000Z</time>
      </trkpt>
      <trkpt lat="47.57359" lon="5.93097">
        <ele>256.39999389648</ele>
        <time>2014-03-09T09:33:52.000Z</time>
      </trkpt>
      <trkpt lat="47.5737" lon="5.93089">
        <ele>256.39999389648</ele>
        <time>2014-03-09T09:33:57.000Z</time>
      </trkpt>
      <trkpt lat="47.57372" lon="5.93087">
        <ele>256.39999389648</ele>
        <time>2014-03-09T09:33:58.000Z</time>
      </trkpt>
      <trkpt lat="47.57373" lon="5.93086">
        <ele>256.39999389648</ele>
        <time>2014-03-09T09:33:59.000Z</time>
      </trkpt>
      <trkpt lat="47.57375" lon="5.93084">
        <ele>256.39999389648</ele>
        <time>2014-03-09T09:34:00.000Z</time>
      </trkpt>
      <trkpt lat="47.57379" lon="5.93079">
        <ele>256.39999389648</ele>
        <time>2014-03-09T09:34:02.000Z</time>
      </trkpt>
      <trkpt lat="47.57386" lon="5.93075">
        <ele>257.39999389648</ele>
        <time>2014-03-09T09:34:03.000Z</time>
      </trkpt>
      <trkpt lat="47.57386" lon="5.93075">
        <ele>257.39999389648</ele>
        <time>2014-03-09T09:34:06.000Z</time>
      </trkpt>
      <trkpt lat="47.57388" lon="5.93075">
        <ele>257.79998779297</ele>
        <time>2014-03-09T09:34:07.000Z</time>
      </trkpt>
      <trkpt lat="47.5739" lon="5.93074">
        <ele>258.20001220703</ele>
        <time>2014-03-09T09:34:08.000Z</time>
      </trkpt>
      <trkpt lat="47.57391" lon="5.93073">
        <ele>258.60000610352</ele>
        <time>2014-03-09T09:34:09.000Z</time>
      </trkpt>
      <trkpt lat="47.57395" lon="5.9307">
        <ele>258.60000610352</ele>
        <time>2014-03-09T09:34:11.000Z</time>
      </trkpt>
      <trkpt lat="47.57409" lon="5.93058">
        <ele>258.60000610352</ele>
        <time>2014-03-09T09:34:17.000Z</time>
      </trkpt>
      <trkpt lat="47.5742" lon="5.93046">
        <ele>258.60000610352</ele>
        <time>2014-03-09T09:34:23.000Z</time>
      </trkpt>
      <trkpt lat="47.5743" lon="5.93041">
        <ele>258.60000610352</ele>
        <time>2014-03-09T09:34:28.000Z</time>
      </trkpt>
      <trkpt lat="47.57436" lon="5.93037">
        <ele>259</ele>
        <time>2014-03-09T09:34:31.000Z</time>
      </trkpt>
      <trkpt lat="47.57438" lon="5.93035">
        <ele>259.39999389648</ele>
        <time>2014-03-09T09:34:32.000Z</time>
      </trkpt>
      <trkpt lat="47.57439" lon="5.93034">
        <ele>259.79998779297</ele>
        <time>2014-03-09T09:34:33.000Z</time>
      </trkpt>
      <trkpt lat="47.57441" lon="5.93033">
        <ele>260.20001220703</ele>
        <time>2014-03-09T09:34:34.000Z</time>
      </trkpt>
      <trkpt lat="47.57441" lon="5.93033">
        <ele>260.79998779297</ele>
        <time>2014-03-09T09:34:35.000Z</time>
      </trkpt>
      <trkpt lat="47.57442" lon="5.93031">
        <ele>260.79998779297</ele>
        <time>2014-03-09T09:34:36.000Z</time>
      </trkpt>
      <trkpt lat="47.57443" lon="5.93029">
        <ele>260.79998779297</ele>
        <time>2014-03-09T09:34:37.000Z</time>
      </trkpt>
      <trkpt lat="47.57456" lon="5.93015">
        <ele>260.79998779297</ele>
        <time>2014-03-09T09:34:44.000Z</time>
      </trkpt>
      <trkpt lat="47.57458" lon="5.93012">
        <ele>260.79998779297</ele>
        <time>2014-03-09T09:34:46.000Z</time>
      </trkpt>
      <trkpt lat="47.57467" lon="5.93008">
        <ele>260.79998779297</ele>
        <time>2014-03-09T09:34:48.000Z</time>
      </trkpt>
      <trkpt lat="47.57474" lon="5.93006">
        <ele>260.79998779297</ele>
        <time>2014-03-09T09:34:51.000Z</time>
      </trkpt>
      <trkpt lat="47.57479" lon="5.93005">
        <ele>260.79998779297</ele>
        <time>2014-03-09T09:34:56.000Z</time>
      </trkpt>
      <trkpt lat="47.57495" lon="5.93004">
        <ele>260.79998779297</ele>
        <time>2014-03-09T09:35:04.000Z</time>
      </trkpt>
      <trkpt lat="47.57509" lon="5.93005">
        <ele>260.79998779297</ele>
        <time>2014-03-09T09:35:05.000Z</time>
      </trkpt>
      <trkpt lat="47.57509" lon="5.93005">
        <ele>260.79998779297</ele>
        <time>2014-03-09T09:35:07.000Z</time>
      </trkpt>
      <trkpt lat="47.57515" lon="5.93023">
        <ele>260.79998779297</ele>
        <time>2014-03-09T09:35:11.000Z</time>
      </trkpt>
      <trkpt lat="47.57515" lon="5.93023">
        <ele>260.79998779297</ele>
        <time>2014-03-09T09:35:13.000Z</time>
      </trkpt>
      <trkpt lat="47.5752" lon="5.93038">
        <ele>260.39999389648</ele>
        <time>2014-03-09T09:35:16.000Z</time>
      </trkpt>
      <trkpt lat="47.57528" lon="5.93057">
        <ele>259.20001220703</ele>
        <time>2014-03-09T09:35:17.000Z</time>
      </trkpt>
      <trkpt lat="47.57531" lon="5.93064">
        <ele>258.60000610352</ele>
        <time>2014-03-09T09:35:20.000Z</time>
      </trkpt>
      <trkpt lat="47.57545" lon="5.93102">
        <ele>257.39999389648</ele>
        <time>2014-03-09T09:35:24.000Z</time>
      </trkpt>
      <trkpt lat="47.57545" lon="5.93102">
        <ele>257.39999389648</ele>
        <time>2014-03-09T09:35:26.000Z</time>
      </trkpt>
      <trkpt lat="47.57547" lon="5.93107">
        <ele>257</ele>
        <time>2014-03-09T09:35:27.000Z</time>
      </trkpt>
      <trkpt lat="47.57549" lon="5.93112">
        <ele>256.60000610352</ele>
        <time>2014-03-09T09:35:28.000Z</time>
      </trkpt>
      <trkpt lat="47.57551" lon="5.93119">
        <ele>256.60000610352</ele>
        <time>2014-03-09T09:35:30.000Z</time>
      </trkpt>
      <trkpt lat="47.57552" lon="5.93121">
        <ele>256.60000610352</ele>
        <time>2014-03-09T09:35:31.000Z</time>
      </trkpt>
      <trkpt lat="47.57553" lon="5.93123">
        <ele>256.60000610352</ele>
        <time>2014-03-09T09:35:32.000Z</time>
      </trkpt>
      <trkpt lat="47.57554" lon="5.93126">
        <ele>256.20001220703</ele>
        <time>2014-03-09T09:35:33.000Z</time>
      </trkpt>
      <trkpt lat="47.57555" lon="5.93128">
        <ele>255.80000305176</ele>
        <time>2014-03-09T09:35:34.000Z</time>
      </trkpt>
      <trkpt lat="47.57557" lon="5.9313">
        <ele>255.39999389648</ele>
        <time>2014-03-09T09:35:35.000Z</time>
      </trkpt>
      <trkpt lat="47.57558" lon="5.9313">
        <ele>255</ele>
        <time>2014-03-09T09:35:36.000Z</time>
      </trkpt>
      <trkpt lat="47.57561" lon="5.93127">
        <ele>254.60000610352</ele>
        <time>2014-03-09T09:35:37.000Z</time>
      </trkpt>
      <trkpt lat="47.57561" lon="5.93127">
        <ele>254.60000610352</ele>
        <time>2014-03-09T09:35:39.000Z</time>
      </trkpt>
      <trkpt lat="47.57567" lon="5.93122">
        <ele>254.60000610352</ele>
        <time>2014-03-09T09:35:42.000Z</time>
      </trkpt>
      <trkpt lat="47.57578" lon="5.93108">
        <ele>254.60000610352</ele>
        <time>2014-03-09T09:35:48.000Z</time>
      </trkpt>
      <trkpt lat="47.57589" lon="5.93095">
        <ele>254.60000610352</ele>
        <time>2014-03-09T09:35:53.000Z</time>
      </trkpt>
      <trkpt lat="47.57599" lon="5.93078">
        <ele>254.60000610352</ele>
        <time>2014-03-09T09:35:59.000Z</time>
      </trkpt>
      <trkpt lat="47.57609" lon="5.93059">
        <ele>254.60000610352</ele>
        <time>2014-03-09T09:36:06.000Z</time>
      </trkpt>
      <trkpt lat="47.57618" lon="5.93045">
        <ele>254.60000610352</ele>
        <time>2014-03-09T09:36:11.000Z</time>
      </trkpt>
      <trkpt lat="47.5762" lon="5.93039">
        <ele>255</ele>
        <time>2014-03-09T09:36:13.000Z</time>
      </trkpt>
      <trkpt lat="47.57622" lon="5.93036">
        <ele>255.39999389648</ele>
        <time>2014-03-09T09:36:14.000Z</time>
      </trkpt>
      <trkpt lat="47.57624" lon="5.93033">
        <ele>256</ele>
        <time>2014-03-09T09:36:15.000Z</time>
      </trkpt>
      <trkpt lat="47.57628" lon="5.93027">
        <ele>256.79998779297</ele>
        <time>2014-03-09T09:36:16.000Z</time>
      </trkpt>
      <trkpt lat="47.5764" lon="5.93007">
        <ele>256.79998779297</ele>
        <time>2014-03-09T09:36:23.000Z</time>
      </trkpt>
      <trkpt lat="47.57655" lon="5.92991">
        <ele>256.79998779297</ele>
        <time>2014-03-09T09:36:28.000Z</time>
      </trkpt>
      <trkpt lat="47.57658" lon="5.92988">
        <ele>257.20001220703</ele>
        <time>2014-03-09T09:36:29.000Z</time>
      </trkpt>
      <trkpt lat="47.5766" lon="5.92985">
        <ele>257.60000610352</ele>
        <time>2014-03-09T09:36:30.000Z</time>
      </trkpt>
      <trkpt lat="47.57662" lon="5.92982">
        <ele>258</ele>
        <time>2014-03-09T09:36:31.000Z</time>
      </trkpt>
      <trkpt lat="47.57664" lon="5.9298">
        <ele>258.39999389648</ele>
        <time>2014-03-09T09:36:32.000Z</time>
      </trkpt>
      <trkpt lat="47.57665" lon="5.92977">
        <ele>258.79998779297</ele>
        <time>2014-03-09T09:36:33.000Z</time>
      </trkpt>
      <trkpt lat="47.57667" lon="5.92973">
        <ele>258.79998779297</ele>
        <time>2014-03-09T09:36:34.000Z</time>
      </trkpt>
      <trkpt lat="47.57679" lon="5.92955">
        <ele>258.79998779297</ele>
        <time>2014-03-09T09:36:40.000Z</time>
      </trkpt>
      <trkpt lat="47.57694" lon="5.92941">
        <ele>259.20001220703</ele>
        <time>2014-03-09T09:36:46.000Z</time>
      </trkpt>
      <trkpt lat="47.57696" lon="5.92939">
        <ele>259.60000610352</ele>
        <time>2014-03-09T09:36:47.000Z</time>
      </trkpt>
      <trkpt lat="47.57697" lon="5.92936">
        <ele>260</ele>
        <time>2014-03-09T09:36:48.000Z</time>
      </trkpt>
      <trkpt lat="47.57699" lon="5.92932">
        <ele>260.60000610352</ele>
        <time>2014-03-09T09:36:49.000Z</time>
      </trkpt>
      <trkpt lat="47.57701" lon="5.92929">
        <ele>261</ele>
        <time>2014-03-09T09:36:50.000Z</time>
      </trkpt>
      <trkpt lat="47.57703" lon="5.92922">
        <ele>261</ele>
        <time>2014-03-09T09:36:52.000Z</time>
      </trkpt>
      <trkpt lat="47.57713" lon="5.9291">
        <ele>261</ele>
        <time>2014-03-09T09:36:57.000Z</time>
      </trkpt>
      <trkpt lat="47.57727" lon="5.92894">
        <ele>261.39999389648</ele>
        <time>2014-03-09T09:37:04.000Z</time>
      </trkpt>
      <trkpt lat="47.57729" lon="5.92892">
        <ele>261.79998779297</ele>
        <time>2014-03-09T09:37:05.000Z</time>
      </trkpt>
      <trkpt lat="47.57731" lon="5.9289">
        <ele>262.20001220703</ele>
        <time>2014-03-09T09:37:06.000Z</time>
      </trkpt>
      <trkpt lat="47.57733" lon="5.92887">
        <ele>262.60000610352</ele>
        <time>2014-03-09T09:37:07.000Z</time>
      </trkpt>
      <trkpt lat="47.57735" lon="5.92884">
        <ele>263</ele>
        <time>2014-03-09T09:37:08.000Z</time>
      </trkpt>
      <trkpt lat="47.5774" lon="5.92877">
        <ele>263</ele>
        <time>2014-03-09T09:37:10.000Z</time>
      </trkpt>
      <trkpt lat="47.57746" lon="5.92866">
        <ele>263</ele>
        <time>2014-03-09T09:37:13.000Z</time>
      </trkpt>
      <trkpt lat="47.57747" lon="5.92863">
        <ele>263</ele>
        <time>2014-03-09T09:37:14.000Z</time>
      </trkpt>
      <trkpt lat="47.57749" lon="5.92861">
        <ele>263</ele>
        <time>2014-03-09T09:37:15.000Z</time>
      </trkpt>
      <trkpt lat="47.57755" lon="5.92852">
        <ele>263</ele>
        <time>2014-03-09T09:37:18.000Z</time>
      </trkpt>
      <trkpt lat="47.57767" lon="5.92837">
        <ele>263</ele>
        <time>2014-03-09T09:37:24.000Z</time>
      </trkpt>
      <trkpt lat="47.5777" lon="5.92831">
        <ele>263</ele>
        <time>2014-03-09T09:37:27.000Z</time>
      </trkpt>
      <trkpt lat="47.57771" lon="5.92829">
        <ele>263</ele>
        <time>2014-03-09T09:38:02.000Z</time>
      </trkpt>
      <trkpt lat="47.57771" lon="5.92825">
        <ele>263</ele>
        <time>2014-03-09T09:38:04.000Z</time>
      </trkpt>
      <trkpt lat="47.57767" lon="5.92814">
        <ele>263</ele>
        <time>2014-03-09T09:38:07.000Z</time>
      </trkpt>
      <trkpt lat="47.57757" lon="5.92786">
        <ele>263</ele>
        <time>2014-03-09T09:38:13.000Z</time>
      </trkpt>
      <trkpt lat="47.57745" lon="5.92757">
        <ele>263</ele>
        <time>2014-03-09T09:38:19.000Z</time>
      </trkpt>
      <trkpt lat="47.5774" lon="5.92741">
        <ele>263</ele>
        <time>2014-03-09T09:38:22.000Z</time>
      </trkpt>
      <trkpt lat="47.57734" lon="5.92724">
        <ele>263</ele>
        <time>2014-03-09T09:38:25.000Z</time>
      </trkpt>
      <trkpt lat="47.57721" lon="5.92687">
        <ele>262.60000610352</ele>
        <time>2014-03-09T09:38:31.000Z</time>
      </trkpt>
      <trkpt lat="47.57719" lon="5.92681">
        <ele>262.20001220703</ele>
        <time>2014-03-09T09:38:32.000Z</time>
      </trkpt>
      <trkpt lat="47.57717" lon="5.92675">
        <ele>261.79998779297</ele>
        <time>2014-03-09T09:38:33.000Z</time>
      </trkpt>
      <trkpt lat="47.57714" lon="5.92669">
        <ele>261.39999389648</ele>
        <time>2014-03-09T09:38:34.000Z</time>
      </trkpt>
      <trkpt lat="47.57712" lon="5.92663">
        <ele>261</ele>
        <time>2014-03-09T09:38:35.000Z</time>
      </trkpt>
      <trkpt lat="47.57707" lon="5.9265">
        <ele>261</ele>
        <time>2014-03-09T09:38:37.000Z</time>
      </trkpt>
      <trkpt lat="47.57706" lon="5.92644">
        <ele>261</ele>
        <time>2014-03-09T09:38:38.000Z</time>
      </trkpt>
      <trkpt lat="47.57695" lon="5.92613">
        <ele>261</ele>
        <time>2014-03-09T09:38:43.000Z</time>
      </trkpt>
      <trkpt lat="47.57693" lon="5.92607">
        <ele>261</ele>
        <time>2014-03-09T09:38:44.000Z</time>
      </trkpt>
      <trkpt lat="47.57685" lon="5.92584">
        <ele>261</ele>
        <time>2014-03-09T09:38:48.000Z</time>
      </trkpt>
      <trkpt lat="47.5767" lon="5.92548">
        <ele>261</ele>
        <time>2014-03-09T09:38:55.000Z</time>
      </trkpt>
      <trkpt lat="47.57664" lon="5.92533">
        <ele>261</ele>
        <time>2014-03-09T09:38:58.000Z</time>
      </trkpt>
      <trkpt lat="47.57656" lon="5.92511">
        <ele>261</ele>
        <time>2014-03-09T09:39:02.000Z</time>
      </trkpt>
      <trkpt lat="47.57641" lon="5.9247">
        <ele>261</ele>
        <time>2014-03-09T09:39:09.000Z</time>
      </trkpt>
      <trkpt lat="47.57626" lon="5.92429">
        <ele>261</ele>
        <time>2014-03-09T09:39:16.000Z</time>
      </trkpt>
      <trkpt lat="47.57612" lon="5.92409">
        <ele>261</ele>
        <time>2014-03-09T09:39:20.000Z</time>
      </trkpt>
      <trkpt lat="47.57612" lon="5.92408">
        <ele>261</ele>
        <time>2014-03-09T09:39:24.000Z</time>
      </trkpt>
      <trkpt lat="47.57608" lon="5.92407">
        <ele>263</ele>
        <time>2014-03-09T09:40:24.000Z</time>
      </trkpt>
      <trkpt lat="47.57605" lon="5.92407">
        <ele>263</ele>
        <time>2014-03-09T09:40:26.000Z</time>
      </trkpt>
      <trkpt lat="47.57589" lon="5.92413">
        <ele>263</ele>
        <time>2014-03-09T09:40:33.000Z</time>
      </trkpt>
      <trkpt lat="47.57573" lon="5.92426">
        <ele>263</ele>
        <time>2014-03-09T09:40:39.000Z</time>
      </trkpt>
      <trkpt lat="47.57555" lon="5.9244">
        <ele>263</ele>
        <time>2014-03-09T09:40:45.000Z</time>
      </trkpt>
      <trkpt lat="47.57552" lon="5.92443">
        <ele>263.39999389648</ele>
        <time>2014-03-09T09:40:46.000Z</time>
      </trkpt>
      <trkpt lat="47.57548" lon="5.92446">
        <ele>263.79998779297</ele>
        <time>2014-03-09T09:40:47.000Z</time>
      </trkpt>
      <trkpt lat="47.57545" lon="5.92449">
        <ele>264.20001220703</ele>
        <time>2014-03-09T09:40:48.000Z</time>
      </trkpt>
      <trkpt lat="47.57543" lon="5.92451">
        <ele>264.60000610352</ele>
        <time>2014-03-09T09:40:49.000Z</time>
      </trkpt>
      <trkpt lat="47.5754" lon="5.92454">
        <ele>265</ele>
        <time>2014-03-09T09:40:50.000Z</time>
      </trkpt>
      <trkpt lat="47.5753" lon="5.92461">
        <ele>265</ele>
        <time>2014-03-09T09:40:53.000Z</time>
      </trkpt>
      <trkpt lat="47.57511" lon="5.92477">
        <ele>265</ele>
        <time>2014-03-09T09:40:59.000Z</time>
      </trkpt>
      <trkpt lat="47.57485" lon="5.92495">
        <ele>265</ele>
        <time>2014-03-09T09:41:06.000Z</time>
      </trkpt>
      <trkpt lat="47.57461" lon="5.92509">
        <ele>265</ele>
        <time>2014-03-09T09:41:13.000Z</time>
      </trkpt>
      <trkpt lat="47.57446" lon="5.92521">
        <ele>265.39999389648</ele>
        <time>2014-03-09T09:41:18.000Z</time>
      </trkpt>
      <trkpt lat="47.57443" lon="5.92523">
        <ele>265.79998779297</ele>
        <time>2014-03-09T09:41:19.000Z</time>
      </trkpt>
      <trkpt lat="47.5744" lon="5.92526">
        <ele>266.20001220703</ele>
        <time>2014-03-09T09:41:20.000Z</time>
      </trkpt>
      <trkpt lat="47.57437" lon="5.92528">
        <ele>266.60000610352</ele>
        <time>2014-03-09T09:41:21.000Z</time>
      </trkpt>
      <trkpt lat="47.57434" lon="5.92532">
        <ele>267</ele>
        <time>2014-03-09T09:41:22.000Z</time>
      </trkpt>
      <trkpt lat="47.57424" lon="5.92539">
        <ele>267</ele>
        <time>2014-03-09T09:41:25.000Z</time>
      </trkpt>
      <trkpt lat="47.57405" lon="5.92554">
        <ele>267</ele>
        <time>2014-03-09T09:41:31.000Z</time>
      </trkpt>
      <trkpt lat="47.57401" lon="5.92557">
        <ele>267.39999389648</ele>
        <time>2014-03-09T09:41:32.000Z</time>
      </trkpt>
      <trkpt lat="47.57398" lon="5.9256">
        <ele>267.79998779297</ele>
        <time>2014-03-09T09:41:33.000Z</time>
      </trkpt>
      <trkpt lat="47.57394" lon="5.92562">
        <ele>268.20001220703</ele>
        <time>2014-03-09T09:41:34.000Z</time>
      </trkpt>
      <trkpt lat="47.57391" lon="5.92565">
        <ele>268.60000610352</ele>
        <time>2014-03-09T09:41:35.000Z</time>
      </trkpt>
      <trkpt lat="47.57388" lon="5.92567">
        <ele>269</ele>
        <time>2014-03-09T09:41:36.000Z</time>
      </trkpt>
      <trkpt lat="47.57385" lon="5.92569">
        <ele>269</ele>
        <time>2014-03-09T09:41:37.000Z</time>
      </trkpt>
      <trkpt lat="47.57371" lon="5.92574">
        <ele>269</ele>
        <time>2014-03-09T09:41:41.000Z</time>
      </trkpt>
      <trkpt lat="47.57368" lon="5.92572">
        <ele>269</ele>
        <time>2014-03-09T09:41:42.000Z</time>
      </trkpt>
      <trkpt lat="47.57356" lon="5.92555">
        <ele>269</ele>
        <time>2014-03-09T09:41:47.000Z</time>
      </trkpt>
      <trkpt lat="47.57341" lon="5.92517">
        <ele>269</ele>
        <time>2014-03-09T09:41:52.000Z</time>
      </trkpt>
      <trkpt lat="47.57328" lon="5.92482">
        <ele>269</ele>
        <time>2014-03-09T09:42:01.000Z</time>
      </trkpt>
      <trkpt lat="47.5731" lon="5.92443">
        <ele>269</ele>
        <time>2014-03-09T09:42:08.000Z</time>
      </trkpt>
      <trkpt lat="47.57296" lon="5.92409">
        <ele>269</ele>
        <time>2014-03-09T09:42:14.000Z</time>
      </trkpt>
      <trkpt lat="47.57281" lon="5.92368">
        <ele>268.60000610352</ele>
        <time>2014-03-09T09:42:20.000Z</time>
      </trkpt>
      <trkpt lat="47.57278" lon="5.92361">
        <ele>268.20001220703</ele>
        <time>2014-03-09T09:42:21.000Z</time>
      </trkpt>
      <trkpt lat="47.57275" lon="5.92354">
        <ele>267.79998779297</ele>
        <time>2014-03-09T09:42:22.000Z</time>
      </trkpt>
      <trkpt lat="47.5727" lon="5.92339">
        <ele>267</ele>
        <time>2014-03-09T09:42:23.000Z</time>
      </trkpt>
      <trkpt lat="47.57262" lon="5.92318">
        <ele>267</ele>
        <time>2014-03-09T09:42:27.000Z</time>
      </trkpt>
      <trkpt lat="47.57247" lon="5.92279">
        <ele>267</ele>
        <time>2014-03-09T09:42:33.000Z</time>
      </trkpt>
      <trkpt lat="47.57245" lon="5.92273">
        <ele>267</ele>
        <time>2014-03-09T09:42:34.000Z</time>
      </trkpt>
      <trkpt lat="47.57239" lon="5.92254">
        <ele>267</ele>
        <time>2014-03-09T09:42:37.000Z</time>
      </trkpt>
      <trkpt lat="47.57233" lon="5.92234">
        <ele>267</ele>
        <time>2014-03-09T09:42:40.000Z</time>
      </trkpt>
      <trkpt lat="47.57231" lon="5.92227">
        <ele>267</ele>
        <time>2014-03-09T09:42:41.000Z</time>
      </trkpt>
      <trkpt lat="47.57228" lon="5.92221">
        <ele>266.60000610352</ele>
        <time>2014-03-09T09:42:42.000Z</time>
      </trkpt>
      <trkpt lat="47.57226" lon="5.92215">
        <ele>266.20001220703</ele>
        <time>2014-03-09T09:42:43.000Z</time>
      </trkpt>
      <trkpt lat="47.57223" lon="5.92209">
        <ele>265.79998779297</ele>
        <time>2014-03-09T09:42:44.000Z</time>
      </trkpt>
      <trkpt lat="47.57221" lon="5.92202">
        <ele>265.20001220703</ele>
        <time>2014-03-09T09:42:45.000Z</time>
      </trkpt>
      <trkpt lat="47.57218" lon="5.92195">
        <ele>264.79998779297</ele>
        <time>2014-03-09T09:42:46.000Z</time>
      </trkpt>
      <trkpt lat="47.57204" lon="5.92155">
        <ele>264.79998779297</ele>
        <time>2014-03-09T09:42:52.000Z</time>
      </trkpt>
      <trkpt lat="47.572" lon="5.92142">
        <ele>264.39999389648</ele>
        <time>2014-03-09T09:42:54.000Z</time>
      </trkpt>
      <trkpt lat="47.57198" lon="5.92136">
        <ele>263.60000610352</ele>
        <time>2014-03-09T09:42:55.000Z</time>
      </trkpt>
      <trkpt lat="47.57196" lon="5.9213">
        <ele>263.20001220703</ele>
        <time>2014-03-09T09:42:56.000Z</time>
      </trkpt>
      <trkpt lat="47.57194" lon="5.92123">
        <ele>262.79998779297</ele>
        <time>2014-03-09T09:42:57.000Z</time>
      </trkpt>
      <trkpt lat="47.57192" lon="5.92116">
        <ele>262.79998779297</ele>
        <time>2014-03-09T09:42:58.000Z</time>
      </trkpt>
      <trkpt lat="47.57189" lon="5.92111">
        <ele>262.79998779297</ele>
        <time>2014-03-09T09:42:59.000Z</time>
      </trkpt>
      <trkpt lat="47.57187" lon="5.92107">
        <ele>262.39999389648</ele>
        <time>2014-03-09T09:43:00.000Z</time>
      </trkpt>
      <trkpt lat="47.57186" lon="5.92102">
        <ele>262</ele>
        <time>2014-03-09T09:43:01.000Z</time>
      </trkpt>
      <trkpt lat="47.57184" lon="5.92097">
        <ele>261.60000610352</ele>
        <time>2014-03-09T09:43:02.000Z</time>
      </trkpt>
      <trkpt lat="47.57183" lon="5.92093">
        <ele>261.20001220703</ele>
        <time>2014-03-09T09:43:03.000Z</time>
      </trkpt>
      <trkpt lat="47.57181" lon="5.92088">
        <ele>260.79998779297</ele>
        <time>2014-03-09T09:43:04.000Z</time>
      </trkpt>
      <trkpt lat="47.57175" lon="5.92072">
        <ele>260.79998779297</ele>
        <time>2014-03-09T09:43:08.000Z</time>
      </trkpt>
      <trkpt lat="47.57174" lon="5.92066">
        <ele>260.79998779297</ele>
        <time>2014-03-09T09:43:10.000Z</time>
      </trkpt>
      <trkpt lat="47.57173" lon="5.92066">
        <ele>260.79998779297</ele>
        <time>2014-03-09T09:43:11.000Z</time>
      </trkpt>
      <trkpt lat="47.57174" lon="5.92062">
        <ele>260.79998779297</ele>
        <time>2014-03-09T09:44:32.000Z</time>
      </trkpt>
      <trkpt lat="47.57177" lon="5.92064">
        <ele>260.79998779297</ele>
        <time>2014-03-09T09:44:35.000Z</time>
      </trkpt>
      <trkpt lat="47.57177" lon="5.92069">
        <ele>260.79998779297</ele>
        <time>2014-03-09T09:44:38.000Z</time>
      </trkpt>
      <trkpt lat="47.57179" lon="5.92077">
        <ele>260.79998779297</ele>
        <time>2014-03-09T09:44:41.000Z</time>
      </trkpt>
      <trkpt lat="47.57182" lon="5.92084">
        <ele>260.79998779297</ele>
        <time>2014-03-09T09:44:43.000Z</time>
      </trkpt>
      <trkpt lat="47.57182" lon="5.92084">
        <ele>260.79998779297</ele>
        <time>2014-03-09T09:44:46.000Z</time>
      </trkpt>
      <trkpt lat="47.57187" lon="5.92096">
        <ele>260.79998779297</ele>
        <time>2014-03-09T09:44:51.000Z</time>
      </trkpt>
      <trkpt lat="47.57193" lon="5.92114">
        <ele>260.79998779297</ele>
        <time>2014-03-09T09:44:58.000Z</time>
      </trkpt>
      <trkpt lat="47.57198" lon="5.92128">
        <ele>260.79998779297</ele>
        <time>2014-03-09T09:45:03.000Z</time>
      </trkpt>
      <trkpt lat="47.57203" lon="5.92142">
        <ele>260.79998779297</ele>
        <time>2014-03-09T09:45:08.000Z</time>
      </trkpt>
      <trkpt lat="47.57206" lon="5.92156">
        <ele>261.20001220703</ele>
        <time>2014-03-09T09:45:13.000Z</time>
      </trkpt>
      <trkpt lat="47.57206" lon="5.92159">
        <ele>261.60000610352</ele>
        <time>2014-03-09T09:45:14.000Z</time>
      </trkpt>
      <trkpt lat="47.57207" lon="5.92162">
        <ele>262</ele>
        <time>2014-03-09T09:45:15.000Z</time>
      </trkpt>
      <trkpt lat="47.57208" lon="5.92166">
        <ele>262.39999389648</ele>
        <time>2014-03-09T09:45:16.000Z</time>
      </trkpt>
      <trkpt lat="47.5721" lon="5.92168">
        <ele>263</ele>
        <time>2014-03-09T09:45:17.000Z</time>
      </trkpt>
      <trkpt lat="47.57211" lon="5.92171">
        <ele>263</ele>
        <time>2014-03-09T09:45:18.000Z</time>
      </trkpt>
      <trkpt lat="47.57213" lon="5.92174">
        <ele>263</ele>
        <time>2014-03-09T09:45:19.000Z</time>
      </trkpt>
      <trkpt lat="47.57219" lon="5.92192">
        <ele>263</ele>
        <time>2014-03-09T09:45:25.000Z</time>
      </trkpt>
      <trkpt lat="47.57219" lon="5.92194">
        <ele>263</ele>
        <time>2014-03-09T09:45:26.000Z</time>
      </trkpt>
      <trkpt lat="47.57222" lon="5.92203">
        <ele>264.60000610352</ele>
        <time>2014-03-09T09:45:29.000Z</time>
      </trkpt>
      <trkpt lat="47.57224" lon="5.92206">
        <ele>265</ele>
        <time>2014-03-09T09:45:32.000Z</time>
      </trkpt>
      <trkpt lat="47.57226" lon="5.92212">
        <ele>265</ele>
        <time>2014-03-09T09:45:34.000Z</time>
      </trkpt>
      <trkpt lat="47.57233" lon="5.92231">
        <ele>265</ele>
        <time>2014-03-09T09:45:40.000Z</time>
      </trkpt>
      <trkpt lat="47.5724" lon="5.92252">
        <ele>265</ele>
        <time>2014-03-09T09:45:46.000Z</time>
      </trkpt>
      <trkpt lat="47.57247" lon="5.92269">
        <ele>265</ele>
        <time>2014-03-09T09:45:51.000Z</time>
      </trkpt>
      <trkpt lat="47.57255" lon="5.92291">
        <ele>265</ele>
        <time>2014-03-09T09:45:57.000Z</time>
      </trkpt>
      <trkpt lat="47.57262" lon="5.92308">
        <ele>265</ele>
        <time>2014-03-09T09:46:02.000Z</time>
      </trkpt>
      <trkpt lat="47.57275" lon="5.92347">
        <ele>265</ele>
        <time>2014-03-09T09:46:09.000Z</time>
      </trkpt>
      <trkpt lat="47.57281" lon="5.92363">
        <ele>265.39999389648</ele>
        <time>2014-03-09T09:46:15.000Z</time>
      </trkpt>
      <trkpt lat="47.57283" lon="5.92367">
        <ele>265.79998779297</ele>
        <time>2014-03-09T09:46:16.000Z</time>
      </trkpt>
      <trkpt lat="47.57284" lon="5.92371">
        <ele>266.20001220703</ele>
        <time>2014-03-09T09:46:17.000Z</time>
      </trkpt>
      <trkpt lat="47.57285" lon="5.92375">
        <ele>266.60000610352</ele>
        <time>2014-03-09T09:46:18.000Z</time>
      </trkpt>
      <trkpt lat="47.57287" lon="5.92379">
        <ele>267</ele>
        <time>2014-03-09T09:46:19.000Z</time>
      </trkpt>
      <trkpt lat="47.57295" lon="5.924">
        <ele>267</ele>
        <time>2014-03-09T09:46:26.000Z</time>
      </trkpt>
      <trkpt lat="47.57296" lon="5.92401">
        <ele>267</ele>
        <time>2014-03-09T09:46:27.000Z</time>
      </trkpt>
      <trkpt lat="47.57298" lon="5.92398">
        <ele>267</ele>
        <time>2014-03-09T09:46:29.000Z</time>
      </trkpt>
      <trkpt lat="47.57305" lon="5.92395">
        <ele>267</ele>
        <time>2014-03-09T09:46:30.000Z</time>
      </trkpt>
      <trkpt lat="47.57305" lon="5.92395">
        <ele>267</ele>
        <time>2014-03-09T09:46:32.000Z</time>
      </trkpt>
      <trkpt lat="47.57314" lon="5.92389">
        <ele>267</ele>
        <time>2014-03-09T09:46:34.000Z</time>
      </trkpt>
      <trkpt lat="47.57317" lon="5.92388">
        <ele>267</ele>
        <time>2014-03-09T09:46:37.000Z</time>
      </trkpt>
      <trkpt lat="47.57336" lon="5.92372">
        <ele>267</ele>
        <time>2014-03-09T09:46:45.000Z</time>
      </trkpt>
      <trkpt lat="47.57349" lon="5.92358">
        <ele>267</ele>
        <time>2014-03-09T09:46:50.000Z</time>
      </trkpt>
      <trkpt lat="47.5737" lon="5.92342">
        <ele>267</ele>
        <time>2014-03-09T09:46:56.000Z</time>
      </trkpt>
      <trkpt lat="47.57374" lon="5.92339">
        <ele>266.39999389648</ele>
        <time>2014-03-09T09:46:57.000Z</time>
      </trkpt>
      <trkpt lat="47.57378" lon="5.92336">
        <ele>266</ele>
        <time>2014-03-09T09:46:58.000Z</time>
      </trkpt>
      <trkpt lat="47.57381" lon="5.92334">
        <ele>265.20001220703</ele>
        <time>2014-03-09T09:46:59.000Z</time>
      </trkpt>
      <trkpt lat="47.57385" lon="5.92332">
        <ele>264.60000610352</ele>
        <time>2014-03-09T09:47:00.000Z</time>
      </trkpt>
      <trkpt lat="47.57391" lon="5.92327">
        <ele>264.60000610352</ele>
        <time>2014-03-09T09:47:02.000Z</time>
      </trkpt>
      <trkpt lat="47.574" lon="5.9232">
        <ele>264.20001220703</ele>
        <time>2014-03-09T09:47:05.000Z</time>
      </trkpt>
      <trkpt lat="47.57403" lon="5.92317">
        <ele>263.79998779297</ele>
        <time>2014-03-09T09:47:06.000Z</time>
      </trkpt>
      <trkpt lat="47.57406" lon="5.92315">
        <ele>263.39999389648</ele>
        <time>2014-03-09T09:47:07.000Z</time>
      </trkpt>
      <trkpt lat="47.57409" lon="5.92312">
        <ele>263</ele>
        <time>2014-03-09T09:47:08.000Z</time>
      </trkpt>
      <trkpt lat="47.57412" lon="5.9231">
        <ele>262.39999389648</ele>
        <time>2014-03-09T09:47:09.000Z</time>
      </trkpt>
      <trkpt lat="47.57434" lon="5.92293">
        <ele>262.39999389648</ele>
        <time>2014-03-09T09:47:17.000Z</time>
      </trkpt>
      <trkpt lat="47.5745" lon="5.92281">
        <ele>262.39999389648</ele>
        <time>2014-03-09T09:47:23.000Z</time>
      </trkpt>
      <trkpt lat="47.57463" lon="5.92272">
        <ele>262.39999389648</ele>
        <time>2014-03-09T09:47:28.000Z</time>
      </trkpt>
      <trkpt lat="47.57472" lon="5.92266">
        <ele>262</ele>
        <time>2014-03-09T09:47:31.000Z</time>
      </trkpt>
      <trkpt lat="47.57475" lon="5.92263">
        <ele>261.60000610352</ele>
        <time>2014-03-09T09:47:32.000Z</time>
      </trkpt>
      <trkpt lat="47.57477" lon="5.92261">
        <ele>261.20001220703</ele>
        <time>2014-03-09T09:47:33.000Z</time>
      </trkpt>
      <trkpt lat="47.57481" lon="5.92259">
        <ele>260.79998779297</ele>
        <time>2014-03-09T09:47:34.000Z</time>
      </trkpt>
      <trkpt lat="47.57484" lon="5.92257">
        <ele>260.20001220703</ele>
        <time>2014-03-09T09:47:35.000Z</time>
      </trkpt>
      <trkpt lat="47.57501" lon="5.92244">
        <ele>260.20001220703</ele>
        <time>2014-03-09T09:47:40.000Z</time>
      </trkpt>
      <trkpt lat="47.57515" lon="5.9223">
        <ele>260.20001220703</ele>
        <time>2014-03-09T09:47:46.000Z</time>
      </trkpt>
      <trkpt lat="47.57533" lon="5.92215">
        <ele>260.20001220703</ele>
        <time>2014-03-09T09:47:52.000Z</time>
      </trkpt>
      <trkpt lat="47.5755" lon="5.922">
        <ele>260.20001220703</ele>
        <time>2014-03-09T09:47:58.000Z</time>
      </trkpt>
      <trkpt lat="47.57567" lon="5.92186">
        <ele>260.20001220703</ele>
        <time>2014-03-09T09:48:05.000Z</time>
      </trkpt>
      <trkpt lat="47.57573" lon="5.92174">
        <ele>260.20001220703</ele>
        <time>2014-03-09T09:48:09.000Z</time>
      </trkpt>
      <trkpt lat="47.57571" lon="5.92169">
        <ele>259.79998779297</ele>
        <time>2014-03-09T09:48:11.000Z</time>
      </trkpt>
      <trkpt lat="47.57571" lon="5.92168">
        <ele>259</ele>
        <time>2014-03-09T09:48:12.000Z</time>
      </trkpt>
      <trkpt lat="47.5757" lon="5.92167">
        <ele>258.60000610352</ele>
        <time>2014-03-09T09:48:13.000Z</time>
      </trkpt>
      <trkpt lat="47.57568" lon="5.92165">
        <ele>258.20001220703</ele>
        <time>2014-03-09T09:48:14.000Z</time>
      </trkpt>
      <trkpt lat="47.57563" lon="5.92162">
        <ele>258.20001220703</ele>
        <time>2014-03-09T09:48:16.000Z</time>
      </trkpt>
      <trkpt lat="47.57558" lon="5.92158">
        <ele>258.20001220703</ele>
        <time>2014-03-09T09:48:18.000Z</time>
      </trkpt>
      <trkpt lat="47.57542" lon="5.92138">
        <ele>258.20001220703</ele>
        <time>2014-03-09T09:48:25.000Z</time>
      </trkpt>
      <trkpt lat="47.5752" lon="5.92116">
        <ele>258.20001220703</ele>
        <time>2014-03-09T09:48:33.000Z</time>
      </trkpt>
      <trkpt lat="47.57499" lon="5.92102">
        <ele>258.20001220703</ele>
        <time>2014-03-09T09:48:39.000Z</time>
      </trkpt>
      <trkpt lat="47.57491" lon="5.92095">
        <ele>257.79998779297</ele>
        <time>2014-03-09T09:48:41.000Z</time>
      </trkpt>
      <trkpt lat="47.57488" lon="5.92093">
        <ele>257.39999389648</ele>
        <time>2014-03-09T09:48:42.000Z</time>
      </trkpt>
      <trkpt lat="47.57485" lon="5.92091">
        <ele>257</ele>
        <time>2014-03-09T09:48:43.000Z</time>
      </trkpt>
      <trkpt lat="47.5748" lon="5.92087">
        <ele>256.60000610352</ele>
        <time>2014-03-09T09:48:44.000Z</time>
      </trkpt>
      <trkpt lat="47.57475" lon="5.92084">
        <ele>256.20001220703</ele>
        <time>2014-03-09T09:48:45.000Z</time>
      </trkpt>
      <trkpt lat="47.57469" lon="5.92082">
        <ele>255.80000305176</ele>
        <time>2014-03-09T09:48:46.000Z</time>
      </trkpt>
      <trkpt lat="47.57464" lon="5.9208">
        <ele>255.39999389648</ele>
        <time>2014-03-09T09:48:47.000Z</time>
      </trkpt>
      <trkpt lat="47.57461" lon="5.92078">
        <ele>255</ele>
        <time>2014-03-09T09:48:48.000Z</time>
      </trkpt>
      <trkpt lat="47.57457" lon="5.92077">
        <ele>254.60000610352</ele>
        <time>2014-03-09T09:48:49.000Z</time>
      </trkpt>
      <trkpt lat="47.57453" lon="5.92076">
        <ele>254.19999694824</ele>
        <time>2014-03-09T09:48:50.000Z</time>
      </trkpt>
      <trkpt lat="47.57437" lon="5.92075">
        <ele>254.19999694824</ele>
        <time>2014-03-09T09:48:55.000Z</time>
      </trkpt>
      <trkpt lat="47.57424" lon="5.92073">
        <ele>255.19999694824</ele>
        <time>2014-03-09T09:48:59.000Z</time>
      </trkpt>
      <trkpt lat="47.57424" lon="5.92073">
        <ele>255.19999694824</ele>
        <time>2014-03-09T09:49:01.000Z</time>
      </trkpt>
      <trkpt lat="47.57422" lon="5.92073">
        <ele>255.60000610352</ele>
        <time>2014-03-09T09:49:02.000Z</time>
      </trkpt>
      <trkpt lat="47.5742" lon="5.92072">
        <ele>256.60000610352</ele>
        <time>2014-03-09T09:49:03.000Z</time>
      </trkpt>
      <trkpt lat="47.57415" lon="5.92071">
        <ele>257</ele>
        <time>2014-03-09T09:49:06.000Z</time>
      </trkpt>
      <trkpt lat="47.57413" lon="5.92071">
        <ele>257.39999389648</ele>
        <time>2014-03-09T09:49:07.000Z</time>
      </trkpt>
      <trkpt lat="47.57411" lon="5.92071">
        <ele>257.79998779297</ele>
        <time>2014-03-09T09:49:08.000Z</time>
      </trkpt>
      <trkpt lat="47.57409" lon="5.9207">
        <ele>258.20001220703</ele>
        <time>2014-03-09T09:49:09.000Z</time>
      </trkpt>
      <trkpt lat="47.57406" lon="5.92069">
        <ele>258.60000610352</ele>
        <time>2014-03-09T09:49:10.000Z</time>
      </trkpt>
      <trkpt lat="47.57395" lon="5.92068">
        <ele>258.60000610352</ele>
        <time>2014-03-09T09:49:16.000Z</time>
      </trkpt>
      <trkpt lat="47.5738" lon="5.92063">
        <ele>259</ele>
        <time>2014-03-09T09:49:23.000Z</time>
      </trkpt>
      <trkpt lat="47.57378" lon="5.92061">
        <ele>259.39999389648</ele>
        <time>2014-03-09T09:49:24.000Z</time>
      </trkpt>
      <trkpt lat="47.57376" lon="5.9206">
        <ele>259.79998779297</ele>
        <time>2014-03-09T09:49:25.000Z</time>
      </trkpt>
      <trkpt lat="47.57374" lon="5.92059">
        <ele>260.20001220703</ele>
        <time>2014-03-09T09:49:26.000Z</time>
      </trkpt>
      <trkpt lat="47.57372" lon="5.92057">
        <ele>260.60000610352</ele>
        <time>2014-03-09T09:49:27.000Z</time>
      </trkpt>
      <trkpt lat="47.57365" lon="5.92054">
        <ele>260.60000610352</ele>
        <time>2014-03-09T09:49:30.000Z</time>
      </trkpt>
      <trkpt lat="47.57347" lon="5.92046">
        <ele>260.60000610352</ele>
        <time>2014-03-09T09:49:38.000Z</time>
      </trkpt>
      <trkpt lat="47.57335" lon="5.92043">
        <ele>260.60000610352</ele>
        <time>2014-03-09T09:49:44.000Z</time>
      </trkpt>
      <trkpt lat="47.57325" lon="5.92038">
        <ele>260.60000610352</ele>
        <time>2014-03-09T09:49:49.000Z</time>
      </trkpt>
      <trkpt lat="47.57315" lon="5.92033">
        <ele>260.60000610352</ele>
        <time>2014-03-09T09:49:54.000Z</time>
      </trkpt>
      <trkpt lat="47.57303" lon="5.92033">
        <ele>260.60000610352</ele>
        <time>2014-03-09T09:49:59.000Z</time>
      </trkpt>
      <trkpt lat="47.5729" lon="5.9203">
        <ele>260.60000610352</ele>
        <time>2014-03-09T09:50:05.000Z</time>
      </trkpt>
      <trkpt lat="47.57275" lon="5.92031">
        <ele>260.60000610352</ele>
        <time>2014-03-09T09:50:11.000Z</time>
      </trkpt>
      <trkpt lat="47.57262" lon="5.92027">
        <ele>260.60000610352</ele>
        <time>2014-03-09T09:50:17.000Z</time>
      </trkpt>
      <trkpt lat="47.57247" lon="5.92033">
        <ele>260.60000610352</ele>
        <time>2014-03-09T09:50:24.000Z</time>
      </trkpt>
      <trkpt lat="47.57244" lon="5.92034">
        <ele>260.60000610352</ele>
        <time>2014-03-09T09:50:26.000Z</time>
      </trkpt>
      <trkpt lat="47.57237" lon="5.92037">
        <ele>260.60000610352</ele>
        <time>2014-03-09T09:50:29.000Z</time>
      </trkpt>
      <trkpt lat="47.5723" lon="5.92039">
        <ele>260.60000610352</ele>
        <time>2014-03-09T09:50:33.000Z</time>
      </trkpt>
      <trkpt lat="47.5723" lon="5.92039">
        <ele>260.60000610352</ele>
        <time>2014-03-09T09:50:34.000Z</time>
      </trkpt>
      <trkpt lat="47.5723" lon="5.9204">
        <ele>260.60000610352</ele>
        <time>2014-03-09T09:50:39.000Z</time>
      </trkpt>
      <trkpt lat="47.57233" lon="5.9204">
        <ele>260.60000610352</ele>
        <time>2014-03-09T09:50:41.000Z</time>
      </trkpt>
      <trkpt lat="47.57237" lon="5.92042">
        <ele>260.60000610352</ele>
        <time>2014-03-09T09:50:45.000Z</time>
      </trkpt>
      <trkpt lat="47.57241" lon="5.9204">
        <ele>260.60000610352</ele>
        <time>2014-03-09T09:50:49.000Z</time>
      </trkpt>
      <trkpt lat="47.57252" lon="5.92037">
        <ele>260.60000610352</ele>
        <time>2014-03-09T09:50:55.000Z</time>
      </trkpt>
      <trkpt lat="47.57254" lon="5.92037">
        <ele>260.60000610352</ele>
        <time>2014-03-09T09:50:57.000Z</time>
      </trkpt>
      <trkpt lat="47.57256" lon="5.92037">
        <ele>260.60000610352</ele>
        <time>2014-03-09T09:50:58.000Z</time>
      </trkpt>
      <trkpt lat="47.57271" lon="5.92038">
        <ele>260.60000610352</ele>
        <time>2014-03-09T09:51:03.000Z</time>
      </trkpt>
      <trkpt lat="47.5729" lon="5.92037">
        <ele>260.60000610352</ele>
        <time>2014-03-09T09:51:10.000Z</time>
      </trkpt>
      <trkpt lat="47.57306" lon="5.92038">
        <ele>260.60000610352</ele>
        <time>2014-03-09T09:51:15.000Z</time>
      </trkpt>
      <trkpt lat="47.5732" lon="5.92041">
        <ele>260.60000610352</ele>
        <time>2014-03-09T09:51:20.000Z</time>
      </trkpt>
      <trkpt lat="47.57334" lon="5.92044">
        <ele>260.60000610352</ele>
        <time>2014-03-09T09:51:25.000Z</time>
      </trkpt>
      <trkpt lat="47.57348" lon="5.92048">
        <ele>260.60000610352</ele>
        <time>2014-03-09T09:51:30.000Z</time>
      </trkpt>
      <trkpt lat="47.57368" lon="5.92059">
        <ele>260.60000610352</ele>
        <time>2014-03-09T09:51:37.000Z</time>
      </trkpt>
      <trkpt lat="47.57389" lon="5.92067">
        <ele>260.60000610352</ele>
        <time>2014-03-09T09:51:44.000Z</time>
      </trkpt>
      <trkpt lat="47.57409" lon="5.92074">
        <ele>260.60000610352</ele>
        <time>2014-03-09T09:51:50.000Z</time>
      </trkpt>
      <trkpt lat="47.57418" lon="5.92076">
        <ele>260.20001220703</ele>
        <time>2014-03-09T09:51:52.000Z</time>
      </trkpt>
      <trkpt lat="47.57423" lon="5.92076">
        <ele>259.60000610352</ele>
        <time>2014-03-09T09:51:53.000Z</time>
      </trkpt>
      <trkpt lat="47.57429" lon="5.92077">
        <ele>258.60000610352</ele>
        <time>2014-03-09T09:51:54.000Z</time>
      </trkpt>
      <trkpt lat="47.57435" lon="5.92077">
        <ele>257.79998779297</ele>
        <time>2014-03-09T09:51:55.000Z</time>
      </trkpt>
      <trkpt lat="47.57441" lon="5.92078">
        <ele>257.20001220703</ele>
        <time>2014-03-09T09:51:56.000Z</time>
      </trkpt>
      <trkpt lat="47.57446" lon="5.92079">
        <ele>256.39999389648</ele>
        <time>2014-03-09T09:51:57.000Z</time>
      </trkpt>
      <trkpt lat="47.5745" lon="5.92079">
        <ele>255.60000610352</ele>
        <time>2014-03-09T09:51:58.000Z</time>
      </trkpt>
      <trkpt lat="47.57454" lon="5.92079">
        <ele>254.80000305176</ele>
        <time>2014-03-09T09:51:59.000Z</time>
      </trkpt>
      <trkpt lat="47.57459" lon="5.9208">
        <ele>254.19999694824</ele>
        <time>2014-03-09T09:52:00.000Z</time>
      </trkpt>
      <trkpt lat="47.57463" lon="5.92081">
        <ele>253.39999389648</ele>
        <time>2014-03-09T09:52:01.000Z</time>
      </trkpt>
      <trkpt lat="47.57481" lon="5.92091">
        <ele>253.39999389648</ele>
        <time>2014-03-09T09:52:06.000Z</time>
      </trkpt>
      <trkpt lat="47.57489" lon="5.92097">
        <ele>253.80000305176</ele>
        <time>2014-03-09T09:52:09.000Z</time>
      </trkpt>
      <trkpt lat="47.57497" lon="5.92104">
        <ele>255.19999694824</ele>
        <time>2014-03-09T09:52:10.000Z</time>
      </trkpt>
      <trkpt lat="47.575" lon="5.92106">
        <ele>255.60000610352</ele>
        <time>2014-03-09T09:52:13.000Z</time>
      </trkpt>
      <trkpt lat="47.57517" lon="5.92119">
        <ele>255.60000610352</ele>
        <time>2014-03-09T09:52:19.000Z</time>
      </trkpt>
      <trkpt lat="47.57526" lon="5.92124">
        <ele>256</ele>
        <time>2014-03-09T09:52:22.000Z</time>
      </trkpt>
      <trkpt lat="47.57529" lon="5.92127">
        <ele>256.39999389648</ele>
        <time>2014-03-09T09:52:23.000Z</time>
      </trkpt>
      <trkpt lat="47.57532" lon="5.9213">
        <ele>256.79998779297</ele>
        <time>2014-03-09T09:52:24.000Z</time>
      </trkpt>
      <trkpt lat="47.57534" lon="5.92132">
        <ele>257.20001220703</ele>
        <time>2014-03-09T09:52:25.000Z</time>
      </trkpt>
      <trkpt lat="47.57537" lon="5.92135">
        <ele>257.60000610352</ele>
        <time>2014-03-09T09:52:26.000Z</time>
      </trkpt>
      <trkpt lat="47.57542" lon="5.9214">
        <ele>257.60000610352</ele>
        <time>2014-03-09T09:52:28.000Z</time>
      </trkpt>
      <trkpt lat="47.5756" lon="5.9216">
        <ele>257.60000610352</ele>
        <time>2014-03-09T09:52:35.000Z</time>
      </trkpt>
      <trkpt lat="47.57571" lon="5.92168">
        <ele>257.60000610352</ele>
        <time>2014-03-09T09:52:40.000Z</time>
      </trkpt>
      <trkpt lat="47.57574" lon="5.92171">
        <ele>257.60000610352</ele>
        <time>2014-03-09T09:54:11.000Z</time>
      </trkpt>
      <trkpt lat="47.57581" lon="5.92178">
        <ele>257.60000610352</ele>
        <time>2014-03-09T09:54:15.000Z</time>
      </trkpt>
      <trkpt lat="47.57588" lon="5.92187">
        <ele>257.60000610352</ele>
        <time>2014-03-09T09:54:19.000Z</time>
      </trkpt>
      <trkpt lat="47.57603" lon="5.92201">
        <ele>257.60000610352</ele>
        <time>2014-03-09T09:54:26.000Z</time>
      </trkpt>
      <trkpt lat="47.57616" lon="5.92215">
        <ele>257.60000610352</ele>
        <time>2014-03-09T09:54:31.000Z</time>
      </trkpt>
      <trkpt lat="47.57628" lon="5.92225">
        <ele>257.60000610352</ele>
        <time>2014-03-09T09:54:34.000Z</time>
      </trkpt>
      <trkpt lat="47.57637" lon="5.92231">
        <ele>257.60000610352</ele>
        <time>2014-03-09T09:54:36.000Z</time>
      </trkpt>
      <trkpt lat="47.57654" lon="5.92246">
        <ele>257.60000610352</ele>
        <time>2014-03-09T09:54:41.000Z</time>
      </trkpt>
      <trkpt lat="47.57665" lon="5.92251">
        <ele>257.20001220703</ele>
        <time>2014-03-09T09:54:44.000Z</time>
      </trkpt>
      <trkpt lat="47.57669" lon="5.92252">
        <ele>256.79998779297</ele>
        <time>2014-03-09T09:54:45.000Z</time>
      </trkpt>
      <trkpt lat="47.57673" lon="5.92255">
        <ele>255.80000305176</ele>
        <time>2014-03-09T09:54:46.000Z</time>
      </trkpt>
      <trkpt lat="47.57677" lon="5.92257">
        <ele>255.39999389648</ele>
        <time>2014-03-09T09:54:47.000Z</time>
      </trkpt>
      <trkpt lat="47.57681" lon="5.92258">
        <ele>255.39999389648</ele>
        <time>2014-03-09T09:54:48.000Z</time>
      </trkpt>
      <trkpt lat="47.57685" lon="5.92261">
        <ele>255.39999389648</ele>
        <time>2014-03-09T09:54:49.000Z</time>
      </trkpt>
      <trkpt lat="47.57701" lon="5.92269">
        <ele>255</ele>
        <time>2014-03-09T09:54:53.000Z</time>
      </trkpt>
      <trkpt lat="47.57704" lon="5.92271">
        <ele>254.60000610352</ele>
        <time>2014-03-09T09:54:54.000Z</time>
      </trkpt>
      <trkpt lat="47.57709" lon="5.92272">
        <ele>254.19999694824</ele>
        <time>2014-03-09T09:54:55.000Z</time>
      </trkpt>
      <trkpt lat="47.57712" lon="5.92273">
        <ele>253.80000305176</ele>
        <time>2014-03-09T09:54:56.000Z</time>
      </trkpt>
      <trkpt lat="47.57715" lon="5.92276">
        <ele>253.39999389648</ele>
        <time>2014-03-09T09:54:57.000Z</time>
      </trkpt>
      <trkpt lat="47.57721" lon="5.92281">
        <ele>253.39999389648</ele>
        <time>2014-03-09T09:54:59.000Z</time>
      </trkpt>
      <trkpt lat="47.57731" lon="5.9229">
        <ele>253.39999389648</ele>
        <time>2014-03-09T09:55:04.000Z</time>
      </trkpt>
      <trkpt lat="47.57743" lon="5.92301">
        <ele>253.39999389648</ele>
        <time>2014-03-09T09:55:08.000Z</time>
      </trkpt>
      <trkpt lat="47.57747" lon="5.92305">
        <ele>253</ele>
        <time>2014-03-09T09:55:10.000Z</time>
      </trkpt>
      <trkpt lat="47.57749" lon="5.92308">
        <ele>252.19999694824</ele>
        <time>2014-03-09T09:55:11.000Z</time>
      </trkpt>
      <trkpt lat="47.57751" lon="5.92311">
        <ele>251.80000305176</ele>
        <time>2014-03-09T09:55:12.000Z</time>
      </trkpt>
      <trkpt lat="47.57754" lon="5.92315">
        <ele>251.39999389648</ele>
        <time>2014-03-09T09:55:13.000Z</time>
      </trkpt>
      <trkpt lat="47.57769" lon="5.92335">
        <ele>251.39999389648</ele>
        <time>2014-03-09T09:55:18.000Z</time>
      </trkpt>
      <trkpt lat="47.57771" lon="5.92339">
        <ele>251.39999389648</ele>
        <time>2014-03-09T09:55:19.000Z</time>
      </trkpt>
      <trkpt lat="47.57786" lon="5.92364">
        <ele>251.39999389648</ele>
        <time>2014-03-09T09:55:24.000Z</time>
      </trkpt>
      <trkpt lat="47.57789" lon="5.92369">
        <ele>251</ele>
        <time>2014-03-09T09:55:25.000Z</time>
      </trkpt>
      <trkpt lat="47.57792" lon="5.92374">
        <ele>250.60000610352</ele>
        <time>2014-03-09T09:55:26.000Z</time>
      </trkpt>
      <trkpt lat="47.57794" lon="5.9238">
        <ele>250.19999694824</ele>
        <time>2014-03-09T09:55:27.000Z</time>
      </trkpt>
      <trkpt lat="47.57797" lon="5.92385">
        <ele>249.80000305176</ele>
        <time>2014-03-09T09:55:28.000Z</time>
      </trkpt>
      <trkpt lat="47.57799" lon="5.9239">
        <ele>249.39999389648</ele>
        <time>2014-03-09T09:55:29.000Z</time>
      </trkpt>
      <trkpt lat="47.57807" lon="5.92407">
        <ele>249.39999389648</ele>
        <time>2014-03-09T09:55:33.000Z</time>
      </trkpt>
      <trkpt lat="47.57824" lon="5.92437">
        <ele>249.39999389648</ele>
        <time>2014-03-09T09:55:39.000Z</time>
      </trkpt>
      <trkpt lat="47.57834" lon="5.92461">
        <ele>249.39999389648</ele>
        <time>2014-03-09T09:55:44.000Z</time>
      </trkpt>
      <trkpt lat="47.57844" lon="5.92481">
        <ele>249</ele>
        <time>2014-03-09T09:55:48.000Z</time>
      </trkpt>
      <trkpt lat="47.57846" lon="5.92486">
        <ele>248.60000610352</ele>
        <time>2014-03-09T09:55:49.000Z</time>
      </trkpt>
      <trkpt lat="47.57848" lon="5.92491">
        <ele>248.19999694824</ele>
        <time>2014-03-09T09:55:50.000Z</time>
      </trkpt>
      <trkpt lat="47.57851" lon="5.92496">
        <ele>247.80000305176</ele>
        <time>2014-03-09T09:55:51.000Z</time>
      </trkpt>
      <trkpt lat="47.57853" lon="5.925">
        <ele>247.39999389648</ele>
        <time>2014-03-09T09:55:52.000Z</time>
      </trkpt>
      <trkpt lat="47.57856" lon="5.92504">
        <ele>247.39999389648</ele>
        <time>2014-03-09T09:55:53.000Z</time>
      </trkpt>
      <trkpt lat="47.5787" lon="5.92522">
        <ele>247.39999389648</ele>
        <time>2014-03-09T09:55:59.000Z</time>
      </trkpt>
      <trkpt lat="47.57884" lon="5.92535">
        <ele>247.39999389648</ele>
        <time>2014-03-09T09:56:04.000Z</time>
      </trkpt>
      <trkpt lat="47.57911" lon="5.92556">
        <ele>247.39999389648</ele>
        <time>2014-03-09T09:56:12.000Z</time>
      </trkpt>
      <trkpt lat="47.57931" lon="5.92576">
        <ele>247.39999389648</ele>
        <time>2014-03-09T09:56:18.000Z</time>
      </trkpt>
      <trkpt lat="47.57949" lon="5.92591">
        <ele>247.39999389648</ele>
        <time>2014-03-09T09:56:24.000Z</time>
      </trkpt>
      <trkpt lat="47.57969" lon="5.92608">
        <ele>247.39999389648</ele>
        <time>2014-03-09T09:56:31.000Z</time>
      </trkpt>
      <trkpt lat="47.57985" lon="5.92622">
        <ele>247</ele>
        <time>2014-03-09T09:56:37.000Z</time>
      </trkpt>
      <trkpt lat="47.57988" lon="5.92625">
        <ele>246.60000610352</ele>
        <time>2014-03-09T09:56:38.000Z</time>
      </trkpt>
      <trkpt lat="47.57991" lon="5.92627">
        <ele>246.19999694824</ele>
        <time>2014-03-09T09:56:39.000Z</time>
      </trkpt>
      <trkpt lat="47.57994" lon="5.9263">
        <ele>245.80000305176</ele>
        <time>2014-03-09T09:56:40.000Z</time>
      </trkpt>
      <trkpt lat="47.57997" lon="5.92632">
        <ele>245.39999389648</ele>
        <time>2014-03-09T09:56:41.000Z</time>
      </trkpt>
      <trkpt lat="47.57999" lon="5.92635">
        <ele>245.39999389648</ele>
        <time>2014-03-09T09:56:42.000Z</time>
      </trkpt>
      <trkpt lat="47.58" lon="5.92639">
        <ele>245.39999389648</ele>
        <time>2014-03-09T09:56:43.000Z</time>
      </trkpt>
      <trkpt lat="47.58005" lon="5.92644">
        <ele>245.39999389648</ele>
        <time>2014-03-09T09:56:46.000Z</time>
      </trkpt>
      <trkpt lat="47.58007" lon="5.92645">
        <ele>245</ele>
        <time>2014-03-09T09:56:47.000Z</time>
      </trkpt>
      <trkpt lat="47.58009" lon="5.92647">
        <ele>244.39999389648</ele>
        <time>2014-03-09T09:56:48.000Z</time>
      </trkpt>
      <trkpt lat="47.58011" lon="5.92648">
        <ele>244</ele>
        <time>2014-03-09T09:56:49.000Z</time>
      </trkpt>
      <trkpt lat="47.58013" lon="5.9265">
        <ele>243.60000610352</ele>
        <time>2014-03-09T09:56:50.000Z</time>
      </trkpt>
      <trkpt lat="47.58016" lon="5.92651">
        <ele>243.19999694824</ele>
        <time>2014-03-09T09:56:51.000Z</time>
      </trkpt>
      <trkpt lat="47.58017" lon="5.92653">
        <ele>243.19999694824</ele>
        <time>2014-03-09T09:56:52.000Z</time>
      </trkpt>
      <trkpt lat="47.5802" lon="5.92654">
        <ele>242.80000305176</ele>
        <time>2014-03-09T09:56:53.000Z</time>
      </trkpt>
      <trkpt lat="47.58022" lon="5.92654">
        <ele>242.39999389648</ele>
        <time>2014-03-09T09:56:54.000Z</time>
      </trkpt>
      <trkpt lat="47.58025" lon="5.92656">
        <ele>241.80000305176</ele>
        <time>2014-03-09T09:56:55.000Z</time>
      </trkpt>
      <trkpt lat="47.58028" lon="5.92656">
        <ele>241.39999389648</ele>
        <time>2014-03-09T09:56:56.000Z</time>
      </trkpt>
      <trkpt lat="47.5803" lon="5.92657">
        <ele>240.80000305176</ele>
        <time>2014-03-09T09:56:57.000Z</time>
      </trkpt>
      <trkpt lat="47.58033" lon="5.92658">
        <ele>240.39999389648</ele>
        <time>2014-03-09T09:56:58.000Z</time>
      </trkpt>
      <trkpt lat="47.58035" lon="5.92658">
        <ele>239.80000305176</ele>
        <time>2014-03-09T09:56:59.000Z</time>
      </trkpt>
      <trkpt lat="47.58039" lon="5.92659">
        <ele>239.19999694824</ele>
        <time>2014-03-09T09:57:00.000Z</time>
      </trkpt>
      <trkpt lat="47.58043" lon="5.92661">
        <ele>238.80000305176</ele>
        <time>2014-03-09T09:57:01.000Z</time>
      </trkpt>
      <trkpt lat="47.58048" lon="5.92662">
        <ele>238.19999694824</ele>
        <time>2014-03-09T09:57:02.000Z</time>
      </trkpt>
      <trkpt lat="47.58051" lon="5.92662">
        <ele>237.60000610352</ele>
        <time>2014-03-09T09:57:03.000Z</time>
      </trkpt>
      <trkpt lat="47.58055" lon="5.92664">
        <ele>237.19999694824</ele>
        <time>2014-03-09T09:57:04.000Z</time>
      </trkpt>
      <trkpt lat="47.58057" lon="5.92665">
        <ele>236.60000610352</ele>
        <time>2014-03-09T09:57:05.000Z</time>
      </trkpt>
      <trkpt lat="47.5806" lon="5.92665">
        <ele>236.60000610352</ele>
        <time>2014-03-09T09:57:06.000Z</time>
      </trkpt>
      <trkpt lat="47.5807" lon="5.92668">
        <ele>236.60000610352</ele>
        <time>2014-03-09T09:57:10.000Z</time>
      </trkpt>
      <trkpt lat="47.58089" lon="5.92675">
        <ele>236.60000610352</ele>
        <time>2014-03-09T09:57:16.000Z</time>
      </trkpt>
      <trkpt lat="47.58109" lon="5.92681">
        <ele>236.60000610352</ele>
        <time>2014-03-09T09:57:23.000Z</time>
      </trkpt>
      <trkpt lat="47.58128" lon="5.92685">
        <ele>236.60000610352</ele>
        <time>2014-03-09T09:57:30.000Z</time>
      </trkpt>
      <trkpt lat="47.58145" lon="5.92686">
        <ele>236.60000610352</ele>
        <time>2014-03-09T09:57:36.000Z</time>
      </trkpt>
      <trkpt lat="47.58147" lon="5.92684">
        <ele>236.60000610352</ele>
        <time>2014-03-09T09:57:37.000Z</time>
      </trkpt>
      <trkpt lat="47.58149" lon="5.9268">
        <ele>237</ele>
        <time>2014-03-09T09:57:40.000Z</time>
      </trkpt>
      <trkpt lat="47.58152" lon="5.92688">
        <ele>238.80000305176</ele>
        <time>2014-03-09T09:58:55.000Z</time>
      </trkpt>
      <trkpt lat="47.58155" lon="5.92694">
        <ele>238.80000305176</ele>
        <time>2014-03-09T09:58:57.000Z</time>
      </trkpt>
      <trkpt lat="47.5816" lon="5.92702">
        <ele>238.80000305176</ele>
        <time>2014-03-09T09:59:01.000Z</time>
      </trkpt>
      <trkpt lat="47.58161" lon="5.92705">
        <ele>238.80000305176</ele>
        <time>2014-03-09T09:59:02.000Z</time>
      </trkpt>
      <trkpt lat="47.58169" lon="5.9272">
        <ele>238.80000305176</ele>
        <time>2014-03-09T09:59:07.000Z</time>
      </trkpt>
      <trkpt lat="47.58176" lon="5.92735">
        <ele>238.80000305176</ele>
        <time>2014-03-09T09:59:12.000Z</time>
      </trkpt>
      <trkpt lat="47.58179" lon="5.92741">
        <ele>238.80000305176</ele>
        <time>2014-03-09T09:59:14.000Z</time>
      </trkpt>
      <trkpt lat="47.58181" lon="5.92744">
        <ele>239.19999694824</ele>
        <time>2014-03-09T09:59:15.000Z</time>
      </trkpt>
      <trkpt lat="47.58183" lon="5.92747">
        <ele>239.60000610352</ele>
        <time>2014-03-09T09:59:16.000Z</time>
      </trkpt>
      <trkpt lat="47.58184" lon="5.92748">
        <ele>240</ele>
        <time>2014-03-09T09:59:17.000Z</time>
      </trkpt>
      <trkpt lat="47.58183" lon="5.92748">
        <ele>240.39999389648</ele>
        <time>2014-03-09T09:59:18.000Z</time>
      </trkpt>
      <trkpt lat="47.58181" lon="5.92747">
        <ele>240.80000305176</ele>
        <time>2014-03-09T09:59:47.000Z</time>
      </trkpt>
      <trkpt lat="47.5818" lon="5.92744">
        <ele>240.80000305176</ele>
        <time>2014-03-09T09:59:48.000Z</time>
      </trkpt>
      <trkpt lat="47.5817" lon="5.92719">
        <ele>240.80000305176</ele>
        <time>2014-03-09T09:59:55.000Z</time>
      </trkpt>
      <trkpt lat="47.58162" lon="5.92702">
        <ele>240.39999389648</ele>
        <time>2014-03-09T09:59:59.000Z</time>
      </trkpt>
      <trkpt lat="47.5816" lon="5.92697">
        <ele>240</ele>
        <time>2014-03-09T10:00:00.000Z</time>
      </trkpt>
      <trkpt lat="47.58158" lon="5.92692">
        <ele>239.60000610352</ele>
        <time>2014-03-09T10:00:01.000Z</time>
      </trkpt>
      <trkpt lat="47.58156" lon="5.92687">
        <ele>239.19999694824</ele>
        <time>2014-03-09T10:00:02.000Z</time>
      </trkpt>
      <trkpt lat="47.58155" lon="5.92683">
        <ele>238.80000305176</ele>
        <time>2014-03-09T10:00:03.000Z</time>
      </trkpt>
      <trkpt lat="47.58151" lon="5.92666">
        <ele>238.80000305176</ele>
        <time>2014-03-09T10:00:07.000Z</time>
      </trkpt>
      <trkpt lat="47.58149" lon="5.92644">
        <ele>238.80000305176</ele>
        <time>2014-03-09T10:00:12.000Z</time>
      </trkpt>
      <trkpt lat="47.58147" lon="5.92615">
        <ele>238.80000305176</ele>
        <time>2014-03-09T10:00:18.000Z</time>
      </trkpt>
      <trkpt lat="47.58144" lon="5.92589">
        <ele>238.80000305176</ele>
        <time>2014-03-09T10:00:23.000Z</time>
      </trkpt>
      <trkpt lat="47.58144" lon="5.92559">
        <ele>238.80000305176</ele>
        <time>2014-03-09T10:00:29.000Z</time>
      </trkpt>
      <trkpt lat="47.58144" lon="5.92553">
        <ele>238.39999389648</ele>
        <time>2014-03-09T10:00:30.000Z</time>
      </trkpt>
      <trkpt lat="47.58144" lon="5.92547">
        <ele>237.80000305176</ele>
        <time>2014-03-09T10:00:31.000Z</time>
      </trkpt>
      <trkpt lat="47.58143" lon="5.92541">
        <ele>237.39999389648</ele>
        <time>2014-03-09T10:00:32.000Z</time>
      </trkpt>
      <trkpt lat="47.58143" lon="5.92534">
        <ele>237</ele>
        <time>2014-03-09T10:00:33.000Z</time>
      </trkpt>
      <trkpt lat="47.58142" lon="5.92527">
        <ele>236.60000610352</ele>
        <time>2014-03-09T10:00:34.000Z</time>
      </trkpt>
      <trkpt lat="47.58142" lon="5.9252">
        <ele>236.60000610352</ele>
        <time>2014-03-09T10:00:35.000Z</time>
      </trkpt>
      <trkpt lat="47.58142" lon="5.92508">
        <ele>236.60000610352</ele>
        <time>2014-03-09T10:00:37.000Z</time>
      </trkpt>
      <trkpt lat="47.58141" lon="5.92492">
        <ele>236.60000610352</ele>
        <time>2014-03-09T10:00:40.000Z</time>
      </trkpt>
      <trkpt lat="47.58139" lon="5.92476">
        <ele>236.19999694824</ele>
        <time>2014-03-09T10:00:43.000Z</time>
      </trkpt>
      <trkpt lat="47.58139" lon="5.92469">
        <ele>235.60000610352</ele>
        <time>2014-03-09T10:00:44.000Z</time>
      </trkpt>
      <trkpt lat="47.58138" lon="5.92463">
        <ele>235.19999694824</ele>
        <time>2014-03-09T10:00:45.000Z</time>
      </trkpt>
      <trkpt lat="47.58137" lon="5.92457">
        <ele>234.80000305176</ele>
        <time>2014-03-09T10:00:46.000Z</time>
      </trkpt>
      <trkpt lat="47.58137" lon="5.92451">
        <ele>234.19999694824</ele>
        <time>2014-03-09T10:00:47.000Z</time>
      </trkpt>
      <trkpt lat="47.58133" lon="5.92421">
        <ele>234.19999694824</ele>
        <time>2014-03-09T10:00:52.000Z</time>
      </trkpt>
      <trkpt lat="47.58133" lon="5.92415">
        <ele>234.19999694824</ele>
        <time>2014-03-09T10:00:53.000Z</time>
      </trkpt>
      <trkpt lat="47.58131" lon="5.92379">
        <ele>234.19999694824</ele>
        <time>2014-03-09T10:00:59.000Z</time>
      </trkpt>
      <trkpt lat="47.58129" lon="5.92356">
        <ele>234.19999694824</ele>
        <time>2014-03-09T10:01:03.000Z</time>
      </trkpt>
      <trkpt lat="47.58129" lon="5.92343">
        <ele>234.19999694824</ele>
        <time>2014-03-09T10:01:05.000Z</time>
      </trkpt>
      <trkpt lat="47.58128" lon="5.92336">
        <ele>234.19999694824</ele>
        <time>2014-03-09T10:01:06.000Z</time>
      </trkpt>
      <trkpt lat="47.58127" lon="5.92316">
        <ele>234.19999694824</ele>
        <time>2014-03-09T10:01:09.000Z</time>
      </trkpt>
      <trkpt lat="47.58127" lon="5.9231">
        <ele>233.80000305176</ele>
        <time>2014-03-09T10:01:10.000Z</time>
      </trkpt>
      <trkpt lat="47.58126" lon="5.92304">
        <ele>233.39999389648</ele>
        <time>2014-03-09T10:01:11.000Z</time>
      </trkpt>
      <trkpt lat="47.58125" lon="5.92299">
        <ele>233</ele>
        <time>2014-03-09T10:01:12.000Z</time>
      </trkpt>
      <trkpt lat="47.58126" lon="5.92294">
        <ele>232.60000610352</ele>
        <time>2014-03-09T10:01:13.000Z</time>
      </trkpt>
      <trkpt lat="47.58126" lon="5.9229">
        <ele>232.19999694824</ele>
        <time>2014-03-09T10:01:14.000Z</time>
      </trkpt>
      <trkpt lat="47.58126" lon="5.92288">
        <ele>232.19999694824</ele>
        <time>2014-03-09T10:01:15.000Z</time>
      </trkpt>
      <trkpt lat="47.58126" lon="5.92284">
        <ele>232.19999694824</ele>
        <time>2014-03-09T10:01:17.000Z</time>
      </trkpt>
      <trkpt lat="47.58126" lon="5.92283">
        <ele>232.19999694824</ele>
        <time>2014-03-09T10:01:45.000Z</time>
      </trkpt>
      <trkpt lat="47.58125" lon="5.92281">
        <ele>232.19999694824</ele>
        <time>2014-03-09T10:01:46.000Z</time>
      </trkpt>
      <trkpt lat="47.58122" lon="5.92255">
        <ele>232.19999694824</ele>
        <time>2014-03-09T10:01:53.000Z</time>
      </trkpt>
      <trkpt lat="47.58121" lon="5.92236">
        <ele>232.19999694824</ele>
        <time>2014-03-09T10:01:57.000Z</time>
      </trkpt>
      <trkpt lat="47.58121" lon="5.92213">
        <ele>232.19999694824</ele>
        <time>2014-03-09T10:02:02.000Z</time>
      </trkpt>
      <trkpt lat="47.58118" lon="5.9219">
        <ele>232.19999694824</ele>
        <time>2014-03-09T10:02:07.000Z</time>
      </trkpt>
      <trkpt lat="47.58114" lon="5.92162">
        <ele>232.19999694824</ele>
        <time>2014-03-09T10:02:13.000Z</time>
      </trkpt>
      <trkpt lat="47.58113" lon="5.92136">
        <ele>232.60000610352</ele>
        <time>2014-03-09T10:02:18.000Z</time>
      </trkpt>
      <trkpt lat="47.58112" lon="5.9213">
        <ele>233</ele>
        <time>2014-03-09T10:02:19.000Z</time>
      </trkpt>
      <trkpt lat="47.58111" lon="5.92124">
        <ele>233.39999389648</ele>
        <time>2014-03-09T10:02:20.000Z</time>
      </trkpt>
      <trkpt lat="47.58111" lon="5.92119">
        <ele>233.80000305176</ele>
        <time>2014-03-09T10:02:21.000Z</time>
      </trkpt>
      <trkpt lat="47.5811" lon="5.92114">
        <ele>234.19999694824</ele>
        <time>2014-03-09T10:02:22.000Z</time>
      </trkpt>
      <trkpt lat="47.5811" lon="5.92104">
        <ele>234.19999694824</ele>
        <time>2014-03-09T10:02:24.000Z</time>
      </trkpt>
      <trkpt lat="47.58108" lon="5.92067">
        <ele>234.19999694824</ele>
        <time>2014-03-09T10:02:31.000Z</time>
      </trkpt>
      <trkpt lat="47.58106" lon="5.92039">
        <ele>234.19999694824</ele>
        <time>2014-03-09T10:02:36.000Z</time>
      </trkpt>
      <trkpt lat="47.58104" lon="5.92021">
        <ele>234.19999694824</ele>
        <time>2014-03-09T10:02:40.000Z</time>
      </trkpt>
      <trkpt lat="47.58104" lon="5.92021">
        <ele>234.19999694824</ele>
        <time>2014-03-09T10:02:42.000Z</time>
      </trkpt>
      <trkpt lat="47.58107" lon="5.92032">
        <ele>234.19999694824</ele>
        <time>2014-03-09T10:04:14.000Z</time>
      </trkpt>
      <trkpt lat="47.58107" lon="5.92038">
        <ele>234.19999694824</ele>
        <time>2014-03-09T10:04:16.000Z</time>
      </trkpt>
      <trkpt lat="47.58108" lon="5.92047">
        <ele>234.19999694824</ele>
        <time>2014-03-09T10:04:19.000Z</time>
      </trkpt>
      <trkpt lat="47.58108" lon="5.92053">
        <ele>234.19999694824</ele>
        <time>2014-03-09T10:04:21.000Z</time>
      </trkpt>
      <trkpt lat="47.5811" lon="5.92074">
        <ele>234.19999694824</ele>
        <time>2014-03-09T10:04:26.000Z</time>
      </trkpt>
      <trkpt lat="47.58111" lon="5.92091">
        <ele>234.19999694824</ele>
        <time>2014-03-09T10:04:30.000Z</time>
      </trkpt>
      <trkpt lat="47.58115" lon="5.92113">
        <ele>234.19999694824</ele>
        <time>2014-03-09T10:04:35.000Z</time>
      </trkpt>
      <trkpt lat="47.58116" lon="5.92135">
        <ele>234.19999694824</ele>
        <time>2014-03-09T10:04:40.000Z</time>
      </trkpt>
      <trkpt lat="47.58118" lon="5.92155">
        <ele>234.19999694824</ele>
        <time>2014-03-09T10:04:45.000Z</time>
      </trkpt>
      <trkpt lat="47.58121" lon="5.92189">
        <ele>234.19999694824</ele>
        <time>2014-03-09T10:04:51.000Z</time>
      </trkpt>
      <trkpt lat="47.58122" lon="5.92213">
        <ele>234.19999694824</ele>
        <time>2014-03-09T10:04:56.000Z</time>
      </trkpt>
      <trkpt lat="47.58125" lon="5.92234">
        <ele>234.19999694824</ele>
        <time>2014-03-09T10:05:00.000Z</time>
      </trkpt>
      <trkpt lat="47.58128" lon="5.92263">
        <ele>234.19999694824</ele>
        <time>2014-03-09T10:05:07.000Z</time>
      </trkpt>
      <trkpt lat="47.58133" lon="5.92275">
        <ele>234.19999694824</ele>
        <time>2014-03-09T10:05:12.000Z</time>
      </trkpt>
      <trkpt lat="47.58134" lon="5.92276">
        <ele>234.19999694824</ele>
        <time>2014-03-09T10:05:13.000Z</time>
      </trkpt>
      <trkpt lat="47.5814" lon="5.92279">
        <ele>234.19999694824</ele>
        <time>2014-03-09T10:05:18.000Z</time>
      </trkpt>
      <trkpt lat="47.58145" lon="5.92281">
        <ele>234.19999694824</ele>
        <time>2014-03-09T10:05:20.000Z</time>
      </trkpt>
      <trkpt lat="47.58147" lon="5.92282">
        <ele>234.60000610352</ele>
        <time>2014-03-09T10:05:22.000Z</time>
      </trkpt>
      <trkpt lat="47.58149" lon="5.92283">
        <ele>235</ele>
        <time>2014-03-09T10:05:23.000Z</time>
      </trkpt>
      <trkpt lat="47.5815" lon="5.92284">
        <ele>235.39999389648</ele>
        <time>2014-03-09T10:05:24.000Z</time>
      </trkpt>
      <trkpt lat="47.58152" lon="5.92285">
        <ele>235.80000305176</ele>
        <time>2014-03-09T10:05:25.000Z</time>
      </trkpt>
      <trkpt lat="47.58152" lon="5.92286">
        <ele>236.19999694824</ele>
        <time>2014-03-09T10:05:26.000Z</time>
      </trkpt>
      <trkpt lat="47.58157" lon="5.92289">
        <ele>236.19999694824</ele>
        <time>2014-03-09T10:05:29.000Z</time>
      </trkpt>
      <trkpt lat="47.58158" lon="5.9229">
        <ele>236.60000610352</ele>
        <time>2014-03-09T10:05:30.000Z</time>
      </trkpt>
      <trkpt lat="47.58162" lon="5.92292">
        <ele>237.60000610352</ele>
        <time>2014-03-09T10:05:31.000Z</time>
      </trkpt>
      <trkpt lat="47.58163" lon="5.92293">
        <ele>238</ele>
        <time>2014-03-09T10:05:33.000Z</time>
      </trkpt>
      <trkpt lat="47.58164" lon="5.92293">
        <ele>238.39999389648</ele>
        <time>2014-03-09T10:05:34.000Z</time>
      </trkpt>
      <trkpt lat="47.58173" lon="5.92299">
        <ele>238.39999389648</ele>
        <time>2014-03-09T10:05:39.000Z</time>
      </trkpt>
      <trkpt lat="47.58175" lon="5.923">
        <ele>238.39999389648</ele>
        <time>2014-03-09T10:05:40.000Z</time>
      </trkpt>
      <trkpt lat="47.58176" lon="5.92301">
        <ele>238.80000305176</ele>
        <time>2014-03-09T10:05:41.000Z</time>
      </trkpt>
      <trkpt lat="47.58178" lon="5.92302">
        <ele>239.19999694824</ele>
        <time>2014-03-09T10:05:42.000Z</time>
      </trkpt>
      <trkpt lat="47.5818" lon="5.92303">
        <ele>239.60000610352</ele>
        <time>2014-03-09T10:05:43.000Z</time>
      </trkpt>
      <trkpt lat="47.58182" lon="5.92304">
        <ele>240</ele>
        <time>2014-03-09T10:05:44.000Z</time>
      </trkpt>
      <trkpt lat="47.58184" lon="5.92305">
        <ele>240.39999389648</ele>
        <time>2014-03-09T10:05:45.000Z</time>
      </trkpt>
      <trkpt lat="47.58192" lon="5.92309">
        <ele>240.39999389648</ele>
        <time>2014-03-09T10:05:49.000Z</time>
      </trkpt>
      <trkpt lat="47.58197" lon="5.92311">
        <ele>241.39999389648</ele>
        <time>2014-03-09T10:05:52.000Z</time>
      </trkpt>
      <trkpt lat="47.58199" lon="5.92312">
        <ele>241.80000305176</ele>
        <time>2014-03-09T10:05:53.000Z</time>
      </trkpt>
      <trkpt lat="47.58201" lon="5.92313">
        <ele>242.19999694824</ele>
        <time>2014-03-09T10:05:54.000Z</time>
      </trkpt>
      <trkpt lat="47.58202" lon="5.92314">
        <ele>242.60000610352</ele>
        <time>2014-03-09T10:05:55.000Z</time>
      </trkpt>
      <trkpt lat="47.58205" lon="5.92315">
        <ele>242.60000610352</ele>
        <time>2014-03-09T10:05:57.000Z</time>
      </trkpt>
      <trkpt lat="47.58209" lon="5.92319">
        <ele>242.60000610352</ele>
        <time>2014-03-09T10:06:00.000Z</time>
      </trkpt>
      <trkpt lat="47.58214" lon="5.92321">
        <ele>243</ele>
        <time>2014-03-09T10:06:03.000Z</time>
      </trkpt>
      <trkpt lat="47.58216" lon="5.92322">
        <ele>243.39999389648</ele>
        <time>2014-03-09T10:06:04.000Z</time>
      </trkpt>
      <trkpt lat="47.58217" lon="5.92323">
        <ele>243.80000305176</ele>
        <time>2014-03-09T10:06:05.000Z</time>
      </trkpt>
      <trkpt lat="47.58219" lon="5.92324">
        <ele>244.19999694824</ele>
        <time>2014-03-09T10:06:06.000Z</time>
      </trkpt>
      <trkpt lat="47.5822" lon="5.92325">
        <ele>244.60000610352</ele>
        <time>2014-03-09T10:06:07.000Z</time>
      </trkpt>
      <trkpt lat="47.58224" lon="5.92327">
        <ele>244.60000610352</ele>
        <time>2014-03-09T10:06:09.000Z</time>
      </trkpt>
      <trkpt lat="47.58227" lon="5.92329">
        <ele>244.60000610352</ele>
        <time>2014-03-09T10:06:11.000Z</time>
      </trkpt>
      <trkpt lat="47.58232" lon="5.92332">
        <ele>244.60000610352</ele>
        <time>2014-03-09T10:06:13.000Z</time>
      </trkpt>
      <trkpt lat="47.58235" lon="5.92333">
        <ele>245</ele>
        <time>2014-03-09T10:06:16.000Z</time>
      </trkpt>
      <trkpt lat="47.58237" lon="5.92335">
        <ele>245.39999389648</ele>
        <time>2014-03-09T10:06:17.000Z</time>
      </trkpt>
      <trkpt lat="47.58239" lon="5.92336">
        <ele>246</ele>
        <time>2014-03-09T10:06:18.000Z</time>
      </trkpt>
      <trkpt lat="47.5824" lon="5.92337">
        <ele>246.39999389648</ele>
        <time>2014-03-09T10:06:19.000Z</time>
      </trkpt>
      <trkpt lat="47.58242" lon="5.92337">
        <ele>246.80000305176</ele>
        <time>2014-03-09T10:06:20.000Z</time>
      </trkpt>
      <trkpt lat="47.58249" lon="5.92343">
        <ele>246.80000305176</ele>
        <time>2014-03-09T10:06:24.000Z</time>
      </trkpt>
      <trkpt lat="47.5826" lon="5.92347">
        <ele>246.80000305176</ele>
        <time>2014-03-09T10:06:29.000Z</time>
      </trkpt>
      <trkpt lat="47.58261" lon="5.92348">
        <ele>246.80000305176</ele>
        <time>2014-03-09T10:06:30.000Z</time>
      </trkpt>
      <trkpt lat="47.58263" lon="5.92349">
        <ele>246.80000305176</ele>
        <time>2014-03-09T10:06:31.000Z</time>
      </trkpt>
      <trkpt lat="47.58264" lon="5.9235">
        <ele>247.19999694824</ele>
        <time>2014-03-09T10:06:32.000Z</time>
      </trkpt>
      <trkpt lat="47.58268" lon="5.92351">
        <ele>248.60000610352</ele>
        <time>2014-03-09T10:06:35.000Z</time>
      </trkpt>
      <trkpt lat="47.5827" lon="5.92352">
        <ele>249</ele>
        <time>2014-03-09T10:06:36.000Z</time>
      </trkpt>
      <trkpt lat="47.58277" lon="5.92356">
        <ele>249</ele>
        <time>2014-03-09T10:06:41.000Z</time>
      </trkpt>
      <trkpt lat="47.58279" lon="5.92358">
        <ele>249</ele>
        <time>2014-03-09T10:06:42.000Z</time>
      </trkpt>
      <trkpt lat="47.5828" lon="5.92359">
        <ele>249</ele>
        <time>2014-03-09T10:06:43.000Z</time>
      </trkpt>
      <trkpt lat="47.58281" lon="5.9236">
        <ele>249</ele>
        <time>2014-03-09T10:06:44.000Z</time>
      </trkpt>
      <trkpt lat="47.58288" lon="5.92364">
        <ele>249</ele>
        <time>2014-03-09T10:06:47.000Z</time>
      </trkpt>
      <trkpt lat="47.58303" lon="5.92371">
        <ele>249</ele>
        <time>2014-03-09T10:06:53.000Z</time>
      </trkpt>
      <trkpt lat="47.58313" lon="5.92378">
        <ele>249</ele>
        <time>2014-03-09T10:06:59.000Z</time>
      </trkpt>
      <trkpt lat="47.58326" lon="5.92383">
        <ele>249</ele>
        <time>2014-03-09T10:07:04.000Z</time>
      </trkpt>
      <trkpt lat="47.58336" lon="5.92387">
        <ele>249</ele>
        <time>2014-03-09T10:07:09.000Z</time>
      </trkpt>
      <trkpt lat="47.58337" lon="5.92388">
        <ele>249</ele>
        <time>2014-03-09T10:07:17.000Z</time>
      </trkpt>
      <trkpt lat="47.5834" lon="5.9239">
        <ele>249</ele>
        <time>2014-03-09T10:07:18.000Z</time>
      </trkpt>
      <trkpt lat="47.58351" lon="5.92397">
        <ele>249</ele>
        <time>2014-03-09T10:07:23.000Z</time>
      </trkpt>
      <trkpt lat="47.5837" lon="5.92407">
        <ele>249</ele>
        <time>2014-03-09T10:07:29.000Z</time>
      </trkpt>
      <trkpt lat="47.58385" lon="5.92416">
        <ele>249</ele>
        <time>2014-03-09T10:07:34.000Z</time>
      </trkpt>
      <trkpt lat="47.58395" lon="5.92422">
        <ele>248.60000610352</ele>
        <time>2014-03-09T10:07:37.000Z</time>
      </trkpt>
      <trkpt lat="47.58398" lon="5.92424">
        <ele>248</ele>
        <time>2014-03-09T10:07:38.000Z</time>
      </trkpt>
      <trkpt lat="47.58402" lon="5.92425">
        <ele>247.60000610352</ele>
        <time>2014-03-09T10:07:39.000Z</time>
      </trkpt>
      <trkpt lat="47.58405" lon="5.92426">
        <ele>247.19999694824</ele>
        <time>2014-03-09T10:07:40.000Z</time>
      </trkpt>
      <trkpt lat="47.58409" lon="5.92427">
        <ele>246.80000305176</ele>
        <time>2014-03-09T10:07:41.000Z</time>
      </trkpt>
      <trkpt lat="47.5842" lon="5.92432">
        <ele>246.80000305176</ele>
        <time>2014-03-09T10:07:44.000Z</time>
      </trkpt>
      <trkpt lat="47.58431" lon="5.9244">
        <ele>246.39999389648</ele>
        <time>2014-03-09T10:07:48.000Z</time>
      </trkpt>
      <trkpt lat="47.58431" lon="5.92444">
        <ele>246</ele>
        <time>2014-03-09T10:07:49.000Z</time>
      </trkpt>
      <trkpt lat="47.58432" lon="5.92447">
        <ele>245.60000610352</ele>
        <time>2014-03-09T10:07:50.000Z</time>
      </trkpt>
      <trkpt lat="47.58433" lon="5.9245">
        <ele>245.19999694824</ele>
        <time>2014-03-09T10:07:51.000Z</time>
      </trkpt>
      <trkpt lat="47.58434" lon="5.92452">
        <ele>244.80000305176</ele>
        <time>2014-03-09T10:07:52.000Z</time>
      </trkpt>
      <trkpt lat="47.58434" lon="5.92456">
        <ele>244.80000305176</ele>
        <time>2014-03-09T10:07:54.000Z</time>
      </trkpt>
      <trkpt lat="47.58433" lon="5.92469">
        <ele>246.39999389648</ele>
        <time>2014-03-09T10:08:00.000Z</time>
      </trkpt>
      <trkpt lat="47.58432" lon="5.92473">
        <ele>246.80000305176</ele>
        <time>2014-03-09T10:08:01.000Z</time>
      </trkpt>
      <trkpt lat="47.5843" lon="5.92484">
        <ele>246.80000305176</ele>
        <time>2014-03-09T10:08:05.000Z</time>
      </trkpt>
      <trkpt lat="47.5843" lon="5.92487">
        <ele>247.19999694824</ele>
        <time>2014-03-09T10:08:06.000Z</time>
      </trkpt>
      <trkpt lat="47.5843" lon="5.9249">
        <ele>247.60000610352</ele>
        <time>2014-03-09T10:08:07.000Z</time>
      </trkpt>
      <trkpt lat="47.5843" lon="5.92492">
        <ele>248</ele>
        <time>2014-03-09T10:08:08.000Z</time>
      </trkpt>
      <trkpt lat="47.58429" lon="5.92495">
        <ele>248.39999389648</ele>
        <time>2014-03-09T10:08:09.000Z</time>
      </trkpt>
      <trkpt lat="47.58429" lon="5.92498">
        <ele>248.80000305176</ele>
        <time>2014-03-09T10:08:10.000Z</time>
      </trkpt>
      <trkpt lat="47.58428" lon="5.92507">
        <ele>248.80000305176</ele>
        <time>2014-03-09T10:08:13.000Z</time>
      </trkpt>
      <trkpt lat="47.58427" lon="5.92513">
        <ele>249.19999694824</ele>
        <time>2014-03-09T10:08:15.000Z</time>
      </trkpt>
      <trkpt lat="47.58427" lon="5.92515">
        <ele>249.80000305176</ele>
        <time>2014-03-09T10:08:16.000Z</time>
      </trkpt>
      <trkpt lat="47.58426" lon="5.92519">
        <ele>250.19999694824</ele>
        <time>2014-03-09T10:08:17.000Z</time>
      </trkpt>
      <trkpt lat="47.58425" lon="5.92522">
        <ele>250.60000610352</ele>
        <time>2014-03-09T10:08:18.000Z</time>
      </trkpt>
      <trkpt lat="47.58424" lon="5.92525">
        <ele>251</ele>
        <time>2014-03-09T10:08:19.000Z</time>
      </trkpt>
      <trkpt lat="47.58423" lon="5.92529">
        <ele>251</ele>
        <time>2014-03-09T10:08:21.000Z</time>
      </trkpt>
      <trkpt lat="47.58419" lon="5.92539">
        <ele>251.39999389648</ele>
        <time>2014-03-09T10:08:25.000Z</time>
      </trkpt>
      <trkpt lat="47.58418" lon="5.92542">
        <ele>251.80000305176</ele>
        <time>2014-03-09T10:08:26.000Z</time>
      </trkpt>
      <trkpt lat="47.58417" lon="5.92545">
        <ele>252.19999694824</ele>
        <time>2014-03-09T10:08:27.000Z</time>
      </trkpt>
      <trkpt lat="47.58417" lon="5.92547">
        <ele>252.60000610352</ele>
        <time>2014-03-09T10:08:28.000Z</time>
      </trkpt>
      <trkpt lat="47.58417" lon="5.92551">
        <ele>253</ele>
        <time>2014-03-09T10:08:29.000Z</time>
      </trkpt>
      <trkpt lat="47.58413" lon="5.9256">
        <ele>253</ele>
        <time>2014-03-09T10:08:33.000Z</time>
      </trkpt>
      <trkpt lat="47.58412" lon="5.92562">
        <ele>253</ele>
        <time>2014-03-09T10:08:34.000Z</time>
      </trkpt>
      <trkpt lat="47.58409" lon="5.92573">
        <ele>253.60000610352</ele>
        <time>2014-03-09T10:08:38.000Z</time>
      </trkpt>
      <trkpt lat="47.58409" lon="5.92577">
        <ele>254</ele>
        <time>2014-03-09T10:08:39.000Z</time>
      </trkpt>
      <trkpt lat="47.58408" lon="5.9258">
        <ele>254.39999389648</ele>
        <time>2014-03-09T10:08:40.000Z</time>
      </trkpt>
      <trkpt lat="47.58407" lon="5.92585">
        <ele>254.80000305176</ele>
        <time>2014-03-09T10:08:41.000Z</time>
      </trkpt>
      <trkpt lat="47.58406" lon="5.92587">
        <ele>255.19999694824</ele>
        <time>2014-03-09T10:08:42.000Z</time>
      </trkpt>
      <trkpt lat="47.58406" lon="5.9259">
        <ele>255.19999694824</ele>
        <time>2014-03-09T10:08:43.000Z</time>
      </trkpt>
      <trkpt lat="47.58406" lon="5.92593">
        <ele>255.19999694824</ele>
        <time>2014-03-09T10:08:44.000Z</time>
      </trkpt>
      <trkpt lat="47.58406" lon="5.92601">
        <ele>255.19999694824</ele>
        <time>2014-03-09T10:08:47.000Z</time>
      </trkpt>
      <trkpt lat="47.58407" lon="5.92602">
        <ele>255.19999694824</ele>
        <time>2014-03-09T10:08:48.000Z</time>
      </trkpt>
      <trkpt lat="47.58408" lon="5.92607">
        <ele>255.19999694824</ele>
        <time>2014-03-09T10:08:50.000Z</time>
      </trkpt>
      <trkpt lat="47.58407" lon="5.92609">
        <ele>255.19999694824</ele>
        <time>2014-03-09T10:08:51.000Z</time>
      </trkpt>
      <trkpt lat="47.58401" lon="5.92619">
        <ele>255.19999694824</ele>
        <time>2014-03-09T10:08:57.000Z</time>
      </trkpt>
      <trkpt lat="47.584" lon="5.92619">
        <ele>255.19999694824</ele>
        <time>2014-03-09T10:08:58.000Z</time>
      </trkpt>
      <trkpt lat="47.58395" lon="5.92625">
        <ele>255.19999694824</ele>
        <time>2014-03-09T10:09:02.000Z</time>
      </trkpt>
      <trkpt lat="47.58394" lon="5.9263">
        <ele>255.19999694824</ele>
        <time>2014-03-09T10:09:04.000Z</time>
      </trkpt>
      <trkpt lat="47.58392" lon="5.92643">
        <ele>255.19999694824</ele>
        <time>2014-03-09T10:09:08.000Z</time>
      </trkpt>
      <trkpt lat="47.58391" lon="5.92649">
        <ele>255.19999694824</ele>
        <time>2014-03-09T10:09:10.000Z</time>
      </trkpt>
      <trkpt lat="47.58387" lon="5.92669">
        <ele>255.19999694824</ele>
        <time>2014-03-09T10:09:16.000Z</time>
      </trkpt>
      <trkpt lat="47.58382" lon="5.92688">
        <ele>255.19999694824</ele>
        <time>2014-03-09T10:09:21.000Z</time>
      </trkpt>
      <trkpt lat="47.58376" lon="5.92706">
        <ele>255.19999694824</ele>
        <time>2014-03-09T10:09:26.000Z</time>
      </trkpt>
      <trkpt lat="47.58375" lon="5.92708">
        <ele>255.19999694824</ele>
        <time>2014-03-09T10:09:27.000Z</time>
      </trkpt>
      <trkpt lat="47.58371" lon="5.92721">
        <ele>255.60000610352</ele>
        <time>2014-03-09T10:09:31.000Z</time>
      </trkpt>
      <trkpt lat="47.58369" lon="5.92725">
        <ele>256</ele>
        <time>2014-03-09T10:09:32.000Z</time>
      </trkpt>
      <trkpt lat="47.58369" lon="5.92729">
        <ele>256.39999389648</ele>
        <time>2014-03-09T10:09:33.000Z</time>
      </trkpt>
      <trkpt lat="47.58369" lon="5.92731">
        <ele>256.79998779297</ele>
        <time>2014-03-09T10:09:34.000Z</time>
      </trkpt>
      <trkpt lat="47.58369" lon="5.92735">
        <ele>257.20001220703</ele>
        <time>2014-03-09T10:09:35.000Z</time>
      </trkpt>
      <trkpt lat="47.58369" lon="5.92738">
        <ele>257.20001220703</ele>
        <time>2014-03-09T10:09:36.000Z</time>
      </trkpt>
      <trkpt lat="47.58368" lon="5.92743">
        <ele>257.20001220703</ele>
        <time>2014-03-09T10:09:38.000Z</time>
      </trkpt>
      <trkpt lat="47.58367" lon="5.92746">
        <ele>257.20001220703</ele>
        <time>2014-03-09T10:09:39.000Z</time>
      </trkpt>
      <trkpt lat="47.58367" lon="5.92753">
        <ele>257.20001220703</ele>
        <time>2014-03-09T10:09:41.000Z</time>
      </trkpt>
      <trkpt lat="47.58367" lon="5.92756">
        <ele>257.20001220703</ele>
        <time>2014-03-09T10:09:42.000Z</time>
      </trkpt>
      <trkpt lat="47.58367" lon="5.92762">
        <ele>257.20001220703</ele>
        <time>2014-03-09T10:09:44.000Z</time>
      </trkpt>
      <trkpt lat="47.58364" lon="5.92772">
        <ele>257.20001220703</ele>
        <time>2014-03-09T10:09:47.000Z</time>
      </trkpt>
      <trkpt lat="47.58358" lon="5.92794">
        <ele>257.20001220703</ele>
        <time>2014-03-09T10:09:54.000Z</time>
      </trkpt>
      <trkpt lat="47.58352" lon="5.92812">
        <ele>257.20001220703</ele>
        <time>2014-03-09T10:09:59.000Z</time>
      </trkpt>
      <trkpt lat="47.58348" lon="5.92824">
        <ele>257.20001220703</ele>
        <time>2014-03-09T10:10:02.000Z</time>
      </trkpt>
      <trkpt lat="47.58346" lon="5.92834">
        <ele>257.20001220703</ele>
        <time>2014-03-09T10:10:04.000Z</time>
      </trkpt>
      <trkpt lat="47.58343" lon="5.92848">
        <ele>257.20001220703</ele>
        <time>2014-03-09T10:10:07.000Z</time>
      </trkpt>
      <trkpt lat="47.58342" lon="5.92855">
        <ele>257.20001220703</ele>
        <time>2014-03-09T10:10:09.000Z</time>
      </trkpt>
      <trkpt lat="47.58335" lon="5.92886">
        <ele>257.20001220703</ele>
        <time>2014-03-09T10:10:16.000Z</time>
      </trkpt>
      <trkpt lat="47.58328" lon="5.92907">
        <ele>257.20001220703</ele>
        <time>2014-03-09T10:10:21.000Z</time>
      </trkpt>
      <trkpt lat="47.58323" lon="5.92931">
        <ele>257.20001220703</ele>
        <time>2014-03-09T10:10:27.000Z</time>
      </trkpt>
      <trkpt lat="47.58316" lon="5.92954">
        <ele>257.20001220703</ele>
        <time>2014-03-09T10:10:33.000Z</time>
      </trkpt>
      <trkpt lat="47.58312" lon="5.9296">
        <ele>257.20001220703</ele>
        <time>2014-03-09T10:10:35.000Z</time>
      </trkpt>
      <trkpt lat="47.5831" lon="5.92964">
        <ele>257.20001220703</ele>
        <time>2014-03-09T10:10:37.000Z</time>
      </trkpt>
      <trkpt lat="47.58301" lon="5.92967">
        <ele>255.19999694824</ele>
        <time>2014-03-09T10:11:43.000Z</time>
      </trkpt>
      <trkpt lat="47.5829" lon="5.92957">
        <ele>255.19999694824</ele>
        <time>2014-03-09T10:11:48.000Z</time>
      </trkpt>
      <trkpt lat="47.58285" lon="5.92951">
        <ele>254.80000305176</ele>
        <time>2014-03-09T10:11:50.000Z</time>
      </trkpt>
      <trkpt lat="47.58282" lon="5.92948">
        <ele>254.39999389648</ele>
        <time>2014-03-09T10:11:51.000Z</time>
      </trkpt>
      <trkpt lat="47.5828" lon="5.92944">
        <ele>253.80000305176</ele>
        <time>2014-03-09T10:11:52.000Z</time>
      </trkpt>
      <trkpt lat="47.58277" lon="5.92941">
        <ele>253.39999389648</ele>
        <time>2014-03-09T10:11:53.000Z</time>
      </trkpt>
      <trkpt lat="47.58274" lon="5.92936">
        <ele>253</ele>
        <time>2014-03-09T10:11:54.000Z</time>
      </trkpt>
      <trkpt lat="47.58268" lon="5.92922">
        <ele>253</ele>
        <time>2014-03-09T10:11:58.000Z</time>
      </trkpt>
      <trkpt lat="47.58267" lon="5.92919">
        <ele>253</ele>
        <time>2014-03-09T10:12:00.000Z</time>
      </trkpt>
      <trkpt lat="47.58268" lon="5.92922">
        <ele>251</ele>
        <time>2014-03-09T10:12:07.000Z</time>
      </trkpt>
      <trkpt lat="47.58269" lon="5.92925">
        <ele>251</ele>
        <time>2014-03-09T10:12:08.000Z</time>
      </trkpt>
      <trkpt lat="47.58276" lon="5.9294">
        <ele>251</ele>
        <time>2014-03-09T10:12:14.000Z</time>
      </trkpt>
      <trkpt lat="47.58287" lon="5.92954">
        <ele>251</ele>
        <time>2014-03-09T10:12:21.000Z</time>
      </trkpt>
      <trkpt lat="47.58291" lon="5.92958">
        <ele>251.39999389648</ele>
        <time>2014-03-09T10:12:23.000Z</time>
      </trkpt>
      <trkpt lat="47.58292" lon="5.9296">
        <ele>251.80000305176</ele>
        <time>2014-03-09T10:12:24.000Z</time>
      </trkpt>
      <trkpt lat="47.58294" lon="5.92962">
        <ele>252.19999694824</ele>
        <time>2014-03-09T10:12:25.000Z</time>
      </trkpt>
      <trkpt lat="47.58296" lon="5.92964">
        <ele>252.60000610352</ele>
        <time>2014-03-09T10:12:26.000Z</time>
      </trkpt>
      <trkpt lat="47.58297" lon="5.92965">
        <ele>253</ele>
        <time>2014-03-09T10:12:27.000Z</time>
      </trkpt>
      <trkpt lat="47.583" lon="5.92968">
        <ele>253</ele>
        <time>2014-03-09T10:12:29.000Z</time>
      </trkpt>
      <trkpt lat="47.58306" lon="5.92967">
        <ele>253</ele>
        <time>2014-03-09T10:12:31.000Z</time>
      </trkpt>
      <trkpt lat="47.58309" lon="5.92963">
        <ele>253.39999389648</ele>
        <time>2014-03-09T10:12:34.000Z</time>
      </trkpt>
      <trkpt lat="47.5831" lon="5.9296">
        <ele>253.80000305176</ele>
        <time>2014-03-09T10:12:35.000Z</time>
      </trkpt>
      <trkpt lat="47.58311" lon="5.92958">
        <ele>254.19999694824</ele>
        <time>2014-03-09T10:12:36.000Z</time>
      </trkpt>
      <trkpt lat="47.58312" lon="5.92955">
        <ele>254.60000610352</ele>
        <time>2014-03-09T10:12:37.000Z</time>
      </trkpt>
      <trkpt lat="47.58313" lon="5.92951">
        <ele>255</ele>
        <time>2014-03-09T10:12:38.000Z</time>
      </trkpt>
      <trkpt lat="47.58316" lon="5.92944">
        <ele>255</ele>
        <time>2014-03-09T10:12:41.000Z</time>
      </trkpt>
      <trkpt lat="47.5832" lon="5.92933">
        <ele>255</ele>
        <time>2014-03-09T10:12:44.000Z</time>
      </trkpt>
      <trkpt lat="47.58322" lon="5.92922">
        <ele>255</ele>
        <time>2014-03-09T10:12:49.000Z</time>
      </trkpt>
      <trkpt lat="47.58326" lon="5.92903">
        <ele>255</ele>
        <time>2014-03-09T10:12:55.000Z</time>
      </trkpt>
      <trkpt lat="47.58332" lon="5.92883">
        <ele>255</ele>
        <time>2014-03-09T10:13:00.000Z</time>
      </trkpt>
      <trkpt lat="47.58337" lon="5.92865">
        <ele>255</ele>
        <time>2014-03-09T10:13:05.000Z</time>
      </trkpt>
      <trkpt lat="47.58342" lon="5.92841">
        <ele>255</ele>
        <time>2014-03-09T10:13:10.000Z</time>
      </trkpt>
      <trkpt lat="47.58346" lon="5.92824">
        <ele>255</ele>
        <time>2014-03-09T10:13:14.000Z</time>
      </trkpt>
      <trkpt lat="47.58349" lon="5.92803">
        <ele>255</ele>
        <time>2014-03-09T10:13:19.000Z</time>
      </trkpt>
      <trkpt lat="47.58356" lon="5.92786">
        <ele>255</ele>
        <time>2014-03-09T10:13:24.000Z</time>
      </trkpt>
      <trkpt lat="47.58361" lon="5.92762">
        <ele>255</ele>
        <time>2014-03-09T10:13:30.000Z</time>
      </trkpt>
      <trkpt lat="47.58365" lon="5.92743">
        <ele>255</ele>
        <time>2014-03-09T10:13:35.000Z</time>
      </trkpt>
      <trkpt lat="47.58372" lon="5.92721">
        <ele>255</ele>
        <time>2014-03-09T10:13:40.000Z</time>
      </trkpt>
      <trkpt lat="47.58377" lon="5.92696">
        <ele>255</ele>
        <time>2014-03-09T10:13:44.000Z</time>
      </trkpt>
      <trkpt lat="47.58384" lon="5.9267">
        <ele>255</ele>
        <time>2014-03-09T10:13:49.000Z</time>
      </trkpt>
      <trkpt lat="47.5839" lon="5.92654">
        <ele>255</ele>
        <time>2014-03-09T10:13:53.000Z</time>
      </trkpt>
      <trkpt lat="47.58393" lon="5.92639">
        <ele>255</ele>
        <time>2014-03-09T10:13:57.000Z</time>
      </trkpt>
      <trkpt lat="47.58399" lon="5.92626">
        <ele>255</ele>
        <time>2014-03-09T10:14:02.000Z</time>
      </trkpt>
      <trkpt lat="47.58402" lon="5.92622">
        <ele>255</ele>
        <time>2014-03-09T10:14:04.000Z</time>
      </trkpt>
      <trkpt lat="47.58403" lon="5.92614">
        <ele>255</ele>
        <time>2014-03-09T10:14:07.000Z</time>
      </trkpt>
      <trkpt lat="47.58403" lon="5.92608">
        <ele>255</ele>
        <time>2014-03-09T10:14:09.000Z</time>
      </trkpt>
      <trkpt lat="47.58402" lon="5.92605">
        <ele>255</ele>
        <time>2014-03-09T10:14:10.000Z</time>
      </trkpt>
      <trkpt lat="47.58402" lon="5.92602">
        <ele>255</ele>
        <time>2014-03-09T10:14:11.000Z</time>
      </trkpt>
      <trkpt lat="47.58402" lon="5.92595">
        <ele>255</ele>
        <time>2014-03-09T10:14:13.000Z</time>
      </trkpt>
      <trkpt lat="47.58408" lon="5.92578">
        <ele>255</ele>
        <time>2014-03-09T10:14:18.000Z</time>
      </trkpt>
      <trkpt lat="47.5841" lon="5.92572">
        <ele>254.60000610352</ele>
        <time>2014-03-09T10:14:19.000Z</time>
      </trkpt>
      <trkpt lat="47.58411" lon="5.92566">
        <ele>254.19999694824</ele>
        <time>2014-03-09T10:14:20.000Z</time>
      </trkpt>
      <trkpt lat="47.58412" lon="5.92561">
        <ele>253.80000305176</ele>
        <time>2014-03-09T10:14:21.000Z</time>
      </trkpt>
      <trkpt lat="47.58414" lon="5.92555">
        <ele>253.19999694824</ele>
        <time>2014-03-09T10:14:22.000Z</time>
      </trkpt>
      <trkpt lat="47.58415" lon="5.92549">
        <ele>252.80000305176</ele>
        <time>2014-03-09T10:14:23.000Z</time>
      </trkpt>
      <trkpt lat="47.58418" lon="5.92536">
        <ele>252.39999389648</ele>
        <time>2014-03-09T10:14:25.000Z</time>
      </trkpt>
      <trkpt lat="47.58421" lon="5.92529">
        <ele>252</ele>
        <time>2014-03-09T10:14:26.000Z</time>
      </trkpt>
      <trkpt lat="47.58423" lon="5.92521">
        <ele>251.60000610352</ele>
        <time>2014-03-09T10:14:27.000Z</time>
      </trkpt>
      <trkpt lat="47.58425" lon="5.92514">
        <ele>251</ele>
        <time>2014-03-09T10:14:28.000Z</time>
      </trkpt>
      <trkpt lat="47.58427" lon="5.92507">
        <ele>250.39999389648</ele>
        <time>2014-03-09T10:14:29.000Z</time>
      </trkpt>
      <trkpt lat="47.58429" lon="5.925">
        <ele>249.80000305176</ele>
        <time>2014-03-09T10:14:30.000Z</time>
      </trkpt>
      <trkpt lat="47.5843" lon="5.92493">
        <ele>249.39999389648</ele>
        <time>2014-03-09T10:14:31.000Z</time>
      </trkpt>
      <trkpt lat="47.58432" lon="5.92484">
        <ele>248.80000305176</ele>
        <time>2014-03-09T10:14:32.000Z</time>
      </trkpt>
      <trkpt lat="47.58434" lon="5.92476">
        <ele>248</ele>
        <time>2014-03-09T10:14:33.000Z</time>
      </trkpt>
      <trkpt lat="47.58435" lon="5.9247">
        <ele>247.39999389648</ele>
        <time>2014-03-09T10:14:34.000Z</time>
      </trkpt>
      <trkpt lat="47.58435" lon="5.92463">
        <ele>246.80000305176</ele>
        <time>2014-03-09T10:14:35.000Z</time>
      </trkpt>
      <trkpt lat="47.58436" lon="5.92457">
        <ele>245.60000610352</ele>
        <time>2014-03-09T10:14:36.000Z</time>
      </trkpt>
      <trkpt lat="47.58438" lon="5.92453">
        <ele>245.19999694824</ele>
        <time>2014-03-09T10:14:37.000Z</time>
      </trkpt>
      <trkpt lat="47.58441" lon="5.9245">
        <ele>244.60000610352</ele>
        <time>2014-03-09T10:14:38.000Z</time>
      </trkpt>
      <trkpt lat="47.58443" lon="5.92449">
        <ele>244.19999694824</ele>
        <time>2014-03-09T10:14:39.000Z</time>
      </trkpt>
      <trkpt lat="47.58445" lon="5.92449">
        <ele>243.60000610352</ele>
        <time>2014-03-09T10:14:40.000Z</time>
      </trkpt>
      <trkpt lat="47.58447" lon="5.9245">
        <ele>243.19999694824</ele>
        <time>2014-03-09T10:14:41.000Z</time>
      </trkpt>
      <trkpt lat="47.5845" lon="5.9245">
        <ele>243.19999694824</ele>
        <time>2014-03-09T10:14:43.000Z</time>
      </trkpt>
      <trkpt lat="47.58452" lon="5.92451">
        <ele>243.19999694824</ele>
        <time>2014-03-09T10:14:44.000Z</time>
      </trkpt>
      <trkpt lat="47.58454" lon="5.92452">
        <ele>242.80000305176</ele>
        <time>2014-03-09T10:14:45.000Z</time>
      </trkpt>
      <trkpt lat="47.58457" lon="5.92455">
        <ele>242.39999389648</ele>
        <time>2014-03-09T10:14:46.000Z</time>
      </trkpt>
      <trkpt lat="47.5846" lon="5.92456">
        <ele>241.80000305176</ele>
        <time>2014-03-09T10:14:47.000Z</time>
      </trkpt>
      <trkpt lat="47.58463" lon="5.92458">
        <ele>241.39999389648</ele>
        <time>2014-03-09T10:14:48.000Z</time>
      </trkpt>
      <trkpt lat="47.58466" lon="5.9246">
        <ele>241</ele>
        <time>2014-03-09T10:14:49.000Z</time>
      </trkpt>
      <trkpt lat="47.58478" lon="5.92466">
        <ele>240.60000610352</ele>
        <time>2014-03-09T10:14:52.000Z</time>
      </trkpt>
      <trkpt lat="47.58482" lon="5.92468">
        <ele>240</ele>
        <time>2014-03-09T10:14:53.000Z</time>
      </trkpt>
      <trkpt lat="47.58487" lon="5.92469">
        <ele>239.60000610352</ele>
        <time>2014-03-09T10:14:54.000Z</time>
      </trkpt>
      <trkpt lat="47.58492" lon="5.92471">
        <ele>239.19999694824</ele>
        <time>2014-03-09T10:14:55.000Z</time>
      </trkpt>
      <trkpt lat="47.58496" lon="5.92473">
        <ele>238.60000610352</ele>
        <time>2014-03-09T10:14:56.000Z</time>
      </trkpt>
      <trkpt lat="47.58508" lon="5.92479">
        <ele>238.19999694824</ele>
        <time>2014-03-09T10:14:59.000Z</time>
      </trkpt>
      <trkpt lat="47.58512" lon="5.92481">
        <ele>237.39999389648</ele>
        <time>2014-03-09T10:15:00.000Z</time>
      </trkpt>
      <trkpt lat="47.58515" lon="5.92482">
        <ele>237</ele>
        <time>2014-03-09T10:15:01.000Z</time>
      </trkpt>
      <trkpt lat="47.58519" lon="5.92482">
        <ele>236.60000610352</ele>
        <time>2014-03-09T10:15:02.000Z</time>
      </trkpt>
      <trkpt lat="47.58528" lon="5.92486">
        <ele>236.60000610352</ele>
        <time>2014-03-09T10:15:05.000Z</time>
      </trkpt>
      <trkpt lat="47.5854" lon="5.92494">
        <ele>236.60000610352</ele>
        <time>2014-03-09T10:15:09.000Z</time>
      </trkpt>
      <trkpt lat="47.58542" lon="5.92494">
        <ele>236.60000610352</ele>
        <time>2014-03-09T10:15:10.000Z</time>
      </trkpt>
      <trkpt lat="47.58554" lon="5.925">
        <ele>236.60000610352</ele>
        <time>2014-03-09T10:15:14.000Z</time>
      </trkpt>
      <trkpt lat="47.58566" lon="5.92506">
        <ele>237</ele>
        <time>2014-03-09T10:15:18.000Z</time>
      </trkpt>
      <trkpt lat="47.58569" lon="5.92507">
        <ele>237.39999389648</ele>
        <time>2014-03-09T10:15:19.000Z</time>
      </trkpt>
      <trkpt lat="47.58571" lon="5.92508">
        <ele>237.80000305176</ele>
        <time>2014-03-09T10:15:20.000Z</time>
      </trkpt>
      <trkpt lat="47.58574" lon="5.9251">
        <ele>238.19999694824</ele>
        <time>2014-03-09T10:15:21.000Z</time>
      </trkpt>
      <trkpt lat="47.58577" lon="5.92511">
        <ele>238.60000610352</ele>
        <time>2014-03-09T10:15:22.000Z</time>
      </trkpt>
      <trkpt lat="47.58581" lon="5.92514">
        <ele>238.60000610352</ele>
        <time>2014-03-09T10:15:24.000Z</time>
      </trkpt>
      <trkpt lat="47.58587" lon="5.92519">
        <ele>238.60000610352</ele>
        <time>2014-03-09T10:15:27.000Z</time>
      </trkpt>
      <trkpt lat="47.58593" lon="5.92522">
        <ele>238.60000610352</ele>
        <time>2014-03-09T10:15:29.000Z</time>
      </trkpt>
      <trkpt lat="47.58594" lon="5.92523">
        <ele>239</ele>
        <time>2014-03-09T10:15:30.000Z</time>
      </trkpt>
      <trkpt lat="47.5861" lon="5.92531">
        <ele>240.80000305176</ele>
        <time>2014-03-09T10:15:37.000Z</time>
      </trkpt>
      <trkpt lat="47.58616" lon="5.92534">
        <ele>240.80000305176</ele>
        <time>2014-03-09T10:15:39.000Z</time>
      </trkpt>
      <trkpt lat="47.58627" lon="5.92539">
        <ele>240.80000305176</ele>
        <time>2014-03-09T10:15:44.000Z</time>
      </trkpt>
      <trkpt lat="47.58632" lon="5.92544">
        <ele>241.39999389648</ele>
        <time>2014-03-09T10:15:46.000Z</time>
      </trkpt>
      <trkpt lat="47.58635" lon="5.92546">
        <ele>242.19999694824</ele>
        <time>2014-03-09T10:15:47.000Z</time>
      </trkpt>
      <trkpt lat="47.58637" lon="5.92547">
        <ele>242.80000305176</ele>
        <time>2014-03-09T10:15:48.000Z</time>
      </trkpt>
      <trkpt lat="47.58639" lon="5.92549">
        <ele>243.60000610352</ele>
        <time>2014-03-09T10:15:49.000Z</time>
      </trkpt>
      <trkpt lat="47.58641" lon="5.9255">
        <ele>244.39999389648</ele>
        <time>2014-03-09T10:15:50.000Z</time>
      </trkpt>
      <trkpt lat="47.58647" lon="5.92553">
        <ele>244.39999389648</ele>
        <time>2014-03-09T10:15:53.000Z</time>
      </trkpt>
      <trkpt lat="47.5866" lon="5.92559">
        <ele>245.19999694824</ele>
        <time>2014-03-09T10:16:00.000Z</time>
      </trkpt>
      <trkpt lat="47.58662" lon="5.9256">
        <ele>245.60000610352</ele>
        <time>2014-03-09T10:16:01.000Z</time>
      </trkpt>
      <trkpt lat="47.58664" lon="5.9256">
        <ele>246</ele>
        <time>2014-03-09T10:16:02.000Z</time>
      </trkpt>
      <trkpt lat="47.58666" lon="5.92561">
        <ele>246.39999389648</ele>
        <time>2014-03-09T10:16:03.000Z</time>
      </trkpt>
      <trkpt lat="47.58669" lon="5.92563">
        <ele>246.39999389648</ele>
        <time>2014-03-09T10:16:05.000Z</time>
      </trkpt>
      <trkpt lat="47.58675" lon="5.92567">
        <ele>246.39999389648</ele>
        <time>2014-03-09T10:16:08.000Z</time>
      </trkpt>
      <trkpt lat="47.58676" lon="5.92568">
        <ele>246.39999389648</ele>
        <time>2014-03-09T10:16:09.000Z</time>
      </trkpt>
      <trkpt lat="47.58682" lon="5.92572">
        <ele>247.19999694824</ele>
        <time>2014-03-09T10:16:12.000Z</time>
      </trkpt>
      <trkpt lat="47.58684" lon="5.92573">
        <ele>247.60000610352</ele>
        <time>2014-03-09T10:16:13.000Z</time>
      </trkpt>
      <trkpt lat="47.58695" lon="5.92578">
        <ele>248.60000610352</ele>
        <time>2014-03-09T10:16:19.000Z</time>
      </trkpt>
      <trkpt lat="47.58697" lon="5.9258">
        <ele>248.60000610352</ele>
        <time>2014-03-09T10:16:20.000Z</time>
      </trkpt>
      <trkpt lat="47.58701" lon="5.92582">
        <ele>249</ele>
        <time>2014-03-09T10:16:22.000Z</time>
      </trkpt>
      <trkpt lat="47.58704" lon="5.92583">
        <ele>249.39999389648</ele>
        <time>2014-03-09T10:16:23.000Z</time>
      </trkpt>
      <trkpt lat="47.58705" lon="5.92584">
        <ele>249.80000305176</ele>
        <time>2014-03-09T10:16:24.000Z</time>
      </trkpt>
      <trkpt lat="47.58707" lon="5.92584">
        <ele>250.19999694824</ele>
        <time>2014-03-09T10:16:25.000Z</time>
      </trkpt>
      <trkpt lat="47.58709" lon="5.92585">
        <ele>250.60000610352</ele>
        <time>2014-03-09T10:16:26.000Z</time>
      </trkpt>
      <trkpt lat="47.58716" lon="5.9259">
        <ele>250.60000610352</ele>
        <time>2014-03-09T10:16:31.000Z</time>
      </trkpt>
      <trkpt lat="47.58724" lon="5.92595">
        <ele>250.60000610352</ele>
        <time>2014-03-09T10:16:35.000Z</time>
      </trkpt>
      <trkpt lat="47.58726" lon="5.92597">
        <ele>251</ele>
        <time>2014-03-09T10:16:36.000Z</time>
      </trkpt>
      <trkpt lat="47.58729" lon="5.92599">
        <ele>251.39999389648</ele>
        <time>2014-03-09T10:16:37.000Z</time>
      </trkpt>
      <trkpt lat="47.58731" lon="5.92601">
        <ele>251.80000305176</ele>
        <time>2014-03-09T10:16:38.000Z</time>
      </trkpt>
      <trkpt lat="47.58733" lon="5.92603">
        <ele>252.19999694824</ele>
        <time>2014-03-09T10:16:39.000Z</time>
      </trkpt>
      <trkpt lat="47.58735" lon="5.92604">
        <ele>252.80000305176</ele>
        <time>2014-03-09T10:16:40.000Z</time>
      </trkpt>
      <trkpt lat="47.58737" lon="5.92607">
        <ele>252.80000305176</ele>
        <time>2014-03-09T10:16:41.000Z</time>
      </trkpt>
      <trkpt lat="47.58748" lon="5.92622">
        <ele>252.80000305176</ele>
        <time>2014-03-09T10:16:48.000Z</time>
      </trkpt>
      <trkpt lat="47.5876" lon="5.9264">
        <ele>252.80000305176</ele>
        <time>2014-03-09T10:16:56.000Z</time>
      </trkpt>
      <trkpt lat="47.58765" lon="5.92648">
        <ele>253.19999694824</ele>
        <time>2014-03-09T10:17:00.000Z</time>
      </trkpt>
      <trkpt lat="47.58767" lon="5.9265">
        <ele>253.60000610352</ele>
        <time>2014-03-09T10:17:01.000Z</time>
      </trkpt>
      <trkpt lat="47.58768" lon="5.92652">
        <ele>254</ele>
        <time>2014-03-09T10:17:02.000Z</time>
      </trkpt>
      <trkpt lat="47.58769" lon="5.92654">
        <ele>254.39999389648</ele>
        <time>2014-03-09T10:17:03.000Z</time>
      </trkpt>
      <trkpt lat="47.58771" lon="5.92657">
        <ele>254.80000305176</ele>
        <time>2014-03-09T10:17:04.000Z</time>
      </trkpt>
      <trkpt lat="47.58782" lon="5.92672">
        <ele>254.80000305176</ele>
        <time>2014-03-09T10:17:11.000Z</time>
      </trkpt>
      <trkpt lat="47.58794" lon="5.92692">
        <ele>254.80000305176</ele>
        <time>2014-03-09T10:17:19.000Z</time>
      </trkpt>
      <trkpt lat="47.58805" lon="5.9271">
        <ele>255.19999694824</ele>
        <time>2014-03-09T10:17:26.000Z</time>
      </trkpt>
      <trkpt lat="47.58807" lon="5.92712">
        <ele>255.60000610352</ele>
        <time>2014-03-09T10:17:27.000Z</time>
      </trkpt>
      <trkpt lat="47.58808" lon="5.92714">
        <ele>256</ele>
        <time>2014-03-09T10:17:28.000Z</time>
      </trkpt>
      <trkpt lat="47.5881" lon="5.92717">
        <ele>256.79998779297</ele>
        <time>2014-03-09T10:17:29.000Z</time>
      </trkpt>
      <trkpt lat="47.58818" lon="5.92733">
        <ele>256.79998779297</ele>
        <time>2014-03-09T10:17:35.000Z</time>
      </trkpt>
      <trkpt lat="47.58829" lon="5.92751">
        <ele>256.79998779297</ele>
        <time>2014-03-09T10:17:42.000Z</time>
      </trkpt>
      <trkpt lat="47.58839" lon="5.92764">
        <ele>256.79998779297</ele>
        <time>2014-03-09T10:17:48.000Z</time>
      </trkpt>
      <trkpt lat="47.58849" lon="5.92781">
        <ele>257.60000610352</ele>
        <time>2014-03-09T10:17:54.000Z</time>
      </trkpt>
      <trkpt lat="47.5885" lon="5.92784">
        <ele>258</ele>
        <time>2014-03-09T10:17:55.000Z</time>
      </trkpt>
      <trkpt lat="47.58852" lon="5.92787">
        <ele>258.39999389648</ele>
        <time>2014-03-09T10:17:56.000Z</time>
      </trkpt>
      <trkpt lat="47.58854" lon="5.9279">
        <ele>258.79998779297</ele>
        <time>2014-03-09T10:17:57.000Z</time>
      </trkpt>
      <trkpt lat="47.58861" lon="5.928">
        <ele>258.79998779297</ele>
        <time>2014-03-09T10:18:01.000Z</time>
      </trkpt>
      <trkpt lat="47.58877" lon="5.9282">
        <ele>258.79998779297</ele>
        <time>2014-03-09T10:18:10.000Z</time>
      </trkpt>
      <trkpt lat="47.58887" lon="5.92818">
        <ele>258.79998779297</ele>
        <time>2014-03-09T10:18:15.000Z</time>
      </trkpt>
      <trkpt lat="47.58889" lon="5.92818">
        <ele>258.79998779297</ele>
        <time>2014-03-09T10:18:16.000Z</time>
      </trkpt>
      <trkpt lat="47.58903" lon="5.92826">
        <ele>258.79998779297</ele>
        <time>2014-03-09T10:18:21.000Z</time>
      </trkpt>
      <trkpt lat="47.58923" lon="5.92847">
        <ele>258.79998779297</ele>
        <time>2014-03-09T10:18:27.000Z</time>
      </trkpt>
      <trkpt lat="47.58926" lon="5.92851">
        <ele>258.79998779297</ele>
        <time>2014-03-09T10:18:28.000Z</time>
      </trkpt>
      <trkpt lat="47.5893" lon="5.92855">
        <ele>258.39999389648</ele>
        <time>2014-03-09T10:18:29.000Z</time>
      </trkpt>
      <trkpt lat="47.58933" lon="5.9286">
        <ele>258</ele>
        <time>2014-03-09T10:18:30.000Z</time>
      </trkpt>
      <trkpt lat="47.58937" lon="5.92864">
        <ele>257.60000610352</ele>
        <time>2014-03-09T10:18:31.000Z</time>
      </trkpt>
      <trkpt lat="47.58941" lon="5.92868">
        <ele>257.20001220703</ele>
        <time>2014-03-09T10:18:32.000Z</time>
      </trkpt>
      <trkpt lat="47.58945" lon="5.92873">
        <ele>256.79998779297</ele>
        <time>2014-03-09T10:18:33.000Z</time>
      </trkpt>
      <trkpt lat="47.58958" lon="5.92891">
        <ele>256.79998779297</ele>
        <time>2014-03-09T10:18:36.000Z</time>
      </trkpt>
      <trkpt lat="47.58963" lon="5.92896">
        <ele>256.39999389648</ele>
        <time>2014-03-09T10:18:37.000Z</time>
      </trkpt>
      <trkpt lat="47.58968" lon="5.92902">
        <ele>256</ele>
        <time>2014-03-09T10:18:38.000Z</time>
      </trkpt>
      <trkpt lat="47.58972" lon="5.92908">
        <ele>255.39999389648</ele>
        <time>2014-03-09T10:18:39.000Z</time>
      </trkpt>
      <trkpt lat="47.58976" lon="5.92913">
        <ele>255</ele>
        <time>2014-03-09T10:18:40.000Z</time>
      </trkpt>
      <trkpt lat="47.5898" lon="5.92918">
        <ele>254.60000610352</ele>
        <time>2014-03-09T10:18:41.000Z</time>
      </trkpt>
      <trkpt lat="47.58984" lon="5.92924">
        <ele>253.60000610352</ele>
        <time>2014-03-09T10:18:42.000Z</time>
      </trkpt>
      <trkpt lat="47.58988" lon="5.92928">
        <ele>253.19999694824</ele>
        <time>2014-03-09T10:18:43.000Z</time>
      </trkpt>
      <trkpt lat="47.58992" lon="5.92933">
        <ele>252.60000610352</ele>
        <time>2014-03-09T10:18:44.000Z</time>
      </trkpt>
      <trkpt lat="47.58996" lon="5.92937">
        <ele>252.19999694824</ele>
        <time>2014-03-09T10:18:45.000Z</time>
      </trkpt>
      <trkpt lat="47.59012" lon="5.92958">
        <ele>251.80000305176</ele>
        <time>2014-03-09T10:18:49.000Z</time>
      </trkpt>
      <trkpt lat="47.59017" lon="5.92963">
        <ele>251.39999389648</ele>
        <time>2014-03-09T10:18:50.000Z</time>
      </trkpt>
      <trkpt lat="47.59021" lon="5.92967">
        <ele>251</ele>
        <time>2014-03-09T10:18:51.000Z</time>
      </trkpt>
      <trkpt lat="47.59024" lon="5.92972">
        <ele>250.60000610352</ele>
        <time>2014-03-09T10:18:52.000Z</time>
      </trkpt>
      <trkpt lat="47.59028" lon="5.92978">
        <ele>250.19999694824</ele>
        <time>2014-03-09T10:18:53.000Z</time>
      </trkpt>
      <trkpt lat="47.59037" lon="5.92984">
        <ele>250.19999694824</ele>
        <time>2014-03-09T10:18:55.000Z</time>
      </trkpt>
      <trkpt lat="47.59042" lon="5.92985">
        <ele>250.19999694824</ele>
        <time>2014-03-09T10:18:56.000Z</time>
      </trkpt>
      <trkpt lat="47.59051" lon="5.92976">
        <ele>250.19999694824</ele>
        <time>2014-03-09T10:18:58.000Z</time>
      </trkpt>
      <trkpt lat="47.59055" lon="5.92969">
        <ele>249.80000305176</ele>
        <time>2014-03-09T10:18:59.000Z</time>
      </trkpt>
      <trkpt lat="47.59059" lon="5.92963">
        <ele>249.19999694824</ele>
        <time>2014-03-09T10:19:00.000Z</time>
      </trkpt>
      <trkpt lat="47.59064" lon="5.92957">
        <ele>248.80000305176</ele>
        <time>2014-03-09T10:19:01.000Z</time>
      </trkpt>
      <trkpt lat="47.59069" lon="5.92951">
        <ele>248.39999389648</ele>
        <time>2014-03-09T10:19:02.000Z</time>
      </trkpt>
      <trkpt lat="47.59074" lon="5.92945">
        <ele>248</ele>
        <time>2014-03-09T10:19:03.000Z</time>
      </trkpt>
      <trkpt lat="47.59079" lon="5.92938">
        <ele>247.39999389648</ele>
        <time>2014-03-09T10:19:04.000Z</time>
      </trkpt>
      <trkpt lat="47.59085" lon="5.9293">
        <ele>247</ele>
        <time>2014-03-09T10:19:05.000Z</time>
      </trkpt>
      <trkpt lat="47.5909" lon="5.92923">
        <ele>246.60000610352</ele>
        <time>2014-03-09T10:19:06.000Z</time>
      </trkpt>
      <trkpt lat="47.59096" lon="5.92916">
        <ele>245.60000610352</ele>
        <time>2014-03-09T10:19:07.000Z</time>
      </trkpt>
      <trkpt lat="47.59102" lon="5.92909">
        <ele>245</ele>
        <time>2014-03-09T10:19:08.000Z</time>
      </trkpt>
      <trkpt lat="47.59108" lon="5.92902">
        <ele>244.39999389648</ele>
        <time>2014-03-09T10:19:09.000Z</time>
      </trkpt>
      <trkpt lat="47.59114" lon="5.92894">
        <ele>244</ele>
        <time>2014-03-09T10:19:10.000Z</time>
      </trkpt>
      <trkpt lat="47.5912" lon="5.92886">
        <ele>243.39999389648</ele>
        <time>2014-03-09T10:19:11.000Z</time>
      </trkpt>
      <trkpt lat="47.59126" lon="5.92879">
        <ele>243.39999389648</ele>
        <time>2014-03-09T10:19:12.000Z</time>
      </trkpt>
      <trkpt lat="47.59132" lon="5.9287">
        <ele>242.80000305176</ele>
        <time>2014-03-09T10:19:13.000Z</time>
      </trkpt>
      <trkpt lat="47.59138" lon="5.92861">
        <ele>242.39999389648</ele>
        <time>2014-03-09T10:19:14.000Z</time>
      </trkpt>
      <trkpt lat="47.59144" lon="5.92853">
        <ele>242</ele>
        <time>2014-03-09T10:19:15.000Z</time>
      </trkpt>
      <trkpt lat="47.5915" lon="5.92844">
        <ele>241.60000610352</ele>
        <time>2014-03-09T10:19:16.000Z</time>
      </trkpt>
      <trkpt lat="47.59156" lon="5.92835">
        <ele>240.80000305176</ele>
        <time>2014-03-09T10:19:17.000Z</time>
      </trkpt>
      <trkpt lat="47.59162" lon="5.92825">
        <ele>240.19999694824</ele>
        <time>2014-03-09T10:19:18.000Z</time>
      </trkpt>
      <trkpt lat="47.59168" lon="5.92816">
        <ele>239.60000610352</ele>
        <time>2014-03-09T10:19:19.000Z</time>
      </trkpt>
      <trkpt lat="47.59173" lon="5.92806">
        <ele>239</ele>
        <time>2014-03-09T10:19:20.000Z</time>
      </trkpt>
      <trkpt lat="47.59179" lon="5.92796">
        <ele>238.39999389648</ele>
        <time>2014-03-09T10:19:21.000Z</time>
      </trkpt>
      <trkpt lat="47.59185" lon="5.92786">
        <ele>238</ele>
        <time>2014-03-09T10:19:22.000Z</time>
      </trkpt>
      <trkpt lat="47.5919" lon="5.92776">
        <ele>237.39999389648</ele>
        <time>2014-03-09T10:19:23.000Z</time>
      </trkpt>
      <trkpt lat="47.59195" lon="5.92765">
        <ele>237</ele>
        <time>2014-03-09T10:19:24.000Z</time>
      </trkpt>
      <trkpt lat="47.592" lon="5.92755">
        <ele>236.60000610352</ele>
        <time>2014-03-09T10:19:25.000Z</time>
      </trkpt>
      <trkpt lat="47.59204" lon="5.92745">
        <ele>236</ele>
        <time>2014-03-09T10:19:26.000Z</time>
      </trkpt>
      <trkpt lat="47.59207" lon="5.92734">
        <ele>235.39999389648</ele>
        <time>2014-03-09T10:19:27.000Z</time>
      </trkpt>
      <trkpt lat="47.5921" lon="5.92723">
        <ele>235</ele>
        <time>2014-03-09T10:19:28.000Z</time>
      </trkpt>
      <trkpt lat="47.59211" lon="5.92711">
        <ele>234.39999389648</ele>
        <time>2014-03-09T10:19:29.000Z</time>
      </trkpt>
      <trkpt lat="47.59212" lon="5.927">
        <ele>233.80000305176</ele>
        <time>2014-03-09T10:19:30.000Z</time>
      </trkpt>
      <trkpt lat="47.59211" lon="5.92688">
        <ele>233</ele>
        <time>2014-03-09T10:19:31.000Z</time>
      </trkpt>
      <trkpt lat="47.5921" lon="5.92677">
        <ele>232.60000610352</ele>
        <time>2014-03-09T10:19:32.000Z</time>
      </trkpt>
      <trkpt lat="47.59208" lon="5.92665">
        <ele>232.19999694824</ele>
        <time>2014-03-09T10:19:33.000Z</time>
      </trkpt>
      <trkpt lat="47.59205" lon="5.92654">
        <ele>231.80000305176</ele>
        <time>2014-03-09T10:19:34.000Z</time>
      </trkpt>
      <trkpt lat="47.59202" lon="5.92644">
        <ele>231.80000305176</ele>
        <time>2014-03-09T10:19:35.000Z</time>
      </trkpt>
      <trkpt lat="47.592" lon="5.92633">
        <ele>231.39999389648</ele>
        <time>2014-03-09T10:19:36.000Z</time>
      </trkpt>
      <trkpt lat="47.592" lon="5.92621">
        <ele>230.80000305176</ele>
        <time>2014-03-09T10:19:37.000Z</time>
      </trkpt>
      <trkpt lat="47.59202" lon="5.9261">
        <ele>230.39999389648</ele>
        <time>2014-03-09T10:19:38.000Z</time>
      </trkpt>
      <trkpt lat="47.59205" lon="5.926">
        <ele>230</ele>
        <time>2014-03-09T10:19:39.000Z</time>
      </trkpt>
      <trkpt lat="47.5921" lon="5.9259">
        <ele>229.60000610352</ele>
        <time>2014-03-09T10:19:40.000Z</time>
      </trkpt>
      <trkpt lat="47.59215" lon="5.9258">
        <ele>229.19999694824</ele>
        <time>2014-03-09T10:19:41.000Z</time>
      </trkpt>
      <trkpt lat="47.5922" lon="5.9257">
        <ele>228.60000610352</ele>
        <time>2014-03-09T10:19:42.000Z</time>
      </trkpt>
      <trkpt lat="47.59225" lon="5.9256">
        <ele>228.19999694824</ele>
        <time>2014-03-09T10:19:43.000Z</time>
      </trkpt>
      <trkpt lat="47.5923" lon="5.92548">
        <ele>227.80000305176</ele>
        <time>2014-03-09T10:19:44.000Z</time>
      </trkpt>
      <trkpt lat="47.59235" lon="5.92537">
        <ele>227</ele>
        <time>2014-03-09T10:19:45.000Z</time>
      </trkpt>
      <trkpt lat="47.5924" lon="5.92526">
        <ele>226.39999389648</ele>
        <time>2014-03-09T10:19:46.000Z</time>
      </trkpt>
      <trkpt lat="47.59246" lon="5.92514">
        <ele>225.80000305176</ele>
        <time>2014-03-09T10:19:47.000Z</time>
      </trkpt>
      <trkpt lat="47.59252" lon="5.92502">
        <ele>225</ele>
        <time>2014-03-09T10:19:48.000Z</time>
      </trkpt>
      <trkpt lat="47.59257" lon="5.9249">
        <ele>224.19999694824</ele>
        <time>2014-03-09T10:19:49.000Z</time>
      </trkpt>
      <trkpt lat="47.59263" lon="5.92478">
        <ele>223.39999389648</ele>
        <time>2014-03-09T10:19:50.000Z</time>
      </trkpt>
      <trkpt lat="47.59269" lon="5.92465">
        <ele>222.80000305176</ele>
        <time>2014-03-09T10:19:51.000Z</time>
      </trkpt>
      <trkpt lat="47.59274" lon="5.92451">
        <ele>222</ele>
        <time>2014-03-09T10:19:52.000Z</time>
      </trkpt>
      <trkpt lat="47.59278" lon="5.92437">
        <ele>221.19999694824</ele>
        <time>2014-03-09T10:19:53.000Z</time>
      </trkpt>
      <trkpt lat="47.59281" lon="5.92423">
        <ele>220.39999389648</ele>
        <time>2014-03-09T10:19:54.000Z</time>
      </trkpt>
      <trkpt lat="47.59283" lon="5.92408">
        <ele>219.60000610352</ele>
        <time>2014-03-09T10:19:55.000Z</time>
      </trkpt>
      <trkpt lat="47.59283" lon="5.92394">
        <ele>218</ele>
        <time>2014-03-09T10:19:56.000Z</time>
      </trkpt>
      <trkpt lat="47.59283" lon="5.9238">
        <ele>217.39999389648</ele>
        <time>2014-03-09T10:19:57.000Z</time>
      </trkpt>
      <trkpt lat="47.59282" lon="5.92366">
        <ele>216.80000305176</ele>
        <time>2014-03-09T10:19:58.000Z</time>
      </trkpt>
      <trkpt lat="47.59281" lon="5.92352">
        <ele>216.19999694824</ele>
        <time>2014-03-09T10:19:59.000Z</time>
      </trkpt>
      <trkpt lat="47.5928" lon="5.92338">
        <ele>215.60000610352</ele>
        <time>2014-03-09T10:20:00.000Z</time>
      </trkpt>
      <trkpt lat="47.59279" lon="5.92325">
        <ele>215</ele>
        <time>2014-03-09T10:20:01.000Z</time>
      </trkpt>
      <trkpt lat="47.59275" lon="5.92252">
        <ele>215</ele>
        <time>2014-03-09T10:20:07.000Z</time>
      </trkpt>
      <trkpt lat="47.59272" lon="5.92181">
        <ele>215</ele>
        <time>2014-03-09T10:20:14.000Z</time>
      </trkpt>
      <trkpt lat="47.59267" lon="5.92105">
        <ele>215</ele>
        <time>2014-03-09T10:20:22.000Z</time>
      </trkpt>
      <trkpt lat="47.5926" lon="5.92029">
        <ele>215</ele>
        <time>2014-03-09T10:20:30.000Z</time>
      </trkpt>
      <trkpt lat="47.59252" lon="5.91985">
        <ele>215</ele>
        <time>2014-03-09T10:20:35.000Z</time>
      </trkpt>
      <trkpt lat="47.59246" lon="5.9195">
        <ele>215</ele>
        <time>2014-03-09T10:20:39.000Z</time>
      </trkpt>
      <trkpt lat="47.59246" lon="5.91932">
        <ele>215</ele>
        <time>2014-03-09T10:20:41.000Z</time>
      </trkpt>
      <trkpt lat="47.59249" lon="5.91903">
        <ele>215</ele>
        <time>2014-03-09T10:20:45.000Z</time>
      </trkpt>
      <trkpt lat="47.59245" lon="5.91886">
        <ele>215</ele>
        <time>2014-03-09T10:20:48.000Z</time>
      </trkpt>
      <trkpt lat="47.59232" lon="5.91871">
        <ele>215</ele>
        <time>2014-03-09T10:20:52.000Z</time>
      </trkpt>
      <trkpt lat="47.59223" lon="5.91863">
        <ele>215</ele>
        <time>2014-03-09T10:20:55.000Z</time>
      </trkpt>
      <trkpt lat="47.59216" lon="5.91857">
        <ele>215</ele>
        <time>2014-03-09T10:20:57.000Z</time>
      </trkpt>
      <trkpt lat="47.59212" lon="5.91855">
        <ele>215</ele>
        <time>2014-03-09T10:20:58.000Z</time>
      </trkpt>
      <trkpt lat="47.59199" lon="5.91857">
        <ele>215</ele>
        <time>2014-03-09T10:21:01.000Z</time>
      </trkpt>
      <trkpt lat="47.59195" lon="5.91858">
        <ele>215</ele>
        <time>2014-03-09T10:21:02.000Z</time>
      </trkpt>
      <trkpt lat="47.59172" lon="5.91869">
        <ele>215</ele>
        <time>2014-03-09T10:21:08.000Z</time>
      </trkpt>
      <trkpt lat="47.59149" lon="5.91883">
        <ele>215</ele>
        <time>2014-03-09T10:21:14.000Z</time>
      </trkpt>
      <trkpt lat="47.59141" lon="5.91888">
        <ele>215</ele>
        <time>2014-03-09T10:21:16.000Z</time>
      </trkpt>
      <trkpt lat="47.59125" lon="5.91898">
        <ele>215</ele>
        <time>2014-03-09T10:21:20.000Z</time>
      </trkpt>
      <trkpt lat="47.59121" lon="5.91901">
        <ele>215</ele>
        <time>2014-03-09T10:21:21.000Z</time>
      </trkpt>
      <trkpt lat="47.59093" lon="5.91921">
        <ele>215</ele>
        <time>2014-03-09T10:21:28.000Z</time>
      </trkpt>
      <trkpt lat="47.59076" lon="5.91931">
        <ele>215</ele>
        <time>2014-03-09T10:21:32.000Z</time>
      </trkpt>
      <trkpt lat="47.59068" lon="5.91935">
        <ele>215</ele>
        <time>2014-03-09T10:21:34.000Z</time>
      </trkpt>
      <trkpt lat="47.59042" lon="5.9193">
        <ele>215</ele>
        <time>2014-03-09T10:21:38.000Z</time>
      </trkpt>
      <trkpt lat="47.59042" lon="5.9193">
        <ele>215</ele>
        <time>2014-03-09T10:21:40.000Z</time>
      </trkpt>
      <trkpt lat="47.59035" lon="5.91924">
        <ele>215</ele>
        <time>2014-03-09T10:21:42.000Z</time>
      </trkpt>
      <trkpt lat="47.59028" lon="5.91918">
        <ele>215</ele>
        <time>2014-03-09T10:21:44.000Z</time>
      </trkpt>
      <trkpt lat="47.59026" lon="5.91918">
        <ele>215</ele>
        <time>2014-03-09T10:21:46.000Z</time>
      </trkpt>
      <trkpt lat="47.59024" lon="5.91916">
        <ele>215</ele>
        <time>2014-03-09T10:22:48.000Z</time>
      </trkpt>
      <trkpt lat="47.59011" lon="5.91905">
        <ele>215</ele>
        <time>2014-03-09T10:22:53.000Z</time>
      </trkpt>
      <trkpt lat="47.59004" lon="5.91899">
        <ele>215</ele>
        <time>2014-03-09T10:22:55.000Z</time>
      </trkpt>
      <trkpt lat="47.58987" lon="5.91887">
        <ele>215</ele>
        <time>2014-03-09T10:22:59.000Z</time>
      </trkpt>
      <trkpt lat="47.58974" lon="5.91879">
        <ele>215</ele>
        <time>2014-03-09T10:23:02.000Z</time>
      </trkpt>
      <trkpt lat="47.58965" lon="5.91873">
        <ele>215</ele>
        <time>2014-03-09T10:23:04.000Z</time>
      </trkpt>
      <trkpt lat="47.58943" lon="5.91857">
        <ele>215</ele>
        <time>2014-03-09T10:23:09.000Z</time>
      </trkpt>
      <trkpt lat="47.58934" lon="5.91851">
        <ele>215</ele>
        <time>2014-03-09T10:23:11.000Z</time>
      </trkpt>
      <trkpt lat="47.5893" lon="5.91848">
        <ele>215</ele>
        <time>2014-03-09T10:23:12.000Z</time>
      </trkpt>
      <trkpt lat="47.58908" lon="5.91833">
        <ele>215</ele>
        <time>2014-03-09T10:23:17.000Z</time>
      </trkpt>
      <trkpt lat="47.58876" lon="5.91809">
        <ele>215</ele>
        <time>2014-03-09T10:23:24.000Z</time>
      </trkpt>
      <trkpt lat="47.58866" lon="5.91802">
        <ele>214.60000610352</ele>
        <time>2014-03-09T10:23:26.000Z</time>
      </trkpt>
      <trkpt lat="47.58861" lon="5.91799">
        <ele>214.19999694824</ele>
        <time>2014-03-09T10:23:27.000Z</time>
      </trkpt>
      <trkpt lat="47.58857" lon="5.91796">
        <ele>213.80000305176</ele>
        <time>2014-03-09T10:23:28.000Z</time>
      </trkpt>
      <trkpt lat="47.58852" lon="5.91793">
        <ele>213.39999389648</ele>
        <time>2014-03-09T10:23:29.000Z</time>
      </trkpt>
      <trkpt lat="47.58847" lon="5.91789">
        <ele>213</ele>
        <time>2014-03-09T10:23:30.000Z</time>
      </trkpt>
      <trkpt lat="47.58838" lon="5.91782">
        <ele>213</ele>
        <time>2014-03-09T10:23:32.000Z</time>
      </trkpt>
      <trkpt lat="47.58816" lon="5.91761">
        <ele>213</ele>
        <time>2014-03-09T10:23:37.000Z</time>
      </trkpt>
      <trkpt lat="47.58808" lon="5.91752">
        <ele>213</ele>
        <time>2014-03-09T10:23:39.000Z</time>
      </trkpt>
      <trkpt lat="47.58788" lon="5.91739">
        <ele>213</ele>
        <time>2014-03-09T10:23:43.000Z</time>
      </trkpt>
      <trkpt lat="47.58762" lon="5.9172">
        <ele>213</ele>
        <time>2014-03-09T10:23:49.000Z</time>
      </trkpt>
      <trkpt lat="47.58728" lon="5.91694">
        <ele>213</ele>
        <time>2014-03-09T10:23:57.000Z</time>
      </trkpt>
      <trkpt lat="47.58708" lon="5.91678">
        <ele>213</ele>
        <time>2014-03-09T10:24:02.000Z</time>
      </trkpt>
      <trkpt lat="47.5868" lon="5.91654">
        <ele>213</ele>
        <time>2014-03-09T10:24:09.000Z</time>
      </trkpt>
      <trkpt lat="47.58675" lon="5.91652">
        <ele>213</ele>
        <time>2014-03-09T10:24:10.000Z</time>
      </trkpt>
      <trkpt lat="47.58645" lon="5.91632">
        <ele>213</ele>
        <time>2014-03-09T10:24:16.000Z</time>
      </trkpt>
      <trkpt lat="47.58608" lon="5.91603">
        <ele>213</ele>
        <time>2014-03-09T10:24:24.000Z</time>
      </trkpt>
      <trkpt lat="47.58575" lon="5.91579">
        <ele>213</ele>
        <time>2014-03-09T10:24:30.000Z</time>
      </trkpt>
      <trkpt lat="47.58535" lon="5.91548">
        <ele>213</ele>
        <time>2014-03-09T10:24:38.000Z</time>
      </trkpt>
      <trkpt lat="47.5852" lon="5.91539">
        <ele>213</ele>
        <time>2014-03-09T10:24:41.000Z</time>
      </trkpt>
      <trkpt lat="47.5851" lon="5.91532">
        <ele>212.60000610352</ele>
        <time>2014-03-09T10:24:43.000Z</time>
      </trkpt>
      <trkpt lat="47.58505" lon="5.91528">
        <ele>212</ele>
        <time>2014-03-09T10:24:44.000Z</time>
      </trkpt>
      <trkpt lat="47.585" lon="5.91525">
        <ele>211.60000610352</ele>
        <time>2014-03-09T10:24:45.000Z</time>
      </trkpt>
      <trkpt lat="47.58496" lon="5.91521">
        <ele>211.19999694824</ele>
        <time>2014-03-09T10:24:46.000Z</time>
      </trkpt>
      <trkpt lat="47.58491" lon="5.91518">
        <ele>210.80000305176</ele>
        <time>2014-03-09T10:24:47.000Z</time>
      </trkpt>
      <trkpt lat="47.58463" lon="5.91499">
        <ele>210.80000305176</ele>
        <time>2014-03-09T10:24:53.000Z</time>
      </trkpt>
      <trkpt lat="47.58446" lon="5.91493">
        <ele>210.80000305176</ele>
        <time>2014-03-09T10:24:58.000Z</time>
      </trkpt>
      <trkpt lat="47.58441" lon="5.91493">
        <ele>210.80000305176</ele>
        <time>2014-03-09T10:25:01.000Z</time>
      </trkpt>
      <trkpt lat="47.58441" lon="5.91488">
        <ele>210.80000305176</ele>
        <time>2014-03-09T10:25:47.000Z</time>
      </trkpt>
      <trkpt lat="47.58443" lon="5.91482">
        <ele>210.80000305176</ele>
        <time>2014-03-09T10:25:50.000Z</time>
      </trkpt>
      <trkpt lat="47.58448" lon="5.91473">
        <ele>210.80000305176</ele>
        <time>2014-03-09T10:25:55.000Z</time>
      </trkpt>
      <trkpt lat="47.58469" lon="5.91423">
        <ele>210.80000305176</ele>
        <time>2014-03-09T10:26:58.000Z</time>
      </trkpt>
      <trkpt lat="47.5847" lon="5.91422">
        <ele>210.80000305176</ele>
        <time>2014-03-09T10:26:59.000Z</time>
      </trkpt>
      <trkpt lat="47.58477" lon="5.91385">
        <ele>210.80000305176</ele>
        <time>2014-03-09T10:27:16.000Z</time>
      </trkpt>
      <trkpt lat="47.58478" lon="5.91381">
        <ele>210.80000305176</ele>
        <time>2014-03-09T10:27:17.000Z</time>
      </trkpt>
      <trkpt lat="47.58482" lon="5.91371">
        <ele>210.80000305176</ele>
        <time>2014-03-09T10:27:21.000Z</time>
      </trkpt>
      <trkpt lat="47.58484" lon="5.91366">
        <ele>210.80000305176</ele>
        <time>2014-03-09T10:27:23.000Z</time>
      </trkpt>
      <trkpt lat="47.58489" lon="5.91347">
        <ele>210.80000305176</ele>
        <time>2014-03-09T10:27:28.000Z</time>
      </trkpt>
      <trkpt lat="47.58496" lon="5.91327">
        <ele>210.80000305176</ele>
        <time>2014-03-09T10:27:33.000Z</time>
      </trkpt>
      <trkpt lat="47.58499" lon="5.91313">
        <ele>210.80000305176</ele>
        <time>2014-03-09T10:27:37.000Z</time>
      </trkpt>
      <trkpt lat="47.58505" lon="5.91293">
        <ele>210.80000305176</ele>
        <time>2014-03-09T10:27:42.000Z</time>
      </trkpt>
      <trkpt lat="47.58511" lon="5.91274">
        <ele>210.80000305176</ele>
        <time>2014-03-09T10:27:47.000Z</time>
      </trkpt>
      <trkpt lat="47.58517" lon="5.91255">
        <ele>210.80000305176</ele>
        <time>2014-03-09T10:27:53.000Z</time>
      </trkpt>
      <trkpt lat="47.58525" lon="5.91242">
        <ele>210.80000305176</ele>
        <time>2014-03-09T10:27:57.000Z</time>
      </trkpt>
      <trkpt lat="47.58533" lon="5.91223">
        <ele>210.80000305176</ele>
        <time>2014-03-09T10:28:03.000Z</time>
      </trkpt>
      <trkpt lat="47.58533" lon="5.91221">
        <ele>210.80000305176</ele>
        <time>2014-03-09T10:28:04.000Z</time>
      </trkpt>
      <trkpt lat="47.58534" lon="5.91218">
        <ele>210.80000305176</ele>
        <time>2014-03-09T10:28:05.000Z</time>
      </trkpt>
      <trkpt lat="47.58535" lon="5.91215">
        <ele>210.80000305176</ele>
        <time>2014-03-09T10:28:07.000Z</time>
      </trkpt>
      <trkpt lat="47.58535" lon="5.91207">
        <ele>210.80000305176</ele>
        <time>2014-03-09T10:28:39.000Z</time>
      </trkpt>
      <trkpt lat="47.58539" lon="5.91194">
        <ele>210.80000305176</ele>
        <time>2014-03-09T10:28:44.000Z</time>
      </trkpt>
      <trkpt lat="47.5854" lon="5.91192">
        <ele>210.80000305176</ele>
        <time>2014-03-09T10:28:45.000Z</time>
      </trkpt>
      <trkpt lat="47.58542" lon="5.91185">
        <ele>210.80000305176</ele>
        <time>2014-03-09T10:28:46.000Z</time>
      </trkpt>
      <trkpt lat="47.58543" lon="5.91183">
        <ele>210.80000305176</ele>
        <time>2014-03-09T10:28:49.000Z</time>
      </trkpt>
      <trkpt lat="47.58546" lon="5.91172">
        <ele>210.80000305176</ele>
        <time>2014-03-09T10:28:52.000Z</time>
      </trkpt>
      <trkpt lat="47.58547" lon="5.91168">
        <ele>210.80000305176</ele>
        <time>2014-03-09T10:28:53.000Z</time>
      </trkpt>
      <trkpt lat="47.58549" lon="5.91163">
        <ele>210.80000305176</ele>
        <time>2014-03-09T10:28:54.000Z</time>
      </trkpt>
      <trkpt lat="47.58555" lon="5.91146">
        <ele>210.80000305176</ele>
        <time>2014-03-09T10:28:59.000Z</time>
      </trkpt>
      <trkpt lat="47.58557" lon="5.91141">
        <ele>210.80000305176</ele>
        <time>2014-03-09T10:29:01.000Z</time>
      </trkpt>
      <trkpt lat="47.5856" lon="5.91137">
        <ele>210.80000305176</ele>
        <time>2014-03-09T10:29:03.000Z</time>
      </trkpt>
      <trkpt lat="47.58561" lon="5.91136">
        <ele>210.80000305176</ele>
        <time>2014-03-09T10:29:04.000Z</time>
      </trkpt>
      <trkpt lat="47.58562" lon="5.9113">
        <ele>210.80000305176</ele>
        <time>2014-03-09T10:29:06.000Z</time>
      </trkpt>
      <trkpt lat="47.58563" lon="5.91128">
        <ele>210.80000305176</ele>
        <time>2014-03-09T10:29:07.000Z</time>
      </trkpt>
      <trkpt lat="47.58566" lon="5.9112">
        <ele>210.80000305176</ele>
        <time>2014-03-09T10:29:23.000Z</time>
      </trkpt>
      <trkpt lat="47.58568" lon="5.91116">
        <ele>210.80000305176</ele>
        <time>2014-03-09T10:29:25.000Z</time>
      </trkpt>
      <trkpt lat="47.58569" lon="5.91112">
        <ele>210.80000305176</ele>
        <time>2014-03-09T10:29:27.000Z</time>
      </trkpt>
      <trkpt lat="47.58573" lon="5.91096">
        <ele>210.80000305176</ele>
        <time>2014-03-09T10:29:31.000Z</time>
      </trkpt>
      <trkpt lat="47.58577" lon="5.9108">
        <ele>210.80000305176</ele>
        <time>2014-03-09T10:29:35.000Z</time>
      </trkpt>
      <trkpt lat="47.58579" lon="5.91075">
        <ele>210.80000305176</ele>
        <time>2014-03-09T10:29:37.000Z</time>
      </trkpt>
      <trkpt lat="47.5858" lon="5.91072">
        <ele>210.80000305176</ele>
        <time>2014-03-09T10:29:38.000Z</time>
      </trkpt>
      <trkpt lat="47.58588" lon="5.91051">
        <ele>210.80000305176</ele>
        <time>2014-03-09T10:29:44.000Z</time>
      </trkpt>
      <trkpt lat="47.58597" lon="5.91029">
        <ele>210.80000305176</ele>
        <time>2014-03-09T10:29:50.000Z</time>
      </trkpt>
      <trkpt lat="47.58603" lon="5.91012">
        <ele>210.80000305176</ele>
        <time>2014-03-09T10:29:55.000Z</time>
      </trkpt>
      <trkpt lat="47.58609" lon="5.90999">
        <ele>210.80000305176</ele>
        <time>2014-03-09T10:30:00.000Z</time>
      </trkpt>
      <trkpt lat="47.5861" lon="5.90991">
        <ele>210.80000305176</ele>
        <time>2014-03-09T10:30:24.000Z</time>
      </trkpt>
      <trkpt lat="47.58609" lon="5.91001">
        <ele>210.80000305176</ele>
        <time>2014-03-09T10:30:29.000Z</time>
      </trkpt>
      <trkpt lat="47.58603" lon="5.91014">
        <ele>210.80000305176</ele>
        <time>2014-03-09T10:30:36.000Z</time>
      </trkpt>
      <trkpt lat="47.58601" lon="5.91017">
        <ele>210.80000305176</ele>
        <time>2014-03-09T10:30:38.000Z</time>
      </trkpt>
      <trkpt lat="47.586" lon="5.9102">
        <ele>210.80000305176</ele>
        <time>2014-03-09T10:30:39.000Z</time>
      </trkpt>
      <trkpt lat="47.58598" lon="5.91029">
        <ele>210.80000305176</ele>
        <time>2014-03-09T10:30:43.000Z</time>
      </trkpt>
      <trkpt lat="47.58596" lon="5.91035">
        <ele>210.80000305176</ele>
        <time>2014-03-09T10:30:46.000Z</time>
      </trkpt>
      <trkpt lat="47.58594" lon="5.9104">
        <ele>210.80000305176</ele>
        <time>2014-03-09T10:30:48.000Z</time>
      </trkpt>
      <trkpt lat="47.58586" lon="5.91058">
        <ele>210.80000305176</ele>
        <time>2014-03-09T10:30:55.000Z</time>
      </trkpt>
      <trkpt lat="47.58584" lon="5.91061">
        <ele>210.80000305176</ele>
        <time>2014-03-09T10:30:56.000Z</time>
      </trkpt>
      <trkpt lat="47.58579" lon="5.91077">
        <ele>210.80000305176</ele>
        <time>2014-03-09T10:30:58.000Z</time>
      </trkpt>
      <trkpt lat="47.58576" lon="5.91087">
        <ele>210.80000305176</ele>
        <time>2014-03-09T10:31:04.000Z</time>
      </trkpt>
      <trkpt lat="47.58573" lon="5.911">
        <ele>210.80000305176</ele>
        <time>2014-03-09T10:31:08.000Z</time>
      </trkpt>
      <trkpt lat="47.58564" lon="5.91111">
        <ele>212.80000305176</ele>
        <time>2014-03-09T10:32:05.000Z</time>
      </trkpt>
      <trkpt lat="47.58563" lon="5.9111">
        <ele>212.80000305176</ele>
        <time>2014-03-09T10:32:06.000Z</time>
      </trkpt>
      <trkpt lat="47.58547" lon="5.91105">
        <ele>212.80000305176</ele>
        <time>2014-03-09T10:32:13.000Z</time>
      </trkpt>
      <trkpt lat="47.58536" lon="5.91097">
        <ele>212.80000305176</ele>
        <time>2014-03-09T10:32:19.000Z</time>
      </trkpt>
      <trkpt lat="47.58525" lon="5.91089">
        <ele>212.80000305176</ele>
        <time>2014-03-09T10:32:25.000Z</time>
      </trkpt>
      <trkpt lat="47.58512" lon="5.91082">
        <ele>212.80000305176</ele>
        <time>2014-03-09T10:32:32.000Z</time>
      </trkpt>
      <trkpt lat="47.58499" lon="5.91069">
        <ele>212.80000305176</ele>
        <time>2014-03-09T10:32:40.000Z</time>
      </trkpt>
      <trkpt lat="47.58491" lon="5.91063">
        <ele>212.80000305176</ele>
        <time>2014-03-09T10:32:45.000Z</time>
      </trkpt>
      <trkpt lat="47.58489" lon="5.91062">
        <ele>212.80000305176</ele>
        <time>2014-03-09T10:32:46.000Z</time>
      </trkpt>
      <trkpt lat="47.58481" lon="5.91057">
        <ele>212.80000305176</ele>
        <time>2014-03-09T10:32:50.000Z</time>
      </trkpt>
      <trkpt lat="47.58472" lon="5.9105">
        <ele>212.80000305176</ele>
        <time>2014-03-09T10:32:55.000Z</time>
      </trkpt>
      <trkpt lat="47.58463" lon="5.91042">
        <ele>212.80000305176</ele>
        <time>2014-03-09T10:33:00.000Z</time>
      </trkpt>
      <trkpt lat="47.58454" lon="5.91034">
        <ele>212.80000305176</ele>
        <time>2014-03-09T10:33:05.000Z</time>
      </trkpt>
      <trkpt lat="47.58454" lon="5.91034">
        <ele>212.80000305176</ele>
        <time>2014-03-09T10:33:07.000Z</time>
      </trkpt>
      <trkpt lat="47.58452" lon="5.91032">
        <ele>212.80000305176</ele>
        <time>2014-03-09T10:33:08.000Z</time>
      </trkpt>
      <trkpt lat="47.58451" lon="5.91031">
        <ele>212.80000305176</ele>
        <time>2014-03-09T10:33:09.000Z</time>
      </trkpt>
      <trkpt lat="47.58433" lon="5.91019">
        <ele>212.80000305176</ele>
        <time>2014-03-09T10:33:18.000Z</time>
      </trkpt>
      <trkpt lat="47.58422" lon="5.91012">
        <ele>212.80000305176</ele>
        <time>2014-03-09T10:33:26.000Z</time>
      </trkpt>
      <trkpt lat="47.58419" lon="5.91008">
        <ele>212.80000305176</ele>
        <time>2014-03-09T10:33:29.000Z</time>
      </trkpt>
      <trkpt lat="47.58415" lon="5.91003">
        <ele>212.80000305176</ele>
        <time>2014-03-09T10:33:30.000Z</time>
      </trkpt>
      <trkpt lat="47.58409" lon="5.90998">
        <ele>212.80000305176</ele>
        <time>2014-03-09T10:33:35.000Z</time>
      </trkpt>
      <trkpt lat="47.58407" lon="5.90997">
        <ele>212.80000305176</ele>
        <time>2014-03-09T10:33:36.000Z</time>
      </trkpt>
      <trkpt lat="47.58406" lon="5.90996">
        <ele>212.80000305176</ele>
        <time>2014-03-09T10:33:37.000Z</time>
      </trkpt>
      <trkpt lat="47.58401" lon="5.90994">
        <ele>212.80000305176</ele>
        <time>2014-03-09T10:33:40.000Z</time>
      </trkpt>
      <trkpt lat="47.58397" lon="5.90992">
        <ele>212.80000305176</ele>
        <time>2014-03-09T10:33:41.000Z</time>
      </trkpt>
      <trkpt lat="47.58393" lon="5.9099">
        <ele>212.80000305176</ele>
        <time>2014-03-09T10:33:46.000Z</time>
      </trkpt>
      <trkpt lat="47.58393" lon="5.9099">
        <ele>212.80000305176</ele>
        <time>2014-03-09T10:33:48.000Z</time>
      </trkpt>
      <trkpt lat="47.58389" lon="5.90987">
        <ele>212.80000305176</ele>
        <time>2014-03-09T10:33:50.000Z</time>
      </trkpt>
      <trkpt lat="47.58388" lon="5.90986">
        <ele>212.80000305176</ele>
        <time>2014-03-09T10:33:51.000Z</time>
      </trkpt>
      <trkpt lat="47.58387" lon="5.90973">
        <ele>212.80000305176</ele>
        <time>2014-03-09T10:35:02.000Z</time>
      </trkpt>
      <trkpt lat="47.58387" lon="5.9097">
        <ele>212.80000305176</ele>
        <time>2014-03-09T10:35:03.000Z</time>
      </trkpt>
      <trkpt lat="47.58388" lon="5.90967">
        <ele>212.80000305176</ele>
        <time>2014-03-09T10:35:04.000Z</time>
      </trkpt>
      <trkpt lat="47.58389" lon="5.90963">
        <ele>212.80000305176</ele>
        <time>2014-03-09T10:35:06.000Z</time>
      </trkpt>
      <trkpt lat="47.58391" lon="5.90959">
        <ele>212.80000305176</ele>
        <time>2014-03-09T10:35:08.000Z</time>
      </trkpt>
      <trkpt lat="47.58393" lon="5.90952">
        <ele>212.80000305176</ele>
        <time>2014-03-09T10:35:10.000Z</time>
      </trkpt>
      <trkpt lat="47.58397" lon="5.90943">
        <ele>212.80000305176</ele>
        <time>2014-03-09T10:35:13.000Z</time>
      </trkpt>
      <trkpt lat="47.58399" lon="5.90934">
        <ele>212.80000305176</ele>
        <time>2014-03-09T10:35:14.000Z</time>
      </trkpt>
      <trkpt lat="47.58399" lon="5.90934">
        <ele>212.80000305176</ele>
        <time>2014-03-09T10:35:16.000Z</time>
      </trkpt>
      <trkpt lat="47.58407" lon="5.90909">
        <ele>212.80000305176</ele>
        <time>2014-03-09T10:35:23.000Z</time>
      </trkpt>
      <trkpt lat="47.58413" lon="5.90894">
        <ele>212.80000305176</ele>
        <time>2014-03-09T10:35:28.000Z</time>
      </trkpt>
      <trkpt lat="47.58419" lon="5.90876">
        <ele>212.80000305176</ele>
        <time>2014-03-09T10:35:33.000Z</time>
      </trkpt>
      <trkpt lat="47.58426" lon="5.90857">
        <ele>212.80000305176</ele>
        <time>2014-03-09T10:35:38.000Z</time>
      </trkpt>
      <trkpt lat="47.58437" lon="5.90831">
        <ele>212.80000305176</ele>
        <time>2014-03-09T10:35:45.000Z</time>
      </trkpt>
      <trkpt lat="47.58447" lon="5.90806">
        <ele>212.80000305176</ele>
        <time>2014-03-09T10:35:52.000Z</time>
      </trkpt>
      <trkpt lat="47.58451" lon="5.90786">
        <ele>212.80000305176</ele>
        <time>2014-03-09T10:35:57.000Z</time>
      </trkpt>
      <trkpt lat="47.58458" lon="5.90765">
        <ele>212.80000305176</ele>
        <time>2014-03-09T10:36:02.000Z</time>
      </trkpt>
      <trkpt lat="47.58463" lon="5.90743">
        <ele>212.80000305176</ele>
        <time>2014-03-09T10:36:07.000Z</time>
      </trkpt>
      <trkpt lat="47.58469" lon="5.90731">
        <ele>212.80000305176</ele>
        <time>2014-03-09T10:36:11.000Z</time>
      </trkpt>
      <trkpt lat="47.58477" lon="5.90711">
        <ele>212.80000305176</ele>
        <time>2014-03-09T10:36:17.000Z</time>
      </trkpt>
      <trkpt lat="47.58485" lon="5.90692">
        <ele>212.80000305176</ele>
        <time>2014-03-09T10:36:22.000Z</time>
      </trkpt>
      <trkpt lat="47.58493" lon="5.90661">
        <ele>212.80000305176</ele>
        <time>2014-03-09T10:36:30.000Z</time>
      </trkpt>
      <trkpt lat="47.58501" lon="5.90639">
        <ele>212.80000305176</ele>
        <time>2014-03-09T10:36:36.000Z</time>
      </trkpt>
      <trkpt lat="47.58503" lon="5.90637">
        <ele>212.80000305176</ele>
        <time>2014-03-09T10:36:37.000Z</time>
      </trkpt>
      <trkpt lat="47.58508" lon="5.90634">
        <ele>212.80000305176</ele>
        <time>2014-03-09T10:36:40.000Z</time>
      </trkpt>
      <trkpt lat="47.58519" lon="5.90641">
        <ele>212.80000305176</ele>
        <time>2014-03-09T10:36:45.000Z</time>
      </trkpt>
      <trkpt lat="47.58524" lon="5.90646">
        <ele>212.80000305176</ele>
        <time>2014-03-09T10:36:47.000Z</time>
      </trkpt>
      <trkpt lat="47.58536" lon="5.90653">
        <ele>212.80000305176</ele>
        <time>2014-03-09T10:36:51.000Z</time>
      </trkpt>
      <trkpt lat="47.5855" lon="5.90663">
        <ele>212.80000305176</ele>
        <time>2014-03-09T10:36:57.000Z</time>
      </trkpt>
      <trkpt lat="47.58562" lon="5.90673">
        <ele>212.80000305176</ele>
        <time>2014-03-09T10:37:02.000Z</time>
      </trkpt>
      <trkpt lat="47.58579" lon="5.90688">
        <ele>212.80000305176</ele>
        <time>2014-03-09T10:37:08.000Z</time>
      </trkpt>
      <trkpt lat="47.58595" lon="5.90698">
        <ele>212.80000305176</ele>
        <time>2014-03-09T10:37:14.000Z</time>
      </trkpt>
      <trkpt lat="47.58607" lon="5.90707">
        <ele>212.80000305176</ele>
        <time>2014-03-09T10:37:20.000Z</time>
      </trkpt>
      <trkpt lat="47.58609" lon="5.90707">
        <ele>212.80000305176</ele>
        <time>2014-03-09T10:37:22.000Z</time>
      </trkpt>
      <trkpt lat="47.58612" lon="5.90708">
        <ele>212.80000305176</ele>
        <time>2014-03-09T10:37:52.000Z</time>
      </trkpt>
      <trkpt lat="47.58615" lon="5.90711">
        <ele>212.80000305176</ele>
        <time>2014-03-09T10:37:54.000Z</time>
      </trkpt>
      <trkpt lat="47.58628" lon="5.9072">
        <ele>212.80000305176</ele>
        <time>2014-03-09T10:38:00.000Z</time>
      </trkpt>
      <trkpt lat="47.58634" lon="5.90725">
        <ele>212.80000305176</ele>
        <time>2014-03-09T10:38:03.000Z</time>
      </trkpt>
      <trkpt lat="47.58639" lon="5.9073">
        <ele>212.80000305176</ele>
        <time>2014-03-09T10:38:06.000Z</time>
      </trkpt>
      <trkpt lat="47.5864" lon="5.90732">
        <ele>212.80000305176</ele>
        <time>2014-03-09T10:38:07.000Z</time>
      </trkpt>
      <trkpt lat="47.58638" lon="5.9073">
        <ele>212.80000305176</ele>
        <time>2014-03-09T10:38:17.000Z</time>
      </trkpt>
      <trkpt lat="47.58626" lon="5.9072">
        <ele>212.80000305176</ele>
        <time>2014-03-09T10:38:23.000Z</time>
      </trkpt>
      <trkpt lat="47.58622" lon="5.90718">
        <ele>212.80000305176</ele>
        <time>2014-03-09T10:38:25.000Z</time>
      </trkpt>
      <trkpt lat="47.58621" lon="5.90718">
        <ele>212.80000305176</ele>
        <time>2014-03-09T10:38:26.000Z</time>
      </trkpt>
      <trkpt lat="47.58618" lon="5.90712">
        <ele>212.80000305176</ele>
        <time>2014-03-09T10:38:27.000Z</time>
      </trkpt>
      <trkpt lat="47.58619" lon="5.90708">
        <ele>212.80000305176</ele>
        <time>2014-03-09T10:38:30.000Z</time>
      </trkpt>
      <trkpt lat="47.58623" lon="5.90703">
        <ele>212.80000305176</ele>
        <time>2014-03-09T10:38:35.000Z</time>
      </trkpt>
      <trkpt lat="47.58629" lon="5.90695">
        <ele>212.80000305176</ele>
        <time>2014-03-09T10:38:39.000Z</time>
      </trkpt>
      <trkpt lat="47.58646" lon="5.9068">
        <ele>212.80000305176</ele>
        <time>2014-03-09T10:38:48.000Z</time>
      </trkpt>
      <trkpt lat="47.58651" lon="5.90672">
        <ele>212.80000305176</ele>
        <time>2014-03-09T10:38:52.000Z</time>
      </trkpt>
      <trkpt lat="47.58656" lon="5.9067">
        <ele>212.80000305176</ele>
        <time>2014-03-09T10:38:55.000Z</time>
      </trkpt>
      <trkpt lat="47.58662" lon="5.90663">
        <ele>212.80000305176</ele>
        <time>2014-03-09T10:38:59.000Z</time>
      </trkpt>
      <trkpt lat="47.58666" lon="5.90658">
        <ele>212.80000305176</ele>
        <time>2014-03-09T10:39:01.000Z</time>
      </trkpt>
      <trkpt lat="47.58666" lon="5.90655">
        <ele>212.80000305176</ele>
        <time>2014-03-09T10:39:02.000Z</time>
      </trkpt>
      <trkpt lat="47.58671" lon="5.90642">
        <ele>212.80000305176</ele>
        <time>2014-03-09T10:39:06.000Z</time>
      </trkpt>
      <trkpt lat="47.58682" lon="5.9062">
        <ele>212.80000305176</ele>
        <time>2014-03-09T10:39:12.000Z</time>
      </trkpt>
      <trkpt lat="47.58684" lon="5.90616">
        <ele>212.80000305176</ele>
        <time>2014-03-09T10:39:15.000Z</time>
      </trkpt>
      <trkpt lat="47.58686" lon="5.90613">
        <ele>212.80000305176</ele>
        <time>2014-03-09T10:39:23.000Z</time>
      </trkpt>
      <trkpt lat="47.58687" lon="5.9061">
        <ele>212.80000305176</ele>
        <time>2014-03-09T10:39:24.000Z</time>
      </trkpt>
      <trkpt lat="47.58697" lon="5.90591">
        <ele>212.80000305176</ele>
        <time>2014-03-09T10:39:29.000Z</time>
      </trkpt>
      <trkpt lat="47.58708" lon="5.90567">
        <ele>212.80000305176</ele>
        <time>2014-03-09T10:39:34.000Z</time>
      </trkpt>
      <trkpt lat="47.58722" lon="5.90531">
        <ele>212.80000305176</ele>
        <time>2014-03-09T10:39:42.000Z</time>
      </trkpt>
      <trkpt lat="47.58727" lon="5.90507">
        <ele>212.80000305176</ele>
        <time>2014-03-09T10:39:48.000Z</time>
      </trkpt>
      <trkpt lat="47.58734" lon="5.90478">
        <ele>212.80000305176</ele>
        <time>2014-03-09T10:39:55.000Z</time>
      </trkpt>
      <trkpt lat="47.58738" lon="5.90444">
        <ele>212.80000305176</ele>
        <time>2014-03-09T10:40:02.000Z</time>
      </trkpt>
      <trkpt lat="47.58743" lon="5.90416">
        <ele>212.80000305176</ele>
        <time>2014-03-09T10:40:08.000Z</time>
      </trkpt>
      <trkpt lat="47.58746" lon="5.90395">
        <ele>212.80000305176</ele>
        <time>2014-03-09T10:40:13.000Z</time>
      </trkpt>
      <trkpt lat="47.5875" lon="5.90362">
        <ele>212.80000305176</ele>
        <time>2014-03-09T10:40:20.000Z</time>
      </trkpt>
      <trkpt lat="47.58754" lon="5.90331">
        <ele>212.80000305176</ele>
        <time>2014-03-09T10:40:27.000Z</time>
      </trkpt>
      <trkpt lat="47.58757" lon="5.90303">
        <ele>212.80000305176</ele>
        <time>2014-03-09T10:40:33.000Z</time>
      </trkpt>
      <trkpt lat="47.58762" lon="5.90274">
        <ele>212.80000305176</ele>
        <time>2014-03-09T10:40:39.000Z</time>
      </trkpt>
      <trkpt lat="47.58767" lon="5.90255">
        <ele>212.80000305176</ele>
        <time>2014-03-09T10:40:44.000Z</time>
      </trkpt>
      <trkpt lat="47.58767" lon="5.9025">
        <ele>212.39999389648</ele>
        <time>2014-03-09T10:40:45.000Z</time>
      </trkpt>
      <trkpt lat="47.58768" lon="5.90246">
        <ele>212</ele>
        <time>2014-03-09T10:40:46.000Z</time>
      </trkpt>
      <trkpt lat="47.58769" lon="5.90241">
        <ele>211.60000610352</ele>
        <time>2014-03-09T10:40:47.000Z</time>
      </trkpt>
      <trkpt lat="47.58769" lon="5.90237">
        <ele>211.19999694824</ele>
        <time>2014-03-09T10:40:48.000Z</time>
      </trkpt>
      <trkpt lat="47.5877" lon="5.90232">
        <ele>210.80000305176</ele>
        <time>2014-03-09T10:40:49.000Z</time>
      </trkpt>
      <trkpt lat="47.58771" lon="5.90223">
        <ele>210.80000305176</ele>
        <time>2014-03-09T10:40:51.000Z</time>
      </trkpt>
      <trkpt lat="47.58775" lon="5.90192">
        <ele>210.80000305176</ele>
        <time>2014-03-09T10:40:58.000Z</time>
      </trkpt>
      <trkpt lat="47.58778" lon="5.90172">
        <ele>210.80000305176</ele>
        <time>2014-03-09T10:41:04.000Z</time>
      </trkpt>
      <trkpt lat="47.5878" lon="5.90169">
        <ele>210.80000305176</ele>
        <time>2014-03-09T10:41:05.000Z</time>
      </trkpt>
      <trkpt lat="47.58781" lon="5.90159">
        <ele>210</ele>
        <time>2014-03-09T10:41:08.000Z</time>
      </trkpt>
      <trkpt lat="47.58781" lon="5.90156">
        <ele>209.60000610352</ele>
        <time>2014-03-09T10:41:09.000Z</time>
      </trkpt>
      <trkpt lat="47.58781" lon="5.90154">
        <ele>209.19999694824</ele>
        <time>2014-03-09T10:41:10.000Z</time>
      </trkpt>
      <trkpt lat="47.58781" lon="5.90151">
        <ele>208.80000305176</ele>
        <time>2014-03-09T10:41:11.000Z</time>
      </trkpt>
      <trkpt lat="47.58783" lon="5.90138">
        <ele>208.80000305176</ele>
        <time>2014-03-09T10:41:16.000Z</time>
      </trkpt>
      <trkpt lat="47.58784" lon="5.90134">
        <ele>208.80000305176</ele>
        <time>2014-03-09T10:41:18.000Z</time>
      </trkpt>
      <trkpt lat="47.58785" lon="5.9013">
        <ele>208.80000305176</ele>
        <time>2014-03-09T10:41:20.000Z</time>
      </trkpt>
      <trkpt lat="47.58786" lon="5.90125">
        <ele>208.80000305176</ele>
        <time>2014-03-09T10:41:22.000Z</time>
      </trkpt>
      <trkpt lat="47.5879" lon="5.90107">
        <ele>208.80000305176</ele>
        <time>2014-03-09T10:41:29.000Z</time>
      </trkpt>
      <trkpt lat="47.58793" lon="5.90095">
        <ele>208.80000305176</ele>
        <time>2014-03-09T10:41:34.000Z</time>
      </trkpt>
      <trkpt lat="47.58795" lon="5.90089">
        <ele>208.80000305176</ele>
        <time>2014-03-09T10:41:37.000Z</time>
      </trkpt>
      <trkpt lat="47.58794" lon="5.90095">
        <ele>208.80000305176</ele>
        <time>2014-03-09T10:43:09.000Z</time>
      </trkpt>
      <trkpt lat="47.58794" lon="5.90099">
        <ele>208.80000305176</ele>
        <time>2014-03-09T10:43:10.000Z</time>
      </trkpt>
      <trkpt lat="47.58789" lon="5.90115">
        <ele>208.80000305176</ele>
        <time>2014-03-09T10:43:16.000Z</time>
      </trkpt>
      <trkpt lat="47.58788" lon="5.9012">
        <ele>208.80000305176</ele>
        <time>2014-03-09T10:43:18.000Z</time>
      </trkpt>
      <trkpt lat="47.58788" lon="5.90129">
        <ele>208.80000305176</ele>
        <time>2014-03-09T10:43:20.000Z</time>
      </trkpt>
      <trkpt lat="47.58786" lon="5.90138">
        <ele>208.80000305176</ele>
        <time>2014-03-09T10:43:25.000Z</time>
      </trkpt>
      <trkpt lat="47.58784" lon="5.90143">
        <ele>208.80000305176</ele>
        <time>2014-03-09T10:43:29.000Z</time>
      </trkpt>
      <trkpt lat="47.58783" lon="5.90152">
        <ele>208.80000305176</ele>
        <time>2014-03-09T10:43:32.000Z</time>
      </trkpt>
      <trkpt lat="47.58782" lon="5.90169">
        <ele>208.80000305176</ele>
        <time>2014-03-09T10:43:38.000Z</time>
      </trkpt>
      <trkpt lat="47.58777" lon="5.90189">
        <ele>208.80000305176</ele>
        <time>2014-03-09T10:43:44.000Z</time>
      </trkpt>
      <trkpt lat="47.58773" lon="5.9021">
        <ele>208.80000305176</ele>
        <time>2014-03-09T10:43:51.000Z</time>
      </trkpt>
      <trkpt lat="47.5877" lon="5.9023">
        <ele>209.19999694824</ele>
        <time>2014-03-09T10:43:57.000Z</time>
      </trkpt>
      <trkpt lat="47.5877" lon="5.90233">
        <ele>209.60000610352</ele>
        <time>2014-03-09T10:43:58.000Z</time>
      </trkpt>
      <trkpt lat="47.5877" lon="5.90236">
        <ele>210</ele>
        <time>2014-03-09T10:43:59.000Z</time>
      </trkpt>
      <trkpt lat="47.58769" lon="5.90239">
        <ele>210.39999389648</ele>
        <time>2014-03-09T10:44:00.000Z</time>
      </trkpt>
      <trkpt lat="47.58769" lon="5.90242">
        <ele>210.80000305176</ele>
        <time>2014-03-09T10:44:01.000Z</time>
      </trkpt>
      <trkpt lat="47.58767" lon="5.90255">
        <ele>210.80000305176</ele>
        <time>2014-03-09T10:44:05.000Z</time>
      </trkpt>
      <trkpt lat="47.58762" lon="5.90276">
        <ele>210.80000305176</ele>
        <time>2014-03-09T10:44:12.000Z</time>
      </trkpt>
      <trkpt lat="47.58759" lon="5.90295">
        <ele>210.80000305176</ele>
        <time>2014-03-09T10:44:18.000Z</time>
      </trkpt>
      <trkpt lat="47.58758" lon="5.90298">
        <ele>210.80000305176</ele>
        <time>2014-03-09T10:44:19.000Z</time>
      </trkpt>
      <trkpt lat="47.58755" lon="5.90318">
        <ele>210.80000305176</ele>
        <time>2014-03-09T10:44:25.000Z</time>
      </trkpt>
      <trkpt lat="47.58753" lon="5.90333">
        <ele>211.19999694824</ele>
        <time>2014-03-09T10:44:29.000Z</time>
      </trkpt>
      <trkpt lat="47.58753" lon="5.90336">
        <ele>211.60000610352</ele>
        <time>2014-03-09T10:44:30.000Z</time>
      </trkpt>
      <trkpt lat="47.58752" lon="5.9034">
        <ele>212</ele>
        <time>2014-03-09T10:44:31.000Z</time>
      </trkpt>
      <trkpt lat="47.58751" lon="5.90343">
        <ele>212.39999389648</ele>
        <time>2014-03-09T10:44:32.000Z</time>
      </trkpt>
      <trkpt lat="47.58751" lon="5.90347">
        <ele>212.80000305176</ele>
        <time>2014-03-09T10:44:33.000Z</time>
      </trkpt>
      <trkpt lat="47.58747" lon="5.90371">
        <ele>212.80000305176</ele>
        <time>2014-03-09T10:44:40.000Z</time>
      </trkpt>
      <trkpt lat="47.58745" lon="5.90392">
        <ele>212.80000305176</ele>
        <time>2014-03-09T10:44:46.000Z</time>
      </trkpt>
      <trkpt lat="47.58742" lon="5.90421">
        <ele>212.80000305176</ele>
        <time>2014-03-09T10:44:54.000Z</time>
      </trkpt>
      <trkpt lat="47.58737" lon="5.90448">
        <ele>212.80000305176</ele>
        <time>2014-03-09T10:45:01.000Z</time>
      </trkpt>
      <trkpt lat="47.58733" lon="5.90475">
        <ele>212.80000305176</ele>
        <time>2014-03-09T10:45:08.000Z</time>
      </trkpt>
      <trkpt lat="47.58728" lon="5.90505">
        <ele>212.80000305176</ele>
        <time>2014-03-09T10:45:16.000Z</time>
      </trkpt>
      <trkpt lat="47.58719" lon="5.90537">
        <ele>212.80000305176</ele>
        <time>2014-03-09T10:45:24.000Z</time>
      </trkpt>
      <trkpt lat="47.58705" lon="5.90569">
        <ele>212.80000305176</ele>
        <time>2014-03-09T10:45:32.000Z</time>
      </trkpt>
      <trkpt lat="47.58695" lon="5.90593">
        <ele>212.80000305176</ele>
        <time>2014-03-09T10:45:39.000Z</time>
      </trkpt>
      <trkpt lat="47.58684" lon="5.90618">
        <ele>212.80000305176</ele>
        <time>2014-03-09T10:45:46.000Z</time>
      </trkpt>
      <trkpt lat="47.58677" lon="5.90633">
        <ele>212.80000305176</ele>
        <time>2014-03-09T10:45:51.000Z</time>
      </trkpt>
      <trkpt lat="47.58672" lon="5.9064">
        <ele>212.80000305176</ele>
        <time>2014-03-09T10:45:55.000Z</time>
      </trkpt>
      <trkpt lat="47.5867" lon="5.90649">
        <ele>212.80000305176</ele>
        <time>2014-03-09T10:45:59.000Z</time>
      </trkpt>
      <trkpt lat="47.58668" lon="5.90652">
        <ele>212.80000305176</ele>
        <time>2014-03-09T10:46:00.000Z</time>
      </trkpt>
      <trkpt lat="47.58665" lon="5.90658">
        <ele>212.80000305176</ele>
        <time>2014-03-09T10:46:02.000Z</time>
      </trkpt>
      <trkpt lat="47.58658" lon="5.90663">
        <ele>212.80000305176</ele>
        <time>2014-03-09T10:46:05.000Z</time>
      </trkpt>
      <trkpt lat="47.58649" lon="5.90675">
        <ele>212.80000305176</ele>
        <time>2014-03-09T10:46:09.000Z</time>
      </trkpt>
      <trkpt lat="47.58642" lon="5.9068">
        <ele>212.80000305176</ele>
        <time>2014-03-09T10:46:10.000Z</time>
      </trkpt>
      <trkpt lat="47.5863" lon="5.90692">
        <ele>212.80000305176</ele>
        <time>2014-03-09T10:46:18.000Z</time>
      </trkpt>
      <trkpt lat="47.58619" lon="5.907">
        <ele>212.80000305176</ele>
        <time>2014-03-09T10:46:23.000Z</time>
      </trkpt>
      <trkpt lat="47.58605" lon="5.907">
        <ele>212.80000305176</ele>
        <time>2014-03-09T10:46:29.000Z</time>
      </trkpt>
      <trkpt lat="47.58586" lon="5.90693">
        <ele>212.80000305176</ele>
        <time>2014-03-09T10:46:37.000Z</time>
      </trkpt>
      <trkpt lat="47.58582" lon="5.90691">
        <ele>212.80000305176</ele>
        <time>2014-03-09T10:46:39.000Z</time>
      </trkpt>
      <trkpt lat="47.58573" lon="5.90685">
        <ele>212.80000305176</ele>
        <time>2014-03-09T10:46:42.000Z</time>
      </trkpt>
      <trkpt lat="47.58551" lon="5.90663">
        <ele>212.80000305176</ele>
        <time>2014-03-09T10:46:51.000Z</time>
      </trkpt>
      <trkpt lat="47.58537" lon="5.90653">
        <ele>212.80000305176</ele>
        <time>2014-03-09T10:46:56.000Z</time>
      </trkpt>
      <trkpt lat="47.58519" lon="5.90639">
        <ele>212.80000305176</ele>
        <time>2014-03-09T10:47:02.000Z</time>
      </trkpt>
      <trkpt lat="47.58505" lon="5.90627">
        <ele>212.80000305176</ele>
        <time>2014-03-09T10:47:07.000Z</time>
      </trkpt>
      <trkpt lat="47.58502" lon="5.90627">
        <ele>212.80000305176</ele>
        <time>2014-03-09T10:47:09.000Z</time>
      </trkpt>
      <trkpt lat="47.58501" lon="5.9063">
        <ele>213.19999694824</ele>
        <time>2014-03-09T10:47:11.000Z</time>
      </trkpt>
      <trkpt lat="47.58501" lon="5.90632">
        <ele>213.60000610352</ele>
        <time>2014-03-09T10:47:12.000Z</time>
      </trkpt>
      <trkpt lat="47.58499" lon="5.9064">
        <ele>214.80000305176</ele>
        <time>2014-03-09T10:47:13.000Z</time>
      </trkpt>
      <trkpt lat="47.58499" lon="5.9064">
        <ele>214.80000305176</ele>
        <time>2014-03-09T10:47:15.000Z</time>
      </trkpt>
      <trkpt lat="47.58497" lon="5.90643">
        <ele>214.80000305176</ele>
        <time>2014-03-09T10:47:17.000Z</time>
      </trkpt>
      <trkpt lat="47.58495" lon="5.90653">
        <ele>214.80000305176</ele>
        <time>2014-03-09T10:48:20.000Z</time>
      </trkpt>
      <trkpt lat="47.58494" lon="5.90656">
        <ele>214.80000305176</ele>
        <time>2014-03-09T10:48:21.000Z</time>
      </trkpt>
      <trkpt lat="47.58488" lon="5.90679">
        <ele>214.80000305176</ele>
        <time>2014-03-09T10:48:28.000Z</time>
      </trkpt>
      <trkpt lat="47.5848" lon="5.90699">
        <ele>214.80000305176</ele>
        <time>2014-03-09T10:48:33.000Z</time>
      </trkpt>
      <trkpt lat="47.58474" lon="5.90712">
        <ele>214.80000305176</ele>
        <time>2014-03-09T10:48:37.000Z</time>
      </trkpt>
      <trkpt lat="47.58472" lon="5.90713">
        <ele>214.80000305176</ele>
        <time>2014-03-09T10:48:38.000Z</time>
      </trkpt>
      <trkpt lat="47.58466" lon="5.90732">
        <ele>214.80000305176</ele>
        <time>2014-03-09T10:48:43.000Z</time>
      </trkpt>
      <trkpt lat="47.58455" lon="5.9076">
        <ele>214.80000305176</ele>
        <time>2014-03-09T10:48:50.000Z</time>
      </trkpt>
      <trkpt lat="47.58449" lon="5.90785">
        <ele>214.80000305176</ele>
        <time>2014-03-09T10:48:56.000Z</time>
      </trkpt>
      <trkpt lat="47.58441" lon="5.90802">
        <ele>214.80000305176</ele>
        <time>2014-03-09T10:49:01.000Z</time>
      </trkpt>
      <trkpt lat="47.58433" lon="5.90823">
        <ele>214.80000305176</ele>
        <time>2014-03-09T10:49:06.000Z</time>
      </trkpt>
      <trkpt lat="47.58429" lon="5.90834">
        <ele>214.80000305176</ele>
        <time>2014-03-09T10:49:09.000Z</time>
      </trkpt>
      <trkpt lat="47.58427" lon="5.90842">
        <ele>214.80000305176</ele>
        <time>2014-03-09T10:49:11.000Z</time>
      </trkpt>
      <trkpt lat="47.58418" lon="5.90869">
        <ele>214.80000305176</ele>
        <time>2014-03-09T10:49:18.000Z</time>
      </trkpt>
      <trkpt lat="47.58412" lon="5.9089">
        <ele>214.80000305176</ele>
        <time>2014-03-09T10:49:23.000Z</time>
      </trkpt>
      <trkpt lat="47.58405" lon="5.90911">
        <ele>214.80000305176</ele>
        <time>2014-03-09T10:49:28.000Z</time>
      </trkpt>
      <trkpt lat="47.58397" lon="5.90933">
        <ele>214.80000305176</ele>
        <time>2014-03-09T10:49:34.000Z</time>
      </trkpt>
      <trkpt lat="47.58394" lon="5.90939">
        <ele>214.80000305176</ele>
        <time>2014-03-09T10:49:35.000Z</time>
      </trkpt>
      <trkpt lat="47.58389" lon="5.90952">
        <ele>214.80000305176</ele>
        <time>2014-03-09T10:49:41.000Z</time>
      </trkpt>
      <trkpt lat="47.58384" lon="5.9097">
        <ele>214.80000305176</ele>
        <time>2014-03-09T10:49:46.000Z</time>
      </trkpt>
      <trkpt lat="47.58379" lon="5.90984">
        <ele>214.80000305176</ele>
        <time>2014-03-09T10:49:51.000Z</time>
      </trkpt>
      <trkpt lat="47.58376" lon="5.90991">
        <ele>214.80000305176</ele>
        <time>2014-03-09T10:49:53.000Z</time>
      </trkpt>
      <trkpt lat="47.58376" lon="5.90991">
        <ele>214.80000305176</ele>
        <time>2014-03-09T10:49:55.000Z</time>
      </trkpt>
      <trkpt lat="47.58366" lon="5.91016">
        <ele>214.80000305176</ele>
        <time>2014-03-09T10:50:03.000Z</time>
      </trkpt>
      <trkpt lat="47.58364" lon="5.91026">
        <ele>214.80000305176</ele>
        <time>2014-03-09T10:50:06.000Z</time>
      </trkpt>
      <trkpt lat="47.58363" lon="5.91029">
        <ele>214.80000305176</ele>
        <time>2014-03-09T10:50:07.000Z</time>
      </trkpt>
      <trkpt lat="47.58362" lon="5.91033">
        <ele>214.80000305176</ele>
        <time>2014-03-09T10:50:08.000Z</time>
      </trkpt>
      <trkpt lat="47.5836" lon="5.91039">
        <ele>214.80000305176</ele>
        <time>2014-03-09T10:50:10.000Z</time>
      </trkpt>
      <trkpt lat="47.58358" lon="5.91048">
        <ele>214.80000305176</ele>
        <time>2014-03-09T10:50:12.000Z</time>
      </trkpt>
      <trkpt lat="47.58355" lon="5.91058">
        <ele>214.80000305176</ele>
        <time>2014-03-09T10:50:15.000Z</time>
      </trkpt>
      <trkpt lat="47.58354" lon="5.91062">
        <ele>214.80000305176</ele>
        <time>2014-03-09T10:50:16.000Z</time>
      </trkpt>
      <trkpt lat="47.58346" lon="5.91082">
        <ele>214.80000305176</ele>
        <time>2014-03-09T10:50:22.000Z</time>
      </trkpt>
      <trkpt lat="47.58339" lon="5.91101">
        <ele>214.80000305176</ele>
        <time>2014-03-09T10:50:27.000Z</time>
      </trkpt>
      <trkpt lat="47.58334" lon="5.91119">
        <ele>214.80000305176</ele>
        <time>2014-03-09T10:50:32.000Z</time>
      </trkpt>
      <trkpt lat="47.58325" lon="5.91142">
        <ele>214.80000305176</ele>
        <time>2014-03-09T10:50:39.000Z</time>
      </trkpt>
      <trkpt lat="47.5832" lon="5.91157">
        <ele>214.80000305176</ele>
        <time>2014-03-09T10:50:44.000Z</time>
      </trkpt>
      <trkpt lat="47.58319" lon="5.91163">
        <ele>214.80000305176</ele>
        <time>2014-03-09T10:50:47.000Z</time>
      </trkpt>
      <trkpt lat="47.58309" lon="5.91188">
        <ele>214.80000305176</ele>
        <time>2014-03-09T10:52:08.000Z</time>
      </trkpt>
      <trkpt lat="47.58308" lon="5.91191">
        <ele>214.80000305176</ele>
        <time>2014-03-09T10:52:09.000Z</time>
      </trkpt>
      <trkpt lat="47.58302" lon="5.91209">
        <ele>214.80000305176</ele>
        <time>2014-03-09T10:52:13.000Z</time>
      </trkpt>
      <trkpt lat="47.58295" lon="5.91227">
        <ele>214.80000305176</ele>
        <time>2014-03-09T10:52:20.000Z</time>
      </trkpt>
      <trkpt lat="47.58288" lon="5.91245">
        <ele>214.80000305176</ele>
        <time>2014-03-09T10:52:26.000Z</time>
      </trkpt>
      <trkpt lat="47.58282" lon="5.91261">
        <ele>214.80000305176</ele>
        <time>2014-03-09T10:52:32.000Z</time>
      </trkpt>
      <trkpt lat="47.58279" lon="5.9127">
        <ele>214.80000305176</ele>
        <time>2014-03-09T10:52:36.000Z</time>
      </trkpt>
      <trkpt lat="47.58269" lon="5.91296">
        <ele>214.80000305176</ele>
        <time>2014-03-09T10:53:50.000Z</time>
      </trkpt>
      <trkpt lat="47.58269" lon="5.91298">
        <ele>214.80000305176</ele>
        <time>2014-03-09T10:53:51.000Z</time>
      </trkpt>
      <trkpt lat="47.58268" lon="5.913">
        <ele>214.80000305176</ele>
        <time>2014-03-09T10:53:52.000Z</time>
      </trkpt>
      <trkpt lat="47.5826" lon="5.91319">
        <ele>214.80000305176</ele>
        <time>2014-03-09T10:54:00.000Z</time>
      </trkpt>
      <trkpt lat="47.5826" lon="5.91319">
        <ele>214.80000305176</ele>
        <time>2014-03-09T10:54:02.000Z</time>
      </trkpt>
      <trkpt lat="47.58262" lon="5.91318">
        <ele>217</ele>
        <time>2014-03-09T10:55:09.000Z</time>
      </trkpt>
      <trkpt lat="47.58264" lon="5.91314">
        <ele>217</ele>
        <time>2014-03-09T10:55:11.000Z</time>
      </trkpt>
      <trkpt lat="47.58265" lon="5.9131">
        <ele>217</ele>
        <time>2014-03-09T10:55:13.000Z</time>
      </trkpt>
      <trkpt lat="47.5827" lon="5.91297">
        <ele>217</ele>
        <time>2014-03-09T10:55:20.000Z</time>
      </trkpt>
      <trkpt lat="47.58272" lon="5.91292">
        <ele>217</ele>
        <time>2014-03-09T10:55:21.000Z</time>
      </trkpt>
      <trkpt lat="47.58279" lon="5.91272">
        <ele>217</ele>
        <time>2014-03-09T10:55:40.000Z</time>
      </trkpt>
      <trkpt lat="47.5828" lon="5.91271">
        <ele>217</ele>
        <time>2014-03-09T10:55:41.000Z</time>
      </trkpt>
      <trkpt lat="47.58284" lon="5.91261">
        <ele>217</ele>
        <time>2014-03-09T10:55:45.000Z</time>
      </trkpt>
      <trkpt lat="47.58289" lon="5.91248">
        <ele>217</ele>
        <time>2014-03-09T10:55:50.000Z</time>
      </trkpt>
      <trkpt lat="47.58293" lon="5.91235">
        <ele>217</ele>
        <time>2014-03-09T10:55:55.000Z</time>
      </trkpt>
      <trkpt lat="47.58301" lon="5.91217">
        <ele>217</ele>
        <time>2014-03-09T10:56:01.000Z</time>
      </trkpt>
      <trkpt lat="47.58303" lon="5.9121">
        <ele>217</ele>
        <time>2014-03-09T10:56:04.000Z</time>
      </trkpt>
      <trkpt lat="47.58304" lon="5.91207">
        <ele>217</ele>
        <time>2014-03-09T10:56:05.000Z</time>
      </trkpt>
      <trkpt lat="47.58308" lon="5.91199">
        <ele>217</ele>
        <time>2014-03-09T10:56:08.000Z</time>
      </trkpt>
      <trkpt lat="47.58308" lon="5.91197">
        <ele>217</ele>
        <time>2014-03-09T10:56:09.000Z</time>
      </trkpt>
      <trkpt lat="47.58324" lon="5.91151">
        <ele>217</ele>
        <time>2014-03-09T10:56:45.000Z</time>
      </trkpt>
      <trkpt lat="47.58328" lon="5.91138">
        <ele>217</ele>
        <time>2014-03-09T10:56:49.000Z</time>
      </trkpt>
      <trkpt lat="47.58337" lon="5.91111">
        <ele>217</ele>
        <time>2014-03-09T10:56:57.000Z</time>
      </trkpt>
      <trkpt lat="47.58344" lon="5.91097">
        <ele>217</ele>
        <time>2014-03-09T10:57:02.000Z</time>
      </trkpt>
      <trkpt lat="47.58349" lon="5.91089">
        <ele>217</ele>
        <time>2014-03-09T10:57:07.000Z</time>
      </trkpt>
      <trkpt lat="47.58351" lon="5.91087">
        <ele>217</ele>
        <time>2014-03-09T10:57:08.000Z</time>
      </trkpt>
      <trkpt lat="47.58358" lon="5.91068">
        <ele>217</ele>
        <time>2014-03-09T10:57:12.000Z</time>
      </trkpt>
      <trkpt lat="47.58372" lon="5.91039">
        <ele>217</ele>
        <time>2014-03-09T10:57:23.000Z</time>
      </trkpt>
      <trkpt lat="47.58379" lon="5.91011">
        <ele>217</ele>
        <time>2014-03-09T10:57:29.000Z</time>
      </trkpt>
      <trkpt lat="47.58385" lon="5.9099">
        <ele>217</ele>
        <time>2014-03-09T10:57:35.000Z</time>
      </trkpt>
      <trkpt lat="47.5839" lon="5.90971">
        <ele>217</ele>
        <time>2014-03-09T10:57:41.000Z</time>
      </trkpt>
      <trkpt lat="47.58398" lon="5.90945">
        <ele>217</ele>
        <time>2014-03-09T10:57:47.000Z</time>
      </trkpt>
      <trkpt lat="47.58398" lon="5.90945">
        <ele>217</ele>
        <time>2014-03-09T10:57:49.000Z</time>
      </trkpt>
      <trkpt lat="47.58407" lon="5.90923">
        <ele>217</ele>
        <time>2014-03-09T10:57:55.000Z</time>
      </trkpt>
      <trkpt lat="47.58415" lon="5.90901">
        <ele>217</ele>
        <time>2014-03-09T10:58:01.000Z</time>
      </trkpt>
      <trkpt lat="47.58422" lon="5.90885">
        <ele>217</ele>
        <time>2014-03-09T10:58:06.000Z</time>
      </trkpt>
      <trkpt lat="47.5843" lon="5.90867">
        <ele>217</ele>
        <time>2014-03-09T10:58:12.000Z</time>
      </trkpt>
      <trkpt lat="47.58437" lon="5.90846">
        <ele>217</ele>
        <time>2014-03-09T10:58:18.000Z</time>
      </trkpt>
      <trkpt lat="47.58446" lon="5.90818">
        <ele>217</ele>
        <time>2014-03-09T10:58:25.000Z</time>
      </trkpt>
      <trkpt lat="47.58451" lon="5.908">
        <ele>217</ele>
        <time>2014-03-09T10:58:30.000Z</time>
      </trkpt>
      <trkpt lat="47.58457" lon="5.90783">
        <ele>217</ele>
        <time>2014-03-09T10:58:35.000Z</time>
      </trkpt>
      <trkpt lat="47.58465" lon="5.90764">
        <ele>217</ele>
        <time>2014-03-09T10:58:41.000Z</time>
      </trkpt>
      <trkpt lat="47.58473" lon="5.90734">
        <ele>217</ele>
        <time>2014-03-09T10:58:48.000Z</time>
      </trkpt>
      <trkpt lat="47.58483" lon="5.90706">
        <ele>217</ele>
        <time>2014-03-09T10:58:55.000Z</time>
      </trkpt>
      <trkpt lat="47.58489" lon="5.90684">
        <ele>217</ele>
        <time>2014-03-09T10:59:01.000Z</time>
      </trkpt>
      <trkpt lat="47.58497" lon="5.90662">
        <ele>217</ele>
        <time>2014-03-09T10:59:08.000Z</time>
      </trkpt>
      <trkpt lat="47.58498" lon="5.90646">
        <ele>217</ele>
        <time>2014-03-09T10:59:12.000Z</time>
      </trkpt>
      <trkpt lat="47.58494" lon="5.90636">
        <ele>217</ele>
        <time>2014-03-09T10:59:14.000Z</time>
      </trkpt>
      <trkpt lat="47.58482" lon="5.9062">
        <ele>217</ele>
        <time>2014-03-09T10:59:18.000Z</time>
      </trkpt>
      <trkpt lat="47.58479" lon="5.90616">
        <ele>217</ele>
        <time>2014-03-09T10:59:19.000Z</time>
      </trkpt>
      <trkpt lat="47.58464" lon="5.90605">
        <ele>217</ele>
        <time>2014-03-09T10:59:24.000Z</time>
      </trkpt>
      <trkpt lat="47.58447" lon="5.90589">
        <ele>217</ele>
        <time>2014-03-09T10:59:29.000Z</time>
      </trkpt>
      <trkpt lat="47.58425" lon="5.90572">
        <ele>217</ele>
        <time>2014-03-09T10:59:36.000Z</time>
      </trkpt>
      <trkpt lat="47.58401" lon="5.90552">
        <ele>217</ele>
        <time>2014-03-09T10:59:44.000Z</time>
      </trkpt>
      <trkpt lat="47.58397" lon="5.90548">
        <ele>216.60000610352</ele>
        <time>2014-03-09T10:59:45.000Z</time>
      </trkpt>
      <trkpt lat="47.58393" lon="5.90546">
        <ele>216.19999694824</ele>
        <time>2014-03-09T10:59:46.000Z</time>
      </trkpt>
      <trkpt lat="47.5839" lon="5.90542">
        <ele>215.80000305176</ele>
        <time>2014-03-09T10:59:47.000Z</time>
      </trkpt>
      <trkpt lat="47.58387" lon="5.90539">
        <ele>215.39999389648</ele>
        <time>2014-03-09T10:59:48.000Z</time>
      </trkpt>
      <trkpt lat="47.58384" lon="5.90534">
        <ele>215</ele>
        <time>2014-03-09T10:59:49.000Z</time>
      </trkpt>
      <trkpt lat="47.58374" lon="5.90524">
        <ele>215</ele>
        <time>2014-03-09T10:59:53.000Z</time>
      </trkpt>
      <trkpt lat="47.5836" lon="5.9051">
        <ele>215</ele>
        <time>2014-03-09T10:59:58.000Z</time>
      </trkpt>
      <trkpt lat="47.58338" lon="5.90498">
        <ele>215</ele>
        <time>2014-03-09T11:00:04.000Z</time>
      </trkpt>
      <trkpt lat="47.58313" lon="5.90473">
        <ele>213.80000305176</ele>
        <time>2014-03-09T11:00:09.000Z</time>
      </trkpt>
      <trkpt lat="47.58309" lon="5.9047">
        <ele>213.39999389648</ele>
        <time>2014-03-09T11:00:13.000Z</time>
      </trkpt>
      <trkpt lat="47.58304" lon="5.90468">
        <ele>213</ele>
        <time>2014-03-09T11:00:14.000Z</time>
      </trkpt>
      <trkpt lat="47.58292" lon="5.90459">
        <ele>213</ele>
        <time>2014-03-09T11:00:17.000Z</time>
      </trkpt>
      <trkpt lat="47.58278" lon="5.9045">
        <ele>213</ele>
        <time>2014-03-09T11:00:20.000Z</time>
      </trkpt>
      <trkpt lat="47.58267" lon="5.90439">
        <ele>213</ele>
        <time>2014-03-09T11:00:23.000Z</time>
      </trkpt>
      <trkpt lat="47.58263" lon="5.90436">
        <ele>213</ele>
        <time>2014-03-09T11:00:24.000Z</time>
      </trkpt>
      <trkpt lat="47.58245" lon="5.90426">
        <ele>213</ele>
        <time>2014-03-09T11:00:28.000Z</time>
      </trkpt>
      <trkpt lat="47.58236" lon="5.9042">
        <ele>213</ele>
        <time>2014-03-09T11:00:30.000Z</time>
      </trkpt>
      <trkpt lat="47.5822" lon="5.90406">
        <ele>213</ele>
        <time>2014-03-09T11:00:34.000Z</time>
      </trkpt>
      <trkpt lat="47.58208" lon="5.90399">
        <ele>213</ele>
        <time>2014-03-09T11:00:37.000Z</time>
      </trkpt>
      <trkpt lat="47.58192" lon="5.90388">
        <ele>213</ele>
        <time>2014-03-09T11:00:41.000Z</time>
      </trkpt>
      <trkpt lat="47.58172" lon="5.90375">
        <ele>213</ele>
        <time>2014-03-09T11:00:46.000Z</time>
      </trkpt>
      <trkpt lat="47.58161" lon="5.90364">
        <ele>213</ele>
        <time>2014-03-09T11:00:49.000Z</time>
      </trkpt>
      <trkpt lat="47.58157" lon="5.90361">
        <ele>213</ele>
        <time>2014-03-09T11:00:50.000Z</time>
      </trkpt>
      <trkpt lat="47.58127" lon="5.90339">
        <ele>213</ele>
        <time>2014-03-09T11:00:57.000Z</time>
      </trkpt>
      <trkpt lat="47.58114" lon="5.9033">
        <ele>213</ele>
        <time>2014-03-09T11:01:00.000Z</time>
      </trkpt>
      <trkpt lat="47.58101" lon="5.90322">
        <ele>213</ele>
        <time>2014-03-09T11:01:03.000Z</time>
      </trkpt>
      <trkpt lat="47.58085" lon="5.90311">
        <ele>213</ele>
        <time>2014-03-09T11:01:07.000Z</time>
      </trkpt>
      <trkpt lat="47.58077" lon="5.90306">
        <ele>213</ele>
        <time>2014-03-09T11:01:09.000Z</time>
      </trkpt>
      <trkpt lat="47.58053" lon="5.90288">
        <ele>213</ele>
        <time>2014-03-09T11:01:15.000Z</time>
      </trkpt>
      <trkpt lat="47.58025" lon="5.90267">
        <ele>213</ele>
        <time>2014-03-09T11:01:22.000Z</time>
      </trkpt>
      <trkpt lat="47.5799" lon="5.9024">
        <ele>213</ele>
        <time>2014-03-09T11:01:31.000Z</time>
      </trkpt>
      <trkpt lat="47.57985" lon="5.90235">
        <ele>213</ele>
        <time>2014-03-09T11:01:32.000Z</time>
      </trkpt>
      <trkpt lat="47.57969" lon="5.90223">
        <ele>213</ele>
        <time>2014-03-09T11:01:36.000Z</time>
      </trkpt>
      <trkpt lat="47.57956" lon="5.90212">
        <ele>213</ele>
        <time>2014-03-09T11:01:39.000Z</time>
      </trkpt>
      <trkpt lat="47.57948" lon="5.90205">
        <ele>213</ele>
        <time>2014-03-09T11:01:41.000Z</time>
      </trkpt>
      <trkpt lat="47.57944" lon="5.90202">
        <ele>213</ele>
        <time>2014-03-09T11:01:42.000Z</time>
      </trkpt>
      <trkpt lat="47.57919" lon="5.90181">
        <ele>213.39999389648</ele>
        <time>2014-03-09T11:01:48.000Z</time>
      </trkpt>
      <trkpt lat="47.57915" lon="5.90179">
        <ele>213.80000305176</ele>
        <time>2014-03-09T11:01:49.000Z</time>
      </trkpt>
      <trkpt lat="47.57912" lon="5.90176">
        <ele>214.19999694824</ele>
        <time>2014-03-09T11:01:50.000Z</time>
      </trkpt>
      <trkpt lat="47.57908" lon="5.90174">
        <ele>214.60000610352</ele>
        <time>2014-03-09T11:01:51.000Z</time>
      </trkpt>
      <trkpt lat="47.57904" lon="5.90174">
        <ele>215</ele>
        <time>2014-03-09T11:01:52.000Z</time>
      </trkpt>
      <trkpt lat="47.57901" lon="5.90176">
        <ele>215</ele>
        <time>2014-03-09T11:01:53.000Z</time>
      </trkpt>
      <trkpt lat="47.57895" lon="5.90186">
        <ele>215</ele>
        <time>2014-03-09T11:01:56.000Z</time>
      </trkpt>
      <trkpt lat="47.57885" lon="5.90219">
        <ele>215</ele>
        <time>2014-03-09T11:02:03.000Z</time>
      </trkpt>
      <trkpt lat="47.57882" lon="5.90226">
        <ele>215</ele>
        <time>2014-03-09T11:02:06.000Z</time>
      </trkpt>
      <trkpt lat="47.57882" lon="5.9023">
        <ele>215</ele>
        <time>2014-03-09T11:03:25.000Z</time>
      </trkpt>
      <trkpt lat="47.5788" lon="5.90236">
        <ele>215</ele>
        <time>2014-03-09T11:03:27.000Z</time>
      </trkpt>
      <trkpt lat="47.57877" lon="5.90248">
        <ele>215</ele>
        <time>2014-03-09T11:03:30.000Z</time>
      </trkpt>
      <trkpt lat="47.57864" lon="5.90283">
        <ele>215</ele>
        <time>2014-03-09T11:03:35.000Z</time>
      </trkpt>
      <trkpt lat="47.57862" lon="5.90289">
        <ele>215</ele>
        <time>2014-03-09T11:03:37.000Z</time>
      </trkpt>
      <trkpt lat="47.57855" lon="5.90309">
        <ele>215</ele>
        <time>2014-03-09T11:03:41.000Z</time>
      </trkpt>
      <trkpt lat="47.57847" lon="5.90333">
        <ele>215</ele>
        <time>2014-03-09T11:03:45.000Z</time>
      </trkpt>
      <trkpt lat="47.57845" lon="5.90339">
        <ele>215</ele>
        <time>2014-03-09T11:03:46.000Z</time>
      </trkpt>
      <trkpt lat="47.57829" lon="5.90385">
        <ele>215</ele>
        <time>2014-03-09T11:03:54.000Z</time>
      </trkpt>
      <trkpt lat="47.57814" lon="5.90427">
        <ele>215</ele>
        <time>2014-03-09T11:04:01.000Z</time>
      </trkpt>
      <trkpt lat="47.57811" lon="5.90433">
        <ele>215</ele>
        <time>2014-03-09T11:04:02.000Z</time>
      </trkpt>
      <trkpt lat="47.57798" lon="5.90468">
        <ele>215</ele>
        <time>2014-03-09T11:04:08.000Z</time>
      </trkpt>
      <trkpt lat="47.57781" lon="5.90516">
        <ele>215</ele>
        <time>2014-03-09T11:04:16.000Z</time>
      </trkpt>
      <trkpt lat="47.57762" lon="5.90572">
        <ele>215</ele>
        <time>2014-03-09T11:04:23.000Z</time>
      </trkpt>
      <trkpt lat="47.57749" lon="5.90608">
        <ele>215</ele>
        <time>2014-03-09T11:04:32.000Z</time>
      </trkpt>
      <trkpt lat="47.57743" lon="5.90628">
        <ele>215</ele>
        <time>2014-03-09T11:04:37.000Z</time>
      </trkpt>
      <trkpt lat="47.57732" lon="5.90657">
        <ele>215</ele>
        <time>2014-03-09T11:04:45.000Z</time>
      </trkpt>
      <trkpt lat="47.57731" lon="5.90662">
        <ele>215.39999389648</ele>
        <time>2014-03-09T11:04:47.000Z</time>
      </trkpt>
      <trkpt lat="47.5773" lon="5.90665">
        <ele>215.80000305176</ele>
        <time>2014-03-09T11:04:48.000Z</time>
      </trkpt>
      <trkpt lat="47.57729" lon="5.90668">
        <ele>216.19999694824</ele>
        <time>2014-03-09T11:04:49.000Z</time>
      </trkpt>
      <trkpt lat="47.57729" lon="5.9067">
        <ele>216.60000610352</ele>
        <time>2014-03-09T11:04:50.000Z</time>
      </trkpt>
      <trkpt lat="47.57728" lon="5.90672">
        <ele>217</ele>
        <time>2014-03-09T11:04:51.000Z</time>
      </trkpt>
      <trkpt lat="47.57728" lon="5.90675">
        <ele>217</ele>
        <time>2014-03-09T11:04:52.000Z</time>
      </trkpt>
      <trkpt lat="47.57726" lon="5.90684">
        <ele>217</ele>
        <time>2014-03-09T11:04:56.000Z</time>
      </trkpt>
      <trkpt lat="47.57726" lon="5.90686">
        <ele>217</ele>
        <time>2014-03-09T11:04:57.000Z</time>
      </trkpt>
      <trkpt lat="47.57724" lon="5.9069">
        <ele>217</ele>
        <time>2014-03-09T11:04:59.000Z</time>
      </trkpt>
      <trkpt lat="47.5772" lon="5.90702">
        <ele>217</ele>
        <time>2014-03-09T11:05:04.000Z</time>
      </trkpt>
      <trkpt lat="47.57716" lon="5.9071">
        <ele>217</ele>
        <time>2014-03-09T11:05:07.000Z</time>
      </trkpt>
      <trkpt lat="47.57714" lon="5.90716">
        <ele>217</ele>
        <time>2014-03-09T11:05:09.000Z</time>
      </trkpt>
      <trkpt lat="47.57708" lon="5.90733">
        <ele>217</ele>
        <time>2014-03-09T11:05:16.000Z</time>
      </trkpt>
      <trkpt lat="47.57703" lon="5.90749">
        <ele>217</ele>
        <time>2014-03-09T11:05:21.000Z</time>
      </trkpt>
      <trkpt lat="47.57696" lon="5.90767">
        <ele>217</ele>
        <time>2014-03-09T11:05:26.000Z</time>
      </trkpt>
      <trkpt lat="47.57689" lon="5.90788">
        <ele>217</ele>
        <time>2014-03-09T11:05:32.000Z</time>
      </trkpt>
      <trkpt lat="47.57682" lon="5.90808">
        <ele>217</ele>
        <time>2014-03-09T11:05:38.000Z</time>
      </trkpt>
      <trkpt lat="47.57678" lon="5.90825">
        <ele>217</ele>
        <time>2014-03-09T11:05:43.000Z</time>
      </trkpt>
      <trkpt lat="47.57672" lon="5.9084">
        <ele>217</ele>
        <time>2014-03-09T11:05:48.000Z</time>
      </trkpt>
      <trkpt lat="47.57666" lon="5.90858">
        <ele>217</ele>
        <time>2014-03-09T11:05:53.000Z</time>
      </trkpt>
      <trkpt lat="47.57659" lon="5.90876">
        <ele>217</ele>
        <time>2014-03-09T11:05:58.000Z</time>
      </trkpt>
      <trkpt lat="47.57654" lon="5.90891">
        <ele>217.39999389648</ele>
        <time>2014-03-09T11:06:02.000Z</time>
      </trkpt>
      <trkpt lat="47.57653" lon="5.90894">
        <ele>217.80000305176</ele>
        <time>2014-03-09T11:06:03.000Z</time>
      </trkpt>
      <trkpt lat="47.57651" lon="5.90897">
        <ele>218.19999694824</ele>
        <time>2014-03-09T11:06:04.000Z</time>
      </trkpt>
      <trkpt lat="47.5765" lon="5.90901">
        <ele>218.60000610352</ele>
        <time>2014-03-09T11:06:05.000Z</time>
      </trkpt>
      <trkpt lat="47.57649" lon="5.90904">
        <ele>219</ele>
        <time>2014-03-09T11:06:06.000Z</time>
      </trkpt>
      <trkpt lat="47.57642" lon="5.90923">
        <ele>219</ele>
        <time>2014-03-09T11:06:12.000Z</time>
      </trkpt>
      <trkpt lat="47.57634" lon="5.90944">
        <ele>219</ele>
        <time>2014-03-09T11:06:20.000Z</time>
      </trkpt>
      <trkpt lat="47.57633" lon="5.90947">
        <ele>219.39999389648</ele>
        <time>2014-03-09T11:06:21.000Z</time>
      </trkpt>
      <trkpt lat="47.57632" lon="5.9095">
        <ele>219.80000305176</ele>
        <time>2014-03-09T11:06:22.000Z</time>
      </trkpt>
      <trkpt lat="47.5763" lon="5.90953">
        <ele>220.19999694824</ele>
        <time>2014-03-09T11:06:23.000Z</time>
      </trkpt>
      <trkpt lat="47.57628" lon="5.90957">
        <ele>220.60000610352</ele>
        <time>2014-03-09T11:06:24.000Z</time>
      </trkpt>
      <trkpt lat="47.57627" lon="5.90959">
        <ele>221.19999694824</ele>
        <time>2014-03-09T11:06:25.000Z</time>
      </trkpt>
      <trkpt lat="47.57627" lon="5.90962">
        <ele>221.19999694824</ele>
        <time>2014-03-09T11:06:26.000Z</time>
      </trkpt>
      <trkpt lat="47.57621" lon="5.90978">
        <ele>221.19999694824</ele>
        <time>2014-03-09T11:06:31.000Z</time>
      </trkpt>
      <trkpt lat="47.57618" lon="5.90984">
        <ele>221.60000610352</ele>
        <time>2014-03-09T11:06:33.000Z</time>
      </trkpt>
      <trkpt lat="47.57617" lon="5.90987">
        <ele>222</ele>
        <time>2014-03-09T11:06:34.000Z</time>
      </trkpt>
      <trkpt lat="47.57616" lon="5.9099">
        <ele>222.39999389648</ele>
        <time>2014-03-09T11:06:35.000Z</time>
      </trkpt>
      <trkpt lat="47.57615" lon="5.90993">
        <ele>222.80000305176</ele>
        <time>2014-03-09T11:06:36.000Z</time>
      </trkpt>
      <trkpt lat="47.57614" lon="5.90996">
        <ele>223.19999694824</ele>
        <time>2014-03-09T11:06:37.000Z</time>
      </trkpt>
      <trkpt lat="47.57613" lon="5.90999">
        <ele>223.19999694824</ele>
        <time>2014-03-09T11:06:38.000Z</time>
      </trkpt>
      <trkpt lat="47.57607" lon="5.91016">
        <ele>223.19999694824</ele>
        <time>2014-03-09T11:06:44.000Z</time>
      </trkpt>
      <trkpt lat="47.57605" lon="5.91021">
        <ele>223.60000610352</ele>
        <time>2014-03-09T11:06:46.000Z</time>
      </trkpt>
      <trkpt lat="47.57604" lon="5.91024">
        <ele>224</ele>
        <time>2014-03-09T11:06:47.000Z</time>
      </trkpt>
      <trkpt lat="47.57604" lon="5.91026">
        <ele>224.39999389648</ele>
        <time>2014-03-09T11:06:48.000Z</time>
      </trkpt>
      <trkpt lat="47.57603" lon="5.91029">
        <ele>224.80000305176</ele>
        <time>2014-03-09T11:06:49.000Z</time>
      </trkpt>
      <trkpt lat="47.57602" lon="5.91031">
        <ele>225.39999389648</ele>
        <time>2014-03-09T11:06:50.000Z</time>
      </trkpt>
      <trkpt lat="47.57602" lon="5.91034">
        <ele>225.39999389648</ele>
        <time>2014-03-09T11:06:51.000Z</time>
      </trkpt>
      <trkpt lat="47.57598" lon="5.91046">
        <ele>225.80000305176</ele>
        <time>2014-03-09T11:06:55.000Z</time>
      </trkpt>
      <trkpt lat="47.57598" lon="5.91048">
        <ele>226.19999694824</ele>
        <time>2014-03-09T11:06:56.000Z</time>
      </trkpt>
      <trkpt lat="47.57597" lon="5.91051">
        <ele>226.60000610352</ele>
        <time>2014-03-09T11:06:57.000Z</time>
      </trkpt>
      <trkpt lat="47.57596" lon="5.91054">
        <ele>227.39999389648</ele>
        <time>2014-03-09T11:06:58.000Z</time>
      </trkpt>
      <trkpt lat="47.57595" lon="5.91056">
        <ele>227.39999389648</ele>
        <time>2014-03-09T11:06:59.000Z</time>
      </trkpt>
      <trkpt lat="47.57592" lon="5.91065">
        <ele>227.80000305176</ele>
        <time>2014-03-09T11:07:03.000Z</time>
      </trkpt>
      <trkpt lat="47.57591" lon="5.91068">
        <ele>228.19999694824</ele>
        <time>2014-03-09T11:07:04.000Z</time>
      </trkpt>
      <trkpt lat="47.5759" lon="5.91071">
        <ele>228.60000610352</ele>
        <time>2014-03-09T11:07:05.000Z</time>
      </trkpt>
      <trkpt lat="47.5759" lon="5.91073">
        <ele>229</ele>
        <time>2014-03-09T11:07:06.000Z</time>
      </trkpt>
      <trkpt lat="47.57589" lon="5.91076">
        <ele>229.39999389648</ele>
        <time>2014-03-09T11:07:07.000Z</time>
      </trkpt>
      <trkpt lat="47.57587" lon="5.91084">
        <ele>229.39999389648</ele>
        <time>2014-03-09T11:07:10.000Z</time>
      </trkpt>
      <trkpt lat="47.57585" lon="5.91091">
        <ele>230.39999389648</ele>
        <time>2014-03-09T11:07:11.000Z</time>
      </trkpt>
      <trkpt lat="47.57584" lon="5.91094">
        <ele>230.80000305176</ele>
        <time>2014-03-09T11:07:13.000Z</time>
      </trkpt>
      <trkpt lat="47.57584" lon="5.91095">
        <ele>231.19999694824</ele>
        <time>2014-03-09T11:07:14.000Z</time>
      </trkpt>
      <trkpt lat="47.57582" lon="5.911">
        <ele>231.60000610352</ele>
        <time>2014-03-09T11:07:16.000Z</time>
      </trkpt>
      <trkpt lat="47.57581" lon="5.91103">
        <ele>231.60000610352</ele>
        <time>2014-03-09T11:07:17.000Z</time>
      </trkpt>
      <trkpt lat="47.57578" lon="5.91113">
        <ele>232</ele>
        <time>2014-03-09T11:07:21.000Z</time>
      </trkpt>
      <trkpt lat="47.57577" lon="5.91115">
        <ele>232.39999389648</ele>
        <time>2014-03-09T11:07:22.000Z</time>
      </trkpt>
      <trkpt lat="47.57575" lon="5.91117">
        <ele>232.80000305176</ele>
        <time>2014-03-09T11:07:23.000Z</time>
      </trkpt>
      <trkpt lat="47.57575" lon="5.91119">
        <ele>233.19999694824</ele>
        <time>2014-03-09T11:07:24.000Z</time>
      </trkpt>
      <trkpt lat="47.57574" lon="5.91121">
        <ele>233.60000610352</ele>
        <time>2014-03-09T11:07:25.000Z</time>
      </trkpt>
      <trkpt lat="47.57572" lon="5.91125">
        <ele>233.60000610352</ele>
        <time>2014-03-09T11:07:27.000Z</time>
      </trkpt>
      <trkpt lat="47.5757" lon="5.91131">
        <ele>233.60000610352</ele>
        <time>2014-03-09T11:07:30.000Z</time>
      </trkpt>
      <trkpt lat="47.57568" lon="5.91136">
        <ele>234</ele>
        <time>2014-03-09T11:07:32.000Z</time>
      </trkpt>
      <trkpt lat="47.57565" lon="5.91142">
        <ele>235.39999389648</ele>
        <time>2014-03-09T11:07:33.000Z</time>
      </trkpt>
      <trkpt lat="47.57563" lon="5.91142">
        <ele>235.80000305176</ele>
        <time>2014-03-09T11:07:37.000Z</time>
      </trkpt>
      <trkpt lat="47.57562" lon="5.91143">
        <ele>235.80000305176</ele>
        <time>2014-03-09T11:07:38.000Z</time>
      </trkpt>
      <trkpt lat="47.57558" lon="5.91144">
        <ele>235.80000305176</ele>
        <time>2014-03-09T11:07:40.000Z</time>
      </trkpt>
      <trkpt lat="47.57556" lon="5.91144">
        <ele>235.80000305176</ele>
        <time>2014-03-09T11:07:42.000Z</time>
      </trkpt>
      <trkpt lat="47.57556" lon="5.91151">
        <ele>237.80000305176</ele>
        <time>2014-03-09T11:10:20.000Z</time>
      </trkpt>
      <trkpt lat="47.57553" lon="5.91157">
        <ele>237.80000305176</ele>
        <time>2014-03-09T11:10:24.000Z</time>
      </trkpt>
      <trkpt lat="47.5755" lon="5.91172">
        <ele>238.19999694824</ele>
        <time>2014-03-09T11:10:30.000Z</time>
      </trkpt>
      <trkpt lat="47.5755" lon="5.91175">
        <ele>238.60000610352</ele>
        <time>2014-03-09T11:10:31.000Z</time>
      </trkpt>
      <trkpt lat="47.57551" lon="5.91177">
        <ele>239</ele>
        <time>2014-03-09T11:10:32.000Z</time>
      </trkpt>
      <trkpt lat="47.57551" lon="5.9118">
        <ele>239.60000610352</ele>
        <time>2014-03-09T11:10:33.000Z</time>
      </trkpt>
      <trkpt lat="47.5755" lon="5.91182">
        <ele>240</ele>
        <time>2014-03-09T11:10:34.000Z</time>
      </trkpt>
      <trkpt lat="47.57548" lon="5.91191">
        <ele>240</ele>
        <time>2014-03-09T11:10:38.000Z</time>
      </trkpt>
      <trkpt lat="47.57547" lon="5.91196">
        <ele>240.39999389648</ele>
        <time>2014-03-09T11:10:40.000Z</time>
      </trkpt>
      <trkpt lat="47.57545" lon="5.91203">
        <ele>242</ele>
        <time>2014-03-09T11:10:41.000Z</time>
      </trkpt>
      <trkpt lat="47.57545" lon="5.91208">
        <ele>242</ele>
        <time>2014-03-09T11:10:45.000Z</time>
      </trkpt>
      <trkpt lat="47.57544" lon="5.9121">
        <ele>242</ele>
        <time>2014-03-09T11:10:46.000Z</time>
      </trkpt>
      <trkpt lat="47.57506" lon="5.9132">
        <ele>246.19999694824</ele>
        <time>2014-03-09T11:12:37.000Z</time>
      </trkpt>
      <trkpt lat="47.57504" lon="5.91325">
        <ele>246.19999694824</ele>
        <time>2014-03-09T11:12:38.000Z</time>
      </trkpt>
      <trkpt lat="47.57477" lon="5.91398">
        <ele>248.19999694824</ele>
        <time>2014-03-09T11:14:23.000Z</time>
      </trkpt>
      <trkpt lat="47.57473" lon="5.91408">
        <ele>248.19999694824</ele>
        <time>2014-03-09T11:14:27.000Z</time>
      </trkpt>
      <trkpt lat="47.5747" lon="5.91417">
        <ele>248.19999694824</ele>
        <time>2014-03-09T11:14:30.000Z</time>
      </trkpt>
      <trkpt lat="47.57466" lon="5.91432">
        <ele>248.19999694824</ele>
        <time>2014-03-09T11:14:37.000Z</time>
      </trkpt>
      <trkpt lat="47.57461" lon="5.91445">
        <ele>248.19999694824</ele>
        <time>2014-03-09T11:14:42.000Z</time>
      </trkpt>
      <trkpt lat="47.57456" lon="5.91456">
        <ele>248.19999694824</ele>
        <time>2014-03-09T11:14:48.000Z</time>
      </trkpt>
      <trkpt lat="47.57456" lon="5.91458">
        <ele>248.19999694824</ele>
        <time>2014-03-09T11:14:49.000Z</time>
      </trkpt>
      <trkpt lat="47.57456" lon="5.91465">
        <ele>248.19999694824</ele>
        <time>2014-03-09T11:14:50.000Z</time>
      </trkpt>
      <trkpt lat="47.57455" lon="5.91468">
        <ele>248.60000610352</ele>
        <time>2014-03-09T11:14:52.000Z</time>
      </trkpt>
      <trkpt lat="47.57455" lon="5.91468">
        <ele>248.60000610352</ele>
        <time>2014-03-09T11:14:53.000Z</time>
      </trkpt>
      <trkpt lat="47.57452" lon="5.91476">
        <ele>249.80000305176</ele>
        <time>2014-03-09T11:14:54.000Z</time>
      </trkpt>
      <trkpt lat="47.57451" lon="5.91478">
        <ele>250.19999694824</ele>
        <time>2014-03-09T11:14:57.000Z</time>
      </trkpt>
      <trkpt lat="47.57445" lon="5.91495">
        <ele>250.19999694824</ele>
        <time>2014-03-09T11:15:04.000Z</time>
      </trkpt>
      <trkpt lat="47.57442" lon="5.91503">
        <ele>250.19999694824</ele>
        <time>2014-03-09T11:15:07.000Z</time>
      </trkpt>
      <trkpt lat="47.57439" lon="5.91512">
        <ele>250.60000610352</ele>
        <time>2014-03-09T11:15:10.000Z</time>
      </trkpt>
      <trkpt lat="47.57438" lon="5.91514">
        <ele>251</ele>
        <time>2014-03-09T11:15:12.000Z</time>
      </trkpt>
      <trkpt lat="47.57434" lon="5.91522">
        <ele>252.19999694824</ele>
        <time>2014-03-09T11:15:13.000Z</time>
      </trkpt>
      <trkpt lat="47.57432" lon="5.91532">
        <ele>252.19999694824</ele>
        <time>2014-03-09T11:15:19.000Z</time>
      </trkpt>
      <trkpt lat="47.57423" lon="5.91556">
        <ele>252.19999694824</ele>
        <time>2014-03-09T11:15:26.000Z</time>
      </trkpt>
      <trkpt lat="47.57419" lon="5.91568">
        <ele>252.60000610352</ele>
        <time>2014-03-09T11:15:29.000Z</time>
      </trkpt>
      <trkpt lat="47.57418" lon="5.91571">
        <ele>253</ele>
        <time>2014-03-09T11:15:32.000Z</time>
      </trkpt>
      <trkpt lat="47.57417" lon="5.91574">
        <ele>253.39999389648</ele>
        <time>2014-03-09T11:15:33.000Z</time>
      </trkpt>
      <trkpt lat="47.57417" lon="5.91577">
        <ele>253.80000305176</ele>
        <time>2014-03-09T11:15:34.000Z</time>
      </trkpt>
      <trkpt lat="47.57415" lon="5.9158">
        <ele>254.19999694824</ele>
        <time>2014-03-09T11:15:35.000Z</time>
      </trkpt>
      <trkpt lat="47.57413" lon="5.91585">
        <ele>254.19999694824</ele>
        <time>2014-03-09T11:15:37.000Z</time>
      </trkpt>
      <trkpt lat="47.57411" lon="5.91591">
        <ele>254.19999694824</ele>
        <time>2014-03-09T11:15:40.000Z</time>
      </trkpt>
      <trkpt lat="47.5741" lon="5.91595">
        <ele>254.19999694824</ele>
        <time>2014-03-09T11:15:43.000Z</time>
      </trkpt>
      <trkpt lat="47.57403" lon="5.91615">
        <ele>254.19999694824</ele>
        <time>2014-03-09T11:15:49.000Z</time>
      </trkpt>
      <trkpt lat="47.574" lon="5.91626">
        <ele>254.60000610352</ele>
        <time>2014-03-09T11:15:53.000Z</time>
      </trkpt>
      <trkpt lat="47.57399" lon="5.91628">
        <ele>255.19999694824</ele>
        <time>2014-03-09T11:15:54.000Z</time>
      </trkpt>
      <trkpt lat="47.57399" lon="5.9163">
        <ele>255.60000610352</ele>
        <time>2014-03-09T11:15:55.000Z</time>
      </trkpt>
      <trkpt lat="47.57397" lon="5.91636">
        <ele>256.39999389648</ele>
        <time>2014-03-09T11:15:57.000Z</time>
      </trkpt>
      <trkpt lat="47.57392" lon="5.91649">
        <ele>256.39999389648</ele>
        <time>2014-03-09T11:15:59.000Z</time>
      </trkpt>
      <trkpt lat="47.57391" lon="5.91651">
        <ele>256.39999389648</ele>
        <time>2014-03-09T11:16:02.000Z</time>
      </trkpt>
      <trkpt lat="47.57384" lon="5.91671">
        <ele>256.39999389648</ele>
        <time>2014-03-09T11:16:09.000Z</time>
      </trkpt>
      <trkpt lat="47.5738" lon="5.91678">
        <ele>256.79998779297</ele>
        <time>2014-03-09T11:16:12.000Z</time>
      </trkpt>
      <trkpt lat="47.57379" lon="5.9168">
        <ele>257.20001220703</ele>
        <time>2014-03-09T11:16:13.000Z</time>
      </trkpt>
      <trkpt lat="47.57374" lon="5.91683">
        <ele>258.39999389648</ele>
        <time>2014-03-09T11:16:33.000Z</time>
      </trkpt>
      <trkpt lat="47.57372" lon="5.91682">
        <ele>258.39999389648</ele>
        <time>2014-03-09T11:16:34.000Z</time>
      </trkpt>
      <trkpt lat="47.57371" lon="5.91681">
        <ele>258.39999389648</ele>
        <time>2014-03-09T11:16:35.000Z</time>
      </trkpt>
      <trkpt lat="47.57364" lon="5.91677">
        <ele>258.39999389648</ele>
        <time>2014-03-09T11:16:38.000Z</time>
      </trkpt>
      <trkpt lat="47.57361" lon="5.91675">
        <ele>258.39999389648</ele>
        <time>2014-03-09T11:16:40.000Z</time>
      </trkpt>
      <trkpt lat="47.5735" lon="5.91666">
        <ele>258.39999389648</ele>
        <time>2014-03-09T11:16:46.000Z</time>
      </trkpt>
      <trkpt lat="47.57335" lon="5.91656">
        <ele>258.39999389648</ele>
        <time>2014-03-09T11:16:54.000Z</time>
      </trkpt>
      <trkpt lat="47.57321" lon="5.91647">
        <ele>258.39999389648</ele>
        <time>2014-03-09T11:17:00.000Z</time>
      </trkpt>
      <trkpt lat="47.57319" lon="5.91646">
        <ele>258.39999389648</ele>
        <time>2014-03-09T11:17:01.000Z</time>
      </trkpt>
      <trkpt lat="47.57311" lon="5.91641">
        <ele>258.39999389648</ele>
        <time>2014-03-09T11:17:05.000Z</time>
      </trkpt>
      <trkpt lat="47.57297" lon="5.91632">
        <ele>258.39999389648</ele>
        <time>2014-03-09T11:17:11.000Z</time>
      </trkpt>
      <trkpt lat="47.57287" lon="5.91626">
        <ele>258</ele>
        <time>2014-03-09T11:17:16.000Z</time>
      </trkpt>
      <trkpt lat="47.57285" lon="5.91624">
        <ele>257.60000610352</ele>
        <time>2014-03-09T11:17:17.000Z</time>
      </trkpt>
      <trkpt lat="47.57283" lon="5.91622">
        <ele>257.20001220703</ele>
        <time>2014-03-09T11:17:18.000Z</time>
      </trkpt>
      <trkpt lat="47.57281" lon="5.9162">
        <ele>256.79998779297</ele>
        <time>2014-03-09T11:17:19.000Z</time>
      </trkpt>
      <trkpt lat="47.57278" lon="5.91618">
        <ele>256.39999389648</ele>
        <time>2014-03-09T11:17:20.000Z</time>
      </trkpt>
      <trkpt lat="47.57261" lon="5.91608">
        <ele>256.39999389648</ele>
        <time>2014-03-09T11:17:26.000Z</time>
      </trkpt>
      <trkpt lat="47.57252" lon="5.916">
        <ele>256</ele>
        <time>2014-03-09T11:17:29.000Z</time>
      </trkpt>
      <trkpt lat="47.57249" lon="5.91598">
        <ele>255.60000610352</ele>
        <time>2014-03-09T11:17:30.000Z</time>
      </trkpt>
      <trkpt lat="47.57246" lon="5.91596">
        <ele>255</ele>
        <time>2014-03-09T11:17:31.000Z</time>
      </trkpt>
      <trkpt lat="47.57243" lon="5.91594">
        <ele>254.60000610352</ele>
        <time>2014-03-09T11:17:32.000Z</time>
      </trkpt>
      <trkpt lat="47.5724" lon="5.91592">
        <ele>254.19999694824</ele>
        <time>2014-03-09T11:17:33.000Z</time>
      </trkpt>
      <trkpt lat="47.5723" lon="5.91585">
        <ele>254.19999694824</ele>
        <time>2014-03-09T11:17:36.000Z</time>
      </trkpt>
      <trkpt lat="47.57221" lon="5.9158">
        <ele>253.80000305176</ele>
        <time>2014-03-09T11:17:39.000Z</time>
      </trkpt>
      <trkpt lat="47.57217" lon="5.91576">
        <ele>253.39999389648</ele>
        <time>2014-03-09T11:17:40.000Z</time>
      </trkpt>
      <trkpt lat="47.57214" lon="5.91572">
        <ele>252.80000305176</ele>
        <time>2014-03-09T11:17:41.000Z</time>
      </trkpt>
      <trkpt lat="47.57211" lon="5.91569">
        <ele>252.39999389648</ele>
        <time>2014-03-09T11:17:42.000Z</time>
      </trkpt>
      <trkpt lat="47.57208" lon="5.91567">
        <ele>252</ele>
        <time>2014-03-09T11:17:43.000Z</time>
      </trkpt>
      <trkpt lat="47.57202" lon="5.91562">
        <ele>252</ele>
        <time>2014-03-09T11:17:45.000Z</time>
      </trkpt>
      <trkpt lat="47.57192" lon="5.91553">
        <ele>251.60000610352</ele>
        <time>2014-03-09T11:17:48.000Z</time>
      </trkpt>
      <trkpt lat="47.57188" lon="5.9155">
        <ele>251.19999694824</ele>
        <time>2014-03-09T11:17:49.000Z</time>
      </trkpt>
      <trkpt lat="47.57185" lon="5.91548">
        <ele>250.80000305176</ele>
        <time>2014-03-09T11:17:50.000Z</time>
      </trkpt>
      <trkpt lat="47.57181" lon="5.91545">
        <ele>250.39999389648</ele>
        <time>2014-03-09T11:17:51.000Z</time>
      </trkpt>
      <trkpt lat="47.57178" lon="5.91543">
        <ele>250</ele>
        <time>2014-03-09T11:17:52.000Z</time>
      </trkpt>
      <trkpt lat="47.57167" lon="5.91534">
        <ele>249.60000610352</ele>
        <time>2014-03-09T11:17:55.000Z</time>
      </trkpt>
      <trkpt lat="47.57163" lon="5.91531">
        <ele>249.19999694824</ele>
        <time>2014-03-09T11:17:56.000Z</time>
      </trkpt>
      <trkpt lat="47.5716" lon="5.91528">
        <ele>248.60000610352</ele>
        <time>2014-03-09T11:17:57.000Z</time>
      </trkpt>
      <trkpt lat="47.57156" lon="5.91525">
        <ele>248.19999694824</ele>
        <time>2014-03-09T11:17:58.000Z</time>
      </trkpt>
      <trkpt lat="47.57153" lon="5.91522">
        <ele>247.80000305176</ele>
        <time>2014-03-09T11:17:59.000Z</time>
      </trkpt>
      <trkpt lat="47.57143" lon="5.91514">
        <ele>247.80000305176</ele>
        <time>2014-03-09T11:18:02.000Z</time>
      </trkpt>
      <trkpt lat="47.5714" lon="5.91512">
        <ele>247</ele>
        <time>2014-03-09T11:18:03.000Z</time>
      </trkpt>
      <trkpt lat="47.57136" lon="5.91509">
        <ele>246.60000610352</ele>
        <time>2014-03-09T11:18:04.000Z</time>
      </trkpt>
      <trkpt lat="47.57132" lon="5.91506">
        <ele>246</ele>
        <time>2014-03-09T11:18:05.000Z</time>
      </trkpt>
      <trkpt lat="47.57128" lon="5.91503">
        <ele>245.60000610352</ele>
        <time>2014-03-09T11:18:06.000Z</time>
      </trkpt>
      <trkpt lat="47.57124" lon="5.91499">
        <ele>245.19999694824</ele>
        <time>2014-03-09T11:18:07.000Z</time>
      </trkpt>
      <trkpt lat="47.5712" lon="5.91496">
        <ele>244.60000610352</ele>
        <time>2014-03-09T11:18:08.000Z</time>
      </trkpt>
      <trkpt lat="47.57108" lon="5.91487">
        <ele>243.60000610352</ele>
        <time>2014-03-09T11:18:09.000Z</time>
      </trkpt>
      <trkpt lat="47.57103" lon="5.91484">
        <ele>243.19999694824</ele>
        <time>2014-03-09T11:18:12.000Z</time>
      </trkpt>
      <trkpt lat="47.57099" lon="5.91481">
        <ele>242.80000305176</ele>
        <time>2014-03-09T11:18:13.000Z</time>
      </trkpt>
      <trkpt lat="47.57096" lon="5.91477">
        <ele>242.19999694824</ele>
        <time>2014-03-09T11:18:14.000Z</time>
      </trkpt>
      <trkpt lat="47.57092" lon="5.91475">
        <ele>241.80000305176</ele>
        <time>2014-03-09T11:18:15.000Z</time>
      </trkpt>
      <trkpt lat="47.57088" lon="5.91472">
        <ele>241.39999389648</ele>
        <time>2014-03-09T11:18:16.000Z</time>
      </trkpt>
      <trkpt lat="47.5708" lon="5.91467">
        <ele>240.80000305176</ele>
        <time>2014-03-09T11:18:18.000Z</time>
      </trkpt>
      <trkpt lat="47.57077" lon="5.91463">
        <ele>240.39999389648</ele>
        <time>2014-03-09T11:18:19.000Z</time>
      </trkpt>
      <trkpt lat="47.57074" lon="5.91461">
        <ele>240</ele>
        <time>2014-03-09T11:18:20.000Z</time>
      </trkpt>
      <trkpt lat="47.57071" lon="5.91459">
        <ele>239.39999389648</ele>
        <time>2014-03-09T11:18:21.000Z</time>
      </trkpt>
      <trkpt lat="47.5707" lon="5.91457">
        <ele>239</ele>
        <time>2014-03-09T11:18:22.000Z</time>
      </trkpt>
      <trkpt lat="47.57069" lon="5.91455">
        <ele>239</ele>
        <time>2014-03-09T11:18:23.000Z</time>
      </trkpt>
      <trkpt lat="47.57069" lon="5.91452">
        <ele>238.60000610352</ele>
        <time>2014-03-09T11:18:24.000Z</time>
      </trkpt>
      <trkpt lat="47.5707" lon="5.91448">
        <ele>238.19999694824</ele>
        <time>2014-03-09T11:18:25.000Z</time>
      </trkpt>
      <trkpt lat="47.57072" lon="5.91444">
        <ele>237.80000305176</ele>
        <time>2014-03-09T11:18:26.000Z</time>
      </trkpt>
      <trkpt lat="47.57074" lon="5.91439">
        <ele>236.80000305176</ele>
        <time>2014-03-09T11:18:27.000Z</time>
      </trkpt>
      <trkpt lat="47.57077" lon="5.91434">
        <ele>236.80000305176</ele>
        <time>2014-03-09T11:18:29.000Z</time>
      </trkpt>
      <trkpt lat="47.57081" lon="5.91427">
        <ele>236.80000305176</ele>
        <time>2014-03-09T11:18:31.000Z</time>
      </trkpt>
      <trkpt lat="47.57101" lon="5.91387">
        <ele>236.80000305176</ele>
        <time>2014-03-09T11:18:39.000Z</time>
      </trkpt>
      <trkpt lat="47.57119" lon="5.91355">
        <ele>236.80000305176</ele>
        <time>2014-03-09T11:18:46.000Z</time>
      </trkpt>
      <trkpt lat="47.57125" lon="5.91346">
        <ele>236.80000305176</ele>
        <time>2014-03-09T11:18:48.000Z</time>
      </trkpt>
      <trkpt lat="47.57137" lon="5.91333">
        <ele>236.80000305176</ele>
        <time>2014-03-09T11:18:51.000Z</time>
      </trkpt>
      <trkpt lat="47.5717" lon="5.91297">
        <ele>236.80000305176</ele>
        <time>2014-03-09T11:18:59.000Z</time>
      </trkpt>
      <trkpt lat="47.57174" lon="5.91292">
        <ele>236.80000305176</ele>
        <time>2014-03-09T11:19:00.000Z</time>
      </trkpt>
      <trkpt lat="47.57178" lon="5.91286">
        <ele>236.39999389648</ele>
        <time>2014-03-09T11:19:01.000Z</time>
      </trkpt>
      <trkpt lat="47.57182" lon="5.9128">
        <ele>236</ele>
        <time>2014-03-09T11:19:02.000Z</time>
      </trkpt>
      <trkpt lat="47.57186" lon="5.91274">
        <ele>235.60000610352</ele>
        <time>2014-03-09T11:19:03.000Z</time>
      </trkpt>
      <trkpt lat="47.57189" lon="5.91267">
        <ele>235.19999694824</ele>
        <time>2014-03-09T11:19:04.000Z</time>
      </trkpt>
      <trkpt lat="47.57193" lon="5.9126">
        <ele>234.80000305176</ele>
        <time>2014-03-09T11:19:05.000Z</time>
      </trkpt>
      <trkpt lat="47.57195" lon="5.91252">
        <ele>234.80000305176</ele>
        <time>2014-03-09T11:19:06.000Z</time>
      </trkpt>
      <trkpt lat="47.572" lon="5.91235">
        <ele>234.39999389648</ele>
        <time>2014-03-09T11:19:08.000Z</time>
      </trkpt>
      <trkpt lat="47.57202" lon="5.91227">
        <ele>233.80000305176</ele>
        <time>2014-03-09T11:19:09.000Z</time>
      </trkpt>
      <trkpt lat="47.57204" lon="5.9122">
        <ele>233.39999389648</ele>
        <time>2014-03-09T11:19:10.000Z</time>
      </trkpt>
      <trkpt lat="47.57206" lon="5.91212">
        <ele>233</ele>
        <time>2014-03-09T11:19:11.000Z</time>
      </trkpt>
      <trkpt lat="47.57208" lon="5.91206">
        <ele>232.60000610352</ele>
        <time>2014-03-09T11:19:12.000Z</time>
      </trkpt>
      <trkpt lat="47.57214" lon="5.91187">
        <ele>232.60000610352</ele>
        <time>2014-03-09T11:19:15.000Z</time>
      </trkpt>
      <trkpt lat="47.57226" lon="5.91148">
        <ele>232.60000610352</ele>
        <time>2014-03-09T11:19:21.000Z</time>
      </trkpt>
      <trkpt lat="47.57243" lon="5.91081">
        <ele>232.60000610352</ele>
        <time>2014-03-09T11:19:29.000Z</time>
      </trkpt>
      <trkpt lat="47.57246" lon="5.91059">
        <ele>232.60000610352</ele>
        <time>2014-03-09T11:19:33.000Z</time>
      </trkpt>
      <trkpt lat="47.5725" lon="5.91033">
        <ele>232.60000610352</ele>
        <time>2014-03-09T11:19:39.000Z</time>
      </trkpt>
      <trkpt lat="47.57254" lon="5.90995">
        <ele>232.60000610352</ele>
        <time>2014-03-09T11:19:45.000Z</time>
      </trkpt>
      <trkpt lat="47.57253" lon="5.90973">
        <ele>232.60000610352</ele>
        <time>2014-03-09T11:19:46.000Z</time>
      </trkpt>
      <trkpt lat="47.5725" lon="5.9095">
        <ele>232.19999694824</ele>
        <time>2014-03-09T11:19:51.000Z</time>
      </trkpt>
      <trkpt lat="47.57249" lon="5.90942">
        <ele>231.80000305176</ele>
        <time>2014-03-09T11:19:52.000Z</time>
      </trkpt>
      <trkpt lat="47.57248" lon="5.90933">
        <ele>231.39999389648</ele>
        <time>2014-03-09T11:19:53.000Z</time>
      </trkpt>
      <trkpt lat="47.57246" lon="5.90924">
        <ele>231</ele>
        <time>2014-03-09T11:19:54.000Z</time>
      </trkpt>
      <trkpt lat="47.57245" lon="5.90915">
        <ele>230.39999389648</ele>
        <time>2014-03-09T11:19:55.000Z</time>
      </trkpt>
      <trkpt lat="47.57243" lon="5.90906">
        <ele>229.80000305176</ele>
        <time>2014-03-09T11:19:56.000Z</time>
      </trkpt>
      <trkpt lat="47.57242" lon="5.90895">
        <ele>229.19999694824</ele>
        <time>2014-03-09T11:19:57.000Z</time>
      </trkpt>
      <trkpt lat="47.5724" lon="5.90885">
        <ele>228.80000305176</ele>
        <time>2014-03-09T11:19:58.000Z</time>
      </trkpt>
      <trkpt lat="47.57238" lon="5.90875">
        <ele>228.19999694824</ele>
        <time>2014-03-09T11:19:59.000Z</time>
      </trkpt>
      <trkpt lat="47.57237" lon="5.90865">
        <ele>227.60000610352</ele>
        <time>2014-03-09T11:20:00.000Z</time>
      </trkpt>
      <trkpt lat="47.57235" lon="5.90855">
        <ele>227.19999694824</ele>
        <time>2014-03-09T11:20:01.000Z</time>
      </trkpt>
      <trkpt lat="47.57234" lon="5.90846">
        <ele>226.60000610352</ele>
        <time>2014-03-09T11:20:02.000Z</time>
      </trkpt>
      <trkpt lat="47.57231" lon="5.90838">
        <ele>226</ele>
        <time>2014-03-09T11:20:03.000Z</time>
      </trkpt>
      <trkpt lat="47.57222" lon="5.90828">
        <ele>226</ele>
        <time>2014-03-09T11:20:05.000Z</time>
      </trkpt>
      <trkpt lat="47.57202" lon="5.90816">
        <ele>226</ele>
        <time>2014-03-09T11:20:10.000Z</time>
      </trkpt>
      <trkpt lat="47.57189" lon="5.90806">
        <ele>226</ele>
        <time>2014-03-09T11:20:13.000Z</time>
      </trkpt>
      <trkpt lat="47.57175" lon="5.90796">
        <ele>226</ele>
        <time>2014-03-09T11:20:16.000Z</time>
      </trkpt>
      <trkpt lat="47.57171" lon="5.90793">
        <ele>226</ele>
        <time>2014-03-09T11:20:17.000Z</time>
      </trkpt>
      <trkpt lat="47.57136" lon="5.90768">
        <ele>226</ele>
        <time>2014-03-09T11:20:25.000Z</time>
      </trkpt>
      <trkpt lat="47.57121" lon="5.90757">
        <ele>226</ele>
        <time>2014-03-09T11:20:29.000Z</time>
      </trkpt>
      <trkpt lat="47.57113" lon="5.9075">
        <ele>226</ele>
        <time>2014-03-09T11:20:31.000Z</time>
      </trkpt>
      <trkpt lat="47.57082" lon="5.90728">
        <ele>226</ele>
        <time>2014-03-09T11:20:40.000Z</time>
      </trkpt>
      <trkpt lat="47.57075" lon="5.90723">
        <ele>226.39999389648</ele>
        <time>2014-03-09T11:20:42.000Z</time>
      </trkpt>
      <trkpt lat="47.57072" lon="5.90721">
        <ele>226.80000305176</ele>
        <time>2014-03-09T11:20:43.000Z</time>
      </trkpt>
      <trkpt lat="47.57069" lon="5.90718">
        <ele>227.39999389648</ele>
        <time>2014-03-09T11:20:44.000Z</time>
      </trkpt>
      <trkpt lat="47.57065" lon="5.90716">
        <ele>227.80000305176</ele>
        <time>2014-03-09T11:20:45.000Z</time>
      </trkpt>
      <trkpt lat="47.57062" lon="5.90714">
        <ele>228.19999694824</ele>
        <time>2014-03-09T11:20:46.000Z</time>
      </trkpt>
      <trkpt lat="47.57059" lon="5.90712">
        <ele>228.19999694824</ele>
        <time>2014-03-09T11:20:47.000Z</time>
      </trkpt>
      <trkpt lat="47.57036" lon="5.90697">
        <ele>228.60000610352</ele>
        <time>2014-03-09T11:20:54.000Z</time>
      </trkpt>
      <trkpt lat="47.57033" lon="5.90696">
        <ele>229.39999389648</ele>
        <time>2014-03-09T11:20:55.000Z</time>
      </trkpt>
      <trkpt lat="47.5703" lon="5.90696">
        <ele>229.80000305176</ele>
        <time>2014-03-09T11:20:56.000Z</time>
      </trkpt>
      <trkpt lat="47.57027" lon="5.90696">
        <ele>230.39999389648</ele>
        <time>2014-03-09T11:20:57.000Z</time>
      </trkpt>
      <trkpt lat="47.57022" lon="5.90696">
        <ele>230.39999389648</ele>
        <time>2014-03-09T11:20:59.000Z</time>
      </trkpt>
      <trkpt lat="47.57004" lon="5.90691">
        <ele>230.39999389648</ele>
        <time>2014-03-09T11:21:04.000Z</time>
      </trkpt>
      <trkpt lat="47.56993" lon="5.90679">
        <ele>230.39999389648</ele>
        <time>2014-03-09T11:21:07.000Z</time>
      </trkpt>
      <trkpt lat="47.56993" lon="5.90679">
        <ele>230.39999389648</ele>
        <time>2014-03-09T11:21:08.000Z</time>
      </trkpt>
      <trkpt lat="47.5699" lon="5.90675">
        <ele>230.80000305176</ele>
        <time>2014-03-09T11:21:10.000Z</time>
      </trkpt>
      <trkpt lat="47.5699" lon="5.90675">
        <ele>231.19999694824</ele>
        <time>2014-03-09T11:21:11.000Z</time>
      </trkpt>
      <trkpt lat="47.5699" lon="5.9067">
        <ele>232.60000610352</ele>
        <time>2014-03-09T11:21:55.000Z</time>
      </trkpt>
      <trkpt lat="47.56987" lon="5.90645">
        <ele>232.60000610352</ele>
        <time>2014-03-09T11:22:00.000Z</time>
      </trkpt>
      <trkpt lat="47.56987" lon="5.90637">
        <ele>232.60000610352</ele>
        <time>2014-03-09T11:22:01.000Z</time>
      </trkpt>
      <trkpt lat="47.56986" lon="5.90621">
        <ele>232</ele>
        <time>2014-03-09T11:22:03.000Z</time>
      </trkpt>
      <trkpt lat="47.56986" lon="5.90613">
        <ele>231.60000610352</ele>
        <time>2014-03-09T11:22:04.000Z</time>
      </trkpt>
      <trkpt lat="47.56986" lon="5.90604">
        <ele>231.19999694824</ele>
        <time>2014-03-09T11:22:05.000Z</time>
      </trkpt>
      <trkpt lat="47.56987" lon="5.90595">
        <ele>230.60000610352</ele>
        <time>2014-03-09T11:22:06.000Z</time>
      </trkpt>
      <trkpt lat="47.56987" lon="5.90586">
        <ele>230.19999694824</ele>
        <time>2014-03-09T11:22:07.000Z</time>
      </trkpt>
      <trkpt lat="47.56988" lon="5.90568">
        <ele>229.80000305176</ele>
        <time>2014-03-09T11:22:09.000Z</time>
      </trkpt>
      <trkpt lat="47.56989" lon="5.90558">
        <ele>229.39999389648</ele>
        <time>2014-03-09T11:22:10.000Z</time>
      </trkpt>
      <trkpt lat="47.5699" lon="5.9055">
        <ele>229</ele>
        <time>2014-03-09T11:22:11.000Z</time>
      </trkpt>
      <trkpt lat="47.56991" lon="5.9054">
        <ele>228.60000610352</ele>
        <time>2014-03-09T11:22:12.000Z</time>
      </trkpt>
      <trkpt lat="47.56991" lon="5.90532">
        <ele>228.19999694824</ele>
        <time>2014-03-09T11:22:13.000Z</time>
      </trkpt>
      <trkpt lat="47.56995" lon="5.9051">
        <ele>228.19999694824</ele>
        <time>2014-03-09T11:22:16.000Z</time>
      </trkpt>
      <trkpt lat="47.56996" lon="5.90503">
        <ele>228.19999694824</ele>
        <time>2014-03-09T11:22:17.000Z</time>
      </trkpt>
      <trkpt lat="47.57001" lon="5.9048">
        <ele>228.60000610352</ele>
        <time>2014-03-09T11:22:21.000Z</time>
      </trkpt>
      <trkpt lat="47.57002" lon="5.90474">
        <ele>229</ele>
        <time>2014-03-09T11:22:22.000Z</time>
      </trkpt>
      <trkpt lat="47.57003" lon="5.90469">
        <ele>229.39999389648</ele>
        <time>2014-03-09T11:22:23.000Z</time>
      </trkpt>
      <trkpt lat="47.57004" lon="5.90464">
        <ele>229.80000305176</ele>
        <time>2014-03-09T11:22:24.000Z</time>
      </trkpt>
      <trkpt lat="47.57005" lon="5.9046">
        <ele>230.19999694824</ele>
        <time>2014-03-09T11:22:25.000Z</time>
      </trkpt>
      <trkpt lat="47.57006" lon="5.90447">
        <ele>230.80000305176</ele>
        <time>2014-03-09T11:22:28.000Z</time>
      </trkpt>
      <trkpt lat="47.57007" lon="5.90443">
        <ele>231.19999694824</ele>
        <time>2014-03-09T11:22:29.000Z</time>
      </trkpt>
      <trkpt lat="47.57007" lon="5.90439">
        <ele>231.60000610352</ele>
        <time>2014-03-09T11:22:30.000Z</time>
      </trkpt>
      <trkpt lat="47.57008" lon="5.90435">
        <ele>232.19999694824</ele>
        <time>2014-03-09T11:22:31.000Z</time>
      </trkpt>
      <trkpt lat="47.57008" lon="5.90431">
        <ele>232.60000610352</ele>
        <time>2014-03-09T11:22:32.000Z</time>
      </trkpt>
      <trkpt lat="47.57009" lon="5.90422">
        <ele>233</ele>
        <time>2014-03-09T11:22:34.000Z</time>
      </trkpt>
      <trkpt lat="47.57009" lon="5.90418">
        <ele>233.39999389648</ele>
        <time>2014-03-09T11:22:35.000Z</time>
      </trkpt>
      <trkpt lat="47.57009" lon="5.90413">
        <ele>233.80000305176</ele>
        <time>2014-03-09T11:22:36.000Z</time>
      </trkpt>
      <trkpt lat="47.57009" lon="5.90409">
        <ele>234.19999694824</ele>
        <time>2014-03-09T11:22:37.000Z</time>
      </trkpt>
      <trkpt lat="47.5701" lon="5.90404">
        <ele>234.60000610352</ele>
        <time>2014-03-09T11:22:38.000Z</time>
      </trkpt>
      <trkpt lat="47.5701" lon="5.90387">
        <ele>235.19999694824</ele>
        <time>2014-03-09T11:22:42.000Z</time>
      </trkpt>
      <trkpt lat="47.57011" lon="5.90382">
        <ele>235.60000610352</ele>
        <time>2014-03-09T11:22:43.000Z</time>
      </trkpt>
      <trkpt lat="47.5701" lon="5.90378">
        <ele>236</ele>
        <time>2014-03-09T11:22:44.000Z</time>
      </trkpt>
      <trkpt lat="47.5701" lon="5.90373">
        <ele>236.39999389648</ele>
        <time>2014-03-09T11:22:45.000Z</time>
      </trkpt>
      <trkpt lat="47.5701" lon="5.90369">
        <ele>237</ele>
        <time>2014-03-09T11:22:46.000Z</time>
      </trkpt>
      <trkpt lat="47.57007" lon="5.9035">
        <ele>237</ele>
        <time>2014-03-09T11:22:50.000Z</time>
      </trkpt>
      <trkpt lat="47.57006" lon="5.90336">
        <ele>237.39999389648</ele>
        <time>2014-03-09T11:22:53.000Z</time>
      </trkpt>
      <trkpt lat="47.57005" lon="5.90331">
        <ele>237.80000305176</ele>
        <time>2014-03-09T11:22:54.000Z</time>
      </trkpt>
      <trkpt lat="47.57005" lon="5.90327">
        <ele>238.19999694824</ele>
        <time>2014-03-09T11:22:55.000Z</time>
      </trkpt>
      <trkpt lat="47.57004" lon="5.90322">
        <ele>238.60000610352</ele>
        <time>2014-03-09T11:22:56.000Z</time>
      </trkpt>
      <trkpt lat="47.57004" lon="5.90317">
        <ele>239</ele>
        <time>2014-03-09T11:22:57.000Z</time>
      </trkpt>
      <trkpt lat="47.57003" lon="5.90312">
        <ele>239</ele>
        <time>2014-03-09T11:22:58.000Z</time>
      </trkpt>
      <trkpt lat="47.56998" lon="5.90269">
        <ele>239</ele>
        <time>2014-03-09T11:23:06.000Z</time>
      </trkpt>
      <trkpt lat="47.56993" lon="5.90229">
        <ele>239</ele>
        <time>2014-03-09T11:23:13.000Z</time>
      </trkpt>
      <trkpt lat="47.56992" lon="5.90224">
        <ele>239</ele>
        <time>2014-03-09T11:23:14.000Z</time>
      </trkpt>
      <trkpt lat="47.56988" lon="5.902">
        <ele>239</ele>
        <time>2014-03-09T11:23:18.000Z</time>
      </trkpt>
      <trkpt lat="47.56979" lon="5.90145">
        <ele>239</ele>
        <time>2014-03-09T11:23:26.000Z</time>
      </trkpt>
      <trkpt lat="47.56968" lon="5.90086">
        <ele>239</ele>
        <time>2014-03-09T11:23:34.000Z</time>
      </trkpt>
      <trkpt lat="47.56962" lon="5.90057">
        <ele>239</ele>
        <time>2014-03-09T11:23:38.000Z</time>
      </trkpt>
      <trkpt lat="47.56953" lon="5.90027">
        <ele>239</ele>
        <time>2014-03-09T11:23:42.000Z</time>
      </trkpt>
      <trkpt lat="47.56946" lon="5.89995">
        <ele>238.60000610352</ele>
        <time>2014-03-09T11:23:46.000Z</time>
      </trkpt>
      <trkpt lat="47.56943" lon="5.89987">
        <ele>238.19999694824</ele>
        <time>2014-03-09T11:23:47.000Z</time>
      </trkpt>
      <trkpt lat="47.56941" lon="5.89979">
        <ele>237.80000305176</ele>
        <time>2014-03-09T11:23:48.000Z</time>
      </trkpt>
      <trkpt lat="47.56939" lon="5.89971">
        <ele>237.39999389648</ele>
        <time>2014-03-09T11:23:49.000Z</time>
      </trkpt>
      <trkpt lat="47.56937" lon="5.89963">
        <ele>237</ele>
        <time>2014-03-09T11:23:50.000Z</time>
      </trkpt>
      <trkpt lat="47.56936" lon="5.89954">
        <ele>237</ele>
        <time>2014-03-09T11:23:51.000Z</time>
      </trkpt>
      <trkpt lat="47.56931" lon="5.89937">
        <ele>237</ele>
        <time>2014-03-09T11:23:53.000Z</time>
      </trkpt>
      <trkpt lat="47.56912" lon="5.8987">
        <ele>237</ele>
        <time>2014-03-09T11:24:01.000Z</time>
      </trkpt>
      <trkpt lat="47.56905" lon="5.89846">
        <ele>236.39999389648</ele>
        <time>2014-03-09T11:24:04.000Z</time>
      </trkpt>
      <trkpt lat="47.56903" lon="5.89837">
        <ele>236</ele>
        <time>2014-03-09T11:24:05.000Z</time>
      </trkpt>
      <trkpt lat="47.569" lon="5.89829">
        <ele>235.60000610352</ele>
        <time>2014-03-09T11:24:06.000Z</time>
      </trkpt>
      <trkpt lat="47.56898" lon="5.89821">
        <ele>235.19999694824</ele>
        <time>2014-03-09T11:24:07.000Z</time>
      </trkpt>
      <trkpt lat="47.56896" lon="5.89813">
        <ele>234.80000305176</ele>
        <time>2014-03-09T11:24:08.000Z</time>
      </trkpt>
      <trkpt lat="47.56882" lon="5.89763">
        <ele>234.80000305176</ele>
        <time>2014-03-09T11:24:14.000Z</time>
      </trkpt>
      <trkpt lat="47.56879" lon="5.89755">
        <ele>234.80000305176</ele>
        <time>2014-03-09T11:24:15.000Z</time>
      </trkpt>
      <trkpt lat="47.56869" lon="5.89723">
        <ele>234.80000305176</ele>
        <time>2014-03-09T11:24:19.000Z</time>
      </trkpt>
      <trkpt lat="47.56848" lon="5.89648">
        <ele>234.80000305176</ele>
        <time>2014-03-09T11:24:28.000Z</time>
      </trkpt>
      <trkpt lat="47.56833" lon="5.89591">
        <ele>234.80000305176</ele>
        <time>2014-03-09T11:24:35.000Z</time>
      </trkpt>
      <trkpt lat="47.56831" lon="5.89583">
        <ele>234.80000305176</ele>
        <time>2014-03-09T11:24:36.000Z</time>
      </trkpt>
      <trkpt lat="47.56819" lon="5.89544">
        <ele>234.80000305176</ele>
        <time>2014-03-09T11:24:41.000Z</time>
      </trkpt>
      <trkpt lat="47.56811" lon="5.89513">
        <ele>234.80000305176</ele>
        <time>2014-03-09T11:24:45.000Z</time>
      </trkpt>
      <trkpt lat="47.56809" lon="5.89505">
        <ele>234.80000305176</ele>
        <time>2014-03-09T11:24:46.000Z</time>
      </trkpt>
      <trkpt lat="47.56794" lon="5.89454">
        <ele>234.80000305176</ele>
        <time>2014-03-09T11:24:53.000Z</time>
      </trkpt>
      <trkpt lat="47.56789" lon="5.8944">
        <ele>234.80000305176</ele>
        <time>2014-03-09T11:24:55.000Z</time>
      </trkpt>
      <trkpt lat="47.56785" lon="5.89427">
        <ele>234.80000305176</ele>
        <time>2014-03-09T11:24:57.000Z</time>
      </trkpt>
      <trkpt lat="47.56784" lon="5.89421">
        <ele>234.80000305176</ele>
        <time>2014-03-09T11:24:58.000Z</time>
      </trkpt>
      <trkpt lat="47.5677" lon="5.89404">
        <ele>234.80000305176</ele>
        <time>2014-03-09T11:25:02.000Z</time>
      </trkpt>
      <trkpt lat="47.56755" lon="5.89409">
        <ele>234.80000305176</ele>
        <time>2014-03-09T11:25:05.000Z</time>
      </trkpt>
      <trkpt lat="47.56747" lon="5.89417">
        <ele>234.80000305176</ele>
        <time>2014-03-09T11:25:07.000Z</time>
      </trkpt>
      <trkpt lat="47.56725" lon="5.89433">
        <ele>234.80000305176</ele>
        <time>2014-03-09T11:25:12.000Z</time>
      </trkpt>
      <trkpt lat="47.56694" lon="5.89459">
        <ele>235.19999694824</ele>
        <time>2014-03-09T11:25:20.000Z</time>
      </trkpt>
      <trkpt lat="47.56691" lon="5.89462">
        <ele>235.60000610352</ele>
        <time>2014-03-09T11:25:21.000Z</time>
      </trkpt>
      <trkpt lat="47.56687" lon="5.89465">
        <ele>236</ele>
        <time>2014-03-09T11:25:22.000Z</time>
      </trkpt>
      <trkpt lat="47.56683" lon="5.89468">
        <ele>236.80000305176</ele>
        <time>2014-03-09T11:25:23.000Z</time>
      </trkpt>
      <trkpt lat="47.56658" lon="5.89488">
        <ele>236.80000305176</ele>
        <time>2014-03-09T11:25:30.000Z</time>
      </trkpt>
      <trkpt lat="47.56655" lon="5.89491">
        <ele>237.19999694824</ele>
        <time>2014-03-09T11:25:31.000Z</time>
      </trkpt>
      <trkpt lat="47.56652" lon="5.89494">
        <ele>237.60000610352</ele>
        <time>2014-03-09T11:25:32.000Z</time>
      </trkpt>
      <trkpt lat="47.56648" lon="5.89497">
        <ele>238</ele>
        <time>2014-03-09T11:25:33.000Z</time>
      </trkpt>
      <trkpt lat="47.56645" lon="5.895">
        <ele>238.39999389648</ele>
        <time>2014-03-09T11:25:34.000Z</time>
      </trkpt>
      <trkpt lat="47.56642" lon="5.89503">
        <ele>238.80000305176</ele>
        <time>2014-03-09T11:25:35.000Z</time>
      </trkpt>
      <trkpt lat="47.56626" lon="5.89517">
        <ele>239.39999389648</ele>
        <time>2014-03-09T11:25:40.000Z</time>
      </trkpt>
      <trkpt lat="47.56623" lon="5.8952">
        <ele>239.80000305176</ele>
        <time>2014-03-09T11:25:41.000Z</time>
      </trkpt>
      <trkpt lat="47.5662" lon="5.89523">
        <ele>240.19999694824</ele>
        <time>2014-03-09T11:25:42.000Z</time>
      </trkpt>
      <trkpt lat="47.56618" lon="5.89526">
        <ele>240.60000610352</ele>
        <time>2014-03-09T11:25:43.000Z</time>
      </trkpt>
      <trkpt lat="47.56615" lon="5.89529">
        <ele>241</ele>
        <time>2014-03-09T11:25:44.000Z</time>
      </trkpt>
      <trkpt lat="47.56605" lon="5.8954">
        <ele>241.39999389648</ele>
        <time>2014-03-09T11:25:48.000Z</time>
      </trkpt>
      <trkpt lat="47.56603" lon="5.89543">
        <ele>241.80000305176</ele>
        <time>2014-03-09T11:25:49.000Z</time>
      </trkpt>
      <trkpt lat="47.566" lon="5.89546">
        <ele>242.19999694824</ele>
        <time>2014-03-09T11:25:50.000Z</time>
      </trkpt>
      <trkpt lat="47.56598" lon="5.89549">
        <ele>242.80000305176</ele>
        <time>2014-03-09T11:25:51.000Z</time>
      </trkpt>
      <trkpt lat="47.56595" lon="5.89552">
        <ele>243.19999694824</ele>
        <time>2014-03-09T11:25:52.000Z</time>
      </trkpt>
      <trkpt lat="47.56584" lon="5.89569">
        <ele>243.19999694824</ele>
        <time>2014-03-09T11:25:57.000Z</time>
      </trkpt>
      <trkpt lat="47.56577" lon="5.89579">
        <ele>243.60000610352</ele>
        <time>2014-03-09T11:26:00.000Z</time>
      </trkpt>
      <trkpt lat="47.56574" lon="5.89583">
        <ele>244</ele>
        <time>2014-03-09T11:26:01.000Z</time>
      </trkpt>
      <trkpt lat="47.56572" lon="5.89586">
        <ele>244.39999389648</ele>
        <time>2014-03-09T11:26:02.000Z</time>
      </trkpt>
      <trkpt lat="47.5657" lon="5.89589">
        <ele>244.80000305176</ele>
        <time>2014-03-09T11:26:03.000Z</time>
      </trkpt>
      <trkpt lat="47.56568" lon="5.89593">
        <ele>245.19999694824</ele>
        <time>2014-03-09T11:26:04.000Z</time>
      </trkpt>
      <trkpt lat="47.56563" lon="5.896">
        <ele>245.19999694824</ele>
        <time>2014-03-09T11:26:06.000Z</time>
      </trkpt>
      <trkpt lat="47.5655" lon="5.8962">
        <ele>245.60000610352</ele>
        <time>2014-03-09T11:26:12.000Z</time>
      </trkpt>
      <trkpt lat="47.56548" lon="5.89624">
        <ele>246.60000610352</ele>
        <time>2014-03-09T11:26:13.000Z</time>
      </trkpt>
      <trkpt lat="47.56545" lon="5.89627">
        <ele>247</ele>
        <time>2014-03-09T11:26:14.000Z</time>
      </trkpt>
      <trkpt lat="47.56543" lon="5.89631">
        <ele>247.39999389648</ele>
        <time>2014-03-09T11:26:15.000Z</time>
      </trkpt>
      <trkpt lat="47.56527" lon="5.89656">
        <ele>247.39999389648</ele>
        <time>2014-03-09T11:26:22.000Z</time>
      </trkpt>
      <trkpt lat="47.56525" lon="5.8966">
        <ele>247.80000305176</ele>
        <time>2014-03-09T11:26:23.000Z</time>
      </trkpt>
      <trkpt lat="47.56523" lon="5.89664">
        <ele>248.19999694824</ele>
        <time>2014-03-09T11:26:24.000Z</time>
      </trkpt>
      <trkpt lat="47.5652" lon="5.89667">
        <ele>248.60000610352</ele>
        <time>2014-03-09T11:26:25.000Z</time>
      </trkpt>
      <trkpt lat="47.56518" lon="5.89671">
        <ele>249</ele>
        <time>2014-03-09T11:26:26.000Z</time>
      </trkpt>
      <trkpt lat="47.56516" lon="5.89675">
        <ele>249.39999389648</ele>
        <time>2014-03-09T11:26:27.000Z</time>
      </trkpt>
      <trkpt lat="47.56504" lon="5.89692">
        <ele>249.39999389648</ele>
        <time>2014-03-09T11:26:32.000Z</time>
      </trkpt>
      <trkpt lat="47.56498" lon="5.89703">
        <ele>249.80000305176</ele>
        <time>2014-03-09T11:26:35.000Z</time>
      </trkpt>
      <trkpt lat="47.56495" lon="5.89706">
        <ele>250.19999694824</ele>
        <time>2014-03-09T11:26:36.000Z</time>
      </trkpt>
      <trkpt lat="47.56493" lon="5.89709">
        <ele>250.60000610352</ele>
        <time>2014-03-09T11:26:37.000Z</time>
      </trkpt>
      <trkpt lat="47.56491" lon="5.89713">
        <ele>251.39999389648</ele>
        <time>2014-03-09T11:26:38.000Z</time>
      </trkpt>
      <trkpt lat="47.56484" lon="5.89724">
        <ele>251.39999389648</ele>
        <time>2014-03-09T11:26:41.000Z</time>
      </trkpt>
      <trkpt lat="47.56464" lon="5.89752">
        <ele>251.80000305176</ele>
        <time>2014-03-09T11:26:49.000Z</time>
      </trkpt>
      <trkpt lat="47.56461" lon="5.89756">
        <ele>252.19999694824</ele>
        <time>2014-03-09T11:26:50.000Z</time>
      </trkpt>
      <trkpt lat="47.56459" lon="5.89759">
        <ele>252.80000305176</ele>
        <time>2014-03-09T11:26:51.000Z</time>
      </trkpt>
      <trkpt lat="47.56456" lon="5.89763">
        <ele>253.19999694824</ele>
        <time>2014-03-09T11:26:52.000Z</time>
      </trkpt>
      <trkpt lat="47.56454" lon="5.89767">
        <ele>253.60000610352</ele>
        <time>2014-03-09T11:26:53.000Z</time>
      </trkpt>
      <trkpt lat="47.56443" lon="5.89781">
        <ele>253.60000610352</ele>
        <time>2014-03-09T11:26:57.000Z</time>
      </trkpt>
      <trkpt lat="47.56417" lon="5.89803">
        <ele>253.60000610352</ele>
        <time>2014-03-09T11:27:05.000Z</time>
      </trkpt>
      <trkpt lat="47.56414" lon="5.89806">
        <ele>254</ele>
        <time>2014-03-09T11:27:06.000Z</time>
      </trkpt>
      <trkpt lat="47.5641" lon="5.89808">
        <ele>254.39999389648</ele>
        <time>2014-03-09T11:27:07.000Z</time>
      </trkpt>
      <trkpt lat="47.56407" lon="5.89811">
        <ele>254.80000305176</ele>
        <time>2014-03-09T11:27:08.000Z</time>
      </trkpt>
      <trkpt lat="47.56403" lon="5.89814">
        <ele>255.19999694824</ele>
        <time>2014-03-09T11:27:09.000Z</time>
      </trkpt>
      <trkpt lat="47.564" lon="5.89817">
        <ele>255.80000305176</ele>
        <time>2014-03-09T11:27:10.000Z</time>
      </trkpt>
      <trkpt lat="47.56392" lon="5.89823">
        <ele>255.80000305176</ele>
        <time>2014-03-09T11:27:12.000Z</time>
      </trkpt>
      <trkpt lat="47.56359" lon="5.89847">
        <ele>255.80000305176</ele>
        <time>2014-03-09T11:27:21.000Z</time>
      </trkpt>
      <trkpt lat="47.56334" lon="5.89866">
        <ele>255.80000305176</ele>
        <time>2014-03-09T11:27:28.000Z</time>
      </trkpt>
      <trkpt lat="47.56305" lon="5.89889">
        <ele>255.80000305176</ele>
        <time>2014-03-09T11:27:36.000Z</time>
      </trkpt>
      <trkpt lat="47.56273" lon="5.89914">
        <ele>255.80000305176</ele>
        <time>2014-03-09T11:27:44.000Z</time>
      </trkpt>
      <trkpt lat="47.56239" lon="5.8994">
        <ele>256.60000610352</ele>
        <time>2014-03-09T11:27:52.000Z</time>
      </trkpt>
      <trkpt lat="47.56235" lon="5.89943">
        <ele>257</ele>
        <time>2014-03-09T11:27:53.000Z</time>
      </trkpt>
      <trkpt lat="47.56232" lon="5.89946">
        <ele>257.39999389648</ele>
        <time>2014-03-09T11:27:54.000Z</time>
      </trkpt>
      <trkpt lat="47.56228" lon="5.89949">
        <ele>257.79998779297</ele>
        <time>2014-03-09T11:27:55.000Z</time>
      </trkpt>
      <trkpt lat="47.56208" lon="5.89962">
        <ele>257.79998779297</ele>
        <time>2014-03-09T11:28:00.000Z</time>
      </trkpt>
      <trkpt lat="47.56188" lon="5.89977">
        <ele>258.20001220703</ele>
        <time>2014-03-09T11:28:06.000Z</time>
      </trkpt>
      <trkpt lat="47.56185" lon="5.89979">
        <ele>258.60000610352</ele>
        <time>2014-03-09T11:28:07.000Z</time>
      </trkpt>
      <trkpt lat="47.56181" lon="5.89981">
        <ele>259.20001220703</ele>
        <time>2014-03-09T11:28:08.000Z</time>
      </trkpt>
      <trkpt lat="47.56177" lon="5.89983">
        <ele>259.60000610352</ele>
        <time>2014-03-09T11:28:09.000Z</time>
      </trkpt>
      <trkpt lat="47.56174" lon="5.89984">
        <ele>260</ele>
        <time>2014-03-09T11:28:10.000Z</time>
      </trkpt>
      <trkpt lat="47.56168" lon="5.89987">
        <ele>260</ele>
        <time>2014-03-09T11:28:12.000Z</time>
      </trkpt>
      <trkpt lat="47.56159" lon="5.89991">
        <ele>260</ele>
        <time>2014-03-09T11:28:16.000Z</time>
      </trkpt>
      <trkpt lat="47.56159" lon="5.89994">
        <ele>260</ele>
        <time>2014-03-09T11:28:17.000Z</time>
      </trkpt>
      <trkpt lat="47.56166" lon="5.89991">
        <ele>260</ele>
        <time>2014-03-09T11:28:20.000Z</time>
      </trkpt>
      <trkpt lat="47.56185" lon="5.89987">
        <ele>260</ele>
        <time>2014-03-09T11:28:25.000Z</time>
      </trkpt>
      <trkpt lat="47.56194" lon="5.89999">
        <ele>260</ele>
        <time>2014-03-09T11:28:28.000Z</time>
      </trkpt>
      <trkpt lat="47.56196" lon="5.90005">
        <ele>260</ele>
        <time>2014-03-09T11:28:29.000Z</time>
      </trkpt>
      <trkpt lat="47.56198" lon="5.90011">
        <ele>260</ele>
        <time>2014-03-09T11:28:30.000Z</time>
      </trkpt>
      <trkpt lat="47.56206" lon="5.9004">
        <ele>260</ele>
        <time>2014-03-09T11:28:35.000Z</time>
      </trkpt>
      <trkpt lat="47.56209" lon="5.90045">
        <ele>260</ele>
        <time>2014-03-09T11:28:36.000Z</time>
      </trkpt>
      <trkpt lat="47.56217" lon="5.90071">
        <ele>260</ele>
        <time>2014-03-09T11:28:41.000Z</time>
      </trkpt>
      <trkpt lat="47.56225" lon="5.901">
        <ele>260</ele>
        <time>2014-03-09T11:28:48.000Z</time>
      </trkpt>
      <trkpt lat="47.56228" lon="5.90107">
        <ele>260</ele>
        <time>2014-03-09T11:28:52.000Z</time>
      </trkpt>
      <trkpt lat="47.56228" lon="5.90101">
        <ele>260</ele>
        <time>2014-03-09T11:29:29.000Z</time>
      </trkpt>
      <trkpt lat="47.56223" lon="5.90087">
        <ele>260</ele>
        <time>2014-03-09T11:29:33.000Z</time>
      </trkpt>
      <trkpt lat="47.56218" lon="5.9007">
        <ele>260</ele>
        <time>2014-03-09T11:29:34.000Z</time>
      </trkpt>
      <trkpt lat="47.56201" lon="5.90017">
        <ele>260</ele>
        <time>2014-03-09T11:29:45.000Z</time>
      </trkpt>
      <trkpt lat="47.56191" lon="5.89992">
        <ele>260</ele>
        <time>2014-03-09T11:29:49.000Z</time>
      </trkpt>
      <trkpt lat="47.56183" lon="5.89985">
        <ele>260</ele>
        <time>2014-03-09T11:29:51.000Z</time>
      </trkpt>
      <trkpt lat="47.56169" lon="5.89985">
        <ele>260</ele>
        <time>2014-03-09T11:29:54.000Z</time>
      </trkpt>
      <trkpt lat="47.5616" lon="5.89989">
        <ele>260</ele>
        <time>2014-03-09T11:29:56.000Z</time>
      </trkpt>
      <trkpt lat="47.5615" lon="5.89992">
        <ele>260</ele>
        <time>2014-03-09T11:29:58.000Z</time>
      </trkpt>
      <trkpt lat="47.56141" lon="5.89996">
        <ele>260</ele>
        <time>2014-03-09T11:30:00.000Z</time>
      </trkpt>
      <trkpt lat="47.56098" lon="5.90012">
        <ele>260</ele>
        <time>2014-03-09T11:30:09.000Z</time>
      </trkpt>
      <trkpt lat="47.56079" lon="5.9002">
        <ele>260</ele>
        <time>2014-03-09T11:30:13.000Z</time>
      </trkpt>
      <trkpt lat="47.56066" lon="5.90024">
        <ele>260</ele>
        <time>2014-03-09T11:30:16.000Z</time>
      </trkpt>
      <trkpt lat="47.56052" lon="5.90029">
        <ele>260</ele>
        <time>2014-03-09T11:30:19.000Z</time>
      </trkpt>
      <trkpt lat="47.56033" lon="5.90034">
        <ele>260</ele>
        <time>2014-03-09T11:30:23.000Z</time>
      </trkpt>
      <trkpt lat="47.56025" lon="5.90039">
        <ele>260</ele>
        <time>2014-03-09T11:30:25.000Z</time>
      </trkpt>
      <trkpt lat="47.56022" lon="5.90052">
        <ele>260</ele>
        <time>2014-03-09T11:30:27.000Z</time>
      </trkpt>
      <trkpt lat="47.56028" lon="5.90079">
        <ele>260</ele>
        <time>2014-03-09T11:30:31.000Z</time>
      </trkpt>
      <trkpt lat="47.56029" lon="5.90086">
        <ele>260</ele>
        <time>2014-03-09T11:30:32.000Z</time>
      </trkpt>
      <trkpt lat="47.56035" lon="5.90107">
        <ele>260.39999389648</ele>
        <time>2014-03-09T11:30:35.000Z</time>
      </trkpt>
      <trkpt lat="47.56037" lon="5.90114">
        <ele>260.79998779297</ele>
        <time>2014-03-09T11:30:36.000Z</time>
      </trkpt>
      <trkpt lat="47.56038" lon="5.90121">
        <ele>261.20001220703</ele>
        <time>2014-03-09T11:30:37.000Z</time>
      </trkpt>
      <trkpt lat="47.5604" lon="5.90128">
        <ele>261.60000610352</ele>
        <time>2014-03-09T11:30:38.000Z</time>
      </trkpt>
      <trkpt lat="47.56042" lon="5.90135">
        <ele>262</ele>
        <time>2014-03-09T11:30:39.000Z</time>
      </trkpt>
      <trkpt lat="47.56059" lon="5.90203">
        <ele>262</ele>
        <time>2014-03-09T11:30:48.000Z</time>
      </trkpt>
      <trkpt lat="47.56076" lon="5.90271">
        <ele>262</ele>
        <time>2014-03-09T11:30:57.000Z</time>
      </trkpt>
      <trkpt lat="47.56097" lon="5.90353">
        <ele>262</ele>
        <time>2014-03-09T11:31:06.000Z</time>
      </trkpt>
      <trkpt lat="47.56115" lon="5.90423">
        <ele>262</ele>
        <time>2014-03-09T11:31:17.000Z</time>
      </trkpt>
      <trkpt lat="47.56118" lon="5.90432">
        <ele>261.60000610352</ele>
        <time>2014-03-09T11:31:18.000Z</time>
      </trkpt>
      <trkpt lat="47.5612" lon="5.90441">
        <ele>261</ele>
        <time>2014-03-09T11:31:19.000Z</time>
      </trkpt>
      <trkpt lat="47.56122" lon="5.9045">
        <ele>260.60000610352</ele>
        <time>2014-03-09T11:31:20.000Z</time>
      </trkpt>
      <trkpt lat="47.56124" lon="5.90459">
        <ele>260.20001220703</ele>
        <time>2014-03-09T11:31:21.000Z</time>
      </trkpt>
      <trkpt lat="47.56127" lon="5.90469">
        <ele>259.60000610352</ele>
        <time>2014-03-09T11:31:22.000Z</time>
      </trkpt>
      <trkpt lat="47.56132" lon="5.90488">
        <ele>259.20001220703</ele>
        <time>2014-03-09T11:31:24.000Z</time>
      </trkpt>
      <trkpt lat="47.56134" lon="5.90499">
        <ele>258.79998779297</ele>
        <time>2014-03-09T11:31:25.000Z</time>
      </trkpt>
      <trkpt lat="47.56137" lon="5.90509">
        <ele>258.39999389648</ele>
        <time>2014-03-09T11:31:26.000Z</time>
      </trkpt>
      <trkpt lat="47.56139" lon="5.9052">
        <ele>258</ele>
        <time>2014-03-09T11:31:27.000Z</time>
      </trkpt>
      <trkpt lat="47.56142" lon="5.9053">
        <ele>257.60000610352</ele>
        <time>2014-03-09T11:31:28.000Z</time>
      </trkpt>
      <trkpt lat="47.5615" lon="5.90563">
        <ele>257.20001220703</ele>
        <time>2014-03-09T11:31:31.000Z</time>
      </trkpt>
      <trkpt lat="47.56152" lon="5.90573">
        <ele>256.79998779297</ele>
        <time>2014-03-09T11:31:32.000Z</time>
      </trkpt>
      <trkpt lat="47.56154" lon="5.90583">
        <ele>255.80000305176</ele>
        <time>2014-03-09T11:31:33.000Z</time>
      </trkpt>
      <trkpt lat="47.56157" lon="5.90593">
        <ele>255.39999389648</ele>
        <time>2014-03-09T11:31:34.000Z</time>
      </trkpt>
      <trkpt lat="47.5617" lon="5.90645">
        <ele>255.80000305176</ele>
        <time>2014-03-09T11:31:40.000Z</time>
      </trkpt>
      <trkpt lat="47.56172" lon="5.90653">
        <ele>256.39999389648</ele>
        <time>2014-03-09T11:31:41.000Z</time>
      </trkpt>
      <trkpt lat="47.56174" lon="5.90661">
        <ele>256.79998779297</ele>
        <time>2014-03-09T11:31:42.000Z</time>
      </trkpt>
      <trkpt lat="47.56176" lon="5.90669">
        <ele>257.20001220703</ele>
        <time>2014-03-09T11:31:43.000Z</time>
      </trkpt>
      <trkpt lat="47.56178" lon="5.90677">
        <ele>257.79998779297</ele>
        <time>2014-03-09T11:31:44.000Z</time>
      </trkpt>
      <trkpt lat="47.56187" lon="5.90705">
        <ele>257.79998779297</ele>
        <time>2014-03-09T11:31:48.000Z</time>
      </trkpt>
      <trkpt lat="47.56206" lon="5.90776">
        <ele>257.79998779297</ele>
        <time>2014-03-09T11:31:57.000Z</time>
      </trkpt>
      <trkpt lat="47.56222" lon="5.90844">
        <ele>257.79998779297</ele>
        <time>2014-03-09T11:32:05.000Z</time>
      </trkpt>
      <trkpt lat="47.5624" lon="5.9092">
        <ele>257.79998779297</ele>
        <time>2014-03-09T11:32:14.000Z</time>
      </trkpt>
      <trkpt lat="47.56244" lon="5.90936">
        <ele>257.79998779297</ele>
        <time>2014-03-09T11:32:16.000Z</time>
      </trkpt>
      <trkpt lat="47.56262" lon="5.91008">
        <ele>257.79998779297</ele>
        <time>2014-03-09T11:32:25.000Z</time>
      </trkpt>
      <trkpt lat="47.56273" lon="5.91051">
        <ele>257.79998779297</ele>
        <time>2014-03-09T11:32:31.000Z</time>
      </trkpt>
      <trkpt lat="47.56277" lon="5.9107">
        <ele>257.79998779297</ele>
        <time>2014-03-09T11:32:34.000Z</time>
      </trkpt>
      <trkpt lat="47.56282" lon="5.91088">
        <ele>257.79998779297</ele>
        <time>2014-03-09T11:32:37.000Z</time>
      </trkpt>
      <trkpt lat="47.56289" lon="5.91117">
        <ele>257.79998779297</ele>
        <time>2014-03-09T11:32:43.000Z</time>
      </trkpt>
      <trkpt lat="47.56292" lon="5.91118">
        <ele>257.79998779297</ele>
        <time>2014-03-09T11:32:44.000Z</time>
      </trkpt>
      <trkpt lat="47.56292" lon="5.91113">
        <ele>257.79998779297</ele>
        <time>2014-03-09T11:32:45.000Z</time>
      </trkpt>
      <trkpt lat="47.56297" lon="5.91102">
        <ele>257.79998779297</ele>
        <time>2014-03-09T11:32:49.000Z</time>
      </trkpt>
      <trkpt lat="47.56308" lon="5.91098">
        <ele>257.79998779297</ele>
        <time>2014-03-09T11:32:53.000Z</time>
      </trkpt>
      <trkpt lat="47.56323" lon="5.91097">
        <ele>257.79998779297</ele>
        <time>2014-03-09T11:32:59.000Z</time>
      </trkpt>
      <trkpt lat="47.56335" lon="5.91095">
        <ele>257.79998779297</ele>
        <time>2014-03-09T11:33:05.000Z</time>
      </trkpt>
      <trkpt lat="47.56344" lon="5.91092">
        <ele>257.79998779297</ele>
        <time>2014-03-09T11:33:11.000Z</time>
      </trkpt>
      <trkpt lat="47.56344" lon="5.91091">
        <ele>257.79998779297</ele>
        <time>2014-03-09T11:33:53.000Z</time>
      </trkpt>
      <trkpt lat="47.56341" lon="5.91086">
        <ele>257.79998779297</ele>
        <time>2014-03-09T11:33:56.000Z</time>
      </trkpt>
      <trkpt lat="47.56336" lon="5.91093">
        <ele>257.79998779297</ele>
        <time>2014-03-09T11:33:58.000Z</time>
      </trkpt>
      <trkpt lat="47.56334" lon="5.91095">
        <ele>257.79998779297</ele>
        <time>2014-03-09T11:33:59.000Z</time>
      </trkpt>
      <trkpt lat="47.56319" lon="5.91098">
        <ele>257.79998779297</ele>
        <time>2014-03-09T11:34:04.000Z</time>
      </trkpt>
      <trkpt lat="47.56301" lon="5.91103">
        <ele>257.79998779297</ele>
        <time>2014-03-09T11:34:11.000Z</time>
      </trkpt>
      <trkpt lat="47.56287" lon="5.91102">
        <ele>257.79998779297</ele>
        <time>2014-03-09T11:34:16.000Z</time>
      </trkpt>
      <trkpt lat="47.56285" lon="5.91087">
        <ele>257.79998779297</ele>
        <time>2014-03-09T11:34:19.000Z</time>
      </trkpt>
      <trkpt lat="47.56278" lon="5.91056">
        <ele>257.79998779297</ele>
        <time>2014-03-09T11:34:24.000Z</time>
      </trkpt>
      <trkpt lat="47.56269" lon="5.91023">
        <ele>257.79998779297</ele>
        <time>2014-03-09T11:34:29.000Z</time>
      </trkpt>
      <trkpt lat="47.56264" lon="5.91012">
        <ele>257.79998779297</ele>
        <time>2014-03-09T11:34:31.000Z</time>
      </trkpt>
      <trkpt lat="47.56258" lon="5.91">
        <ele>257.79998779297</ele>
        <time>2014-03-09T11:34:33.000Z</time>
      </trkpt>
      <trkpt lat="47.56254" lon="5.90996">
        <ele>257.79998779297</ele>
        <time>2014-03-09T11:34:34.000Z</time>
      </trkpt>
      <trkpt lat="47.56248" lon="5.90996">
        <ele>257.79998779297</ele>
        <time>2014-03-09T11:34:35.000Z</time>
      </trkpt>
      <trkpt lat="47.56231" lon="5.91006">
        <ele>257.79998779297</ele>
        <time>2014-03-09T11:34:38.000Z</time>
      </trkpt>
      <trkpt lat="47.56225" lon="5.91011">
        <ele>257.39999389648</ele>
        <time>2014-03-09T11:34:39.000Z</time>
      </trkpt>
      <trkpt lat="47.56219" lon="5.91016">
        <ele>256.79998779297</ele>
        <time>2014-03-09T11:34:40.000Z</time>
      </trkpt>
      <trkpt lat="47.56213" lon="5.91021">
        <ele>256.39999389648</ele>
        <time>2014-03-09T11:34:41.000Z</time>
      </trkpt>
      <trkpt lat="47.56206" lon="5.91026">
        <ele>256</ele>
        <time>2014-03-09T11:34:42.000Z</time>
      </trkpt>
      <trkpt lat="47.56199" lon="5.91031">
        <ele>255.60000610352</ele>
        <time>2014-03-09T11:34:43.000Z</time>
      </trkpt>
      <trkpt lat="47.56186" lon="5.91042">
        <ele>255</ele>
        <time>2014-03-09T11:34:45.000Z</time>
      </trkpt>
      <trkpt lat="47.56179" lon="5.91047">
        <ele>254.60000610352</ele>
        <time>2014-03-09T11:34:46.000Z</time>
      </trkpt>
      <trkpt lat="47.56171" lon="5.91052">
        <ele>254.19999694824</ele>
        <time>2014-03-09T11:34:47.000Z</time>
      </trkpt>
      <trkpt lat="47.56164" lon="5.91057">
        <ele>253.60000610352</ele>
        <time>2014-03-09T11:34:48.000Z</time>
      </trkpt>
      <trkpt lat="47.56158" lon="5.91063">
        <ele>253.19999694824</ele>
        <time>2014-03-09T11:34:49.000Z</time>
      </trkpt>
      <trkpt lat="47.56151" lon="5.91068">
        <ele>253.19999694824</ele>
        <time>2014-03-09T11:34:50.000Z</time>
      </trkpt>
      <trkpt lat="47.56126" lon="5.91087">
        <ele>253.60000610352</ele>
        <time>2014-03-09T11:34:55.000Z</time>
      </trkpt>
      <trkpt lat="47.56121" lon="5.91091">
        <ele>254</ele>
        <time>2014-03-09T11:34:56.000Z</time>
      </trkpt>
      <trkpt lat="47.56117" lon="5.91094">
        <ele>254.39999389648</ele>
        <time>2014-03-09T11:34:57.000Z</time>
      </trkpt>
      <trkpt lat="47.56112" lon="5.91098">
        <ele>254.80000305176</ele>
        <time>2014-03-09T11:34:58.000Z</time>
      </trkpt>
      <trkpt lat="47.56107" lon="5.91102">
        <ele>255.19999694824</ele>
        <time>2014-03-09T11:34:59.000Z</time>
      </trkpt>
      <trkpt lat="47.56091" lon="5.91115">
        <ele>255.19999694824</ele>
        <time>2014-03-09T11:35:02.000Z</time>
      </trkpt>
      <trkpt lat="47.56062" lon="5.91138">
        <ele>254.80000305176</ele>
        <time>2014-03-09T11:35:07.000Z</time>
      </trkpt>
      <trkpt lat="47.56056" lon="5.91143">
        <ele>254.39999389648</ele>
        <time>2014-03-09T11:35:08.000Z</time>
      </trkpt>
      <trkpt lat="47.5605" lon="5.91148">
        <ele>254</ele>
        <time>2014-03-09T11:35:09.000Z</time>
      </trkpt>
      <trkpt lat="47.56043" lon="5.91153">
        <ele>253.60000610352</ele>
        <time>2014-03-09T11:35:10.000Z</time>
      </trkpt>
      <trkpt lat="47.56038" lon="5.91157">
        <ele>253</ele>
        <time>2014-03-09T11:35:11.000Z</time>
      </trkpt>
      <trkpt lat="47.56004" lon="5.91183">
        <ele>253</ele>
        <time>2014-03-09T11:35:17.000Z</time>
      </trkpt>
      <trkpt lat="47.55967" lon="5.91212">
        <ele>253.60000610352</ele>
        <time>2014-03-09T11:35:25.000Z</time>
      </trkpt>
      <trkpt lat="47.55962" lon="5.91215">
        <ele>254</ele>
        <time>2014-03-09T11:35:26.000Z</time>
      </trkpt>
      <trkpt lat="47.55958" lon="5.91218">
        <ele>254.39999389648</ele>
        <time>2014-03-09T11:35:27.000Z</time>
      </trkpt>
      <trkpt lat="47.55954" lon="5.91222">
        <ele>254.80000305176</ele>
        <time>2014-03-09T11:35:28.000Z</time>
      </trkpt>
      <trkpt lat="47.5595" lon="5.91225">
        <ele>255.39999389648</ele>
        <time>2014-03-09T11:35:29.000Z</time>
      </trkpt>
      <trkpt lat="47.55928" lon="5.91242">
        <ele>255.39999389648</ele>
        <time>2014-03-09T11:35:34.000Z</time>
      </trkpt>
      <trkpt lat="47.55924" lon="5.91245">
        <ele>255.80000305176</ele>
        <time>2014-03-09T11:35:35.000Z</time>
      </trkpt>
      <trkpt lat="47.5592" lon="5.91248">
        <ele>256.20001220703</ele>
        <time>2014-03-09T11:35:36.000Z</time>
      </trkpt>
      <trkpt lat="47.55916" lon="5.91251">
        <ele>256.60000610352</ele>
        <time>2014-03-09T11:35:37.000Z</time>
      </trkpt>
      <trkpt lat="47.55913" lon="5.91254">
        <ele>257</ele>
        <time>2014-03-09T11:35:38.000Z</time>
      </trkpt>
      <trkpt lat="47.55909" lon="5.91258">
        <ele>257.39999389648</ele>
        <time>2014-03-09T11:35:39.000Z</time>
      </trkpt>
      <trkpt lat="47.55893" lon="5.9127">
        <ele>257.39999389648</ele>
        <time>2014-03-09T11:35:43.000Z</time>
      </trkpt>
      <trkpt lat="47.55889" lon="5.91273">
        <ele>257.79998779297</ele>
        <time>2014-03-09T11:35:44.000Z</time>
      </trkpt>
      <trkpt lat="47.55885" lon="5.91276">
        <ele>258.20001220703</ele>
        <time>2014-03-09T11:35:45.000Z</time>
      </trkpt>
      <trkpt lat="47.55881" lon="5.91279">
        <ele>258.60000610352</ele>
        <time>2014-03-09T11:35:46.000Z</time>
      </trkpt>
      <trkpt lat="47.55877" lon="5.91282">
        <ele>259</ele>
        <time>2014-03-09T11:35:47.000Z</time>
      </trkpt>
      <trkpt lat="47.55873" lon="5.91285">
        <ele>259.39999389648</ele>
        <time>2014-03-09T11:35:48.000Z</time>
      </trkpt>
      <trkpt lat="47.55857" lon="5.91298">
        <ele>259.39999389648</ele>
        <time>2014-03-09T11:35:52.000Z</time>
      </trkpt>
      <trkpt lat="47.55825" lon="5.91322">
        <ele>259.39999389648</ele>
        <time>2014-03-09T11:36:00.000Z</time>
      </trkpt>
      <trkpt lat="47.55797" lon="5.91345">
        <ele>259.39999389648</ele>
        <time>2014-03-09T11:36:07.000Z</time>
      </trkpt>
      <trkpt lat="47.55765" lon="5.91369">
        <ele>259.39999389648</ele>
        <time>2014-03-09T11:36:14.000Z</time>
      </trkpt>
      <trkpt lat="47.55739" lon="5.91389">
        <ele>259.39999389648</ele>
        <time>2014-03-09T11:36:20.000Z</time>
      </trkpt>
      <trkpt lat="47.55737" lon="5.91392">
        <ele>259.39999389648</ele>
        <time>2014-03-09T11:36:23.000Z</time>
      </trkpt>
      <trkpt lat="47.55736" lon="5.91397">
        <ele>257.39999389648</ele>
        <time>2014-03-09T11:39:03.000Z</time>
      </trkpt>
      <trkpt lat="47.55737" lon="5.91403">
        <ele>257.39999389648</ele>
        <time>2014-03-09T11:39:05.000Z</time>
      </trkpt>
      <trkpt lat="47.55743" lon="5.91426">
        <ele>257.39999389648</ele>
        <time>2014-03-09T11:39:10.000Z</time>
      </trkpt>
      <trkpt lat="47.55755" lon="5.91452">
        <ele>257.39999389648</ele>
        <time>2014-03-09T11:39:15.000Z</time>
      </trkpt>
      <trkpt lat="47.55756" lon="5.91458">
        <ele>257</ele>
        <time>2014-03-09T11:39:16.000Z</time>
      </trkpt>
      <trkpt lat="47.55757" lon="5.91464">
        <ele>256.60000610352</ele>
        <time>2014-03-09T11:39:17.000Z</time>
      </trkpt>
      <trkpt lat="47.55755" lon="5.9147">
        <ele>256.20001220703</ele>
        <time>2014-03-09T11:39:18.000Z</time>
      </trkpt>
      <trkpt lat="47.55754" lon="5.91475">
        <ele>255.80000305176</ele>
        <time>2014-03-09T11:39:19.000Z</time>
      </trkpt>
      <trkpt lat="47.55751" lon="5.9148">
        <ele>255.39999389648</ele>
        <time>2014-03-09T11:39:20.000Z</time>
      </trkpt>
      <trkpt lat="47.55743" lon="5.91494">
        <ele>255.39999389648</ele>
        <time>2014-03-09T11:39:23.000Z</time>
      </trkpt>
      <trkpt lat="47.5574" lon="5.91498">
        <ele>255.39999389648</ele>
        <time>2014-03-09T11:39:24.000Z</time>
      </trkpt>
      <trkpt lat="47.55728" lon="5.91521">
        <ele>255.39999389648</ele>
        <time>2014-03-09T11:39:30.000Z</time>
      </trkpt>
      <trkpt lat="47.55726" lon="5.91541">
        <ele>255.39999389648</ele>
        <time>2014-03-09T11:39:34.000Z</time>
      </trkpt>
      <trkpt lat="47.5573" lon="5.91578">
        <ele>255.39999389648</ele>
        <time>2014-03-09T11:39:40.000Z</time>
      </trkpt>
      <trkpt lat="47.55734" lon="5.91597">
        <ele>255.39999389648</ele>
        <time>2014-03-09T11:39:43.000Z</time>
      </trkpt>
      <trkpt lat="47.55739" lon="5.91607">
        <ele>255.39999389648</ele>
        <time>2014-03-09T11:39:45.000Z</time>
      </trkpt>
      <trkpt lat="47.55752" lon="5.9162">
        <ele>255.39999389648</ele>
        <time>2014-03-09T11:39:49.000Z</time>
      </trkpt>
      <trkpt lat="47.55756" lon="5.91623">
        <ele>255.39999389648</ele>
        <time>2014-03-09T11:39:50.000Z</time>
      </trkpt>
      <trkpt lat="47.55774" lon="5.91644">
        <ele>255.39999389648</ele>
        <time>2014-03-09T11:39:56.000Z</time>
      </trkpt>
      <trkpt lat="47.5579" lon="5.91663">
        <ele>255.39999389648</ele>
        <time>2014-03-09T11:40:01.000Z</time>
      </trkpt>
      <trkpt lat="47.55796" lon="5.9167">
        <ele>255.39999389648</ele>
        <time>2014-03-09T11:40:03.000Z</time>
      </trkpt>
      <trkpt lat="47.55825" lon="5.91702">
        <ele>255.39999389648</ele>
        <time>2014-03-09T11:40:11.000Z</time>
      </trkpt>
      <trkpt lat="47.55846" lon="5.91728">
        <ele>255.39999389648</ele>
        <time>2014-03-09T11:40:18.000Z</time>
      </trkpt>
      <trkpt lat="47.55861" lon="5.91749">
        <ele>255.39999389648</ele>
        <time>2014-03-09T11:40:24.000Z</time>
      </trkpt>
      <trkpt lat="47.5588" lon="5.91777">
        <ele>255.39999389648</ele>
        <time>2014-03-09T11:40:31.000Z</time>
      </trkpt>
      <trkpt lat="47.5589" lon="5.91801">
        <ele>255.80000305176</ele>
        <time>2014-03-09T11:40:36.000Z</time>
      </trkpt>
      <trkpt lat="47.55891" lon="5.91805">
        <ele>256.20001220703</ele>
        <time>2014-03-09T11:40:37.000Z</time>
      </trkpt>
      <trkpt lat="47.55892" lon="5.9181">
        <ele>256.60000610352</ele>
        <time>2014-03-09T11:40:38.000Z</time>
      </trkpt>
      <trkpt lat="47.55893" lon="5.91815">
        <ele>257</ele>
        <time>2014-03-09T11:40:39.000Z</time>
      </trkpt>
      <trkpt lat="47.55894" lon="5.91819">
        <ele>257.39999389648</ele>
        <time>2014-03-09T11:40:40.000Z</time>
      </trkpt>
      <trkpt lat="47.55897" lon="5.91833">
        <ele>257.39999389648</ele>
        <time>2014-03-09T11:40:43.000Z</time>
      </trkpt>
      <trkpt lat="47.55902" lon="5.91858">
        <ele>257.39999389648</ele>
        <time>2014-03-09T11:40:49.000Z</time>
      </trkpt>
      <trkpt lat="47.55901" lon="5.9186">
        <ele>257.39999389648</ele>
        <time>2014-03-09T11:40:50.000Z</time>
      </trkpt>
      <trkpt lat="47.55901" lon="5.91861">
        <ele>257.39999389648</ele>
        <time>2014-03-09T11:40:52.000Z</time>
      </trkpt>
      <trkpt lat="47.55903" lon="5.91867">
        <ele>257.39999389648</ele>
        <time>2014-03-09T11:41:31.000Z</time>
      </trkpt>
      <trkpt lat="47.55907" lon="5.91879">
        <ele>257.39999389648</ele>
        <time>2014-03-09T11:41:35.000Z</time>
      </trkpt>
      <trkpt lat="47.5591" lon="5.91897">
        <ele>257.39999389648</ele>
        <time>2014-03-09T11:41:40.000Z</time>
      </trkpt>
      <trkpt lat="47.55913" lon="5.91897">
        <ele>257.39999389648</ele>
        <time>2014-03-09T11:41:42.000Z</time>
      </trkpt>
      <trkpt lat="47.55915" lon="5.91893">
        <ele>257.39999389648</ele>
        <time>2014-03-09T11:41:44.000Z</time>
      </trkpt>
      <trkpt lat="47.55912" lon="5.91886">
        <ele>257.39999389648</ele>
        <time>2014-03-09T11:41:47.000Z</time>
      </trkpt>
      <trkpt lat="47.55909" lon="5.91884">
        <ele>257.39999389648</ele>
        <time>2014-03-09T11:41:49.000Z</time>
      </trkpt>
      <trkpt lat="47.55906" lon="5.91878">
        <ele>257.39999389648</ele>
        <time>2014-03-09T11:41:52.000Z</time>
      </trkpt>
      <trkpt lat="47.55902" lon="5.91867">
        <ele>257.39999389648</ele>
        <time>2014-03-09T11:41:56.000Z</time>
      </trkpt>
      <trkpt lat="47.55902" lon="5.91866">
        <ele>257.39999389648</ele>
        <time>2014-03-09T11:41:57.000Z</time>
      </trkpt>
      <trkpt lat="47.55901" lon="5.91868">
        <ele>257.39999389648</ele>
        <time>2014-03-09T11:42:03.000Z</time>
      </trkpt>
      <trkpt lat="47.55899" lon="5.91872">
        <ele>257.39999389648</ele>
        <time>2014-03-09T11:42:05.000Z</time>
      </trkpt>
      <trkpt lat="47.55898" lon="5.91877">
        <ele>257.39999389648</ele>
        <time>2014-03-09T11:42:07.000Z</time>
      </trkpt>
      <trkpt lat="47.55897" lon="5.91881">
        <ele>257.39999389648</ele>
        <time>2014-03-09T11:42:09.000Z</time>
      </trkpt>
      <trkpt lat="47.55896" lon="5.91883">
        <ele>257.39999389648</ele>
        <time>2014-03-09T11:42:10.000Z</time>
      </trkpt>
      <trkpt lat="47.55892" lon="5.91891">
        <ele>257.39999389648</ele>
        <time>2014-03-09T11:42:13.000Z</time>
      </trkpt>
      <trkpt lat="47.55891" lon="5.91899">
        <ele>257.39999389648</ele>
        <time>2014-03-09T11:42:15.000Z</time>
      </trkpt>
      <trkpt lat="47.55888" lon="5.91907">
        <ele>257.39999389648</ele>
        <time>2014-03-09T11:42:19.000Z</time>
      </trkpt>
      <trkpt lat="47.55882" lon="5.91925">
        <ele>257.39999389648</ele>
        <time>2014-03-09T11:42:24.000Z</time>
      </trkpt>
      <trkpt lat="47.5588" lon="5.91936">
        <ele>257.39999389648</ele>
        <time>2014-03-09T11:42:27.000Z</time>
      </trkpt>
      <trkpt lat="47.55878" lon="5.9194">
        <ele>257.39999389648</ele>
        <time>2014-03-09T11:42:28.000Z</time>
      </trkpt>
      <trkpt lat="47.55877" lon="5.91944">
        <ele>257.39999389648</ele>
        <time>2014-03-09T11:42:29.000Z</time>
      </trkpt>
      <trkpt lat="47.55875" lon="5.9195">
        <ele>257</ele>
        <time>2014-03-09T11:42:30.000Z</time>
      </trkpt>
      <trkpt lat="47.55873" lon="5.91954">
        <ele>256.60000610352</ele>
        <time>2014-03-09T11:42:31.000Z</time>
      </trkpt>
      <trkpt lat="47.55869" lon="5.91959">
        <ele>256</ele>
        <time>2014-03-09T11:42:32.000Z</time>
      </trkpt>
      <trkpt lat="47.55867" lon="5.91961">
        <ele>255.60000610352</ele>
        <time>2014-03-09T11:42:33.000Z</time>
      </trkpt>
      <trkpt lat="47.55864" lon="5.91965">
        <ele>255.19999694824</ele>
        <time>2014-03-09T11:42:34.000Z</time>
      </trkpt>
      <trkpt lat="47.55861" lon="5.91968">
        <ele>255.19999694824</ele>
        <time>2014-03-09T11:42:35.000Z</time>
      </trkpt>
      <trkpt lat="47.55849" lon="5.91987">
        <ele>255.19999694824</ele>
        <time>2014-03-09T11:42:40.000Z</time>
      </trkpt>
      <trkpt lat="47.55847" lon="5.92">
        <ele>255.19999694824</ele>
        <time>2014-03-09T11:42:41.000Z</time>
      </trkpt>
      <trkpt lat="47.55846" lon="5.92004">
        <ele>255.19999694824</ele>
        <time>2014-03-09T11:42:45.000Z</time>
      </trkpt>
      <trkpt lat="47.55847" lon="5.92008">
        <ele>255.19999694824</ele>
        <time>2014-03-09T11:42:47.000Z</time>
      </trkpt>
      <trkpt lat="47.55846" lon="5.92027">
        <ele>255.19999694824</ele>
        <time>2014-03-09T11:43:47.000Z</time>
      </trkpt>
      <trkpt lat="47.55844" lon="5.92038">
        <ele>255.19999694824</ele>
        <time>2014-03-09T11:43:50.000Z</time>
      </trkpt>
      <trkpt lat="47.55843" lon="5.92042">
        <ele>255.19999694824</ele>
        <time>2014-03-09T11:43:51.000Z</time>
      </trkpt>
      <trkpt lat="47.55838" lon="5.92053">
        <ele>255.19999694824</ele>
        <time>2014-03-09T11:43:55.000Z</time>
      </trkpt>
      <trkpt lat="47.55833" lon="5.92058">
        <ele>255.19999694824</ele>
        <time>2014-03-09T11:43:59.000Z</time>
      </trkpt>
      <trkpt lat="47.55831" lon="5.92059">
        <ele>255.19999694824</ele>
        <time>2014-03-09T11:44:00.000Z</time>
      </trkpt>
      <trkpt lat="47.5583" lon="5.92061">
        <ele>255.19999694824</ele>
        <time>2014-03-09T11:44:01.000Z</time>
      </trkpt>
      <trkpt lat="47.55825" lon="5.92067">
        <ele>255.19999694824</ele>
        <time>2014-03-09T11:44:03.000Z</time>
      </trkpt>
      <trkpt lat="47.55821" lon="5.92071">
        <ele>255.19999694824</ele>
        <time>2014-03-09T11:44:20.000Z</time>
      </trkpt>
      <trkpt lat="47.55825" lon="5.9207">
        <ele>255.19999694824</ele>
        <time>2014-03-09T11:44:21.000Z</time>
      </trkpt>
      <trkpt lat="47.55825" lon="5.9207">
        <ele>255.19999694824</ele>
        <time>2014-03-09T11:44:23.000Z</time>
      </trkpt>
      <trkpt lat="47.55837" lon="5.92057">
        <ele>255.19999694824</ele>
        <time>2014-03-09T11:44:29.000Z</time>
      </trkpt>
      <trkpt lat="47.55837" lon="5.92048">
        <ele>255.19999694824</ele>
        <time>2014-03-09T11:44:31.000Z</time>
      </trkpt>
      <trkpt lat="47.55834" lon="5.92043">
        <ele>255.19999694824</ele>
        <time>2014-03-09T11:44:34.000Z</time>
      </trkpt>
      <trkpt lat="47.55823" lon="5.92034">
        <ele>255.19999694824</ele>
        <time>2014-03-09T11:44:43.000Z</time>
      </trkpt>
      <trkpt lat="47.55809" lon="5.92024">
        <ele>255.19999694824</ele>
        <time>2014-03-09T11:44:50.000Z</time>
      </trkpt>
      <trkpt lat="47.55794" lon="5.92011">
        <ele>255.19999694824</ele>
        <time>2014-03-09T11:44:55.000Z</time>
      </trkpt>
      <trkpt lat="47.55785" lon="5.92001">
        <ele>255.19999694824</ele>
        <time>2014-03-09T11:45:03.000Z</time>
      </trkpt>
      <trkpt lat="47.55775" lon="5.91989">
        <ele>255.19999694824</ele>
        <time>2014-03-09T11:45:09.000Z</time>
      </trkpt>
      <trkpt lat="47.55761" lon="5.91977">
        <ele>255.19999694824</ele>
        <time>2014-03-09T11:45:16.000Z</time>
      </trkpt>
      <trkpt lat="47.55754" lon="5.91972">
        <ele>255.19999694824</ele>
        <time>2014-03-09T11:45:20.000Z</time>
      </trkpt>
      <trkpt lat="47.55752" lon="5.9197">
        <ele>255.19999694824</ele>
        <time>2014-03-09T11:45:21.000Z</time>
      </trkpt>
      <trkpt lat="47.55746" lon="5.91963">
        <ele>255.19999694824</ele>
        <time>2014-03-09T11:45:25.000Z</time>
      </trkpt>
      <trkpt lat="47.55744" lon="5.91962">
        <ele>255.19999694824</ele>
        <time>2014-03-09T11:45:26.000Z</time>
      </trkpt>
      <trkpt lat="47.55742" lon="5.91961">
        <ele>255.19999694824</ele>
        <time>2014-03-09T11:45:27.000Z</time>
      </trkpt>
      <trkpt lat="47.55735" lon="5.91955">
        <ele>255.19999694824</ele>
        <time>2014-03-09T11:45:31.000Z</time>
      </trkpt>
      <trkpt lat="47.55732" lon="5.91952">
        <ele>255.19999694824</ele>
        <time>2014-03-09T11:45:33.000Z</time>
      </trkpt>
      <trkpt lat="47.55719" lon="5.91944">
        <ele>255.19999694824</ele>
        <time>2014-03-09T11:45:40.000Z</time>
      </trkpt>
      <trkpt lat="47.55706" lon="5.91935">
        <ele>255.19999694824</ele>
        <time>2014-03-09T11:45:47.000Z</time>
      </trkpt>
      <trkpt lat="47.557" lon="5.91933">
        <ele>255.19999694824</ele>
        <time>2014-03-09T11:45:50.000Z</time>
      </trkpt>
      <trkpt lat="47.55696" lon="5.91931">
        <ele>255.19999694824</ele>
        <time>2014-03-09T11:45:52.000Z</time>
      </trkpt>
      <trkpt lat="47.55694" lon="5.91929">
        <ele>255.19999694824</ele>
        <time>2014-03-09T11:45:53.000Z</time>
      </trkpt>
      <trkpt lat="47.55687" lon="5.91924">
        <ele>255.19999694824</ele>
        <time>2014-03-09T11:45:57.000Z</time>
      </trkpt>
      <trkpt lat="47.55686" lon="5.91922">
        <ele>255.19999694824</ele>
        <time>2014-03-09T11:45:58.000Z</time>
      </trkpt>
      <trkpt lat="47.55684" lon="5.91918">
        <ele>255.19999694824</ele>
        <time>2014-03-09T11:46:00.000Z</time>
      </trkpt>
      <trkpt lat="47.5567" lon="5.91908">
        <ele>255.19999694824</ele>
        <time>2014-03-09T11:46:08.000Z</time>
      </trkpt>
      <trkpt lat="47.55667" lon="5.91906">
        <ele>255.19999694824</ele>
        <time>2014-03-09T11:46:10.000Z</time>
      </trkpt>
      <trkpt lat="47.55665" lon="5.91904">
        <ele>255.19999694824</ele>
        <time>2014-03-09T11:46:11.000Z</time>
      </trkpt>
      <trkpt lat="47.55656" lon="5.91899">
        <ele>255.19999694824</ele>
        <time>2014-03-09T11:46:18.000Z</time>
      </trkpt>
      <trkpt lat="47.55646" lon="5.91893">
        <ele>256.39999389648</ele>
        <time>2014-03-09T11:46:23.000Z</time>
      </trkpt>
      <trkpt lat="47.55646" lon="5.91893">
        <ele>256.39999389648</ele>
        <time>2014-03-09T11:46:25.000Z</time>
      </trkpt>
      <trkpt lat="47.5563" lon="5.91885">
        <ele>257.20001220703</ele>
        <time>2014-03-09T11:46:42.000Z</time>
      </trkpt>
      <trkpt lat="47.55628" lon="5.91884">
        <ele>257.20001220703</ele>
        <time>2014-03-09T11:46:44.000Z</time>
      </trkpt>
      <trkpt lat="47.5559" lon="5.91852">
        <ele>259.20001220703</ele>
        <time>2014-03-09T11:47:40.000Z</time>
      </trkpt>
      <trkpt lat="47.55585" lon="5.91847">
        <ele>259.20001220703</ele>
        <time>2014-03-09T11:47:43.000Z</time>
      </trkpt>
      <trkpt lat="47.55572" lon="5.91835">
        <ele>259.20001220703</ele>
        <time>2014-03-09T11:47:49.000Z</time>
      </trkpt>
      <trkpt lat="47.5556" lon="5.91822">
        <ele>259.20001220703</ele>
        <time>2014-03-09T11:47:55.000Z</time>
      </trkpt>
      <trkpt lat="47.55546" lon="5.91812">
        <ele>259.20001220703</ele>
        <time>2014-03-09T11:48:01.000Z</time>
      </trkpt>
      <trkpt lat="47.55527" lon="5.918">
        <ele>259.20001220703</ele>
        <time>2014-03-09T11:48:08.000Z</time>
      </trkpt>
      <trkpt lat="47.55507" lon="5.91783">
        <ele>259.20001220703</ele>
        <time>2014-03-09T11:48:17.000Z</time>
      </trkpt>
      <trkpt lat="47.55493" lon="5.9177">
        <ele>259.20001220703</ele>
        <time>2014-03-09T11:48:22.000Z</time>
      </trkpt>
      <trkpt lat="47.55477" lon="5.91758">
        <ele>259.20001220703</ele>
        <time>2014-03-09T11:48:27.000Z</time>
      </trkpt>
      <trkpt lat="47.55474" lon="5.91755">
        <ele>259.20001220703</ele>
        <time>2014-03-09T11:48:28.000Z</time>
      </trkpt>
      <trkpt lat="47.55452" lon="5.91737">
        <ele>259.20001220703</ele>
        <time>2014-03-09T11:48:35.000Z</time>
      </trkpt>
      <trkpt lat="47.55431" lon="5.91721">
        <ele>260.60000610352</ele>
        <time>2014-03-09T11:48:41.000Z</time>
      </trkpt>
      <trkpt lat="47.55429" lon="5.91719">
        <ele>261</ele>
        <time>2014-03-09T11:48:44.000Z</time>
      </trkpt>
      <trkpt lat="47.55426" lon="5.91717">
        <ele>261.39999389648</ele>
        <time>2014-03-09T11:48:45.000Z</time>
      </trkpt>
      <trkpt lat="47.55412" lon="5.91707">
        <ele>261.79998779297</ele>
        <time>2014-03-09T11:48:51.000Z</time>
      </trkpt>
      <trkpt lat="47.55409" lon="5.91704">
        <ele>262.20001220703</ele>
        <time>2014-03-09T11:48:52.000Z</time>
      </trkpt>
      <trkpt lat="47.55407" lon="5.91702">
        <ele>262.79998779297</ele>
        <time>2014-03-09T11:48:53.000Z</time>
      </trkpt>
      <trkpt lat="47.55404" lon="5.91699">
        <ele>263.20001220703</ele>
        <time>2014-03-09T11:48:54.000Z</time>
      </trkpt>
      <trkpt lat="47.55402" lon="5.91697">
        <ele>263.60000610352</ele>
        <time>2014-03-09T11:48:55.000Z</time>
      </trkpt>
      <trkpt lat="47.55395" lon="5.9169">
        <ele>263.60000610352</ele>
        <time>2014-03-09T11:48:58.000Z</time>
      </trkpt>
      <trkpt lat="47.55393" lon="5.91687">
        <ele>264</ele>
        <time>2014-03-09T11:48:59.000Z</time>
      </trkpt>
      <trkpt lat="47.55391" lon="5.91685">
        <ele>264.39999389648</ele>
        <time>2014-03-09T11:49:00.000Z</time>
      </trkpt>
      <trkpt lat="47.55388" lon="5.91683">
        <ele>264.79998779297</ele>
        <time>2014-03-09T11:49:01.000Z</time>
      </trkpt>
      <trkpt lat="47.55386" lon="5.91681">
        <ele>265.20001220703</ele>
        <time>2014-03-09T11:49:02.000Z</time>
      </trkpt>
      <trkpt lat="47.55383" lon="5.91679">
        <ele>265.60000610352</ele>
        <time>2014-03-09T11:49:03.000Z</time>
      </trkpt>
      <trkpt lat="47.5538" lon="5.91677">
        <ele>265.60000610352</ele>
        <time>2014-03-09T11:49:04.000Z</time>
      </trkpt>
      <trkpt lat="47.55363" lon="5.91661">
        <ele>265.60000610352</ele>
        <time>2014-03-09T11:49:11.000Z</time>
      </trkpt>
      <trkpt lat="47.55344" lon="5.91646">
        <ele>265.60000610352</ele>
        <time>2014-03-09T11:49:18.000Z</time>
      </trkpt>
      <trkpt lat="47.55341" lon="5.91644">
        <ele>266</ele>
        <time>2014-03-09T11:49:19.000Z</time>
      </trkpt>
      <trkpt lat="47.55339" lon="5.91641">
        <ele>266.39999389648</ele>
        <time>2014-03-09T11:49:20.000Z</time>
      </trkpt>
      <trkpt lat="47.55336" lon="5.91639">
        <ele>267</ele>
        <time>2014-03-09T11:49:21.000Z</time>
      </trkpt>
      <trkpt lat="47.55333" lon="5.91637">
        <ele>267.39999389648</ele>
        <time>2014-03-09T11:49:22.000Z</time>
      </trkpt>
      <trkpt lat="47.5533" lon="5.91635">
        <ele>267.79998779297</ele>
        <time>2014-03-09T11:49:23.000Z</time>
      </trkpt>
      <trkpt lat="47.55321" lon="5.91628">
        <ele>267.79998779297</ele>
        <time>2014-03-09T11:49:26.000Z</time>
      </trkpt>
      <trkpt lat="47.55297" lon="5.91609">
        <ele>267.79998779297</ele>
        <time>2014-03-09T11:49:34.000Z</time>
      </trkpt>
      <trkpt lat="47.55276" lon="5.91594">
        <ele>267.79998779297</ele>
        <time>2014-03-09T11:49:41.000Z</time>
      </trkpt>
      <trkpt lat="47.5527" lon="5.91589">
        <ele>267.79998779297</ele>
        <time>2014-03-09T11:49:44.000Z</time>
      </trkpt>
      <trkpt lat="47.5527" lon="5.91589">
        <ele>267.79998779297</ele>
        <time>2014-03-09T11:52:31.000Z</time>
      </trkpt>
      <trkpt lat="47.55257" lon="5.91579">
        <ele>267.79998779297</ele>
        <time>2014-03-09T11:52:36.000Z</time>
      </trkpt>
      <trkpt lat="47.55234" lon="5.91562">
        <ele>267.79998779297</ele>
        <time>2014-03-09T11:52:42.000Z</time>
      </trkpt>
      <trkpt lat="47.55201" lon="5.91538">
        <ele>267.39999389648</ele>
        <time>2014-03-09T11:52:49.000Z</time>
      </trkpt>
      <trkpt lat="47.55196" lon="5.91535">
        <ele>267</ele>
        <time>2014-03-09T11:52:50.000Z</time>
      </trkpt>
      <trkpt lat="47.55191" lon="5.91531">
        <ele>266.60000610352</ele>
        <time>2014-03-09T11:52:51.000Z</time>
      </trkpt>
      <trkpt lat="47.55186" lon="5.91527">
        <ele>266.20001220703</ele>
        <time>2014-03-09T11:52:52.000Z</time>
      </trkpt>
      <trkpt lat="47.55181" lon="5.91523">
        <ele>265.79998779297</ele>
        <time>2014-03-09T11:52:53.000Z</time>
      </trkpt>
      <trkpt lat="47.55176" lon="5.91519">
        <ele>265.79998779297</ele>
        <time>2014-03-09T11:52:54.000Z</time>
      </trkpt>
      <trkpt lat="47.55166" lon="5.9151">
        <ele>265.79998779297</ele>
        <time>2014-03-09T11:52:56.000Z</time>
      </trkpt>
      <trkpt lat="47.55161" lon="5.91506">
        <ele>265.39999389648</ele>
        <time>2014-03-09T11:52:57.000Z</time>
      </trkpt>
      <trkpt lat="47.55156" lon="5.91502">
        <ele>265</ele>
        <time>2014-03-09T11:52:58.000Z</time>
      </trkpt>
      <trkpt lat="47.55151" lon="5.91497">
        <ele>264.60000610352</ele>
        <time>2014-03-09T11:52:59.000Z</time>
      </trkpt>
      <trkpt lat="47.55145" lon="5.91492">
        <ele>264.20001220703</ele>
        <time>2014-03-09T11:53:00.000Z</time>
      </trkpt>
      <trkpt lat="47.5514" lon="5.91488">
        <ele>263.79998779297</ele>
        <time>2014-03-09T11:53:01.000Z</time>
      </trkpt>
      <trkpt lat="47.55134" lon="5.91483">
        <ele>263.79998779297</ele>
        <time>2014-03-09T11:53:02.000Z</time>
      </trkpt>
      <trkpt lat="47.55116" lon="5.9147">
        <ele>263.20001220703</ele>
        <time>2014-03-09T11:53:05.000Z</time>
      </trkpt>
      <trkpt lat="47.5511" lon="5.91465">
        <ele>262.79998779297</ele>
        <time>2014-03-09T11:53:06.000Z</time>
      </trkpt>
      <trkpt lat="47.55103" lon="5.9146">
        <ele>262.39999389648</ele>
        <time>2014-03-09T11:53:07.000Z</time>
      </trkpt>
      <trkpt lat="47.55097" lon="5.91456">
        <ele>262</ele>
        <time>2014-03-09T11:53:08.000Z</time>
      </trkpt>
      <trkpt lat="47.5509" lon="5.91452">
        <ele>261.60000610352</ele>
        <time>2014-03-09T11:53:09.000Z</time>
      </trkpt>
      <trkpt lat="47.55084" lon="5.91447">
        <ele>261.20001220703</ele>
        <time>2014-03-09T11:53:10.000Z</time>
      </trkpt>
      <trkpt lat="47.55079" lon="5.91441">
        <ele>260.60000610352</ele>
        <time>2014-03-09T11:53:11.000Z</time>
      </trkpt>
      <trkpt lat="47.55073" lon="5.91436">
        <ele>260.20001220703</ele>
        <time>2014-03-09T11:53:12.000Z</time>
      </trkpt>
      <trkpt lat="47.55066" lon="5.91431">
        <ele>259.79998779297</ele>
        <time>2014-03-09T11:53:13.000Z</time>
      </trkpt>
      <trkpt lat="47.5506" lon="5.91426">
        <ele>259.39999389648</ele>
        <time>2014-03-09T11:53:14.000Z</time>
      </trkpt>
      <trkpt lat="47.55047" lon="5.91417">
        <ele>259</ele>
        <time>2014-03-09T11:53:15.000Z</time>
      </trkpt>
      <trkpt lat="47.55042" lon="5.91414">
        <ele>258.60000610352</ele>
        <time>2014-03-09T11:53:17.000Z</time>
      </trkpt>
      <trkpt lat="47.55037" lon="5.91411">
        <ele>258.20001220703</ele>
        <time>2014-03-09T11:53:18.000Z</time>
      </trkpt>
      <trkpt lat="47.55033" lon="5.91409">
        <ele>257.79998779297</ele>
        <time>2014-03-09T11:53:19.000Z</time>
      </trkpt>
      <trkpt lat="47.5503" lon="5.91407">
        <ele>257.20001220703</ele>
        <time>2014-03-09T11:53:20.000Z</time>
      </trkpt>
      <trkpt lat="47.5502" lon="5.914">
        <ele>257.20001220703</ele>
        <time>2014-03-09T11:53:23.000Z</time>
      </trkpt>
      <trkpt lat="47.55015" lon="5.91394">
        <ele>257.20001220703</ele>
        <time>2014-03-09T11:53:26.000Z</time>
      </trkpt>
      <trkpt lat="47.55013" lon="5.91393">
        <ele>257.20001220703</ele>
        <time>2014-03-09T11:55:11.000Z</time>
      </trkpt>
      <trkpt lat="47.54983" lon="5.91369">
        <ele>257.20001220703</ele>
        <time>2014-03-09T11:55:20.000Z</time>
      </trkpt>
      <trkpt lat="47.54957" lon="5.91348">
        <ele>257.20001220703</ele>
        <time>2014-03-09T11:55:29.000Z</time>
      </trkpt>
      <trkpt lat="47.54945" lon="5.91339">
        <ele>256.79998779297</ele>
        <time>2014-03-09T11:55:32.000Z</time>
      </trkpt>
      <trkpt lat="47.5494" lon="5.91335">
        <ele>256.39999389648</ele>
        <time>2014-03-09T11:55:33.000Z</time>
      </trkpt>
      <trkpt lat="47.54936" lon="5.91332">
        <ele>256</ele>
        <time>2014-03-09T11:55:34.000Z</time>
      </trkpt>
      <trkpt lat="47.54932" lon="5.91329">
        <ele>255.60000610352</ele>
        <time>2014-03-09T11:55:35.000Z</time>
      </trkpt>
      <trkpt lat="47.54927" lon="5.91326">
        <ele>255</ele>
        <time>2014-03-09T11:55:36.000Z</time>
      </trkpt>
      <trkpt lat="47.54923" lon="5.91322">
        <ele>255</ele>
        <time>2014-03-09T11:55:37.000Z</time>
      </trkpt>
      <trkpt lat="47.54902" lon="5.91306">
        <ele>255</ele>
        <time>2014-03-09T11:55:42.000Z</time>
      </trkpt>
      <trkpt lat="47.5489" lon="5.91295">
        <ele>255</ele>
        <time>2014-03-09T11:55:45.000Z</time>
      </trkpt>
      <trkpt lat="47.54859" lon="5.91272">
        <ele>255</ele>
        <time>2014-03-09T11:55:52.000Z</time>
      </trkpt>
      <trkpt lat="47.54856" lon="5.91269">
        <ele>255</ele>
        <time>2014-03-09T11:55:53.000Z</time>
      </trkpt>
      <trkpt lat="47.54845" lon="5.9126">
        <ele>255</ele>
        <time>2014-03-09T11:55:56.000Z</time>
      </trkpt>
      <trkpt lat="47.54842" lon="5.91257">
        <ele>255</ele>
        <time>2014-03-09T11:55:57.000Z</time>
      </trkpt>
      <trkpt lat="47.54821" lon="5.91243">
        <ele>255</ele>
        <time>2014-03-09T11:56:03.000Z</time>
      </trkpt>
      <trkpt lat="47.54818" lon="5.91241">
        <ele>255.39999389648</ele>
        <time>2014-03-09T11:56:04.000Z</time>
      </trkpt>
      <trkpt lat="47.54814" lon="5.91239">
        <ele>256</ele>
        <time>2014-03-09T11:56:05.000Z</time>
      </trkpt>
      <trkpt lat="47.54811" lon="5.91237">
        <ele>256.39999389648</ele>
        <time>2014-03-09T11:56:06.000Z</time>
      </trkpt>
      <trkpt lat="47.54808" lon="5.91234">
        <ele>256.79998779297</ele>
        <time>2014-03-09T11:56:07.000Z</time>
      </trkpt>
      <trkpt lat="47.54805" lon="5.91232">
        <ele>257.20001220703</ele>
        <time>2014-03-09T11:56:08.000Z</time>
      </trkpt>
      <trkpt lat="47.548" lon="5.91228">
        <ele>257.20001220703</ele>
        <time>2014-03-09T11:56:10.000Z</time>
      </trkpt>
      <trkpt lat="47.54791" lon="5.9122">
        <ele>257.60000610352</ele>
        <time>2014-03-09T11:56:13.000Z</time>
      </trkpt>
      <trkpt lat="47.54788" lon="5.91218">
        <ele>258.39999389648</ele>
        <time>2014-03-09T11:56:14.000Z</time>
      </trkpt>
      <trkpt lat="47.54785" lon="5.91216">
        <ele>258.79998779297</ele>
        <time>2014-03-09T11:56:15.000Z</time>
      </trkpt>
      <trkpt lat="47.54782" lon="5.91214">
        <ele>259.20001220703</ele>
        <time>2014-03-09T11:56:16.000Z</time>
      </trkpt>
      <trkpt lat="47.54764" lon="5.912">
        <ele>259.20001220703</ele>
        <time>2014-03-09T11:56:23.000Z</time>
      </trkpt>
      <trkpt lat="47.54748" lon="5.91188">
        <ele>259.20001220703</ele>
        <time>2014-03-09T11:56:32.000Z</time>
      </trkpt>
      <trkpt lat="47.54741" lon="5.91182">
        <ele>259.20001220703</ele>
        <time>2014-03-09T11:56:34.000Z</time>
      </trkpt>
      <trkpt lat="47.5474" lon="5.91182">
        <ele>259.20001220703</ele>
        <time>2014-03-09T11:56:37.000Z</time>
      </trkpt>
      <trkpt lat="47.54742" lon="5.91187">
        <ele>259.20001220703</ele>
        <time>2014-03-09T11:56:42.000Z</time>
      </trkpt>
      <trkpt lat="47.54751" lon="5.91195">
        <ele>259.20001220703</ele>
        <time>2014-03-09T11:56:47.000Z</time>
      </trkpt>
      <trkpt lat="47.54755" lon="5.91199">
        <ele>259.20001220703</ele>
        <time>2014-03-09T11:56:49.000Z</time>
      </trkpt>
      <trkpt lat="47.5477" lon="5.9121">
        <ele>259.20001220703</ele>
        <time>2014-03-09T11:56:55.000Z</time>
      </trkpt>
      <trkpt lat="47.54792" lon="5.91228">
        <ele>259.20001220703</ele>
        <time>2014-03-09T11:57:01.000Z</time>
      </trkpt>
      <trkpt lat="47.54812" lon="5.91237">
        <ele>259.20001220703</ele>
        <time>2014-03-09T11:57:06.000Z</time>
      </trkpt>
      <trkpt lat="47.54816" lon="5.91239">
        <ele>259.20001220703</ele>
        <time>2014-03-09T11:57:07.000Z</time>
      </trkpt>
      <trkpt lat="47.54827" lon="5.91247">
        <ele>258.79998779297</ele>
        <time>2014-03-09T11:57:10.000Z</time>
      </trkpt>
      <trkpt lat="47.54831" lon="5.9125">
        <ele>258.39999389648</ele>
        <time>2014-03-09T11:57:11.000Z</time>
      </trkpt>
      <trkpt lat="47.54835" lon="5.91253">
        <ele>258</ele>
        <time>2014-03-09T11:57:12.000Z</time>
      </trkpt>
      <trkpt lat="47.5484" lon="5.91256">
        <ele>257.39999389648</ele>
        <time>2014-03-09T11:57:13.000Z</time>
      </trkpt>
      <trkpt lat="47.54844" lon="5.91259">
        <ele>257</ele>
        <time>2014-03-09T11:57:14.000Z</time>
      </trkpt>
      <trkpt lat="47.54854" lon="5.91266">
        <ele>257</ele>
        <time>2014-03-09T11:57:17.000Z</time>
      </trkpt>
      <trkpt lat="47.54858" lon="5.9127">
        <ele>257</ele>
        <time>2014-03-09T11:57:19.000Z</time>
      </trkpt>
      <trkpt lat="47.54859" lon="5.91272">
        <ele>257</ele>
        <time>2014-03-09T11:57:20.000Z</time>
      </trkpt>
      <trkpt lat="47.54858" lon="5.91282">
        <ele>256.20001220703</ele>
        <time>2014-03-09T11:57:23.000Z</time>
      </trkpt>
      <trkpt lat="47.54858" lon="5.91282">
        <ele>256.20001220703</ele>
        <time>2014-03-09T11:57:25.000Z</time>
      </trkpt>
      <trkpt lat="47.54839" lon="5.9133">
        <ele>255</ele>
        <time>2014-03-09T11:58:04.000Z</time>
      </trkpt>
      <trkpt lat="47.54837" lon="5.91333">
        <ele>255</ele>
        <time>2014-03-09T11:58:06.000Z</time>
      </trkpt>
      <trkpt lat="47.54832" lon="5.91365">
        <ele>255</ele>
        <time>2014-03-09T11:58:23.000Z</time>
      </trkpt>
      <trkpt lat="47.54824" lon="5.91378">
        <ele>255</ele>
        <time>2014-03-09T11:58:28.000Z</time>
      </trkpt>
      <trkpt lat="47.54823" lon="5.91381">
        <ele>255</ele>
        <time>2014-03-09T11:58:29.000Z</time>
      </trkpt>
      <trkpt lat="47.54822" lon="5.91384">
        <ele>255</ele>
        <time>2014-03-09T11:58:30.000Z</time>
      </trkpt>
      <trkpt lat="47.54819" lon="5.9139">
        <ele>255</ele>
        <time>2014-03-09T11:58:32.000Z</time>
      </trkpt>
      <trkpt lat="47.54813" lon="5.914">
        <ele>255</ele>
        <time>2014-03-09T11:58:34.000Z</time>
      </trkpt>
      <trkpt lat="47.54813" lon="5.914">
        <ele>255</ele>
        <time>2014-03-09T11:58:36.000Z</time>
      </trkpt>
      <trkpt lat="47.5481" lon="5.91406">
        <ele>255</ele>
        <time>2014-03-09T11:58:37.000Z</time>
      </trkpt>
      <trkpt lat="47.54788" lon="5.91455">
        <ele>255</ele>
        <time>2014-03-09T11:59:01.000Z</time>
      </trkpt>
      <trkpt lat="47.54786" lon="5.91459">
        <ele>255</ele>
        <time>2014-03-09T11:59:02.000Z</time>
      </trkpt>
      <trkpt lat="47.54779" lon="5.91469">
        <ele>255</ele>
        <time>2014-03-09T11:59:05.000Z</time>
      </trkpt>
      <trkpt lat="47.54777" lon="5.91472">
        <ele>255</ele>
        <time>2014-03-09T11:59:06.000Z</time>
      </trkpt>
      <trkpt lat="47.54774" lon="5.91478">
        <ele>255</ele>
        <time>2014-03-09T11:59:07.000Z</time>
      </trkpt>
      <trkpt lat="47.54768" lon="5.9149">
        <ele>255</ele>
        <time>2014-03-09T11:59:10.000Z</time>
      </trkpt>
      <trkpt lat="47.54758" lon="5.9151">
        <ele>253</ele>
        <time>2014-03-09T11:59:31.000Z</time>
      </trkpt>
      <trkpt lat="47.54749" lon="5.91529">
        <ele>253</ele>
        <time>2014-03-09T11:59:34.000Z</time>
      </trkpt>
      <trkpt lat="47.54742" lon="5.91543">
        <ele>253</ele>
        <time>2014-03-09T11:59:40.000Z</time>
      </trkpt>
      <trkpt lat="47.5474" lon="5.91547">
        <ele>253</ele>
        <time>2014-03-09T11:59:42.000Z</time>
      </trkpt>
      <trkpt lat="47.54737" lon="5.91553">
        <ele>253</ele>
        <time>2014-03-09T11:59:44.000Z</time>
      </trkpt>
      <trkpt lat="47.54736" lon="5.91559">
        <ele>253</ele>
        <time>2014-03-09T11:59:46.000Z</time>
      </trkpt>
      <trkpt lat="47.54728" lon="5.91577">
        <ele>253</ele>
        <time>2014-03-09T11:59:51.000Z</time>
      </trkpt>
      <trkpt lat="47.5472" lon="5.91594">
        <ele>253</ele>
        <time>2014-03-09T11:59:56.000Z</time>
      </trkpt>
      <trkpt lat="47.54716" lon="5.91604">
        <ele>253</ele>
        <time>2014-03-09T12:00:00.000Z</time>
      </trkpt>
      <trkpt lat="47.54694" lon="5.91658">
        <ele>253</ele>
        <time>2014-03-09T12:00:43.000Z</time>
      </trkpt>
      <trkpt lat="47.54688" lon="5.91668">
        <ele>253</ele>
        <time>2014-03-09T12:00:48.000Z</time>
      </trkpt>
      <trkpt lat="47.54677" lon="5.91688">
        <ele>253</ele>
        <time>2014-03-09T12:00:55.000Z</time>
      </trkpt>
      <trkpt lat="47.54675" lon="5.91693">
        <ele>253</ele>
        <time>2014-03-09T12:00:57.000Z</time>
      </trkpt>
      <trkpt lat="47.5467" lon="5.91718">
        <ele>253</ele>
        <time>2014-03-09T12:01:07.000Z</time>
      </trkpt>
      <trkpt lat="47.5467" lon="5.91724">
        <ele>253</ele>
        <time>2014-03-09T12:01:09.000Z</time>
      </trkpt>
      <trkpt lat="47.54597" lon="5.9167">
        <ele>255</ele>
        <time>2014-03-09T12:04:58.000Z</time>
      </trkpt>
      <trkpt lat="47.54596" lon="5.91669">
        <ele>255</ele>
        <time>2014-03-09T12:04:59.000Z</time>
      </trkpt>
      <trkpt lat="47.5456" lon="5.91635">
        <ele>257</ele>
        <time>2014-03-09T12:06:20.000Z</time>
      </trkpt>
      <trkpt lat="47.54559" lon="5.91634">
        <ele>257</ele>
        <time>2014-03-09T12:06:21.000Z</time>
      </trkpt>
      <trkpt lat="47.5453" lon="5.91631">
        <ele>257</ele>
        <time>2014-03-09T12:09:16.000Z</time>
      </trkpt>
      <trkpt lat="47.54527" lon="5.91634">
        <ele>257</ele>
        <time>2014-03-09T12:09:17.000Z</time>
      </trkpt>
      <trkpt lat="47.54527" lon="5.91634">
        <ele>257</ele>
        <time>2014-03-09T12:09:19.000Z</time>
      </trkpt>
      <trkpt lat="47.54523" lon="5.91635">
        <ele>257</ele>
        <time>2014-03-09T12:09:21.000Z</time>
      </trkpt>
      <trkpt lat="47.54519" lon="5.91633">
        <ele>257</ele>
        <time>2014-03-09T12:09:23.000Z</time>
      </trkpt>
      <trkpt lat="47.54515" lon="5.9163">
        <ele>257</ele>
        <time>2014-03-09T12:09:26.000Z</time>
      </trkpt>
      <trkpt lat="47.54513" lon="5.9163">
        <ele>257</ele>
        <time>2014-03-09T12:09:27.000Z</time>
      </trkpt>
      <trkpt lat="47.5451" lon="5.91636">
        <ele>257</ele>
        <time>2014-03-09T12:09:28.000Z</time>
      </trkpt>
      <trkpt lat="47.5451" lon="5.91636">
        <ele>257</ele>
        <time>2014-03-09T12:09:29.000Z</time>
      </trkpt>
      <trkpt lat="47.54498" lon="5.91654">
        <ele>257</ele>
        <time>2014-03-09T12:09:36.000Z</time>
      </trkpt>
      <trkpt lat="47.54483" lon="5.91677">
        <ele>256.60000610352</ele>
        <time>2014-03-09T12:09:42.000Z</time>
      </trkpt>
      <trkpt lat="47.5448" lon="5.91681">
        <ele>256.20001220703</ele>
        <time>2014-03-09T12:09:43.000Z</time>
      </trkpt>
      <trkpt lat="47.54477" lon="5.91686">
        <ele>255.80000305176</ele>
        <time>2014-03-09T12:09:44.000Z</time>
      </trkpt>
      <trkpt lat="47.54473" lon="5.91691">
        <ele>255.39999389648</ele>
        <time>2014-03-09T12:09:45.000Z</time>
      </trkpt>
      <trkpt lat="47.54469" lon="5.91696">
        <ele>255</ele>
        <time>2014-03-09T12:09:46.000Z</time>
      </trkpt>
      <trkpt lat="47.54465" lon="5.91702">
        <ele>254</ele>
        <time>2014-03-09T12:09:47.000Z</time>
      </trkpt>
      <trkpt lat="47.5446" lon="5.91708">
        <ele>253.60000610352</ele>
        <time>2014-03-09T12:09:48.000Z</time>
      </trkpt>
      <trkpt lat="47.54455" lon="5.91715">
        <ele>253.19999694824</ele>
        <time>2014-03-09T12:09:49.000Z</time>
      </trkpt>
      <trkpt lat="47.54449" lon="5.91721">
        <ele>252.39999389648</ele>
        <time>2014-03-09T12:09:50.000Z</time>
      </trkpt>
      <trkpt lat="47.54444" lon="5.91728">
        <ele>251.80000305176</ele>
        <time>2014-03-09T12:09:51.000Z</time>
      </trkpt>
      <trkpt lat="47.54438" lon="5.91734">
        <ele>251.19999694824</ele>
        <time>2014-03-09T12:09:52.000Z</time>
      </trkpt>
      <trkpt lat="47.54432" lon="5.91741">
        <ele>250.60000610352</ele>
        <time>2014-03-09T12:09:53.000Z</time>
      </trkpt>
      <trkpt lat="47.54426" lon="5.91748">
        <ele>249.80000305176</ele>
        <time>2014-03-09T12:09:54.000Z</time>
      </trkpt>
      <trkpt lat="47.54421" lon="5.91754">
        <ele>249</ele>
        <time>2014-03-09T12:09:55.000Z</time>
      </trkpt>
      <trkpt lat="47.54415" lon="5.9176">
        <ele>248.19999694824</ele>
        <time>2014-03-09T12:09:56.000Z</time>
      </trkpt>
      <trkpt lat="47.54409" lon="5.91765">
        <ele>247.39999389648</ele>
        <time>2014-03-09T12:09:57.000Z</time>
      </trkpt>
      <trkpt lat="47.54394" lon="5.9178">
        <ele>247.39999389648</ele>
        <time>2014-03-09T12:10:00.000Z</time>
      </trkpt>
      <trkpt lat="47.54368" lon="5.91804">
        <ele>247.39999389648</ele>
        <time>2014-03-09T12:10:06.000Z</time>
      </trkpt>
      <trkpt lat="47.54342" lon="5.91828">
        <ele>247</ele>
        <time>2014-03-09T12:10:13.000Z</time>
      </trkpt>
      <trkpt lat="47.54338" lon="5.91832">
        <ele>246.60000610352</ele>
        <time>2014-03-09T12:10:14.000Z</time>
      </trkpt>
      <trkpt lat="47.54335" lon="5.91836">
        <ele>246.19999694824</ele>
        <time>2014-03-09T12:10:15.000Z</time>
      </trkpt>
      <trkpt lat="47.54331" lon="5.91839">
        <ele>245.80000305176</ele>
        <time>2014-03-09T12:10:16.000Z</time>
      </trkpt>
      <trkpt lat="47.54327" lon="5.91843">
        <ele>245.39999389648</ele>
        <time>2014-03-09T12:10:17.000Z</time>
      </trkpt>
      <trkpt lat="47.54305" lon="5.91865">
        <ele>245.39999389648</ele>
        <time>2014-03-09T12:10:23.000Z</time>
      </trkpt>
      <trkpt lat="47.54282" lon="5.91884">
        <ele>245.39999389648</ele>
        <time>2014-03-09T12:10:30.000Z</time>
      </trkpt>
      <trkpt lat="47.5428" lon="5.91882">
        <ele>245.39999389648</ele>
        <time>2014-03-09T12:10:31.000Z</time>
      </trkpt>
      <trkpt lat="47.54276" lon="5.91876">
        <ele>245.39999389648</ele>
        <time>2014-03-09T12:10:33.000Z</time>
      </trkpt>
      <trkpt lat="47.54262" lon="5.91856">
        <ele>245.39999389648</ele>
        <time>2014-03-09T12:10:39.000Z</time>
      </trkpt>
      <trkpt lat="47.54249" lon="5.9185">
        <ele>245.39999389648</ele>
        <time>2014-03-09T12:10:44.000Z</time>
      </trkpt>
      <trkpt lat="47.54239" lon="5.91849">
        <ele>245.39999389648</ele>
        <time>2014-03-09T12:10:49.000Z</time>
      </trkpt>
      <trkpt lat="47.54228" lon="5.91848">
        <ele>245.39999389648</ele>
        <time>2014-03-09T12:10:54.000Z</time>
      </trkpt>
      <trkpt lat="47.54217" lon="5.91848">
        <ele>245.39999389648</ele>
        <time>2014-03-09T12:11:00.000Z</time>
      </trkpt>
      <trkpt lat="47.54216" lon="5.91848">
        <ele>245.39999389648</ele>
        <time>2014-03-09T12:11:02.000Z</time>
      </trkpt>
      <trkpt lat="47.54215" lon="5.91851">
        <ele>245.39999389648</ele>
        <time>2014-03-09T12:11:26.000Z</time>
      </trkpt>
      <trkpt lat="47.54215" lon="5.91852">
        <ele>245.39999389648</ele>
        <time>2014-03-09T12:11:27.000Z</time>
      </trkpt>
      <trkpt lat="47.5421" lon="5.91857">
        <ele>245.39999389648</ele>
        <time>2014-03-09T12:11:32.000Z</time>
      </trkpt>
      <trkpt lat="47.54209" lon="5.91858">
        <ele>245.39999389648</ele>
        <time>2014-03-09T12:11:33.000Z</time>
      </trkpt>
      <trkpt lat="47.54197" lon="5.91861">
        <ele>245.39999389648</ele>
        <time>2014-03-09T12:11:59.000Z</time>
      </trkpt>
      <trkpt lat="47.54196" lon="5.9186">
        <ele>245.39999389648</ele>
        <time>2014-03-09T12:12:00.000Z</time>
      </trkpt>
      <trkpt lat="47.54196" lon="5.9186">
        <ele>245.39999389648</ele>
        <time>2014-03-09T12:12:01.000Z</time>
      </trkpt>
      <trkpt lat="47.54193" lon="5.91859">
        <ele>245.39999389648</ele>
        <time>2014-03-09T12:12:03.000Z</time>
      </trkpt>
      <trkpt lat="47.5419" lon="5.91856">
        <ele>245.39999389648</ele>
        <time>2014-03-09T12:12:06.000Z</time>
      </trkpt>
      <trkpt lat="47.54189" lon="5.91855">
        <ele>245.39999389648</ele>
        <time>2014-03-09T12:12:08.000Z</time>
      </trkpt>
      <trkpt lat="47.54189" lon="5.91854">
        <ele>245.39999389648</ele>
        <time>2014-03-09T12:12:14.000Z</time>
      </trkpt>
      <trkpt lat="47.54187" lon="5.91852">
        <ele>245.39999389648</ele>
        <time>2014-03-09T12:12:15.000Z</time>
      </trkpt>
      <trkpt lat="47.54169" lon="5.91833">
        <ele>245.39999389648</ele>
        <time>2014-03-09T12:12:21.000Z</time>
      </trkpt>
      <trkpt lat="47.5415" lon="5.91806">
        <ele>245.39999389648</ele>
        <time>2014-03-09T12:12:31.000Z</time>
      </trkpt>
      <trkpt lat="47.54134" lon="5.91782">
        <ele>245.39999389648</ele>
        <time>2014-03-09T12:12:38.000Z</time>
      </trkpt>
      <trkpt lat="47.54123" lon="5.91766">
        <ele>245.39999389648</ele>
        <time>2014-03-09T12:12:42.000Z</time>
      </trkpt>
      <trkpt lat="47.54111" lon="5.91747">
        <ele>245.39999389648</ele>
        <time>2014-03-09T12:12:47.000Z</time>
      </trkpt>
      <trkpt lat="47.54106" lon="5.91739">
        <ele>245</ele>
        <time>2014-03-09T12:12:49.000Z</time>
      </trkpt>
      <trkpt lat="47.54103" lon="5.91735">
        <ele>244.60000610352</ele>
        <time>2014-03-09T12:12:50.000Z</time>
      </trkpt>
      <trkpt lat="47.54101" lon="5.91732">
        <ele>244.19999694824</ele>
        <time>2014-03-09T12:12:51.000Z</time>
      </trkpt>
      <trkpt lat="47.54098" lon="5.91728">
        <ele>243.80000305176</ele>
        <time>2014-03-09T12:12:52.000Z</time>
      </trkpt>
      <trkpt lat="47.54096" lon="5.91724">
        <ele>243.39999389648</ele>
        <time>2014-03-09T12:12:53.000Z</time>
      </trkpt>
      <trkpt lat="47.54085" lon="5.91708">
        <ele>243.39999389648</ele>
        <time>2014-03-09T12:12:57.000Z</time>
      </trkpt>
      <trkpt lat="47.54061" lon="5.91672">
        <ele>243.39999389648</ele>
        <time>2014-03-09T12:13:06.000Z</time>
      </trkpt>
      <trkpt lat="47.54043" lon="5.91644">
        <ele>243.39999389648</ele>
        <time>2014-03-09T12:13:13.000Z</time>
      </trkpt>
      <trkpt lat="47.54026" lon="5.91618">
        <ele>243.39999389648</ele>
        <time>2014-03-09T12:13:20.000Z</time>
      </trkpt>
      <trkpt lat="47.54023" lon="5.91616">
        <ele>243.39999389648</ele>
        <time>2014-03-09T12:13:21.000Z</time>
      </trkpt>
      <trkpt lat="47.54014" lon="5.91611">
        <ele>243.39999389648</ele>
        <time>2014-03-09T12:13:24.000Z</time>
      </trkpt>
      <trkpt lat="47.54003" lon="5.91613">
        <ele>243.39999389648</ele>
        <time>2014-03-09T12:13:26.000Z</time>
      </trkpt>
      <trkpt lat="47.54003" lon="5.91613">
        <ele>243.39999389648</ele>
        <time>2014-03-09T12:13:28.000Z</time>
      </trkpt>
      <trkpt lat="47.53987" lon="5.91627">
        <ele>243.39999389648</ele>
        <time>2014-03-09T12:13:33.000Z</time>
      </trkpt>
      <trkpt lat="47.53963" lon="5.91653">
        <ele>243.39999389648</ele>
        <time>2014-03-09T12:13:40.000Z</time>
      </trkpt>
      <trkpt lat="47.53949" lon="5.91667">
        <ele>243.39999389648</ele>
        <time>2014-03-09T12:13:44.000Z</time>
      </trkpt>
      <trkpt lat="47.53942" lon="5.91675">
        <ele>243.39999389648</ele>
        <time>2014-03-09T12:13:46.000Z</time>
      </trkpt>
      <trkpt lat="47.53935" lon="5.91682">
        <ele>243.39999389648</ele>
        <time>2014-03-09T12:13:48.000Z</time>
      </trkpt>
      <trkpt lat="47.53898" lon="5.91721">
        <ele>243.39999389648</ele>
        <time>2014-03-09T12:13:59.000Z</time>
      </trkpt>
      <trkpt lat="47.53883" lon="5.91738">
        <ele>243.80000305176</ele>
        <time>2014-03-09T12:14:04.000Z</time>
      </trkpt>
      <trkpt lat="47.5388" lon="5.91741">
        <ele>244.19999694824</ele>
        <time>2014-03-09T12:14:05.000Z</time>
      </trkpt>
      <trkpt lat="47.53879" lon="5.91744">
        <ele>244.60000610352</ele>
        <time>2014-03-09T12:14:06.000Z</time>
      </trkpt>
      <trkpt lat="47.53878" lon="5.91749">
        <ele>245</ele>
        <time>2014-03-09T12:14:07.000Z</time>
      </trkpt>
      <trkpt lat="47.53878" lon="5.91754">
        <ele>245.39999389648</ele>
        <time>2014-03-09T12:14:08.000Z</time>
      </trkpt>
      <trkpt lat="47.5388" lon="5.91763">
        <ele>245.39999389648</ele>
        <time>2014-03-09T12:14:10.000Z</time>
      </trkpt>
      <trkpt lat="47.53893" lon="5.91796">
        <ele>245.39999389648</ele>
        <time>2014-03-09T12:14:17.000Z</time>
      </trkpt>
      <trkpt lat="47.53901" lon="5.91822">
        <ele>245.39999389648</ele>
        <time>2014-03-09T12:14:24.000Z</time>
      </trkpt>
      <trkpt lat="47.53905" lon="5.91832">
        <ele>246</ele>
        <time>2014-03-09T12:14:27.000Z</time>
      </trkpt>
      <trkpt lat="47.53906" lon="5.91835">
        <ele>246.39999389648</ele>
        <time>2014-03-09T12:14:28.000Z</time>
      </trkpt>
      <trkpt lat="47.53907" lon="5.91838">
        <ele>246.80000305176</ele>
        <time>2014-03-09T12:14:29.000Z</time>
      </trkpt>
      <trkpt lat="47.53908" lon="5.91841">
        <ele>247.19999694824</ele>
        <time>2014-03-09T12:14:30.000Z</time>
      </trkpt>
      <trkpt lat="47.53909" lon="5.91843">
        <ele>247.60000610352</ele>
        <time>2014-03-09T12:14:31.000Z</time>
      </trkpt>
      <trkpt lat="47.5391" lon="5.91845">
        <ele>247.60000610352</ele>
        <time>2014-03-09T12:14:32.000Z</time>
      </trkpt>
      <trkpt lat="47.53914" lon="5.91849">
        <ele>247.60000610352</ele>
        <time>2014-03-09T12:14:36.000Z</time>
      </trkpt>
      <trkpt lat="47.53909" lon="5.91842">
        <ele>247.60000610352</ele>
        <time>2014-03-09T12:14:46.000Z</time>
      </trkpt>
      <trkpt lat="47.53899" lon="5.91815">
        <ele>247.60000610352</ele>
        <time>2014-03-09T12:14:54.000Z</time>
      </trkpt>
      <trkpt lat="47.53884" lon="5.91768">
        <ele>247.60000610352</ele>
        <time>2014-03-09T12:15:01.000Z</time>
      </trkpt>
      <trkpt lat="47.53882" lon="5.91763">
        <ele>247.60000610352</ele>
        <time>2014-03-09T12:15:02.000Z</time>
      </trkpt>
      <trkpt lat="47.53875" lon="5.91759">
        <ele>247.60000610352</ele>
        <time>2014-03-09T12:15:04.000Z</time>
      </trkpt>
      <trkpt lat="47.53863" lon="5.91764">
        <ele>247.60000610352</ele>
        <time>2014-03-09T12:15:07.000Z</time>
      </trkpt>
      <trkpt lat="47.53859" lon="5.91767">
        <ele>247.19999694824</ele>
        <time>2014-03-09T12:15:08.000Z</time>
      </trkpt>
      <trkpt lat="47.53855" lon="5.9177">
        <ele>246.60000610352</ele>
        <time>2014-03-09T12:15:09.000Z</time>
      </trkpt>
      <trkpt lat="47.53851" lon="5.91775">
        <ele>246.19999694824</ele>
        <time>2014-03-09T12:15:10.000Z</time>
      </trkpt>
      <trkpt lat="47.53847" lon="5.91779">
        <ele>245.80000305176</ele>
        <time>2014-03-09T12:15:11.000Z</time>
      </trkpt>
      <trkpt lat="47.53844" lon="5.91784">
        <ele>245.39999389648</ele>
        <time>2014-03-09T12:15:12.000Z</time>
      </trkpt>
      <trkpt lat="47.53823" lon="5.91803">
        <ele>245.39999389648</ele>
        <time>2014-03-09T12:15:17.000Z</time>
      </trkpt>
      <trkpt lat="47.53819" lon="5.91806">
        <ele>245</ele>
        <time>2014-03-09T12:15:18.000Z</time>
      </trkpt>
      <trkpt lat="47.53815" lon="5.91811">
        <ele>244.60000610352</ele>
        <time>2014-03-09T12:15:19.000Z</time>
      </trkpt>
      <trkpt lat="47.5381" lon="5.91816">
        <ele>244</ele>
        <time>2014-03-09T12:15:20.000Z</time>
      </trkpt>
      <trkpt lat="47.53805" lon="5.91821">
        <ele>243.60000610352</ele>
        <time>2014-03-09T12:15:21.000Z</time>
      </trkpt>
      <trkpt lat="47.53801" lon="5.91826">
        <ele>243.19999694824</ele>
        <time>2014-03-09T12:15:22.000Z</time>
      </trkpt>
      <trkpt lat="47.53796" lon="5.91831">
        <ele>242.80000305176</ele>
        <time>2014-03-09T12:15:23.000Z</time>
      </trkpt>
      <trkpt lat="47.53791" lon="5.91837">
        <ele>242.39999389648</ele>
        <time>2014-03-09T12:15:24.000Z</time>
      </trkpt>
      <trkpt lat="47.53786" lon="5.91843">
        <ele>242</ele>
        <time>2014-03-09T12:15:25.000Z</time>
      </trkpt>
      <trkpt lat="47.53781" lon="5.91849">
        <ele>241.60000610352</ele>
        <time>2014-03-09T12:15:26.000Z</time>
      </trkpt>
      <trkpt lat="47.53776" lon="5.91856">
        <ele>241.19999694824</ele>
        <time>2014-03-09T12:15:27.000Z</time>
      </trkpt>
      <trkpt lat="47.53771" lon="5.91862">
        <ele>240.80000305176</ele>
        <time>2014-03-09T12:15:28.000Z</time>
      </trkpt>
      <trkpt lat="47.53765" lon="5.91869">
        <ele>240.19999694824</ele>
        <time>2014-03-09T12:15:29.000Z</time>
      </trkpt>
      <trkpt lat="47.5376" lon="5.91876">
        <ele>239.80000305176</ele>
        <time>2014-03-09T12:15:30.000Z</time>
      </trkpt>
      <trkpt lat="47.53754" lon="5.91883">
        <ele>239.39999389648</ele>
        <time>2014-03-09T12:15:31.000Z</time>
      </trkpt>
      <trkpt lat="47.53748" lon="5.9189">
        <ele>239</ele>
        <time>2014-03-09T12:15:32.000Z</time>
      </trkpt>
      <trkpt lat="47.53731" lon="5.91914">
        <ele>238.60000610352</ele>
        <time>2014-03-09T12:15:35.000Z</time>
      </trkpt>
      <trkpt lat="47.53725" lon="5.91922">
        <ele>238</ele>
        <time>2014-03-09T12:15:36.000Z</time>
      </trkpt>
      <trkpt lat="47.53718" lon="5.91929">
        <ele>237</ele>
        <time>2014-03-09T12:15:37.000Z</time>
      </trkpt>
      <trkpt lat="47.53712" lon="5.91938">
        <ele>236.60000610352</ele>
        <time>2014-03-09T12:15:38.000Z</time>
      </trkpt>
      <trkpt lat="47.53706" lon="5.91946">
        <ele>236</ele>
        <time>2014-03-09T12:15:39.000Z</time>
      </trkpt>
      <trkpt lat="47.537" lon="5.91955">
        <ele>235.39999389648</ele>
        <time>2014-03-09T12:15:40.000Z</time>
      </trkpt>
      <trkpt lat="47.53693" lon="5.91964">
        <ele>235</ele>
        <time>2014-03-09T12:15:41.000Z</time>
      </trkpt>
      <trkpt lat="47.53687" lon="5.91971">
        <ele>234.39999389648</ele>
        <time>2014-03-09T12:15:42.000Z</time>
      </trkpt>
      <trkpt lat="47.53681" lon="5.9198">
        <ele>234</ele>
        <time>2014-03-09T12:15:43.000Z</time>
      </trkpt>
      <trkpt lat="47.53675" lon="5.91988">
        <ele>233.60000610352</ele>
        <time>2014-03-09T12:15:44.000Z</time>
      </trkpt>
      <trkpt lat="47.53669" lon="5.91996">
        <ele>233.19999694824</ele>
        <time>2014-03-09T12:15:45.000Z</time>
      </trkpt>
      <trkpt lat="47.53664" lon="5.92004">
        <ele>232.80000305176</ele>
        <time>2014-03-09T12:15:46.000Z</time>
      </trkpt>
      <trkpt lat="47.5366" lon="5.9201">
        <ele>232.39999389648</ele>
        <time>2014-03-09T12:15:47.000Z</time>
      </trkpt>
      <trkpt lat="47.53656" lon="5.92016">
        <ele>232.39999389648</ele>
        <time>2014-03-09T12:15:48.000Z</time>
      </trkpt>
      <trkpt lat="47.5365" lon="5.92028">
        <ele>232.39999389648</ele>
        <time>2014-03-09T12:15:50.000Z</time>
      </trkpt>
      <trkpt lat="47.53651" lon="5.92035">
        <ele>232.39999389648</ele>
        <time>2014-03-09T12:15:51.000Z</time>
      </trkpt>
      <trkpt lat="47.5366" lon="5.92055">
        <ele>232.39999389648</ele>
        <time>2014-03-09T12:15:55.000Z</time>
      </trkpt>
      <trkpt lat="47.53672" lon="5.92066">
        <ele>232.39999389648</ele>
        <time>2014-03-09T12:15:58.000Z</time>
      </trkpt>
      <trkpt lat="47.53679" lon="5.92074">
        <ele>232.39999389648</ele>
        <time>2014-03-09T12:16:00.000Z</time>
      </trkpt>
      <trkpt lat="47.53689" lon="5.92086">
        <ele>232.39999389648</ele>
        <time>2014-03-09T12:16:03.000Z</time>
      </trkpt>
      <trkpt lat="47.53693" lon="5.92103">
        <ele>232.39999389648</ele>
        <time>2014-03-09T12:16:06.000Z</time>
      </trkpt>
      <trkpt lat="47.53698" lon="5.92129">
        <ele>232.39999389648</ele>
        <time>2014-03-09T12:16:10.000Z</time>
      </trkpt>
      <trkpt lat="47.53699" lon="5.92136">
        <ele>232.39999389648</ele>
        <time>2014-03-09T12:16:11.000Z</time>
      </trkpt>
      <trkpt lat="47.53702" lon="5.92176">
        <ele>232.39999389648</ele>
        <time>2014-03-09T12:16:17.000Z</time>
      </trkpt>
      <trkpt lat="47.53708" lon="5.92243">
        <ele>232.39999389648</ele>
        <time>2014-03-09T12:16:27.000Z</time>
      </trkpt>
      <trkpt lat="47.53706" lon="5.92278">
        <ele>232.39999389648</ele>
        <time>2014-03-09T12:16:32.000Z</time>
      </trkpt>
      <trkpt lat="47.53706" lon="5.92285">
        <ele>232.39999389648</ele>
        <time>2014-03-09T12:16:33.000Z</time>
      </trkpt>
      <trkpt lat="47.53705" lon="5.92299">
        <ele>232.39999389648</ele>
        <time>2014-03-09T12:16:35.000Z</time>
      </trkpt>
      <trkpt lat="47.53703" lon="5.92319">
        <ele>232.39999389648</ele>
        <time>2014-03-09T12:16:38.000Z</time>
      </trkpt>
      <trkpt lat="47.53703" lon="5.92326">
        <ele>232.39999389648</ele>
        <time>2014-03-09T12:16:39.000Z</time>
      </trkpt>
      <trkpt lat="47.53702" lon="5.92333">
        <ele>232.39999389648</ele>
        <time>2014-03-09T12:16:40.000Z</time>
      </trkpt>
      <trkpt lat="47.537" lon="5.92365">
        <ele>232.39999389648</ele>
        <time>2014-03-09T12:16:45.000Z</time>
      </trkpt>
      <trkpt lat="47.537" lon="5.92377">
        <ele>232.39999389648</ele>
        <time>2014-03-09T12:16:47.000Z</time>
      </trkpt>
      <trkpt lat="47.53699" lon="5.9239">
        <ele>232.39999389648</ele>
        <time>2014-03-09T12:16:49.000Z</time>
      </trkpt>
      <trkpt lat="47.53701" lon="5.92405">
        <ele>232.39999389648</ele>
        <time>2014-03-09T12:16:51.000Z</time>
      </trkpt>
      <trkpt lat="47.53713" lon="5.92418">
        <ele>232.39999389648</ele>
        <time>2014-03-09T12:16:54.000Z</time>
      </trkpt>
      <trkpt lat="47.53718" lon="5.92421">
        <ele>232.39999389648</ele>
        <time>2014-03-09T12:16:55.000Z</time>
      </trkpt>
      <trkpt lat="47.53726" lon="5.92427">
        <ele>232.39999389648</ele>
        <time>2014-03-09T12:16:57.000Z</time>
      </trkpt>
      <trkpt lat="47.5374" lon="5.92433">
        <ele>232.39999389648</ele>
        <time>2014-03-09T12:17:01.000Z</time>
      </trkpt>
      <trkpt lat="47.53744" lon="5.92434">
        <ele>232.39999389648</ele>
        <time>2014-03-09T12:17:02.000Z</time>
      </trkpt>
      <trkpt lat="47.53758" lon="5.92436">
        <ele>232.39999389648</ele>
        <time>2014-03-09T12:17:05.000Z</time>
      </trkpt>
      <trkpt lat="47.53767" lon="5.92436">
        <ele>233</ele>
        <time>2014-03-09T12:17:07.000Z</time>
      </trkpt>
      <trkpt lat="47.53771" lon="5.92436">
        <ele>233.80000305176</ele>
        <time>2014-03-09T12:17:08.000Z</time>
      </trkpt>
      <trkpt lat="47.53776" lon="5.92437">
        <ele>234.60000610352</ele>
        <time>2014-03-09T12:17:09.000Z</time>
      </trkpt>
      <trkpt lat="47.5378" lon="5.92437">
        <ele>235.39999389648</ele>
        <time>2014-03-09T12:17:10.000Z</time>
      </trkpt>
      <trkpt lat="47.53784" lon="5.92437">
        <ele>236.19999694824</ele>
        <time>2014-03-09T12:17:11.000Z</time>
      </trkpt>
      <trkpt lat="47.53804" lon="5.92439">
        <ele>236.19999694824</ele>
        <time>2014-03-09T12:17:16.000Z</time>
      </trkpt>
      <trkpt lat="47.53836" lon="5.92444">
        <ele>236.19999694824</ele>
        <time>2014-03-09T12:17:24.000Z</time>
      </trkpt>
      <trkpt lat="47.5384" lon="5.92445">
        <ele>236.60000610352</ele>
        <time>2014-03-09T12:17:25.000Z</time>
      </trkpt>
      <trkpt lat="47.53844" lon="5.92445">
        <ele>237</ele>
        <time>2014-03-09T12:17:26.000Z</time>
      </trkpt>
      <trkpt lat="47.53848" lon="5.92446">
        <ele>237.39999389648</ele>
        <time>2014-03-09T12:17:27.000Z</time>
      </trkpt>
      <trkpt lat="47.53852" lon="5.92446">
        <ele>238</ele>
        <time>2014-03-09T12:17:28.000Z</time>
      </trkpt>
      <trkpt lat="47.53855" lon="5.92447">
        <ele>238.39999389648</ele>
        <time>2014-03-09T12:17:29.000Z</time>
      </trkpt>
      <trkpt lat="47.53867" lon="5.9245">
        <ele>238.39999389648</ele>
        <time>2014-03-09T12:17:32.000Z</time>
      </trkpt>
      <trkpt lat="47.53882" lon="5.92455">
        <ele>238.80000305176</ele>
        <time>2014-03-09T12:17:36.000Z</time>
      </trkpt>
      <trkpt lat="47.53885" lon="5.92457">
        <ele>239.19999694824</ele>
        <time>2014-03-09T12:17:37.000Z</time>
      </trkpt>
      <trkpt lat="47.53889" lon="5.92459">
        <ele>239.60000610352</ele>
        <time>2014-03-09T12:17:38.000Z</time>
      </trkpt>
      <trkpt lat="47.53892" lon="5.92461">
        <ele>240</ele>
        <time>2014-03-09T12:17:39.000Z</time>
      </trkpt>
      <trkpt lat="47.53896" lon="5.92462">
        <ele>240.39999389648</ele>
        <time>2014-03-09T12:17:40.000Z</time>
      </trkpt>
      <trkpt lat="47.53923" lon="5.92482">
        <ele>240.39999389648</ele>
        <time>2014-03-09T12:17:48.000Z</time>
      </trkpt>
      <trkpt lat="47.53926" lon="5.92484">
        <ele>240.80000305176</ele>
        <time>2014-03-09T12:17:49.000Z</time>
      </trkpt>
      <trkpt lat="47.5393" lon="5.92487">
        <ele>241.39999389648</ele>
        <time>2014-03-09T12:17:50.000Z</time>
      </trkpt>
      <trkpt lat="47.53933" lon="5.92489">
        <ele>241.80000305176</ele>
        <time>2014-03-09T12:17:51.000Z</time>
      </trkpt>
      <trkpt lat="47.53937" lon="5.92491">
        <ele>242.39999389648</ele>
        <time>2014-03-09T12:17:52.000Z</time>
      </trkpt>
      <trkpt lat="47.5394" lon="5.92493">
        <ele>243</ele>
        <time>2014-03-09T12:17:53.000Z</time>
      </trkpt>
      <trkpt lat="47.5395" lon="5.92501">
        <ele>243</ele>
        <time>2014-03-09T12:17:56.000Z</time>
      </trkpt>
      <trkpt lat="47.53979" lon="5.92523">
        <ele>243</ele>
        <time>2014-03-09T12:18:05.000Z</time>
      </trkpt>
      <trkpt lat="47.53992" lon="5.92535">
        <ele>243.39999389648</ele>
        <time>2014-03-09T12:18:09.000Z</time>
      </trkpt>
      <trkpt lat="47.53996" lon="5.92538">
        <ele>243.80000305176</ele>
        <time>2014-03-09T12:18:10.000Z</time>
      </trkpt>
      <trkpt lat="47.53999" lon="5.92541">
        <ele>244.19999694824</ele>
        <time>2014-03-09T12:18:11.000Z</time>
      </trkpt>
      <trkpt lat="47.54002" lon="5.92544">
        <ele>244.60000610352</ele>
        <time>2014-03-09T12:18:12.000Z</time>
      </trkpt>
      <trkpt lat="47.54005" lon="5.92547">
        <ele>245</ele>
        <time>2014-03-09T12:18:13.000Z</time>
      </trkpt>
      <trkpt lat="47.54015" lon="5.92556">
        <ele>245</ele>
        <time>2014-03-09T12:18:16.000Z</time>
      </trkpt>
      <trkpt lat="47.5404" lon="5.9258">
        <ele>245.60000610352</ele>
        <time>2014-03-09T12:18:24.000Z</time>
      </trkpt>
      <trkpt lat="47.54043" lon="5.92582">
        <ele>246</ele>
        <time>2014-03-09T12:18:25.000Z</time>
      </trkpt>
      <trkpt lat="47.54046" lon="5.92585">
        <ele>246.39999389648</ele>
        <time>2014-03-09T12:18:26.000Z</time>
      </trkpt>
      <trkpt lat="47.54049" lon="5.92587">
        <ele>246.80000305176</ele>
        <time>2014-03-09T12:18:27.000Z</time>
      </trkpt>
      <trkpt lat="47.54052" lon="5.92589">
        <ele>247.19999694824</ele>
        <time>2014-03-09T12:18:28.000Z</time>
      </trkpt>
      <trkpt lat="47.54058" lon="5.92599">
        <ele>247.19999694824</ele>
        <time>2014-03-09T12:18:31.000Z</time>
      </trkpt>
      <trkpt lat="47.54065" lon="5.92608">
        <ele>247.19999694824</ele>
        <time>2014-03-09T12:18:34.000Z</time>
      </trkpt>
      <trkpt lat="47.5407" lon="5.92611">
        <ele>247.19999694824</ele>
        <time>2014-03-09T12:18:36.000Z</time>
      </trkpt>
      <trkpt lat="47.54075" lon="5.92604">
        <ele>247.19999694824</ele>
        <time>2014-03-09T12:18:39.000Z</time>
      </trkpt>
      <trkpt lat="47.54075" lon="5.926">
        <ele>247.60000610352</ele>
        <time>2014-03-09T12:18:40.000Z</time>
      </trkpt>
      <trkpt lat="47.54075" lon="5.92597">
        <ele>248</ele>
        <time>2014-03-09T12:18:41.000Z</time>
      </trkpt>
      <trkpt lat="47.54075" lon="5.92594">
        <ele>248.39999389648</ele>
        <time>2014-03-09T12:18:42.000Z</time>
      </trkpt>
      <trkpt lat="47.54075" lon="5.9259">
        <ele>248.80000305176</ele>
        <time>2014-03-09T12:18:43.000Z</time>
      </trkpt>
      <trkpt lat="47.54075" lon="5.92586">
        <ele>249.39999389648</ele>
        <time>2014-03-09T12:18:44.000Z</time>
      </trkpt>
      <trkpt lat="47.54076" lon="5.92582">
        <ele>249.39999389648</ele>
        <time>2014-03-09T12:18:45.000Z</time>
      </trkpt>
      <trkpt lat="47.54077" lon="5.92557">
        <ele>249.39999389648</ele>
        <time>2014-03-09T12:18:51.000Z</time>
      </trkpt>
      <trkpt lat="47.5408" lon="5.92529">
        <ele>249.39999389648</ele>
        <time>2014-03-09T12:18:57.000Z</time>
      </trkpt>
      <trkpt lat="47.54085" lon="5.92481">
        <ele>249.80000305176</ele>
        <time>2014-03-09T12:19:07.000Z</time>
      </trkpt>
      <trkpt lat="47.54085" lon="5.92477">
        <ele>250.19999694824</ele>
        <time>2014-03-09T12:19:08.000Z</time>
      </trkpt>
      <trkpt lat="47.54085" lon="5.92472">
        <ele>250.60000610352</ele>
        <time>2014-03-09T12:19:09.000Z</time>
      </trkpt>
      <trkpt lat="47.54087" lon="5.92469">
        <ele>251</ele>
        <time>2014-03-09T12:19:10.000Z</time>
      </trkpt>
      <trkpt lat="47.54088" lon="5.92466">
        <ele>251.39999389648</ele>
        <time>2014-03-09T12:19:11.000Z</time>
      </trkpt>
      <trkpt lat="47.54089" lon="5.92465">
        <ele>251.39999389648</ele>
        <time>2014-03-09T12:19:12.000Z</time>
      </trkpt>
      <trkpt lat="47.54085" lon="5.92464">
        <ele>251.39999389648</ele>
        <time>2014-03-09T12:19:15.000Z</time>
      </trkpt>
      <trkpt lat="47.54085" lon="5.9248">
        <ele>251.39999389648</ele>
        <time>2014-03-09T12:19:19.000Z</time>
      </trkpt>
      <trkpt lat="47.54084" lon="5.92495">
        <ele>251.39999389648</ele>
        <time>2014-03-09T12:19:22.000Z</time>
      </trkpt>
      <trkpt lat="47.54083" lon="5.92507">
        <ele>251.39999389648</ele>
        <time>2014-03-09T12:19:24.000Z</time>
      </trkpt>
      <trkpt lat="47.54079" lon="5.92546">
        <ele>251.39999389648</ele>
        <time>2014-03-09T12:19:30.000Z</time>
      </trkpt>
      <trkpt lat="47.54076" lon="5.92574">
        <ele>251</ele>
        <time>2014-03-09T12:19:34.000Z</time>
      </trkpt>
      <trkpt lat="47.54075" lon="5.92581">
        <ele>250.60000610352</ele>
        <time>2014-03-09T12:19:35.000Z</time>
      </trkpt>
      <trkpt lat="47.54074" lon="5.92588">
        <ele>250.19999694824</ele>
        <time>2014-03-09T12:19:36.000Z</time>
      </trkpt>
      <trkpt lat="47.54074" lon="5.92595">
        <ele>249.80000305176</ele>
        <time>2014-03-09T12:19:37.000Z</time>
      </trkpt>
      <trkpt lat="47.54073" lon="5.92602">
        <ele>249.39999389648</ele>
        <time>2014-03-09T12:19:38.000Z</time>
      </trkpt>
      <trkpt lat="47.54073" lon="5.92608">
        <ele>249.39999389648</ele>
        <time>2014-03-09T12:19:39.000Z</time>
      </trkpt>
      <trkpt lat="47.54073" lon="5.92615">
        <ele>249.39999389648</ele>
        <time>2014-03-09T12:19:40.000Z</time>
      </trkpt>
      <trkpt lat="47.5408" lon="5.9263">
        <ele>249.39999389648</ele>
        <time>2014-03-09T12:19:43.000Z</time>
      </trkpt>
      <trkpt lat="47.54089" lon="5.92636">
        <ele>249.39999389648</ele>
        <time>2014-03-09T12:19:45.000Z</time>
      </trkpt>
      <trkpt lat="47.54103" lon="5.92642">
        <ele>249.39999389648</ele>
        <time>2014-03-09T12:19:48.000Z</time>
      </trkpt>
      <trkpt lat="47.5414" lon="5.92652">
        <ele>249.39999389648</ele>
        <time>2014-03-09T12:19:56.000Z</time>
      </trkpt>
      <trkpt lat="47.54173" lon="5.92647">
        <ele>249.39999389648</ele>
        <time>2014-03-09T12:20:03.000Z</time>
      </trkpt>
      <trkpt lat="47.54196" lon="5.9264">
        <ele>249.80000305176</ele>
        <time>2014-03-09T12:20:08.000Z</time>
      </trkpt>
      <trkpt lat="47.54201" lon="5.92639">
        <ele>250.19999694824</ele>
        <time>2014-03-09T12:20:09.000Z</time>
      </trkpt>
      <trkpt lat="47.54206" lon="5.92638">
        <ele>250.60000610352</ele>
        <time>2014-03-09T12:20:10.000Z</time>
      </trkpt>
      <trkpt lat="47.54211" lon="5.92637">
        <ele>251</ele>
        <time>2014-03-09T12:20:11.000Z</time>
      </trkpt>
      <trkpt lat="47.54215" lon="5.92636">
        <ele>251.39999389648</ele>
        <time>2014-03-09T12:20:12.000Z</time>
      </trkpt>
      <trkpt lat="47.54225" lon="5.92637">
        <ele>251.39999389648</ele>
        <time>2014-03-09T12:20:14.000Z</time>
      </trkpt>
      <trkpt lat="47.54244" lon="5.9264">
        <ele>251.39999389648</ele>
        <time>2014-03-09T12:20:18.000Z</time>
      </trkpt>
      <trkpt lat="47.54268" lon="5.92649">
        <ele>251.39999389648</ele>
        <time>2014-03-09T12:20:24.000Z</time>
      </trkpt>
      <trkpt lat="47.54295" lon="5.92657">
        <ele>251.39999389648</ele>
        <time>2014-03-09T12:20:30.000Z</time>
      </trkpt>
      <trkpt lat="47.54318" lon="5.92666">
        <ele>251.39999389648</ele>
        <time>2014-03-09T12:20:36.000Z</time>
      </trkpt>
      <trkpt lat="47.54337" lon="5.92682">
        <ele>251.39999389648</ele>
        <time>2014-03-09T12:20:41.000Z</time>
      </trkpt>
      <trkpt lat="47.54373" lon="5.92723">
        <ele>251.39999389648</ele>
        <time>2014-03-09T12:20:50.000Z</time>
      </trkpt>
      <trkpt lat="47.54407" lon="5.92771">
        <ele>251.39999389648</ele>
        <time>2014-03-09T12:20:59.000Z</time>
      </trkpt>
      <trkpt lat="47.54412" lon="5.92776">
        <ele>251.39999389648</ele>
        <time>2014-03-09T12:21:00.000Z</time>
      </trkpt>
      <trkpt lat="47.54448" lon="5.92811">
        <ele>251.39999389648</ele>
        <time>2014-03-09T12:21:08.000Z</time>
      </trkpt>
      <trkpt lat="47.54481" lon="5.92845">
        <ele>251.39999389648</ele>
        <time>2014-03-09T12:21:16.000Z</time>
      </trkpt>
      <trkpt lat="47.54513" lon="5.92885">
        <ele>251.39999389648</ele>
        <time>2014-03-09T12:21:24.000Z</time>
      </trkpt>
      <trkpt lat="47.54553" lon="5.92941">
        <ele>251.39999389648</ele>
        <time>2014-03-09T12:21:34.000Z</time>
      </trkpt>
      <trkpt lat="47.54573" lon="5.92969">
        <ele>251.39999389648</ele>
        <time>2014-03-09T12:21:39.000Z</time>
      </trkpt>
      <trkpt lat="47.54583" lon="5.92978">
        <ele>251.39999389648</ele>
        <time>2014-03-09T12:21:41.000Z</time>
      </trkpt>
      <trkpt lat="47.54598" lon="5.92988">
        <ele>251.39999389648</ele>
        <time>2014-03-09T12:21:44.000Z</time>
      </trkpt>
      <trkpt lat="47.54612" lon="5.92995">
        <ele>251.39999389648</ele>
        <time>2014-03-09T12:21:47.000Z</time>
      </trkpt>
      <trkpt lat="47.54626" lon="5.93003">
        <ele>251.39999389648</ele>
        <time>2014-03-09T12:21:50.000Z</time>
      </trkpt>
      <trkpt lat="47.54637" lon="5.93004">
        <ele>251.39999389648</ele>
        <time>2014-03-09T12:21:52.000Z</time>
      </trkpt>
      <trkpt lat="47.54642" lon="5.93006">
        <ele>251.39999389648</ele>
        <time>2014-03-09T12:21:53.000Z</time>
      </trkpt>
      <trkpt lat="47.54648" lon="5.93005">
        <ele>251.39999389648</ele>
        <time>2014-03-09T12:21:54.000Z</time>
      </trkpt>
      <trkpt lat="47.54664" lon="5.93002">
        <ele>251.39999389648</ele>
        <time>2014-03-09T12:21:57.000Z</time>
      </trkpt>
      <trkpt lat="47.54703" lon="5.93002">
        <ele>251.39999389648</ele>
        <time>2014-03-09T12:22:04.000Z</time>
      </trkpt>
      <trkpt lat="47.54722" lon="5.93008">
        <ele>251</ele>
        <time>2014-03-09T12:22:07.000Z</time>
      </trkpt>
      <trkpt lat="47.54728" lon="5.93011">
        <ele>250.60000610352</ele>
        <time>2014-03-09T12:22:08.000Z</time>
      </trkpt>
      <trkpt lat="47.54733" lon="5.93014">
        <ele>250</ele>
        <time>2014-03-09T12:22:09.000Z</time>
      </trkpt>
      <trkpt lat="47.54739" lon="5.93018">
        <ele>249.60000610352</ele>
        <time>2014-03-09T12:22:10.000Z</time>
      </trkpt>
      <trkpt lat="47.54744" lon="5.93022">
        <ele>249.19999694824</ele>
        <time>2014-03-09T12:22:11.000Z</time>
      </trkpt>
      <trkpt lat="47.5478" lon="5.93053">
        <ele>249.19999694824</ele>
        <time>2014-03-09T12:22:18.000Z</time>
      </trkpt>
      <trkpt lat="47.54817" lon="5.93083">
        <ele>248.80000305176</ele>
        <time>2014-03-09T12:22:25.000Z</time>
      </trkpt>
      <trkpt lat="47.54823" lon="5.93086">
        <ele>248.39999389648</ele>
        <time>2014-03-09T12:22:26.000Z</time>
      </trkpt>
      <trkpt lat="47.54829" lon="5.9309">
        <ele>248</ele>
        <time>2014-03-09T12:22:27.000Z</time>
      </trkpt>
      <trkpt lat="47.54835" lon="5.93094">
        <ele>247.60000610352</ele>
        <time>2014-03-09T12:22:28.000Z</time>
      </trkpt>
      <trkpt lat="47.54841" lon="5.93098">
        <ele>247.19999694824</ele>
        <time>2014-03-09T12:22:29.000Z</time>
      </trkpt>
      <trkpt lat="47.54867" lon="5.93107">
        <ele>247.19999694824</ele>
        <time>2014-03-09T12:22:33.000Z</time>
      </trkpt>
      <trkpt lat="47.54874" lon="5.93107">
        <ele>247.19999694824</ele>
        <time>2014-03-09T12:22:34.000Z</time>
      </trkpt>
      <trkpt lat="47.54907" lon="5.93108">
        <ele>247.19999694824</ele>
        <time>2014-03-09T12:22:39.000Z</time>
      </trkpt>
      <trkpt lat="47.5495" lon="5.9311">
        <ele>247.19999694824</ele>
        <time>2014-03-09T12:22:45.000Z</time>
      </trkpt>
      <trkpt lat="47.54971" lon="5.93116">
        <ele>246.80000305176</ele>
        <time>2014-03-09T12:22:48.000Z</time>
      </trkpt>
      <trkpt lat="47.54979" lon="5.93119">
        <ele>246.19999694824</ele>
        <time>2014-03-09T12:22:49.000Z</time>
      </trkpt>
      <trkpt lat="47.54986" lon="5.93122">
        <ele>245.80000305176</ele>
        <time>2014-03-09T12:22:50.000Z</time>
      </trkpt>
      <trkpt lat="47.54993" lon="5.93125">
        <ele>245.39999389648</ele>
        <time>2014-03-09T12:22:51.000Z</time>
      </trkpt>
      <trkpt lat="47.54999" lon="5.93129">
        <ele>245</ele>
        <time>2014-03-09T12:22:52.000Z</time>
      </trkpt>
      <trkpt lat="47.55019" lon="5.93137">
        <ele>245</ele>
        <time>2014-03-09T12:22:55.000Z</time>
      </trkpt>
      <trkpt lat="47.55057" lon="5.93156">
        <ele>245</ele>
        <time>2014-03-09T12:23:01.000Z</time>
      </trkpt>
      <trkpt lat="47.55094" lon="5.93171">
        <ele>244.60000610352</ele>
        <time>2014-03-09T12:23:07.000Z</time>
      </trkpt>
      <trkpt lat="47.551" lon="5.93174">
        <ele>244.19999694824</ele>
        <time>2014-03-09T12:23:08.000Z</time>
      </trkpt>
      <trkpt lat="47.55107" lon="5.93177">
        <ele>243.60000610352</ele>
        <time>2014-03-09T12:23:09.000Z</time>
      </trkpt>
      <trkpt lat="47.55113" lon="5.93179">
        <ele>243.19999694824</ele>
        <time>2014-03-09T12:23:10.000Z</time>
      </trkpt>
      <trkpt lat="47.55119" lon="5.93183">
        <ele>242.80000305176</ele>
        <time>2014-03-09T12:23:11.000Z</time>
      </trkpt>
      <trkpt lat="47.55131" lon="5.9319">
        <ele>242.80000305176</ele>
        <time>2014-03-09T12:23:13.000Z</time>
      </trkpt>
      <trkpt lat="47.55176" lon="5.93223">
        <ele>242.80000305176</ele>
        <time>2014-03-09T12:23:20.000Z</time>
      </trkpt>
      <trkpt lat="47.55202" lon="5.93241">
        <ele>242.39999389648</ele>
        <time>2014-03-09T12:23:24.000Z</time>
      </trkpt>
      <trkpt lat="47.55208" lon="5.93246">
        <ele>242</ele>
        <time>2014-03-09T12:23:25.000Z</time>
      </trkpt>
      <trkpt lat="47.55215" lon="5.93251">
        <ele>241.60000610352</ele>
        <time>2014-03-09T12:23:26.000Z</time>
      </trkpt>
      <trkpt lat="47.55221" lon="5.93256">
        <ele>241</ele>
        <time>2014-03-09T12:23:27.000Z</time>
      </trkpt>
      <trkpt lat="47.55227" lon="5.93261">
        <ele>240.60000610352</ele>
        <time>2014-03-09T12:23:28.000Z</time>
      </trkpt>
      <trkpt lat="47.55254" lon="5.93279">
        <ele>240.60000610352</ele>
        <time>2014-03-09T12:23:32.000Z</time>
      </trkpt>
      <trkpt lat="47.55267" lon="5.93289">
        <ele>240.60000610352</ele>
        <time>2014-03-09T12:23:34.000Z</time>
      </trkpt>
      <trkpt lat="47.5532" lon="5.93325">
        <ele>240.60000610352</ele>
        <time>2014-03-09T12:23:43.000Z</time>
      </trkpt>
      <trkpt lat="47.55353" lon="5.93346">
        <ele>240.60000610352</ele>
        <time>2014-03-09T12:23:49.000Z</time>
      </trkpt>
      <trkpt lat="47.55385" lon="5.93366">
        <ele>240.60000610352</ele>
        <time>2014-03-09T12:23:55.000Z</time>
      </trkpt>
      <trkpt lat="47.55426" lon="5.9339">
        <ele>240.60000610352</ele>
        <time>2014-03-09T12:24:03.000Z</time>
      </trkpt>
      <trkpt lat="47.55432" lon="5.93392">
        <ele>240.60000610352</ele>
        <time>2014-03-09T12:24:04.000Z</time>
      </trkpt>
      <trkpt lat="47.55442" lon="5.93399">
        <ele>240.60000610352</ele>
        <time>2014-03-09T12:24:06.000Z</time>
      </trkpt>
      <trkpt lat="47.55453" lon="5.93406">
        <ele>240.60000610352</ele>
        <time>2014-03-09T12:24:08.000Z</time>
      </trkpt>
      <trkpt lat="47.55481" lon="5.93428">
        <ele>240.60000610352</ele>
        <time>2014-03-09T12:24:14.000Z</time>
      </trkpt>
      <trkpt lat="47.55489" lon="5.93436">
        <ele>241</ele>
        <time>2014-03-09T12:24:16.000Z</time>
      </trkpt>
      <trkpt lat="47.55494" lon="5.9344">
        <ele>241.39999389648</ele>
        <time>2014-03-09T12:24:17.000Z</time>
      </trkpt>
      <trkpt lat="47.55498" lon="5.93444">
        <ele>241.80000305176</ele>
        <time>2014-03-09T12:24:18.000Z</time>
      </trkpt>
      <trkpt lat="47.55502" lon="5.93449">
        <ele>242.39999389648</ele>
        <time>2014-03-09T12:24:19.000Z</time>
      </trkpt>
      <trkpt lat="47.55506" lon="5.93453">
        <ele>242.80000305176</ele>
        <time>2014-03-09T12:24:20.000Z</time>
      </trkpt>
      <trkpt lat="47.55519" lon="5.93466">
        <ele>242.80000305176</ele>
        <time>2014-03-09T12:24:23.000Z</time>
      </trkpt>
      <trkpt lat="47.55553" lon="5.93501">
        <ele>242.80000305176</ele>
        <time>2014-03-09T12:24:31.000Z</time>
      </trkpt>
      <trkpt lat="47.55589" lon="5.93536">
        <ele>242.80000305176</ele>
        <time>2014-03-09T12:24:39.000Z</time>
      </trkpt>
      <trkpt lat="47.55637" lon="5.93586">
        <ele>242.80000305176</ele>
        <time>2014-03-09T12:24:50.000Z</time>
      </trkpt>
      <trkpt lat="47.55652" lon="5.93606">
        <ele>242.80000305176</ele>
        <time>2014-03-09T12:24:54.000Z</time>
      </trkpt>
      <trkpt lat="47.55668" lon="5.93625">
        <ele>243.19999694824</ele>
        <time>2014-03-09T12:24:58.000Z</time>
      </trkpt>
      <trkpt lat="47.55672" lon="5.9363">
        <ele>243.60000610352</ele>
        <time>2014-03-09T12:24:59.000Z</time>
      </trkpt>
      <trkpt lat="47.55676" lon="5.93635">
        <ele>244</ele>
        <time>2014-03-09T12:25:00.000Z</time>
      </trkpt>
      <trkpt lat="47.5568" lon="5.9364">
        <ele>244.39999389648</ele>
        <time>2014-03-09T12:25:01.000Z</time>
      </trkpt>
      <trkpt lat="47.55684" lon="5.93646">
        <ele>244.80000305176</ele>
        <time>2014-03-09T12:25:02.000Z</time>
      </trkpt>
      <trkpt lat="47.55707" lon="5.9368">
        <ele>244.80000305176</ele>
        <time>2014-03-09T12:25:08.000Z</time>
      </trkpt>
      <trkpt lat="47.5574" lon="5.93746">
        <ele>244.80000305176</ele>
        <time>2014-03-09T12:25:18.000Z</time>
      </trkpt>
      <trkpt lat="47.55758" lon="5.93783">
        <ele>244.80000305176</ele>
        <time>2014-03-09T12:25:24.000Z</time>
      </trkpt>
      <trkpt lat="47.55776" lon="5.9382">
        <ele>244.80000305176</ele>
        <time>2014-03-09T12:25:30.000Z</time>
      </trkpt>
      <trkpt lat="47.55791" lon="5.93851">
        <ele>244.80000305176</ele>
        <time>2014-03-09T12:25:35.000Z</time>
      </trkpt>
      <trkpt lat="47.55797" lon="5.93863">
        <ele>244.80000305176</ele>
        <time>2014-03-09T12:25:37.000Z</time>
      </trkpt>
      <trkpt lat="47.55816" lon="5.93903">
        <ele>244.80000305176</ele>
        <time>2014-03-09T12:25:45.000Z</time>
      </trkpt>
      <trkpt lat="47.55829" lon="5.93928">
        <ele>244.80000305176</ele>
        <time>2014-03-09T12:25:52.000Z</time>
      </trkpt>
      <trkpt lat="47.55829" lon="5.93928">
        <ele>244.80000305176</ele>
        <time>2014-03-09T12:25:54.000Z</time>
      </trkpt>
      <trkpt lat="47.55827" lon="5.93924">
        <ele>244.80000305176</ele>
        <time>2014-03-09T12:26:35.000Z</time>
      </trkpt>
      <trkpt lat="47.55821" lon="5.93915">
        <ele>244.80000305176</ele>
        <time>2014-03-09T12:26:39.000Z</time>
      </trkpt>
      <trkpt lat="47.5582" lon="5.93913">
        <ele>244.80000305176</ele>
        <time>2014-03-09T12:26:40.000Z</time>
      </trkpt>
      <trkpt lat="47.55811" lon="5.93897">
        <ele>244.80000305176</ele>
        <time>2014-03-09T12:26:47.000Z</time>
      </trkpt>
      <trkpt lat="47.55807" lon="5.9389">
        <ele>244.80000305176</ele>
        <time>2014-03-09T12:26:51.000Z</time>
      </trkpt>
      <trkpt lat="47.55809" lon="5.93888">
        <ele>244.80000305176</ele>
        <time>2014-03-09T12:26:52.000Z</time>
      </trkpt>
      <trkpt lat="47.5581" lon="5.93893">
        <ele>244.80000305176</ele>
        <time>2014-03-09T12:26:58.000Z</time>
      </trkpt>
      <trkpt lat="47.55811" lon="5.93895">
        <ele>244.80000305176</ele>
        <time>2014-03-09T12:26:59.000Z</time>
      </trkpt>
      <trkpt lat="47.55818" lon="5.9391">
        <ele>244.80000305176</ele>
        <time>2014-03-09T12:27:04.000Z</time>
      </trkpt>
      <trkpt lat="47.55829" lon="5.93927">
        <ele>244.80000305176</ele>
        <time>2014-03-09T12:27:09.000Z</time>
      </trkpt>
      <trkpt lat="47.55831" lon="5.93925">
        <ele>244.80000305176</ele>
        <time>2014-03-09T12:27:10.000Z</time>
      </trkpt>
      <trkpt lat="47.55845" lon="5.93918">
        <ele>244.80000305176</ele>
        <time>2014-03-09T12:27:15.000Z</time>
      </trkpt>
      <trkpt lat="47.5586" lon="5.93913">
        <ele>244.80000305176</ele>
        <time>2014-03-09T12:27:21.000Z</time>
      </trkpt>
      <trkpt lat="47.55874" lon="5.9391">
        <ele>245.19999694824</ele>
        <time>2014-03-09T12:27:26.000Z</time>
      </trkpt>
      <trkpt lat="47.55877" lon="5.93909">
        <ele>245.60000610352</ele>
        <time>2014-03-09T12:27:27.000Z</time>
      </trkpt>
      <trkpt lat="47.5588" lon="5.93909">
        <ele>246</ele>
        <time>2014-03-09T12:27:28.000Z</time>
      </trkpt>
      <trkpt lat="47.55883" lon="5.93909">
        <ele>246.39999389648</ele>
        <time>2014-03-09T12:27:29.000Z</time>
      </trkpt>
      <trkpt lat="47.55886" lon="5.9391">
        <ele>247</ele>
        <time>2014-03-09T12:27:30.000Z</time>
      </trkpt>
      <trkpt lat="47.55898" lon="5.93906">
        <ele>247</ele>
        <time>2014-03-09T12:27:34.000Z</time>
      </trkpt>
      <trkpt lat="47.55915" lon="5.93903">
        <ele>247</ele>
        <time>2014-03-09T12:27:40.000Z</time>
      </trkpt>
      <trkpt lat="47.55922" lon="5.93901">
        <ele>247.39999389648</ele>
        <time>2014-03-09T12:27:43.000Z</time>
      </trkpt>
      <trkpt lat="47.55925" lon="5.939">
        <ele>247.80000305176</ele>
        <time>2014-03-09T12:27:44.000Z</time>
      </trkpt>
      <trkpt lat="47.55927" lon="5.939">
        <ele>248.19999694824</ele>
        <time>2014-03-09T12:27:45.000Z</time>
      </trkpt>
      <trkpt lat="47.5593" lon="5.939">
        <ele>248.60000610352</ele>
        <time>2014-03-09T12:27:46.000Z</time>
      </trkpt>
      <trkpt lat="47.55933" lon="5.939">
        <ele>249</ele>
        <time>2014-03-09T12:27:47.000Z</time>
      </trkpt>
      <trkpt lat="47.55943" lon="5.93896">
        <ele>249</ele>
        <time>2014-03-09T12:27:51.000Z</time>
      </trkpt>
      <trkpt lat="47.55962" lon="5.93892">
        <ele>249</ele>
        <time>2014-03-09T12:27:58.000Z</time>
      </trkpt>
      <trkpt lat="47.55982" lon="5.93886">
        <ele>249</ele>
        <time>2014-03-09T12:28:04.000Z</time>
      </trkpt>
      <trkpt lat="47.55985" lon="5.93885">
        <ele>249</ele>
        <time>2014-03-09T12:28:05.000Z</time>
      </trkpt>
      <trkpt lat="47.55991" lon="5.93883">
        <ele>249</ele>
        <time>2014-03-09T12:28:07.000Z</time>
      </trkpt>
      <trkpt lat="47.56005" lon="5.93878">
        <ele>249</ele>
        <time>2014-03-09T12:28:12.000Z</time>
      </trkpt>
      <trkpt lat="47.56021" lon="5.93872">
        <ele>249</ele>
        <time>2014-03-09T12:28:17.000Z</time>
      </trkpt>
      <trkpt lat="47.56023" lon="5.93872">
        <ele>249</ele>
        <time>2014-03-09T12:28:18.000Z</time>
      </trkpt>
      <trkpt lat="47.56026" lon="5.93872">
        <ele>249</ele>
        <time>2014-03-09T12:28:20.000Z</time>
      </trkpt>
      <trkpt lat="47.56031" lon="5.93872">
        <ele>249</ele>
        <time>2014-03-09T12:28:34.000Z</time>
      </trkpt>
      <trkpt lat="47.56042" lon="5.93868">
        <ele>249</ele>
        <time>2014-03-09T12:28:38.000Z</time>
      </trkpt>
      <trkpt lat="47.5606" lon="5.93861">
        <ele>248.39999389648</ele>
        <time>2014-03-09T12:28:43.000Z</time>
      </trkpt>
      <trkpt lat="47.56064" lon="5.93859">
        <ele>248</ele>
        <time>2014-03-09T12:28:44.000Z</time>
      </trkpt>
      <trkpt lat="47.56067" lon="5.93857">
        <ele>247.60000610352</ele>
        <time>2014-03-09T12:28:45.000Z</time>
      </trkpt>
      <trkpt lat="47.5607" lon="5.93855">
        <ele>247.19999694824</ele>
        <time>2014-03-09T12:28:46.000Z</time>
      </trkpt>
      <trkpt lat="47.56072" lon="5.93855">
        <ele>246.80000305176</ele>
        <time>2014-03-09T12:28:47.000Z</time>
      </trkpt>
      <trkpt lat="47.56081" lon="5.93856">
        <ele>246.80000305176</ele>
        <time>2014-03-09T12:28:51.000Z</time>
      </trkpt>
      <trkpt lat="47.56092" lon="5.93852">
        <ele>246.80000305176</ele>
        <time>2014-03-09T12:28:56.000Z</time>
      </trkpt>
      <trkpt lat="47.56106" lon="5.93841">
        <ele>246.80000305176</ele>
        <time>2014-03-09T12:29:02.000Z</time>
      </trkpt>
      <trkpt lat="47.56116" lon="5.93838">
        <ele>246.80000305176</ele>
        <time>2014-03-09T12:29:06.000Z</time>
      </trkpt>
      <trkpt lat="47.56118" lon="5.93836">
        <ele>246.80000305176</ele>
        <time>2014-03-09T12:29:07.000Z</time>
      </trkpt>
      <trkpt lat="47.56134" lon="5.93825">
        <ele>246.80000305176</ele>
        <time>2014-03-09T12:29:13.000Z</time>
      </trkpt>
      <trkpt lat="47.56144" lon="5.9383">
        <ele>246.80000305176</ele>
        <time>2014-03-09T12:29:18.000Z</time>
      </trkpt>
      <trkpt lat="47.56157" lon="5.93835">
        <ele>246.80000305176</ele>
        <time>2014-03-09T12:29:22.000Z</time>
      </trkpt>
      <trkpt lat="47.56174" lon="5.93844">
        <ele>246.80000305176</ele>
        <time>2014-03-09T12:29:28.000Z</time>
      </trkpt>
      <trkpt lat="47.56182" lon="5.93849">
        <ele>246.80000305176</ele>
        <time>2014-03-09T12:29:32.000Z</time>
      </trkpt>
      <trkpt lat="47.56183" lon="5.93849">
        <ele>246.80000305176</ele>
        <time>2014-03-09T12:29:33.000Z</time>
      </trkpt>
      <trkpt lat="47.56189" lon="5.93849">
        <ele>246.80000305176</ele>
        <time>2014-03-09T12:29:36.000Z</time>
      </trkpt>
      <trkpt lat="47.56199" lon="5.93845">
        <ele>246.80000305176</ele>
        <time>2014-03-09T12:29:40.000Z</time>
      </trkpt>
      <trkpt lat="47.5621" lon="5.93843">
        <ele>246.80000305176</ele>
        <time>2014-03-09T12:29:46.000Z</time>
      </trkpt>
      <trkpt lat="47.56222" lon="5.93835">
        <ele>246.80000305176</ele>
        <time>2014-03-09T12:29:52.000Z</time>
      </trkpt>
      <trkpt lat="47.56231" lon="5.93842">
        <ele>246.80000305176</ele>
        <time>2014-03-09T12:29:57.000Z</time>
      </trkpt>
      <trkpt lat="47.56244" lon="5.93847">
        <ele>246.80000305176</ele>
        <time>2014-03-09T12:30:03.000Z</time>
      </trkpt>
      <trkpt lat="47.56251" lon="5.93853">
        <ele>246.80000305176</ele>
        <time>2014-03-09T12:30:07.000Z</time>
      </trkpt>
      <trkpt lat="47.56258" lon="5.93861">
        <ele>246.80000305176</ele>
        <time>2014-03-09T12:30:11.000Z</time>
      </trkpt>
      <trkpt lat="47.56259" lon="5.93864">
        <ele>246.80000305176</ele>
        <time>2014-03-09T12:30:12.000Z</time>
      </trkpt>
      <trkpt lat="47.56268" lon="5.93876">
        <ele>246.80000305176</ele>
        <time>2014-03-09T12:30:18.000Z</time>
      </trkpt>
      <trkpt lat="47.56276" lon="5.93892">
        <ele>246.80000305176</ele>
        <time>2014-03-09T12:30:25.000Z</time>
      </trkpt>
      <trkpt lat="47.56277" lon="5.93893">
        <ele>246.80000305176</ele>
        <time>2014-03-09T12:30:26.000Z</time>
      </trkpt>
      <trkpt lat="47.56283" lon="5.9389">
        <ele>246.80000305176</ele>
        <time>2014-03-09T12:30:29.000Z</time>
      </trkpt>
      <trkpt lat="47.56285" lon="5.93889">
        <ele>246.80000305176</ele>
        <time>2014-03-09T12:30:30.000Z</time>
      </trkpt>
      <trkpt lat="47.56294" lon="5.93881">
        <ele>246.80000305176</ele>
        <time>2014-03-09T12:30:35.000Z</time>
      </trkpt>
      <trkpt lat="47.56308" lon="5.9387">
        <ele>246.80000305176</ele>
        <time>2014-03-09T12:30:42.000Z</time>
      </trkpt>
      <trkpt lat="47.56317" lon="5.93859">
        <ele>247.19999694824</ele>
        <time>2014-03-09T12:30:48.000Z</time>
      </trkpt>
      <trkpt lat="47.56318" lon="5.93857">
        <ele>247.60000610352</ele>
        <time>2014-03-09T12:30:49.000Z</time>
      </trkpt>
      <trkpt lat="47.5632" lon="5.93854">
        <ele>248.19999694824</ele>
        <time>2014-03-09T12:30:50.000Z</time>
      </trkpt>
      <trkpt lat="47.56321" lon="5.93852">
        <ele>248.60000610352</ele>
        <time>2014-03-09T12:30:51.000Z</time>
      </trkpt>
      <trkpt lat="47.56323" lon="5.9385">
        <ele>249</ele>
        <time>2014-03-09T12:30:52.000Z</time>
      </trkpt>
      <trkpt lat="47.56328" lon="5.93844">
        <ele>249</ele>
        <time>2014-03-09T12:30:55.000Z</time>
      </trkpt>
      <trkpt lat="47.56337" lon="5.93832">
        <ele>249</ele>
        <time>2014-03-09T12:31:01.000Z</time>
      </trkpt>
      <trkpt lat="47.56344" lon="5.93824">
        <ele>249.39999389648</ele>
        <time>2014-03-09T12:31:05.000Z</time>
      </trkpt>
      <trkpt lat="47.56345" lon="5.93822">
        <ele>249.80000305176</ele>
        <time>2014-03-09T12:31:06.000Z</time>
      </trkpt>
      <trkpt lat="47.56347" lon="5.9382">
        <ele>250.19999694824</ele>
        <time>2014-03-09T12:31:07.000Z</time>
      </trkpt>
      <trkpt lat="47.56348" lon="5.93818">
        <ele>250.80000305176</ele>
        <time>2014-03-09T12:31:08.000Z</time>
      </trkpt>
      <trkpt lat="47.56349" lon="5.93816">
        <ele>251.19999694824</ele>
        <time>2014-03-09T12:31:09.000Z</time>
      </trkpt>
      <trkpt lat="47.56361" lon="5.93802">
        <ele>251.19999694824</ele>
        <time>2014-03-09T12:31:16.000Z</time>
      </trkpt>
      <trkpt lat="47.56371" lon="5.9379">
        <ele>251.19999694824</ele>
        <time>2014-03-09T12:31:22.000Z</time>
      </trkpt>
      <trkpt lat="47.56379" lon="5.93781">
        <ele>251.60000610352</ele>
        <time>2014-03-09T12:31:27.000Z</time>
      </trkpt>
      <trkpt lat="47.56381" lon="5.93778">
        <ele>252</ele>
        <time>2014-03-09T12:31:28.000Z</time>
      </trkpt>
      <trkpt lat="47.56383" lon="5.93776">
        <ele>252.39999389648</ele>
        <time>2014-03-09T12:31:29.000Z</time>
      </trkpt>
      <trkpt lat="47.56384" lon="5.93774">
        <ele>252.80000305176</ele>
        <time>2014-03-09T12:31:30.000Z</time>
      </trkpt>
      <trkpt lat="47.56386" lon="5.93772">
        <ele>253.19999694824</ele>
        <time>2014-03-09T12:31:31.000Z</time>
      </trkpt>
      <trkpt lat="47.56392" lon="5.93764">
        <ele>253.19999694824</ele>
        <time>2014-03-09T12:31:35.000Z</time>
      </trkpt>
      <trkpt lat="47.56404" lon="5.93749">
        <ele>253.19999694824</ele>
        <time>2014-03-09T12:31:41.000Z</time>
      </trkpt>
      <trkpt lat="47.56419" lon="5.9373">
        <ele>253.19999694824</ele>
        <time>2014-03-09T12:31:47.000Z</time>
      </trkpt>
      <trkpt lat="47.5643" lon="5.93736">
        <ele>253.19999694824</ele>
        <time>2014-03-09T12:31:50.000Z</time>
      </trkpt>
      <trkpt lat="47.5643" lon="5.93736">
        <ele>253.19999694824</ele>
        <time>2014-03-09T12:31:51.000Z</time>
      </trkpt>
      <trkpt lat="47.5644" lon="5.93766">
        <ele>253.19999694824</ele>
        <time>2014-03-09T12:31:57.000Z</time>
      </trkpt>
      <trkpt lat="47.56443" lon="5.93778">
        <ele>253.19999694824</ele>
        <time>2014-03-09T12:31:59.000Z</time>
      </trkpt>
      <trkpt lat="47.56451" lon="5.93796">
        <ele>253.19999694824</ele>
        <time>2014-03-09T12:32:02.000Z</time>
      </trkpt>
      <trkpt lat="47.56462" lon="5.93823">
        <ele>252.80000305176</ele>
        <time>2014-03-09T12:32:06.000Z</time>
      </trkpt>
      <trkpt lat="47.56465" lon="5.93829">
        <ele>252.19999694824</ele>
        <time>2014-03-09T12:32:07.000Z</time>
      </trkpt>
      <trkpt lat="47.56468" lon="5.93836">
        <ele>251.80000305176</ele>
        <time>2014-03-09T12:32:08.000Z</time>
      </trkpt>
      <trkpt lat="47.5647" lon="5.93843">
        <ele>251.39999389648</ele>
        <time>2014-03-09T12:32:09.000Z</time>
      </trkpt>
      <trkpt lat="47.56472" lon="5.9385">
        <ele>250.80000305176</ele>
        <time>2014-03-09T12:32:10.000Z</time>
      </trkpt>
      <trkpt lat="47.56476" lon="5.93859">
        <ele>250.80000305176</ele>
        <time>2014-03-09T12:32:12.000Z</time>
      </trkpt>
      <trkpt lat="47.56477" lon="5.93861">
        <ele>250.80000305176</ele>
        <time>2014-03-09T12:32:13.000Z</time>
      </trkpt>
      <trkpt lat="47.56479" lon="5.93865">
        <ele>250.80000305176</ele>
        <time>2014-03-09T12:33:34.000Z</time>
      </trkpt>
      <trkpt lat="47.5648" lon="5.93868">
        <ele>250.80000305176</ele>
        <time>2014-03-09T12:33:35.000Z</time>
      </trkpt>
      <trkpt lat="47.56488" lon="5.93886">
        <ele>250.80000305176</ele>
        <time>2014-03-09T12:33:39.000Z</time>
      </trkpt>
      <trkpt lat="47.56496" lon="5.93904">
        <ele>250.39999389648</ele>
        <time>2014-03-09T12:33:42.000Z</time>
      </trkpt>
      <trkpt lat="47.56505" lon="5.93929">
        <ele>248.80000305176</ele>
        <time>2014-03-09T12:33:43.000Z</time>
      </trkpt>
      <trkpt lat="47.56505" lon="5.93929">
        <ele>248.80000305176</ele>
        <time>2014-03-09T12:33:46.000Z</time>
      </trkpt>
      <trkpt lat="47.5653" lon="5.93999">
        <ele>247.19999694824</ele>
        <time>2014-03-09T12:33:54.000Z</time>
      </trkpt>
      <trkpt lat="47.56532" lon="5.94006">
        <ele>246.80000305176</ele>
        <time>2014-03-09T12:33:58.000Z</time>
      </trkpt>
      <trkpt lat="47.56534" lon="5.94013">
        <ele>246.39999389648</ele>
        <time>2014-03-09T12:33:59.000Z</time>
      </trkpt>
      <trkpt lat="47.56536" lon="5.94019">
        <ele>246.39999389648</ele>
        <time>2014-03-09T12:34:00.000Z</time>
      </trkpt>
      <trkpt lat="47.56538" lon="5.94026">
        <ele>246.39999389648</ele>
        <time>2014-03-09T12:34:01.000Z</time>
      </trkpt>
      <trkpt lat="47.56539" lon="5.94033">
        <ele>247</ele>
        <time>2014-03-09T12:34:02.000Z</time>
      </trkpt>
      <trkpt lat="47.56542" lon="5.9404">
        <ele>247.39999389648</ele>
        <time>2014-03-09T12:34:03.000Z</time>
      </trkpt>
      <trkpt lat="47.56543" lon="5.94047">
        <ele>247.39999389648</ele>
        <time>2014-03-09T12:34:04.000Z</time>
      </trkpt>
      <trkpt lat="47.56546" lon="5.94054">
        <ele>247.19999694824</ele>
        <time>2014-03-09T12:34:05.000Z</time>
      </trkpt>
      <trkpt lat="47.56548" lon="5.94062">
        <ele>247</ele>
        <time>2014-03-09T12:34:06.000Z</time>
      </trkpt>
      <trkpt lat="47.5655" lon="5.94069">
        <ele>246.80000305176</ele>
        <time>2014-03-09T12:34:07.000Z</time>
      </trkpt>
      <trkpt lat="47.56552" lon="5.94077">
        <ele>246.80000305176</ele>
        <time>2014-03-09T12:34:08.000Z</time>
      </trkpt>
      <trkpt lat="47.56558" lon="5.94101">
        <ele>246.80000305176</ele>
        <time>2014-03-09T12:34:11.000Z</time>
      </trkpt>
      <trkpt lat="47.56563" lon="5.94117">
        <ele>246.80000305176</ele>
        <time>2014-03-09T12:34:13.000Z</time>
      </trkpt>
      <trkpt lat="47.56571" lon="5.94139">
        <ele>246.80000305176</ele>
        <time>2014-03-09T12:34:16.000Z</time>
      </trkpt>
      <trkpt lat="47.56573" lon="5.94147">
        <ele>246.39999389648</ele>
        <time>2014-03-09T12:34:17.000Z</time>
      </trkpt>
      <trkpt lat="47.56575" lon="5.94155">
        <ele>246</ele>
        <time>2014-03-09T12:34:18.000Z</time>
      </trkpt>
      <trkpt lat="47.56577" lon="5.94162">
        <ele>245.60000610352</ele>
        <time>2014-03-09T12:34:19.000Z</time>
      </trkpt>
      <trkpt lat="47.56579" lon="5.9417">
        <ele>245.19999694824</ele>
        <time>2014-03-09T12:34:20.000Z</time>
      </trkpt>
      <trkpt lat="47.56581" lon="5.94178">
        <ele>244.80000305176</ele>
        <time>2014-03-09T12:34:21.000Z</time>
      </trkpt>
      <trkpt lat="47.56591" lon="5.94208">
        <ele>244.80000305176</ele>
        <time>2014-03-09T12:34:25.000Z</time>
      </trkpt>
      <trkpt lat="47.56598" lon="5.9422">
        <ele>244.80000305176</ele>
        <time>2014-03-09T12:34:27.000Z</time>
      </trkpt>
      <trkpt lat="47.56617" lon="5.94231">
        <ele>244.80000305176</ele>
        <time>2014-03-09T12:34:31.000Z</time>
      </trkpt>
      <trkpt lat="47.56635" lon="5.94245">
        <ele>244.80000305176</ele>
        <time>2014-03-09T12:34:35.000Z</time>
      </trkpt>
      <trkpt lat="47.56642" lon="5.94258">
        <ele>244.80000305176</ele>
        <time>2014-03-09T12:34:37.000Z</time>
      </trkpt>
      <trkpt lat="47.56655" lon="5.94286">
        <ele>244.80000305176</ele>
        <time>2014-03-09T12:34:41.000Z</time>
      </trkpt>
      <trkpt lat="47.56674" lon="5.9432">
        <ele>244.39999389648</ele>
        <time>2014-03-09T12:34:46.000Z</time>
      </trkpt>
      <trkpt lat="47.56678" lon="5.94326">
        <ele>243.80000305176</ele>
        <time>2014-03-09T12:34:47.000Z</time>
      </trkpt>
      <trkpt lat="47.56682" lon="5.94332">
        <ele>243.39999389648</ele>
        <time>2014-03-09T12:34:48.000Z</time>
      </trkpt>
      <trkpt lat="47.56686" lon="5.94338">
        <ele>243</ele>
        <time>2014-03-09T12:34:49.000Z</time>
      </trkpt>
      <trkpt lat="47.56691" lon="5.94344">
        <ele>242.60000610352</ele>
        <time>2014-03-09T12:34:50.000Z</time>
      </trkpt>
      <trkpt lat="47.56714" lon="5.94372">
        <ele>242.60000610352</ele>
        <time>2014-03-09T12:34:55.000Z</time>
      </trkpt>
      <trkpt lat="47.5672" lon="5.94376">
        <ele>242.60000610352</ele>
        <time>2014-03-09T12:34:56.000Z</time>
      </trkpt>
      <trkpt lat="47.56745" lon="5.94399">
        <ele>242.60000610352</ele>
        <time>2014-03-09T12:35:01.000Z</time>
      </trkpt>
      <trkpt lat="47.56752" lon="5.94421">
        <ele>242.19999694824</ele>
        <time>2014-03-09T12:35:04.000Z</time>
      </trkpt>
      <trkpt lat="47.56753" lon="5.94428">
        <ele>241.80000305176</ele>
        <time>2014-03-09T12:35:05.000Z</time>
      </trkpt>
      <trkpt lat="47.56754" lon="5.94434">
        <ele>241</ele>
        <time>2014-03-09T12:35:06.000Z</time>
      </trkpt>
      <trkpt lat="47.56755" lon="5.94441">
        <ele>240.60000610352</ele>
        <time>2014-03-09T12:35:07.000Z</time>
      </trkpt>
      <trkpt lat="47.5676" lon="5.94473">
        <ele>240.60000610352</ele>
        <time>2014-03-09T12:35:12.000Z</time>
      </trkpt>
      <trkpt lat="47.56771" lon="5.94537">
        <ele>240.60000610352</ele>
        <time>2014-03-09T12:35:21.000Z</time>
      </trkpt>
      <trkpt lat="47.56783" lon="5.946">
        <ele>240.60000610352</ele>
        <time>2014-03-09T12:35:30.000Z</time>
      </trkpt>
      <trkpt lat="47.56794" lon="5.94663">
        <ele>240.60000610352</ele>
        <time>2014-03-09T12:35:39.000Z</time>
      </trkpt>
      <trkpt lat="47.56801" lon="5.94707">
        <ele>240.60000610352</ele>
        <time>2014-03-09T12:35:46.000Z</time>
      </trkpt>
      <trkpt lat="47.56803" lon="5.94713">
        <ele>240.60000610352</ele>
        <time>2014-03-09T12:35:47.000Z</time>
      </trkpt>
      <trkpt lat="47.56808" lon="5.9474">
        <ele>241</ele>
        <time>2014-03-09T12:35:53.000Z</time>
      </trkpt>
      <trkpt lat="47.56808" lon="5.94743">
        <ele>241.39999389648</ele>
        <time>2014-03-09T12:35:54.000Z</time>
      </trkpt>
      <trkpt lat="47.56809" lon="5.94744">
        <ele>241.80000305176</ele>
        <time>2014-03-09T12:35:55.000Z</time>
      </trkpt>
      <trkpt lat="47.5681" lon="5.94746">
        <ele>242.60000610352</ele>
        <time>2014-03-09T12:35:56.000Z</time>
      </trkpt>
      <trkpt lat="47.56814" lon="5.94747">
        <ele>242.60000610352</ele>
        <time>2014-03-09T12:36:01.000Z</time>
      </trkpt>
      <trkpt lat="47.56815" lon="5.94749">
        <ele>242.60000610352</ele>
        <time>2014-03-09T12:36:02.000Z</time>
      </trkpt>
      <trkpt lat="47.56825" lon="5.94761">
        <ele>242.60000610352</ele>
        <time>2014-03-09T12:36:08.000Z</time>
      </trkpt>
      <trkpt lat="47.5683" lon="5.94771">
        <ele>242.60000610352</ele>
        <time>2014-03-09T12:36:12.000Z</time>
      </trkpt>
      <trkpt lat="47.56836" lon="5.94789">
        <ele>242.60000610352</ele>
        <time>2014-03-09T12:36:17.000Z</time>
      </trkpt>
      <trkpt lat="47.56837" lon="5.94796">
        <ele>242.60000610352</ele>
        <time>2014-03-09T12:36:20.000Z</time>
      </trkpt>
      <trkpt lat="47.56837" lon="5.94798">
        <ele>242.60000610352</ele>
        <time>2014-03-09T12:36:28.000Z</time>
      </trkpt>
      <trkpt lat="47.56841" lon="5.94817">
        <ele>242.60000610352</ele>
        <time>2014-03-09T12:36:33.000Z</time>
      </trkpt>
      <trkpt lat="47.5685" lon="5.94845">
        <ele>242.60000610352</ele>
        <time>2014-03-09T12:36:40.000Z</time>
      </trkpt>
      <trkpt lat="47.56852" lon="5.94852">
        <ele>242.19999694824</ele>
        <time>2014-03-09T12:36:42.000Z</time>
      </trkpt>
      <trkpt lat="47.56853" lon="5.94856">
        <ele>241.80000305176</ele>
        <time>2014-03-09T12:36:43.000Z</time>
      </trkpt>
      <trkpt lat="47.56854" lon="5.94861">
        <ele>241.39999389648</ele>
        <time>2014-03-09T12:36:44.000Z</time>
      </trkpt>
      <trkpt lat="47.56855" lon="5.94865">
        <ele>240.60000610352</ele>
        <time>2014-03-09T12:36:45.000Z</time>
      </trkpt>
      <trkpt lat="47.5686" lon="5.94896">
        <ele>240.60000610352</ele>
        <time>2014-03-09T12:36:52.000Z</time>
      </trkpt>
      <trkpt lat="47.56866" lon="5.94916">
        <ele>240.60000610352</ele>
        <time>2014-03-09T12:36:58.000Z</time>
      </trkpt>
      <trkpt lat="47.56867" lon="5.94918">
        <ele>240.60000610352</ele>
        <time>2014-03-09T12:36:59.000Z</time>
      </trkpt>
      <trkpt lat="47.56871" lon="5.94929">
        <ele>240.60000610352</ele>
        <time>2014-03-09T12:37:03.000Z</time>
      </trkpt>
      <trkpt lat="47.56879" lon="5.94943">
        <ele>240.60000610352</ele>
        <time>2014-03-09T12:37:08.000Z</time>
      </trkpt>
      <trkpt lat="47.56888" lon="5.94959">
        <ele>240.60000610352</ele>
        <time>2014-03-09T12:37:13.000Z</time>
      </trkpt>
      <trkpt lat="47.56891" lon="5.9496">
        <ele>240.19999694824</ele>
        <time>2014-03-09T12:37:14.000Z</time>
      </trkpt>
      <trkpt lat="47.56894" lon="5.94962">
        <ele>239.80000305176</ele>
        <time>2014-03-09T12:37:15.000Z</time>
      </trkpt>
      <trkpt lat="47.56896" lon="5.94963">
        <ele>239.39999389648</ele>
        <time>2014-03-09T12:37:16.000Z</time>
      </trkpt>
      <trkpt lat="47.56898" lon="5.94965">
        <ele>239</ele>
        <time>2014-03-09T12:37:17.000Z</time>
      </trkpt>
      <trkpt lat="47.569" lon="5.94968">
        <ele>238.60000610352</ele>
        <time>2014-03-09T12:37:18.000Z</time>
      </trkpt>
      <trkpt lat="47.56911" lon="5.9498">
        <ele>238.60000610352</ele>
        <time>2014-03-09T12:37:22.000Z</time>
      </trkpt>
      <trkpt lat="47.56925" lon="5.94994">
        <ele>238.19999694824</ele>
        <time>2014-03-09T12:37:27.000Z</time>
      </trkpt>
      <trkpt lat="47.56928" lon="5.94997">
        <ele>237.80000305176</ele>
        <time>2014-03-09T12:37:28.000Z</time>
      </trkpt>
      <trkpt lat="47.5693" lon="5.95">
        <ele>237.39999389648</ele>
        <time>2014-03-09T12:37:29.000Z</time>
      </trkpt>
      <trkpt lat="47.56932" lon="5.95004">
        <ele>237</ele>
        <time>2014-03-09T12:37:30.000Z</time>
      </trkpt>
      <trkpt lat="47.56933" lon="5.95008">
        <ele>236.60000610352</ele>
        <time>2014-03-09T12:37:31.000Z</time>
      </trkpt>
      <trkpt lat="47.56937" lon="5.95024">
        <ele>236.60000610352</ele>
        <time>2014-03-09T12:37:35.000Z</time>
      </trkpt>
      <trkpt lat="47.56935" lon="5.95027">
        <ele>236.60000610352</ele>
        <time>2014-03-09T12:37:36.000Z</time>
      </trkpt>
      <trkpt lat="47.5693" lon="5.95025">
        <ele>236.60000610352</ele>
        <time>2014-03-09T12:37:39.000Z</time>
      </trkpt>
      <trkpt lat="47.5693" lon="5.95024">
        <ele>236.60000610352</ele>
        <time>2014-03-09T12:37:40.000Z</time>
      </trkpt>
    </trkseg>
  </trk>
</gpx>